<?xml version="1.0" encoding="UTF-8" standalone="no" ?>
<gpx xmlns="http://www.topografix.com/GPX/1/1" xmlns:xsi="http://www.w3.org/2001/XMLSchema-instance" xsi:schemaLocation="http://www.topografix.com/GPX/1/1 http://www.topografix.com/GPX/1/1/gpx.xsd" version="1.1" creator="VisuGPX - https://www.visugpx.com">
  <metadata>
    <name>Sans Velo</name>
    <desc><![CDATA[Dans la neige au soleil couchant]]></desc>
  </metadata>
  <wpt lat="47.53331" lon="6.77295">
    <ele>378.1</ele>
    <name><![CDATA[Point de cheminement 1]]></name>
    <desc><![CDATA[]]></desc>
  </wpt>
  <wpt lat="47.53968" lon="6.75456">
    <ele>442.5</ele>
    <name><![CDATA[Point de cheminement 2]]></name>
    <desc><![CDATA[]]></desc>
  </wpt>
  <wpt lat="47.52698" lon="6.75912">
    <ele>367.4</ele>
    <name><![CDATA[Point de cheminement 3]]></name>
    <desc><![CDATA[]]></desc>
  </wpt>
  <wpt lat="47.51753" lon="6.77329">
    <ele>386.6</ele>
    <name><![CDATA[Point de cheminement 4]]></name>
    <desc><![CDATA[]]></desc>
  </wpt>
  <wpt lat="47.51799" lon="6.77479">
    <ele>388.2</ele>
    <name><![CDATA[Point de cheminement 5]]></name>
    <desc><![CDATA[]]></desc>
  </wpt>
  <trk>
    <name><![CDATA[Rue Antoine Coysevox]]></name>
    <desc><![CDATA[]]></desc>
    <trkseg>
      <trkpt lat="47.51815" lon="6.77476">
        <ele>399.5</ele>
        <time>2016-01-21T15:34:39.000Z</time>
      </trkpt>
      <trkpt lat="47.51814" lon="6.77476">
        <ele>398.4</ele>
        <time>2016-01-21T15:35:15.000Z</time>
      </trkpt>
      <trkpt lat="47.51802" lon="6.77483">
        <ele>393.6</ele>
        <time>2016-01-21T15:35:16.000Z</time>
      </trkpt>
      <trkpt lat="47.51803" lon="6.77487">
        <ele>387.5</ele>
        <time>2016-01-21T15:35:22.000Z</time>
      </trkpt>
      <trkpt lat="47.51806" lon="6.7749">
        <ele>387.9</ele>
        <time>2016-01-21T15:35:23.000Z</time>
      </trkpt>
      <trkpt lat="47.5181" lon="6.77493">
        <ele>389.2</ele>
        <time>2016-01-21T15:35:24.999Z</time>
      </trkpt>
      <trkpt lat="47.51813" lon="6.77493">
        <ele>390.1</ele>
        <time>2016-01-21T15:35:26.000Z</time>
      </trkpt>
      <trkpt lat="47.51815" lon="6.77493">
        <ele>392.9</ele>
        <time>2016-01-21T15:35:27.000Z</time>
      </trkpt>
      <trkpt lat="47.51818" lon="6.77493">
        <ele>392.8</ele>
        <time>2016-01-21T15:35:28.000Z</time>
      </trkpt>
      <trkpt lat="47.51821" lon="6.77493">
        <ele>391.5</ele>
        <time>2016-01-21T15:35:29.000Z</time>
      </trkpt>
      <trkpt lat="47.51824" lon="6.77493">
        <ele>391.5</ele>
        <time>2016-01-21T15:35:30.000Z</time>
      </trkpt>
      <trkpt lat="47.51827" lon="6.77493">
        <ele>391.7</ele>
        <time>2016-01-21T15:35:31.000Z</time>
      </trkpt>
      <trkpt lat="47.5183" lon="6.77494">
        <ele>392.3</ele>
        <time>2016-01-21T15:35:32.000Z</time>
      </trkpt>
      <trkpt lat="47.51833" lon="6.77495">
        <ele>392.3</ele>
        <time>2016-01-21T15:35:33.000Z</time>
      </trkpt>
      <trkpt lat="47.51836" lon="6.77495">
        <ele>392.6</ele>
        <time>2016-01-21T15:35:34.000Z</time>
      </trkpt>
      <trkpt lat="47.51838" lon="6.77496">
        <ele>391.6</ele>
        <time>2016-01-21T15:35:35.000Z</time>
      </trkpt>
      <trkpt lat="47.51841" lon="6.77496">
        <ele>390.9</ele>
        <time>2016-01-21T15:35:36.000Z</time>
      </trkpt>
      <trkpt lat="47.51844" lon="6.77497">
        <ele>391.3</ele>
        <time>2016-01-21T15:35:37.000Z</time>
      </trkpt>
      <trkpt lat="47.51847" lon="6.77497">
        <ele>393.2</ele>
        <time>2016-01-21T15:35:38.000Z</time>
      </trkpt>
      <trkpt lat="47.5185" lon="6.77496">
        <ele>393.8</ele>
        <time>2016-01-21T15:35:39.000Z</time>
      </trkpt>
      <trkpt lat="47.51853" lon="6.77496">
        <ele>394.5</ele>
        <time>2016-01-21T15:35:40.000Z</time>
      </trkpt>
      <trkpt lat="47.51856" lon="6.77495">
        <ele>394.5</ele>
        <time>2016-01-21T15:35:41.000Z</time>
      </trkpt>
      <trkpt lat="47.51859" lon="6.77494">
        <ele>394.6</ele>
        <time>2016-01-21T15:35:42.000Z</time>
      </trkpt>
      <trkpt lat="47.51862" lon="6.77494">
        <ele>394.5</ele>
        <time>2016-01-21T15:35:43.000Z</time>
      </trkpt>
      <trkpt lat="47.51865" lon="6.77495">
        <ele>395.2</ele>
        <time>2016-01-21T15:35:44.000Z</time>
      </trkpt>
      <trkpt lat="47.51867" lon="6.77495">
        <ele>394.9</ele>
        <time>2016-01-21T15:35:45.000Z</time>
      </trkpt>
      <trkpt lat="47.5187" lon="6.77496">
        <ele>395.6</ele>
        <time>2016-01-21T15:35:46.000Z</time>
      </trkpt>
      <trkpt lat="47.51873" lon="6.77496">
        <ele>395.6</ele>
        <time>2016-01-21T15:35:47.000Z</time>
      </trkpt>
      <trkpt lat="47.51875" lon="6.77496">
        <ele>395.7</ele>
        <time>2016-01-21T15:35:48.000Z</time>
      </trkpt>
      <trkpt lat="47.51878" lon="6.77496">
        <ele>394.6</ele>
        <time>2016-01-21T15:35:49.000Z</time>
      </trkpt>
      <trkpt lat="47.51881" lon="6.77497">
        <ele>394.3</ele>
        <time>2016-01-21T15:35:50.000Z</time>
      </trkpt>
      <trkpt lat="47.51883" lon="6.77497">
        <ele>393.4</ele>
        <time>2016-01-21T15:35:51.000Z</time>
      </trkpt>
      <trkpt lat="47.51886" lon="6.77498">
        <ele>393.9</ele>
        <time>2016-01-21T15:35:52.000Z</time>
      </trkpt>
      <trkpt lat="47.51889" lon="6.775">
        <ele>393.3</ele>
        <time>2016-01-21T15:35:53.000Z</time>
      </trkpt>
      <trkpt lat="47.51892" lon="6.77502">
        <ele>394.3</ele>
        <time>2016-01-21T15:35:54.000Z</time>
      </trkpt>
      <trkpt lat="47.51895" lon="6.77504">
        <ele>394.9</ele>
        <time>2016-01-21T15:35:55.000Z</time>
      </trkpt>
      <trkpt lat="47.51898" lon="6.77505">
        <ele>395.4</ele>
        <time>2016-01-21T15:35:56.000Z</time>
      </trkpt>
      <trkpt lat="47.51901" lon="6.77505">
        <ele>395</ele>
        <time>2016-01-21T15:35:57.000Z</time>
      </trkpt>
      <trkpt lat="47.51904" lon="6.77506">
        <ele>394.7</ele>
        <time>2016-01-21T15:35:58.000Z</time>
      </trkpt>
      <trkpt lat="47.51907" lon="6.77507">
        <ele>394.5</ele>
        <time>2016-01-21T15:35:59.000Z</time>
      </trkpt>
      <trkpt lat="47.5191" lon="6.77509">
        <ele>394.3</ele>
        <time>2016-01-21T15:36:00.000Z</time>
      </trkpt>
      <trkpt lat="47.51913" lon="6.7751">
        <ele>394.6</ele>
        <time>2016-01-21T15:36:01.000Z</time>
      </trkpt>
      <trkpt lat="47.51916" lon="6.77511">
        <ele>394.4</ele>
        <time>2016-01-21T15:36:02.000Z</time>
      </trkpt>
      <trkpt lat="47.51918" lon="6.77512">
        <ele>394.5</ele>
        <time>2016-01-21T15:36:03.000Z</time>
      </trkpt>
      <trkpt lat="47.51921" lon="6.77513">
        <ele>395</ele>
        <time>2016-01-21T15:36:04.000Z</time>
      </trkpt>
      <trkpt lat="47.51925" lon="6.77513">
        <ele>396.4</ele>
        <time>2016-01-21T15:36:06.000Z</time>
      </trkpt>
      <trkpt lat="47.51927" lon="6.77513">
        <ele>396.4</ele>
        <time>2016-01-21T15:36:07.000Z</time>
      </trkpt>
      <trkpt lat="47.5193" lon="6.77513">
        <ele>397.7</ele>
        <time>2016-01-21T15:36:08.000Z</time>
      </trkpt>
      <trkpt lat="47.51934" lon="6.77513">
        <ele>398.1</ele>
        <time>2016-01-21T15:36:09.000Z</time>
      </trkpt>
      <trkpt lat="47.51937" lon="6.77513">
        <ele>398.5</ele>
        <time>2016-01-21T15:36:10.000Z</time>
      </trkpt>
      <trkpt lat="47.51941" lon="6.77513">
        <ele>398.4</ele>
        <time>2016-01-21T15:36:11.000Z</time>
      </trkpt>
      <trkpt lat="47.51944" lon="6.77514">
        <ele>398.2</ele>
        <time>2016-01-21T15:36:12.000Z</time>
      </trkpt>
      <trkpt lat="47.51947" lon="6.77514">
        <ele>397.5</ele>
        <time>2016-01-21T15:36:13.000Z</time>
      </trkpt>
      <trkpt lat="47.5195" lon="6.77514">
        <ele>397.4</ele>
        <time>2016-01-21T15:36:14.000Z</time>
      </trkpt>
      <trkpt lat="47.51953" lon="6.77515">
        <ele>396.8</ele>
        <time>2016-01-21T15:36:15.000Z</time>
      </trkpt>
      <trkpt lat="47.51956" lon="6.77515">
        <ele>396.9</ele>
        <time>2016-01-21T15:36:16.000Z</time>
      </trkpt>
      <trkpt lat="47.51959" lon="6.77515">
        <ele>395.8</ele>
        <time>2016-01-21T15:36:17.000Z</time>
      </trkpt>
      <trkpt lat="47.51962" lon="6.77516">
        <ele>395.9</ele>
        <time>2016-01-21T15:36:18.000Z</time>
      </trkpt>
      <trkpt lat="47.51964" lon="6.77517">
        <ele>395.7</ele>
        <time>2016-01-21T15:36:19.000Z</time>
      </trkpt>
      <trkpt lat="47.51966" lon="6.77518">
        <ele>395.3</ele>
        <time>2016-01-21T15:36:20.000Z</time>
      </trkpt>
      <trkpt lat="47.51969" lon="6.77519">
        <ele>396.6</ele>
        <time>2016-01-21T15:36:21.000Z</time>
      </trkpt>
      <trkpt lat="47.51971" lon="6.7752">
        <ele>396.3</ele>
        <time>2016-01-21T15:36:22.000Z</time>
      </trkpt>
      <trkpt lat="47.51973" lon="6.7752">
        <ele>396.5</ele>
        <time>2016-01-21T15:36:23.000Z</time>
      </trkpt>
      <trkpt lat="47.51976" lon="6.77521">
        <ele>396.6</ele>
        <time>2016-01-21T15:36:24.000Z</time>
      </trkpt>
      <trkpt lat="47.51978" lon="6.77521">
        <ele>397.1</ele>
        <time>2016-01-21T15:36:25.000Z</time>
      </trkpt>
      <trkpt lat="47.51981" lon="6.77521">
        <ele>397.2</ele>
        <time>2016-01-21T15:36:26.000Z</time>
      </trkpt>
      <trkpt lat="47.51984" lon="6.77521">
        <ele>400.2</ele>
        <time>2016-01-21T15:36:27.000Z</time>
      </trkpt>
      <trkpt lat="47.51987" lon="6.77521">
        <ele>400.2</ele>
        <time>2016-01-21T15:36:28.000Z</time>
      </trkpt>
      <trkpt lat="47.51991" lon="6.77521">
        <ele>399.9</ele>
        <time>2016-01-21T15:36:29.000Z</time>
      </trkpt>
      <trkpt lat="47.51994" lon="6.77521">
        <ele>399.5</ele>
        <time>2016-01-21T15:36:30.000Z</time>
      </trkpt>
      <trkpt lat="47.51996" lon="6.77522">
        <ele>399.8</ele>
        <time>2016-01-21T15:36:31.000Z</time>
      </trkpt>
      <trkpt lat="47.51999" lon="6.77523">
        <ele>399.9</ele>
        <time>2016-01-21T15:36:32.000Z</time>
      </trkpt>
      <trkpt lat="47.52001" lon="6.77524">
        <ele>400.1</ele>
        <time>2016-01-21T15:36:33.000Z</time>
      </trkpt>
      <trkpt lat="47.52003" lon="6.77525">
        <ele>399.7</ele>
        <time>2016-01-21T15:36:34.000Z</time>
      </trkpt>
      <trkpt lat="47.52005" lon="6.77526">
        <ele>399.8</ele>
        <time>2016-01-21T15:36:35.000Z</time>
      </trkpt>
      <trkpt lat="47.52007" lon="6.77526">
        <ele>399.8</ele>
        <time>2016-01-21T15:36:36.000Z</time>
      </trkpt>
      <trkpt lat="47.5201" lon="6.77527">
        <ele>400</ele>
        <time>2016-01-21T15:36:37.000Z</time>
      </trkpt>
      <trkpt lat="47.52012" lon="6.77528">
        <ele>399.2</ele>
        <time>2016-01-21T15:36:38.000Z</time>
      </trkpt>
      <trkpt lat="47.52015" lon="6.77529">
        <ele>396.2</ele>
        <time>2016-01-21T15:36:39.000Z</time>
      </trkpt>
      <trkpt lat="47.52018" lon="6.7753">
        <ele>396.6</ele>
        <time>2016-01-21T15:36:40.000Z</time>
      </trkpt>
      <trkpt lat="47.52021" lon="6.77531">
        <ele>396.7</ele>
        <time>2016-01-21T15:36:41.000Z</time>
      </trkpt>
      <trkpt lat="47.52024" lon="6.77532">
        <ele>396.5</ele>
        <time>2016-01-21T15:36:42.000Z</time>
      </trkpt>
      <trkpt lat="47.52026" lon="6.77532">
        <ele>395.3</ele>
        <time>2016-01-21T15:36:43.000Z</time>
      </trkpt>
      <trkpt lat="47.52029" lon="6.77532">
        <ele>394.5</ele>
        <time>2016-01-21T15:36:44.000Z</time>
      </trkpt>
      <trkpt lat="47.52031" lon="6.77532">
        <ele>394.9</ele>
        <time>2016-01-21T15:36:45.000Z</time>
      </trkpt>
      <trkpt lat="47.52034" lon="6.77532">
        <ele>394.7</ele>
        <time>2016-01-21T15:36:46.000Z</time>
      </trkpt>
      <trkpt lat="47.52036" lon="6.77532">
        <ele>394.9</ele>
        <time>2016-01-21T15:36:47.000Z</time>
      </trkpt>
      <trkpt lat="47.52039" lon="6.77533">
        <ele>393.7</ele>
        <time>2016-01-21T15:36:48.000Z</time>
      </trkpt>
      <trkpt lat="47.52042" lon="6.77534">
        <ele>393</ele>
        <time>2016-01-21T15:36:49.000Z</time>
      </trkpt>
      <trkpt lat="47.52045" lon="6.77535">
        <ele>392.6</ele>
        <time>2016-01-21T15:36:50.000Z</time>
      </trkpt>
      <trkpt lat="47.52048" lon="6.77537">
        <ele>392.9</ele>
        <time>2016-01-21T15:36:51.000Z</time>
      </trkpt>
      <trkpt lat="47.5205" lon="6.77537">
        <ele>392.6</ele>
        <time>2016-01-21T15:36:52.000Z</time>
      </trkpt>
      <trkpt lat="47.52053" lon="6.77538">
        <ele>392.5</ele>
        <time>2016-01-21T15:36:53.000Z</time>
      </trkpt>
      <trkpt lat="47.52055" lon="6.77539">
        <ele>392.1</ele>
        <time>2016-01-21T15:36:54.000Z</time>
      </trkpt>
      <trkpt lat="47.52058" lon="6.77539">
        <ele>392.5</ele>
        <time>2016-01-21T15:36:55.000Z</time>
      </trkpt>
      <trkpt lat="47.5206" lon="6.7754">
        <ele>391.9</ele>
        <time>2016-01-21T15:36:56.000Z</time>
      </trkpt>
      <trkpt lat="47.52063" lon="6.77542">
        <ele>391.8</ele>
        <time>2016-01-21T15:36:57.000Z</time>
      </trkpt>
      <trkpt lat="47.52065" lon="6.77543">
        <ele>391.3</ele>
        <time>2016-01-21T15:36:58.000Z</time>
      </trkpt>
      <trkpt lat="47.52068" lon="6.77543">
        <ele>391.7</ele>
        <time>2016-01-21T15:36:59.000Z</time>
      </trkpt>
      <trkpt lat="47.52071" lon="6.77543">
        <ele>391.7</ele>
        <time>2016-01-21T15:37:00.000Z</time>
      </trkpt>
      <trkpt lat="47.52073" lon="6.77544">
        <ele>391.2</ele>
        <time>2016-01-21T15:37:01.000Z</time>
      </trkpt>
      <trkpt lat="47.52076" lon="6.77545">
        <ele>391.7</ele>
        <time>2016-01-21T15:37:02.000Z</time>
      </trkpt>
      <trkpt lat="47.52078" lon="6.77545">
        <ele>391.4</ele>
        <time>2016-01-21T15:37:03.000Z</time>
      </trkpt>
      <trkpt lat="47.52081" lon="6.77546">
        <ele>391.5</ele>
        <time>2016-01-21T15:37:04.000Z</time>
      </trkpt>
      <trkpt lat="47.52083" lon="6.77547">
        <ele>390.8</ele>
        <time>2016-01-21T15:37:05.000Z</time>
      </trkpt>
      <trkpt lat="47.52085" lon="6.77548">
        <ele>390.7</ele>
        <time>2016-01-21T15:37:06.000Z</time>
      </trkpt>
      <trkpt lat="47.52088" lon="6.77551">
        <ele>390.7</ele>
        <time>2016-01-21T15:37:07.000Z</time>
      </trkpt>
      <trkpt lat="47.5209" lon="6.77555">
        <ele>391.9</ele>
        <time>2016-01-21T15:37:08.000Z</time>
      </trkpt>
      <trkpt lat="47.52092" lon="6.77559">
        <ele>391.3</ele>
        <time>2016-01-21T15:37:09.000Z</time>
      </trkpt>
      <trkpt lat="47.52093" lon="6.77563">
        <ele>391.1</ele>
        <time>2016-01-21T15:37:10.000Z</time>
      </trkpt>
      <trkpt lat="47.52095" lon="6.77569">
        <ele>392.4</ele>
        <time>2016-01-21T15:37:11.000Z</time>
      </trkpt>
      <trkpt lat="47.52096" lon="6.77574">
        <ele>392.5</ele>
        <time>2016-01-21T15:37:12.000Z</time>
      </trkpt>
      <trkpt lat="47.52096" lon="6.7758">
        <ele>392.3</ele>
        <time>2016-01-21T15:37:13.000Z</time>
      </trkpt>
      <trkpt lat="47.52097" lon="6.77585">
        <ele>392.2</ele>
        <time>2016-01-21T15:37:14.000Z</time>
      </trkpt>
      <trkpt lat="47.52097" lon="6.7759">
        <ele>392.3</ele>
        <time>2016-01-21T15:37:15.000Z</time>
      </trkpt>
      <trkpt lat="47.52097" lon="6.77594">
        <ele>392</ele>
        <time>2016-01-21T15:37:16.000Z</time>
      </trkpt>
      <trkpt lat="47.52097" lon="6.77599">
        <ele>391.4</ele>
        <time>2016-01-21T15:37:17.000Z</time>
      </trkpt>
      <trkpt lat="47.52097" lon="6.77603">
        <ele>391.1</ele>
        <time>2016-01-21T15:37:18.000Z</time>
      </trkpt>
      <trkpt lat="47.52096" lon="6.77607">
        <ele>390.5</ele>
        <time>2016-01-21T15:37:19.000Z</time>
      </trkpt>
      <trkpt lat="47.52096" lon="6.77612">
        <ele>390</ele>
        <time>2016-01-21T15:37:20.000Z</time>
      </trkpt>
      <trkpt lat="47.52096" lon="6.77617">
        <ele>390.3</ele>
        <time>2016-01-21T15:37:21.000Z</time>
      </trkpt>
      <trkpt lat="47.52096" lon="6.77622">
        <ele>389.8</ele>
        <time>2016-01-21T15:37:22.000Z</time>
      </trkpt>
      <trkpt lat="47.52096" lon="6.77626">
        <ele>390.5</ele>
        <time>2016-01-21T15:37:23.000Z</time>
      </trkpt>
      <trkpt lat="47.52096" lon="6.77631">
        <ele>390.5</ele>
        <time>2016-01-21T15:37:24.000Z</time>
      </trkpt>
      <trkpt lat="47.52097" lon="6.77636">
        <ele>391.2</ele>
        <time>2016-01-21T15:37:25.000Z</time>
      </trkpt>
      <trkpt lat="47.52097" lon="6.7764">
        <ele>391.5</ele>
        <time>2016-01-21T15:37:26.000Z</time>
      </trkpt>
      <trkpt lat="47.52097" lon="6.77644">
        <ele>391.3</ele>
        <time>2016-01-21T15:37:27.000Z</time>
      </trkpt>
      <trkpt lat="47.52097" lon="6.77648">
        <ele>391.6</ele>
        <time>2016-01-21T15:37:28.000Z</time>
      </trkpt>
      <trkpt lat="47.52098" lon="6.77652">
        <ele>391.6</ele>
        <time>2016-01-21T15:37:29.000Z</time>
      </trkpt>
      <trkpt lat="47.52098" lon="6.77656">
        <ele>391.9</ele>
        <time>2016-01-21T15:37:30.000Z</time>
      </trkpt>
      <trkpt lat="47.52098" lon="6.7766">
        <ele>393.1</ele>
        <time>2016-01-21T15:37:31.000Z</time>
      </trkpt>
      <trkpt lat="47.52098" lon="6.77664">
        <ele>393.2</ele>
        <time>2016-01-21T15:37:32.000Z</time>
      </trkpt>
      <trkpt lat="47.52098" lon="6.77668">
        <ele>393.6</ele>
        <time>2016-01-21T15:37:33.000Z</time>
      </trkpt>
      <trkpt lat="47.52099" lon="6.77674">
        <ele>394.4</ele>
        <time>2016-01-21T15:37:35.000Z</time>
      </trkpt>
      <trkpt lat="47.52101" lon="6.77676">
        <ele>394.9</ele>
        <time>2016-01-21T15:37:36.000Z</time>
      </trkpt>
      <trkpt lat="47.52103" lon="6.77677">
        <ele>395.1</ele>
        <time>2016-01-21T15:37:37.000Z</time>
      </trkpt>
      <trkpt lat="47.52105" lon="6.77677">
        <ele>394.9</ele>
        <time>2016-01-21T15:37:38.000Z</time>
      </trkpt>
      <trkpt lat="47.52108" lon="6.77676">
        <ele>393.4</ele>
        <time>2016-01-21T15:37:39.000Z</time>
      </trkpt>
      <trkpt lat="47.5211" lon="6.77673">
        <ele>392.6</ele>
        <time>2016-01-21T15:37:40.000Z</time>
      </trkpt>
      <trkpt lat="47.52113" lon="6.77671">
        <ele>392.1</ele>
        <time>2016-01-21T15:37:41.000Z</time>
      </trkpt>
      <trkpt lat="47.52116" lon="6.77668">
        <ele>392</ele>
        <time>2016-01-21T15:37:42.000Z</time>
      </trkpt>
      <trkpt lat="47.52119" lon="6.77666">
        <ele>392.3</ele>
        <time>2016-01-21T15:37:43.000Z</time>
      </trkpt>
      <trkpt lat="47.52121" lon="6.77663">
        <ele>392.4</ele>
        <time>2016-01-21T15:37:44.000Z</time>
      </trkpt>
      <trkpt lat="47.52124" lon="6.77661">
        <ele>392.6</ele>
        <time>2016-01-21T15:37:45.000Z</time>
      </trkpt>
      <trkpt lat="47.52127" lon="6.77659">
        <ele>393.1</ele>
        <time>2016-01-21T15:37:46.000Z</time>
      </trkpt>
      <trkpt lat="47.52129" lon="6.77657">
        <ele>393.1</ele>
        <time>2016-01-21T15:37:47.000Z</time>
      </trkpt>
      <trkpt lat="47.52132" lon="6.77655">
        <ele>393.1</ele>
        <time>2016-01-21T15:37:48.000Z</time>
      </trkpt>
      <trkpt lat="47.52134" lon="6.77652">
        <ele>393.1</ele>
        <time>2016-01-21T15:37:49.000Z</time>
      </trkpt>
      <trkpt lat="47.52137" lon="6.7765">
        <ele>392.8</ele>
        <time>2016-01-21T15:37:50.000Z</time>
      </trkpt>
      <trkpt lat="47.5214" lon="6.77647">
        <ele>392.7</ele>
        <time>2016-01-21T15:37:51.000Z</time>
      </trkpt>
      <trkpt lat="47.52142" lon="6.77644">
        <ele>393.2</ele>
        <time>2016-01-21T15:37:52.000Z</time>
      </trkpt>
      <trkpt lat="47.52145" lon="6.77641">
        <ele>393.1</ele>
        <time>2016-01-21T15:37:53.000Z</time>
      </trkpt>
      <trkpt lat="47.52147" lon="6.77638">
        <ele>393.4</ele>
        <time>2016-01-21T15:37:54.000Z</time>
      </trkpt>
      <trkpt lat="47.5215" lon="6.77635">
        <ele>393.1</ele>
        <time>2016-01-21T15:37:55.000Z</time>
      </trkpt>
      <trkpt lat="47.52152" lon="6.77634">
        <ele>391.6</ele>
        <time>2016-01-21T15:37:56.000Z</time>
      </trkpt>
      <trkpt lat="47.52155" lon="6.77632">
        <ele>391</ele>
        <time>2016-01-21T15:37:57.000Z</time>
      </trkpt>
      <trkpt lat="47.52159" lon="6.7763">
        <ele>391.2</ele>
        <time>2016-01-21T15:37:58.000Z</time>
      </trkpt>
      <trkpt lat="47.52162" lon="6.77628">
        <ele>391.3</ele>
        <time>2016-01-21T15:37:59.000Z</time>
      </trkpt>
      <trkpt lat="47.52165" lon="6.77627">
        <ele>390.8</ele>
        <time>2016-01-21T15:38:00.000Z</time>
      </trkpt>
      <trkpt lat="47.52167" lon="6.77625">
        <ele>390.5</ele>
        <time>2016-01-21T15:38:01.000Z</time>
      </trkpt>
      <trkpt lat="47.5217" lon="6.77623">
        <ele>390.4</ele>
        <time>2016-01-21T15:38:02.000Z</time>
      </trkpt>
      <trkpt lat="47.52173" lon="6.77621">
        <ele>390.8</ele>
        <time>2016-01-21T15:38:03.000Z</time>
      </trkpt>
      <trkpt lat="47.52176" lon="6.7762">
        <ele>391.1</ele>
        <time>2016-01-21T15:38:04.000Z</time>
      </trkpt>
      <trkpt lat="47.52178" lon="6.77618">
        <ele>391</ele>
        <time>2016-01-21T15:38:05.000Z</time>
      </trkpt>
      <trkpt lat="47.52181" lon="6.77616">
        <ele>390.6</ele>
        <time>2016-01-21T15:38:06.000Z</time>
      </trkpt>
      <trkpt lat="47.52184" lon="6.77614">
        <ele>390.9</ele>
        <time>2016-01-21T15:38:07.000Z</time>
      </trkpt>
      <trkpt lat="47.52187" lon="6.77612">
        <ele>391</ele>
        <time>2016-01-21T15:38:08.000Z</time>
      </trkpt>
      <trkpt lat="47.5219" lon="6.77611">
        <ele>390.2</ele>
        <time>2016-01-21T15:38:09.000Z</time>
      </trkpt>
      <trkpt lat="47.52193" lon="6.77609">
        <ele>389.9</ele>
        <time>2016-01-21T15:38:10.000Z</time>
      </trkpt>
      <trkpt lat="47.52196" lon="6.77608">
        <ele>389.5</ele>
        <time>2016-01-21T15:38:11.000Z</time>
      </trkpt>
      <trkpt lat="47.52198" lon="6.77606">
        <ele>389.5</ele>
        <time>2016-01-21T15:38:12.000Z</time>
      </trkpt>
      <trkpt lat="47.52201" lon="6.77605">
        <ele>389.2</ele>
        <time>2016-01-21T15:38:12.997Z</time>
      </trkpt>
      <trkpt lat="47.52204" lon="6.77603">
        <ele>388.9</ele>
        <time>2016-01-21T15:38:14.000Z</time>
      </trkpt>
      <trkpt lat="47.52207" lon="6.77601">
        <ele>388.7</ele>
        <time>2016-01-21T15:38:15.000Z</time>
      </trkpt>
      <trkpt lat="47.52209" lon="6.77599">
        <ele>388.8</ele>
        <time>2016-01-21T15:38:16.000Z</time>
      </trkpt>
      <trkpt lat="47.52212" lon="6.77597">
        <ele>388.5</ele>
        <time>2016-01-21T15:38:17.000Z</time>
      </trkpt>
      <trkpt lat="47.52214" lon="6.77595">
        <ele>388.6</ele>
        <time>2016-01-21T15:38:18.000Z</time>
      </trkpt>
      <trkpt lat="47.52216" lon="6.77593">
        <ele>390.8</ele>
        <time>2016-01-21T15:38:19.000Z</time>
      </trkpt>
      <trkpt lat="47.52218" lon="6.7759">
        <ele>391.3</ele>
        <time>2016-01-21T15:38:20.000Z</time>
      </trkpt>
      <trkpt lat="47.5222" lon="6.77588">
        <ele>390.7</ele>
        <time>2016-01-21T15:38:21.000Z</time>
      </trkpt>
      <trkpt lat="47.52222" lon="6.77586">
        <ele>390.3</ele>
        <time>2016-01-21T15:38:22.000Z</time>
      </trkpt>
      <trkpt lat="47.52224" lon="6.77584">
        <ele>389.5</ele>
        <time>2016-01-21T15:38:23.000Z</time>
      </trkpt>
      <trkpt lat="47.52226" lon="6.77582">
        <ele>389.8</ele>
        <time>2016-01-21T15:38:24.000Z</time>
      </trkpt>
      <trkpt lat="47.52229" lon="6.77581">
        <ele>389.9</ele>
        <time>2016-01-21T15:38:25.000Z</time>
      </trkpt>
      <trkpt lat="47.52232" lon="6.77579">
        <ele>390</ele>
        <time>2016-01-21T15:38:26.000Z</time>
      </trkpt>
      <trkpt lat="47.52234" lon="6.77577">
        <ele>390.6</ele>
        <time>2016-01-21T15:38:27.000Z</time>
      </trkpt>
      <trkpt lat="47.52237" lon="6.77575">
        <ele>391.4</ele>
        <time>2016-01-21T15:38:28.000Z</time>
      </trkpt>
      <trkpt lat="47.52239" lon="6.77573">
        <ele>391.4</ele>
        <time>2016-01-21T15:38:29.000Z</time>
      </trkpt>
      <trkpt lat="47.52242" lon="6.77571">
        <ele>391.6</ele>
        <time>2016-01-21T15:38:30.000Z</time>
      </trkpt>
      <trkpt lat="47.52245" lon="6.77569">
        <ele>392</ele>
        <time>2016-01-21T15:38:31.000Z</time>
      </trkpt>
      <trkpt lat="47.52248" lon="6.77567">
        <ele>391.9</ele>
        <time>2016-01-21T15:38:32.000Z</time>
      </trkpt>
      <trkpt lat="47.5225" lon="6.77565">
        <ele>394.3</ele>
        <time>2016-01-21T15:38:33.000Z</time>
      </trkpt>
      <trkpt lat="47.52253" lon="6.77564">
        <ele>395.2</ele>
        <time>2016-01-21T15:38:34.000Z</time>
      </trkpt>
      <trkpt lat="47.52256" lon="6.77562">
        <ele>396.3</ele>
        <time>2016-01-21T15:38:35.000Z</time>
      </trkpt>
      <trkpt lat="47.52259" lon="6.7756">
        <ele>396.9</ele>
        <time>2016-01-21T15:38:36.000Z</time>
      </trkpt>
      <trkpt lat="47.52262" lon="6.77559">
        <ele>396.1</ele>
        <time>2016-01-21T15:38:37.000Z</time>
      </trkpt>
      <trkpt lat="47.52264" lon="6.77558">
        <ele>395.8</ele>
        <time>2016-01-21T15:38:38.000Z</time>
      </trkpt>
      <trkpt lat="47.52267" lon="6.77557">
        <ele>396.1</ele>
        <time>2016-01-21T15:38:39.000Z</time>
      </trkpt>
      <trkpt lat="47.52269" lon="6.77556">
        <ele>395.8</ele>
        <time>2016-01-21T15:38:40.000Z</time>
      </trkpt>
      <trkpt lat="47.52272" lon="6.77554">
        <ele>396</ele>
        <time>2016-01-21T15:38:41.000Z</time>
      </trkpt>
      <trkpt lat="47.52275" lon="6.77553">
        <ele>396.8</ele>
        <time>2016-01-21T15:38:42.000Z</time>
      </trkpt>
      <trkpt lat="47.52277" lon="6.77551">
        <ele>396.6</ele>
        <time>2016-01-21T15:38:43.000Z</time>
      </trkpt>
      <trkpt lat="47.5228" lon="6.77549">
        <ele>396.2</ele>
        <time>2016-01-21T15:38:44.000Z</time>
      </trkpt>
      <trkpt lat="47.52283" lon="6.77547">
        <ele>396.1</ele>
        <time>2016-01-21T15:38:45.000Z</time>
      </trkpt>
      <trkpt lat="47.52285" lon="6.77546">
        <ele>396.5</ele>
        <time>2016-01-21T15:38:46.000Z</time>
      </trkpt>
      <trkpt lat="47.52288" lon="6.77544">
        <ele>395.4</ele>
        <time>2016-01-21T15:38:47.000Z</time>
      </trkpt>
      <trkpt lat="47.5229" lon="6.77542">
        <ele>395.2</ele>
        <time>2016-01-21T15:38:48.000Z</time>
      </trkpt>
      <trkpt lat="47.52293" lon="6.7754">
        <ele>394.9</ele>
        <time>2016-01-21T15:38:49.000Z</time>
      </trkpt>
      <trkpt lat="47.52295" lon="6.77538">
        <ele>394.1</ele>
        <time>2016-01-21T15:38:50.000Z</time>
      </trkpt>
      <trkpt lat="47.52298" lon="6.77536">
        <ele>393.3</ele>
        <time>2016-01-21T15:38:51.000Z</time>
      </trkpt>
      <trkpt lat="47.523" lon="6.77534">
        <ele>395.8</ele>
        <time>2016-01-21T15:38:52.000Z</time>
      </trkpt>
      <trkpt lat="47.52303" lon="6.77533">
        <ele>396.3</ele>
        <time>2016-01-21T15:38:53.000Z</time>
      </trkpt>
      <trkpt lat="47.52305" lon="6.77531">
        <ele>397.4</ele>
        <time>2016-01-21T15:38:54.000Z</time>
      </trkpt>
      <trkpt lat="47.52308" lon="6.77528">
        <ele>397.8</ele>
        <time>2016-01-21T15:38:55.000Z</time>
      </trkpt>
      <trkpt lat="47.5231" lon="6.77526">
        <ele>397.9</ele>
        <time>2016-01-21T15:38:56.000Z</time>
      </trkpt>
      <trkpt lat="47.52312" lon="6.77524">
        <ele>397.7</ele>
        <time>2016-01-21T15:38:57.000Z</time>
      </trkpt>
      <trkpt lat="47.52314" lon="6.77522">
        <ele>398.7</ele>
        <time>2016-01-21T15:38:58.000Z</time>
      </trkpt>
      <trkpt lat="47.52317" lon="6.77521">
        <ele>398.6</ele>
        <time>2016-01-21T15:38:59.000Z</time>
      </trkpt>
      <trkpt lat="47.52319" lon="6.7752">
        <ele>398.7</ele>
        <time>2016-01-21T15:39:00.000Z</time>
      </trkpt>
      <trkpt lat="47.52321" lon="6.77518">
        <ele>398.4</ele>
        <time>2016-01-21T15:39:01.000Z</time>
      </trkpt>
      <trkpt lat="47.52323" lon="6.77517">
        <ele>397.1</ele>
        <time>2016-01-21T15:39:02.000Z</time>
      </trkpt>
      <trkpt lat="47.52326" lon="6.77515">
        <ele>397.5</ele>
        <time>2016-01-21T15:39:03.000Z</time>
      </trkpt>
      <trkpt lat="47.52329" lon="6.77514">
        <ele>398</ele>
        <time>2016-01-21T15:39:04.000Z</time>
      </trkpt>
      <trkpt lat="47.52331" lon="6.77513">
        <ele>398.4</ele>
        <time>2016-01-21T15:39:05.000Z</time>
      </trkpt>
      <trkpt lat="47.52334" lon="6.77512">
        <ele>398.5</ele>
        <time>2016-01-21T15:39:06.000Z</time>
      </trkpt>
      <trkpt lat="47.52336" lon="6.7751">
        <ele>398.8</ele>
        <time>2016-01-21T15:39:07.000Z</time>
      </trkpt>
      <trkpt lat="47.52339" lon="6.77509">
        <ele>398.9</ele>
        <time>2016-01-21T15:39:08.000Z</time>
      </trkpt>
      <trkpt lat="47.52341" lon="6.77507">
        <ele>395.2</ele>
        <time>2016-01-21T15:39:09.000Z</time>
      </trkpt>
      <trkpt lat="47.52344" lon="6.77505">
        <ele>394.1</ele>
        <time>2016-01-21T15:39:10.000Z</time>
      </trkpt>
      <trkpt lat="47.52346" lon="6.77503">
        <ele>393.8</ele>
        <time>2016-01-21T15:39:11.000Z</time>
      </trkpt>
      <trkpt lat="47.52348" lon="6.77501">
        <ele>393</ele>
        <time>2016-01-21T15:39:12.000Z</time>
      </trkpt>
      <trkpt lat="47.5235" lon="6.775">
        <ele>393.5</ele>
        <time>2016-01-21T15:39:13.000Z</time>
      </trkpt>
      <trkpt lat="47.52353" lon="6.77498">
        <ele>393.5</ele>
        <time>2016-01-21T15:39:14.000Z</time>
      </trkpt>
      <trkpt lat="47.52355" lon="6.77496">
        <ele>392.5</ele>
        <time>2016-01-21T15:39:15.000Z</time>
      </trkpt>
      <trkpt lat="47.52358" lon="6.77495">
        <ele>392.5</ele>
        <time>2016-01-21T15:39:16.000Z</time>
      </trkpt>
      <trkpt lat="47.5236" lon="6.77494">
        <ele>392.3</ele>
        <time>2016-01-21T15:39:17.000Z</time>
      </trkpt>
      <trkpt lat="47.52364" lon="6.77493">
        <ele>392.7</ele>
        <time>2016-01-21T15:39:18.000Z</time>
      </trkpt>
      <trkpt lat="47.52367" lon="6.77492">
        <ele>392.5</ele>
        <time>2016-01-21T15:39:19.000Z</time>
      </trkpt>
      <trkpt lat="47.5237" lon="6.77491">
        <ele>392.3</ele>
        <time>2016-01-21T15:39:20.000Z</time>
      </trkpt>
      <trkpt lat="47.52373" lon="6.7749">
        <ele>391.9</ele>
        <time>2016-01-21T15:39:21.000Z</time>
      </trkpt>
      <trkpt lat="47.52375" lon="6.77489">
        <ele>391.2</ele>
        <time>2016-01-21T15:39:22.000Z</time>
      </trkpt>
      <trkpt lat="47.52378" lon="6.77488">
        <ele>390.7</ele>
        <time>2016-01-21T15:39:23.000Z</time>
      </trkpt>
      <trkpt lat="47.52381" lon="6.77486">
        <ele>390.3</ele>
        <time>2016-01-21T15:39:24.000Z</time>
      </trkpt>
      <trkpt lat="47.52384" lon="6.77485">
        <ele>390.4</ele>
        <time>2016-01-21T15:39:25.000Z</time>
      </trkpt>
      <trkpt lat="47.52387" lon="6.77483">
        <ele>390.3</ele>
        <time>2016-01-21T15:39:26.000Z</time>
      </trkpt>
      <trkpt lat="47.52389" lon="6.77482">
        <ele>389.9</ele>
        <time>2016-01-21T15:39:27.000Z</time>
      </trkpt>
      <trkpt lat="47.52392" lon="6.77481">
        <ele>389.7</ele>
        <time>2016-01-21T15:39:28.000Z</time>
      </trkpt>
      <trkpt lat="47.52394" lon="6.7748">
        <ele>389.5</ele>
        <time>2016-01-21T15:39:29.000Z</time>
      </trkpt>
      <trkpt lat="47.52396" lon="6.77479">
        <ele>389.5</ele>
        <time>2016-01-21T15:39:30.000Z</time>
      </trkpt>
      <trkpt lat="47.52399" lon="6.77477">
        <ele>389.1</ele>
        <time>2016-01-21T15:39:31.000Z</time>
      </trkpt>
      <trkpt lat="47.52401" lon="6.77476">
        <ele>389.2</ele>
        <time>2016-01-21T15:39:32.000Z</time>
      </trkpt>
      <trkpt lat="47.52404" lon="6.77474">
        <ele>389</ele>
        <time>2016-01-21T15:39:33.000Z</time>
      </trkpt>
      <trkpt lat="47.52406" lon="6.77472">
        <ele>389.3</ele>
        <time>2016-01-21T15:39:34.000Z</time>
      </trkpt>
      <trkpt lat="47.52409" lon="6.7747">
        <ele>389.4</ele>
        <time>2016-01-21T15:39:35.000Z</time>
      </trkpt>
      <trkpt lat="47.52411" lon="6.77468">
        <ele>389</ele>
        <time>2016-01-21T15:39:36.000Z</time>
      </trkpt>
      <trkpt lat="47.52413" lon="6.77466">
        <ele>388.9</ele>
        <time>2016-01-21T15:39:37.000Z</time>
      </trkpt>
      <trkpt lat="47.52415" lon="6.77464">
        <ele>389.2</ele>
        <time>2016-01-21T15:39:38.000Z</time>
      </trkpt>
      <trkpt lat="47.52416" lon="6.77461">
        <ele>389.4</ele>
        <time>2016-01-21T15:39:39.000Z</time>
      </trkpt>
      <trkpt lat="47.52418" lon="6.77458">
        <ele>389.6</ele>
        <time>2016-01-21T15:39:40.000Z</time>
      </trkpt>
      <trkpt lat="47.5242" lon="6.77455">
        <ele>390.1</ele>
        <time>2016-01-21T15:39:41.000Z</time>
      </trkpt>
      <trkpt lat="47.52421" lon="6.77452">
        <ele>390</ele>
        <time>2016-01-21T15:39:42.000Z</time>
      </trkpt>
      <trkpt lat="47.52423" lon="6.7745">
        <ele>389.9</ele>
        <time>2016-01-21T15:39:43.000Z</time>
      </trkpt>
      <trkpt lat="47.52426" lon="6.77448">
        <ele>390</ele>
        <time>2016-01-21T15:39:44.000Z</time>
      </trkpt>
      <trkpt lat="47.52428" lon="6.77448">
        <ele>390.1</ele>
        <time>2016-01-21T15:39:45.000Z</time>
      </trkpt>
      <trkpt lat="47.52431" lon="6.77448">
        <ele>389.9</ele>
        <time>2016-01-21T15:39:46.000Z</time>
      </trkpt>
      <trkpt lat="47.52434" lon="6.77449">
        <ele>389.9</ele>
        <time>2016-01-21T15:39:47.000Z</time>
      </trkpt>
      <trkpt lat="47.52436" lon="6.77451">
        <ele>389</ele>
        <time>2016-01-21T15:39:48.000Z</time>
      </trkpt>
      <trkpt lat="47.52438" lon="6.77452">
        <ele>389.2</ele>
        <time>2016-01-21T15:39:49.000Z</time>
      </trkpt>
      <trkpt lat="47.5244" lon="6.77454">
        <ele>389.3</ele>
        <time>2016-01-21T15:39:50.000Z</time>
      </trkpt>
      <trkpt lat="47.52442" lon="6.77456">
        <ele>389.3</ele>
        <time>2016-01-21T15:39:51.000Z</time>
      </trkpt>
      <trkpt lat="47.52443" lon="6.77458">
        <ele>389.7</ele>
        <time>2016-01-21T15:39:52.000Z</time>
      </trkpt>
      <trkpt lat="47.52447" lon="6.7746">
        <ele>390</ele>
        <time>2016-01-21T15:39:54.000Z</time>
      </trkpt>
      <trkpt lat="47.52448" lon="6.77461">
        <ele>390.4</ele>
        <time>2016-01-21T15:39:55.000Z</time>
      </trkpt>
      <trkpt lat="47.52452" lon="6.77463">
        <ele>393.8</ele>
        <time>2016-01-21T15:39:58.000Z</time>
      </trkpt>
      <trkpt lat="47.52454" lon="6.77464">
        <ele>395</ele>
        <time>2016-01-21T15:39:59.000Z</time>
      </trkpt>
      <trkpt lat="47.52457" lon="6.77466">
        <ele>395.6</ele>
        <time>2016-01-21T15:40:01.000Z</time>
      </trkpt>
      <trkpt lat="47.5246" lon="6.77466">
        <ele>396.1</ele>
        <time>2016-01-21T15:40:02.000Z</time>
      </trkpt>
      <trkpt lat="47.52463" lon="6.77466">
        <ele>396.7</ele>
        <time>2016-01-21T15:40:03.000Z</time>
      </trkpt>
      <trkpt lat="47.52466" lon="6.77466">
        <ele>397.2</ele>
        <time>2016-01-21T15:40:04.000Z</time>
      </trkpt>
      <trkpt lat="47.52469" lon="6.77466">
        <ele>397.6</ele>
        <time>2016-01-21T15:40:05.000Z</time>
      </trkpt>
      <trkpt lat="47.52472" lon="6.77466">
        <ele>397.4</ele>
        <time>2016-01-21T15:40:06.000Z</time>
      </trkpt>
      <trkpt lat="47.52476" lon="6.77467">
        <ele>397.4</ele>
        <time>2016-01-21T15:40:07.000Z</time>
      </trkpt>
      <trkpt lat="47.52479" lon="6.77467">
        <ele>397.8</ele>
        <time>2016-01-21T15:40:08.000Z</time>
      </trkpt>
      <trkpt lat="47.52482" lon="6.77467">
        <ele>397.7</ele>
        <time>2016-01-21T15:40:09.000Z</time>
      </trkpt>
      <trkpt lat="47.52484" lon="6.77467">
        <ele>398</ele>
        <time>2016-01-21T15:40:10.000Z</time>
      </trkpt>
      <trkpt lat="47.52487" lon="6.77468">
        <ele>398.5</ele>
        <time>2016-01-21T15:40:11.000Z</time>
      </trkpt>
      <trkpt lat="47.52489" lon="6.77468">
        <ele>398.9</ele>
        <time>2016-01-21T15:40:12.000Z</time>
      </trkpt>
      <trkpt lat="47.52492" lon="6.77468">
        <ele>399.2</ele>
        <time>2016-01-21T15:40:13.000Z</time>
      </trkpt>
      <trkpt lat="47.52495" lon="6.77469">
        <ele>399.9</ele>
        <time>2016-01-21T15:40:14.000Z</time>
      </trkpt>
      <trkpt lat="47.52497" lon="6.77469">
        <ele>399.3</ele>
        <time>2016-01-21T15:40:15.000Z</time>
      </trkpt>
      <trkpt lat="47.525" lon="6.77469">
        <ele>399.6</ele>
        <time>2016-01-21T15:40:16.000Z</time>
      </trkpt>
      <trkpt lat="47.52503" lon="6.77469">
        <ele>399.3</ele>
        <time>2016-01-21T15:40:17.000Z</time>
      </trkpt>
      <trkpt lat="47.52505" lon="6.77469">
        <ele>399.2</ele>
        <time>2016-01-21T15:40:18.000Z</time>
      </trkpt>
      <trkpt lat="47.52508" lon="6.77469">
        <ele>398.8</ele>
        <time>2016-01-21T15:40:19.000Z</time>
      </trkpt>
      <trkpt lat="47.52511" lon="6.77468">
        <ele>398.8</ele>
        <time>2016-01-21T15:40:20.000Z</time>
      </trkpt>
      <trkpt lat="47.52514" lon="6.77467">
        <ele>397.9</ele>
        <time>2016-01-21T15:40:21.000Z</time>
      </trkpt>
      <trkpt lat="47.52516" lon="6.77465">
        <ele>398.1</ele>
        <time>2016-01-21T15:40:22.000Z</time>
      </trkpt>
      <trkpt lat="47.52519" lon="6.77463">
        <ele>398.2</ele>
        <time>2016-01-21T15:40:23.000Z</time>
      </trkpt>
      <trkpt lat="47.52522" lon="6.77462">
        <ele>398</ele>
        <time>2016-01-21T15:40:24.000Z</time>
      </trkpt>
      <trkpt lat="47.52525" lon="6.7746">
        <ele>398.5</ele>
        <time>2016-01-21T15:40:25.000Z</time>
      </trkpt>
      <trkpt lat="47.52528" lon="6.77458">
        <ele>397.8</ele>
        <time>2016-01-21T15:40:26.000Z</time>
      </trkpt>
      <trkpt lat="47.5253" lon="6.77456">
        <ele>397.2</ele>
        <time>2016-01-21T15:40:27.000Z</time>
      </trkpt>
      <trkpt lat="47.52533" lon="6.77455">
        <ele>395.4</ele>
        <time>2016-01-21T15:40:28.000Z</time>
      </trkpt>
      <trkpt lat="47.52535" lon="6.77454">
        <ele>395.4</ele>
        <time>2016-01-21T15:40:29.000Z</time>
      </trkpt>
      <trkpt lat="47.52538" lon="6.77454">
        <ele>395.8</ele>
        <time>2016-01-21T15:40:30.000Z</time>
      </trkpt>
      <trkpt lat="47.5254" lon="6.77454">
        <ele>396.1</ele>
        <time>2016-01-21T15:40:31.000Z</time>
      </trkpt>
      <trkpt lat="47.52543" lon="6.77455">
        <ele>396.1</ele>
        <time>2016-01-21T15:40:32.000Z</time>
      </trkpt>
      <trkpt lat="47.52545" lon="6.77455">
        <ele>396</ele>
        <time>2016-01-21T15:40:33.000Z</time>
      </trkpt>
      <trkpt lat="47.52547" lon="6.77456">
        <ele>395.3</ele>
        <time>2016-01-21T15:40:34.000Z</time>
      </trkpt>
      <trkpt lat="47.5255" lon="6.77456">
        <ele>396</ele>
        <time>2016-01-21T15:40:35.000Z</time>
      </trkpt>
      <trkpt lat="47.52552" lon="6.77457">
        <ele>395.8</ele>
        <time>2016-01-21T15:40:36.000Z</time>
      </trkpt>
      <trkpt lat="47.52554" lon="6.77458">
        <ele>395.2</ele>
        <time>2016-01-21T15:40:37.000Z</time>
      </trkpt>
      <trkpt lat="47.52557" lon="6.77458">
        <ele>396.1</ele>
        <time>2016-01-21T15:40:38.000Z</time>
      </trkpt>
      <trkpt lat="47.52559" lon="6.77459">
        <ele>396.2</ele>
        <time>2016-01-21T15:40:39.000Z</time>
      </trkpt>
      <trkpt lat="47.52562" lon="6.77459">
        <ele>397.7</ele>
        <time>2016-01-21T15:40:40.000Z</time>
      </trkpt>
      <trkpt lat="47.52565" lon="6.77459">
        <ele>398</ele>
        <time>2016-01-21T15:40:41.000Z</time>
      </trkpt>
      <trkpt lat="47.52568" lon="6.77459">
        <ele>399</ele>
        <time>2016-01-21T15:40:42.000Z</time>
      </trkpt>
      <trkpt lat="47.52571" lon="6.7746">
        <ele>398.6</ele>
        <time>2016-01-21T15:40:43.000Z</time>
      </trkpt>
      <trkpt lat="47.52574" lon="6.77461">
        <ele>398.4</ele>
        <time>2016-01-21T15:40:44.000Z</time>
      </trkpt>
      <trkpt lat="47.52578" lon="6.77462">
        <ele>396.6</ele>
        <time>2016-01-21T15:40:45.000Z</time>
      </trkpt>
      <trkpt lat="47.52582" lon="6.77464">
        <ele>394.3</ele>
        <time>2016-01-21T15:40:46.000Z</time>
      </trkpt>
      <trkpt lat="47.52585" lon="6.77467">
        <ele>394.5</ele>
        <time>2016-01-21T15:40:47.000Z</time>
      </trkpt>
      <trkpt lat="47.52588" lon="6.77471">
        <ele>392.2</ele>
        <time>2016-01-21T15:40:48.000Z</time>
      </trkpt>
      <trkpt lat="47.52591" lon="6.77474">
        <ele>392.7</ele>
        <time>2016-01-21T15:40:49.000Z</time>
      </trkpt>
      <trkpt lat="47.52593" lon="6.77478">
        <ele>393.1</ele>
        <time>2016-01-21T15:40:50.000Z</time>
      </trkpt>
      <trkpt lat="47.52595" lon="6.77481">
        <ele>394</ele>
        <time>2016-01-21T15:40:51.000Z</time>
      </trkpt>
      <trkpt lat="47.52597" lon="6.77484">
        <ele>394.8</ele>
        <time>2016-01-21T15:40:52.000Z</time>
      </trkpt>
      <trkpt lat="47.52601" lon="6.77486">
        <ele>396.3</ele>
        <time>2016-01-21T15:40:54.000Z</time>
      </trkpt>
      <trkpt lat="47.52603" lon="6.77485">
        <ele>396.1</ele>
        <time>2016-01-21T15:40:55.000Z</time>
      </trkpt>
      <trkpt lat="47.52605" lon="6.77484">
        <ele>395.9</ele>
        <time>2016-01-21T15:40:56.000Z</time>
      </trkpt>
      <trkpt lat="47.52607" lon="6.77482">
        <ele>395.9</ele>
        <time>2016-01-21T15:40:57.000Z</time>
      </trkpt>
      <trkpt lat="47.5261" lon="6.77479">
        <ele>395.6</ele>
        <time>2016-01-21T15:40:58.000Z</time>
      </trkpt>
      <trkpt lat="47.52612" lon="6.77477">
        <ele>395.9</ele>
        <time>2016-01-21T15:40:59.000Z</time>
      </trkpt>
      <trkpt lat="47.52614" lon="6.77474">
        <ele>395.6</ele>
        <time>2016-01-21T15:41:00.000Z</time>
      </trkpt>
      <trkpt lat="47.52615" lon="6.77471">
        <ele>396.6</ele>
        <time>2016-01-21T15:41:01.000Z</time>
      </trkpt>
      <trkpt lat="47.52617" lon="6.77468">
        <ele>396.6</ele>
        <time>2016-01-21T15:41:02.000Z</time>
      </trkpt>
      <trkpt lat="47.52619" lon="6.77464">
        <ele>396.7</ele>
        <time>2016-01-21T15:41:03.000Z</time>
      </trkpt>
      <trkpt lat="47.52621" lon="6.7746">
        <ele>396.7</ele>
        <time>2016-01-21T15:41:04.000Z</time>
      </trkpt>
      <trkpt lat="47.52623" lon="6.77457">
        <ele>396.4</ele>
        <time>2016-01-21T15:41:05.000Z</time>
      </trkpt>
      <trkpt lat="47.52625" lon="6.77453">
        <ele>396.5</ele>
        <time>2016-01-21T15:41:06.000Z</time>
      </trkpt>
      <trkpt lat="47.52627" lon="6.7745">
        <ele>396.1</ele>
        <time>2016-01-21T15:41:07.000Z</time>
      </trkpt>
      <trkpt lat="47.52629" lon="6.77448">
        <ele>395.7</ele>
        <time>2016-01-21T15:41:08.000Z</time>
      </trkpt>
      <trkpt lat="47.52632" lon="6.77446">
        <ele>395.8</ele>
        <time>2016-01-21T15:41:09.000Z</time>
      </trkpt>
      <trkpt lat="47.52634" lon="6.77444">
        <ele>395.8</ele>
        <time>2016-01-21T15:41:10.000Z</time>
      </trkpt>
      <trkpt lat="47.52637" lon="6.77443">
        <ele>395.9</ele>
        <time>2016-01-21T15:41:11.000Z</time>
      </trkpt>
      <trkpt lat="47.52639" lon="6.77442">
        <ele>396.8</ele>
        <time>2016-01-21T15:41:12.000Z</time>
      </trkpt>
      <trkpt lat="47.52641" lon="6.77441">
        <ele>396.9</ele>
        <time>2016-01-21T15:41:13.000Z</time>
      </trkpt>
      <trkpt lat="47.52644" lon="6.77439">
        <ele>397.5</ele>
        <time>2016-01-21T15:41:14.000Z</time>
      </trkpt>
      <trkpt lat="47.52646" lon="6.77439">
        <ele>397.8</ele>
        <time>2016-01-21T15:41:15.000Z</time>
      </trkpt>
      <trkpt lat="47.5265" lon="6.77438">
        <ele>397.6</ele>
        <time>2016-01-21T15:41:17.000Z</time>
      </trkpt>
      <trkpt lat="47.52652" lon="6.77438">
        <ele>397.9</ele>
        <time>2016-01-21T15:41:18.000Z</time>
      </trkpt>
      <trkpt lat="47.52657" lon="6.77438">
        <ele>397.5</ele>
        <time>2016-01-21T15:41:20.000Z</time>
      </trkpt>
      <trkpt lat="47.52659" lon="6.77437">
        <ele>397.7</ele>
        <time>2016-01-21T15:41:21.000Z</time>
      </trkpt>
      <trkpt lat="47.52661" lon="6.77437">
        <ele>398.3</ele>
        <time>2016-01-21T15:41:22.000Z</time>
      </trkpt>
      <trkpt lat="47.52664" lon="6.77437">
        <ele>398.7</ele>
        <time>2016-01-21T15:41:23.000Z</time>
      </trkpt>
      <trkpt lat="47.52666" lon="6.77438">
        <ele>398.3</ele>
        <time>2016-01-21T15:41:24.000Z</time>
      </trkpt>
      <trkpt lat="47.52668" lon="6.77439">
        <ele>397.8</ele>
        <time>2016-01-21T15:41:25.000Z</time>
      </trkpt>
      <trkpt lat="47.52671" lon="6.7744">
        <ele>398.6</ele>
        <time>2016-01-21T15:41:26.000Z</time>
      </trkpt>
      <trkpt lat="47.52673" lon="6.77442">
        <ele>399.1</ele>
        <time>2016-01-21T15:41:27.000Z</time>
      </trkpt>
      <trkpt lat="47.52675" lon="6.77443">
        <ele>398.6</ele>
        <time>2016-01-21T15:41:28.000Z</time>
      </trkpt>
      <trkpt lat="47.52677" lon="6.77444">
        <ele>398.1</ele>
        <time>2016-01-21T15:41:29.000Z</time>
      </trkpt>
      <trkpt lat="47.52679" lon="6.77446">
        <ele>398.2</ele>
        <time>2016-01-21T15:41:30.000Z</time>
      </trkpt>
      <trkpt lat="47.52682" lon="6.77448">
        <ele>398.8</ele>
        <time>2016-01-21T15:41:31.000Z</time>
      </trkpt>
      <trkpt lat="47.52684" lon="6.77449">
        <ele>399.1</ele>
        <time>2016-01-21T15:41:32.000Z</time>
      </trkpt>
      <trkpt lat="47.52686" lon="6.77451">
        <ele>399.1</ele>
        <time>2016-01-21T15:41:33.000Z</time>
      </trkpt>
      <trkpt lat="47.52688" lon="6.77453">
        <ele>398.7</ele>
        <time>2016-01-21T15:41:34.000Z</time>
      </trkpt>
      <trkpt lat="47.5269" lon="6.77455">
        <ele>398.7</ele>
        <time>2016-01-21T15:41:35.000Z</time>
      </trkpt>
      <trkpt lat="47.52692" lon="6.77457">
        <ele>399.5</ele>
        <time>2016-01-21T15:41:36.000Z</time>
      </trkpt>
      <trkpt lat="47.52694" lon="6.77459">
        <ele>399</ele>
        <time>2016-01-21T15:41:37.000Z</time>
      </trkpt>
      <trkpt lat="47.52696" lon="6.77461">
        <ele>398.8</ele>
        <time>2016-01-21T15:41:38.000Z</time>
      </trkpt>
      <trkpt lat="47.52699" lon="6.77463">
        <ele>399.3</ele>
        <time>2016-01-21T15:41:39.000Z</time>
      </trkpt>
      <trkpt lat="47.527" lon="6.77465">
        <ele>399.5</ele>
        <time>2016-01-21T15:41:40.000Z</time>
      </trkpt>
      <trkpt lat="47.52702" lon="6.77467">
        <ele>399.6</ele>
        <time>2016-01-21T15:41:41.000Z</time>
      </trkpt>
      <trkpt lat="47.52705" lon="6.77468">
        <ele>400.8</ele>
        <time>2016-01-21T15:41:42.000Z</time>
      </trkpt>
      <trkpt lat="47.52707" lon="6.7747">
        <ele>401.1</ele>
        <time>2016-01-21T15:41:43.000Z</time>
      </trkpt>
      <trkpt lat="47.52709" lon="6.77472">
        <ele>401.1</ele>
        <time>2016-01-21T15:41:44.000Z</time>
      </trkpt>
      <trkpt lat="47.52711" lon="6.77474">
        <ele>401.3</ele>
        <time>2016-01-21T15:41:45.000Z</time>
      </trkpt>
      <trkpt lat="47.52713" lon="6.77476">
        <ele>402</ele>
        <time>2016-01-21T15:41:46.000Z</time>
      </trkpt>
      <trkpt lat="47.52715" lon="6.77478">
        <ele>402.3</ele>
        <time>2016-01-21T15:41:47.000Z</time>
      </trkpt>
      <trkpt lat="47.52717" lon="6.77479">
        <ele>402.7</ele>
        <time>2016-01-21T15:41:48.000Z</time>
      </trkpt>
      <trkpt lat="47.5272" lon="6.7748">
        <ele>403.6</ele>
        <time>2016-01-21T15:41:49.000Z</time>
      </trkpt>
      <trkpt lat="47.52723" lon="6.7748">
        <ele>404.6</ele>
        <time>2016-01-21T15:41:50.000Z</time>
      </trkpt>
      <trkpt lat="47.52727" lon="6.7748">
        <ele>405.8</ele>
        <time>2016-01-21T15:41:51.000Z</time>
      </trkpt>
      <trkpt lat="47.5273" lon="6.77479">
        <ele>406.4</ele>
        <time>2016-01-21T15:41:52.000Z</time>
      </trkpt>
      <trkpt lat="47.52734" lon="6.77479">
        <ele>406.7</ele>
        <time>2016-01-21T15:41:53.000Z</time>
      </trkpt>
      <trkpt lat="47.52737" lon="6.77479">
        <ele>406.3</ele>
        <time>2016-01-21T15:41:54.000Z</time>
      </trkpt>
      <trkpt lat="47.5274" lon="6.7748">
        <ele>406</ele>
        <time>2016-01-21T15:41:55.000Z</time>
      </trkpt>
      <trkpt lat="47.52743" lon="6.77481">
        <ele>406.5</ele>
        <time>2016-01-21T15:41:56.000Z</time>
      </trkpt>
      <trkpt lat="47.52745" lon="6.77482">
        <ele>407.7</ele>
        <time>2016-01-21T15:41:57.000Z</time>
      </trkpt>
      <trkpt lat="47.52748" lon="6.77484">
        <ele>407.8</ele>
        <time>2016-01-21T15:41:58.000Z</time>
      </trkpt>
      <trkpt lat="47.5275" lon="6.77487">
        <ele>407.6</ele>
        <time>2016-01-21T15:41:59.000Z</time>
      </trkpt>
      <trkpt lat="47.52752" lon="6.77491">
        <ele>406.6</ele>
        <time>2016-01-21T15:42:00.000Z</time>
      </trkpt>
      <trkpt lat="47.52754" lon="6.77495">
        <ele>405.8</ele>
        <time>2016-01-21T15:42:01.000Z</time>
      </trkpt>
      <trkpt lat="47.52755" lon="6.77499">
        <ele>405</ele>
        <time>2016-01-21T15:42:02.000Z</time>
      </trkpt>
      <trkpt lat="47.52757" lon="6.77504">
        <ele>404.9</ele>
        <time>2016-01-21T15:42:03.000Z</time>
      </trkpt>
      <trkpt lat="47.52759" lon="6.77507">
        <ele>404.9</ele>
        <time>2016-01-21T15:42:04.000Z</time>
      </trkpt>
      <trkpt lat="47.52761" lon="6.7751">
        <ele>404</ele>
        <time>2016-01-21T15:42:05.000Z</time>
      </trkpt>
      <trkpt lat="47.52763" lon="6.77512">
        <ele>403.9</ele>
        <time>2016-01-21T15:42:06.000Z</time>
      </trkpt>
      <trkpt lat="47.52766" lon="6.77514">
        <ele>404.2</ele>
        <time>2016-01-21T15:42:07.000Z</time>
      </trkpt>
      <trkpt lat="47.52769" lon="6.77515">
        <ele>404.7</ele>
        <time>2016-01-21T15:42:08.000Z</time>
      </trkpt>
      <trkpt lat="47.52771" lon="6.77516">
        <ele>405.6</ele>
        <time>2016-01-21T15:42:09.000Z</time>
      </trkpt>
      <trkpt lat="47.52774" lon="6.77517">
        <ele>405.3</ele>
        <time>2016-01-21T15:42:10.000Z</time>
      </trkpt>
      <trkpt lat="47.52777" lon="6.77518">
        <ele>405.9</ele>
        <time>2016-01-21T15:42:11.000Z</time>
      </trkpt>
      <trkpt lat="47.5278" lon="6.77519">
        <ele>406</ele>
        <time>2016-01-21T15:42:12.000Z</time>
      </trkpt>
      <trkpt lat="47.52783" lon="6.7752">
        <ele>406.3</ele>
        <time>2016-01-21T15:42:13.000Z</time>
      </trkpt>
      <trkpt lat="47.52785" lon="6.77521">
        <ele>406.7</ele>
        <time>2016-01-21T15:42:14.000Z</time>
      </trkpt>
      <trkpt lat="47.52788" lon="6.77523">
        <ele>406.6</ele>
        <time>2016-01-21T15:42:15.000Z</time>
      </trkpt>
      <trkpt lat="47.52791" lon="6.77525">
        <ele>407.3</ele>
        <time>2016-01-21T15:42:16.000Z</time>
      </trkpt>
      <trkpt lat="47.52793" lon="6.77527">
        <ele>407</ele>
        <time>2016-01-21T15:42:17.000Z</time>
      </trkpt>
      <trkpt lat="47.52796" lon="6.77529">
        <ele>406.2</ele>
        <time>2016-01-21T15:42:18.000Z</time>
      </trkpt>
      <trkpt lat="47.52799" lon="6.77531">
        <ele>406.6</ele>
        <time>2016-01-21T15:42:19.000Z</time>
      </trkpt>
      <trkpt lat="47.52801" lon="6.77533">
        <ele>406.8</ele>
        <time>2016-01-21T15:42:20.000Z</time>
      </trkpt>
      <trkpt lat="47.52803" lon="6.77535">
        <ele>405.8</ele>
        <time>2016-01-21T15:42:21.000Z</time>
      </trkpt>
      <trkpt lat="47.52806" lon="6.77538">
        <ele>404.9</ele>
        <time>2016-01-21T15:42:22.000Z</time>
      </trkpt>
      <trkpt lat="47.52808" lon="6.7754">
        <ele>405.3</ele>
        <time>2016-01-21T15:42:23.000Z</time>
      </trkpt>
      <trkpt lat="47.52811" lon="6.77542">
        <ele>405.7</ele>
        <time>2016-01-21T15:42:24.000Z</time>
      </trkpt>
      <trkpt lat="47.52813" lon="6.77543">
        <ele>405.7</ele>
        <time>2016-01-21T15:42:25.000Z</time>
      </trkpt>
      <trkpt lat="47.52816" lon="6.77543">
        <ele>406.1</ele>
        <time>2016-01-21T15:42:26.000Z</time>
      </trkpt>
      <trkpt lat="47.52819" lon="6.77543">
        <ele>406.6</ele>
        <time>2016-01-21T15:42:27.000Z</time>
      </trkpt>
      <trkpt lat="47.52822" lon="6.77542">
        <ele>406.9</ele>
        <time>2016-01-21T15:42:28.000Z</time>
      </trkpt>
      <trkpt lat="47.52825" lon="6.77542">
        <ele>404.9</ele>
        <time>2016-01-21T15:42:29.000Z</time>
      </trkpt>
      <trkpt lat="47.52828" lon="6.77543">
        <ele>404.3</ele>
        <time>2016-01-21T15:42:30.000Z</time>
      </trkpt>
      <trkpt lat="47.52831" lon="6.77543">
        <ele>404.2</ele>
        <time>2016-01-21T15:42:31.000Z</time>
      </trkpt>
      <trkpt lat="47.52833" lon="6.77545">
        <ele>404.5</ele>
        <time>2016-01-21T15:42:32.000Z</time>
      </trkpt>
      <trkpt lat="47.52836" lon="6.77546">
        <ele>405.2</ele>
        <time>2016-01-21T15:42:33.000Z</time>
      </trkpt>
      <trkpt lat="47.52838" lon="6.77546">
        <ele>405.9</ele>
        <time>2016-01-21T15:42:34.000Z</time>
      </trkpt>
      <trkpt lat="47.5284" lon="6.77547">
        <ele>405.8</ele>
        <time>2016-01-21T15:42:35.000Z</time>
      </trkpt>
      <trkpt lat="47.52844" lon="6.77548">
        <ele>404.3</ele>
        <time>2016-01-21T15:42:37.000Z</time>
      </trkpt>
      <trkpt lat="47.52847" lon="6.77547">
        <ele>404.5</ele>
        <time>2016-01-21T15:42:38.000Z</time>
      </trkpt>
      <trkpt lat="47.52849" lon="6.77547">
        <ele>404.1</ele>
        <time>2016-01-21T15:42:39.000Z</time>
      </trkpt>
      <trkpt lat="47.52852" lon="6.77546">
        <ele>404.7</ele>
        <time>2016-01-21T15:42:40.000Z</time>
      </trkpt>
      <trkpt lat="47.52854" lon="6.77546">
        <ele>405.2</ele>
        <time>2016-01-21T15:42:41.000Z</time>
      </trkpt>
      <trkpt lat="47.52856" lon="6.77547">
        <ele>405.4</ele>
        <time>2016-01-21T15:42:42.000Z</time>
      </trkpt>
      <trkpt lat="47.52859" lon="6.77548">
        <ele>405.3</ele>
        <time>2016-01-21T15:42:43.000Z</time>
      </trkpt>
      <trkpt lat="47.52861" lon="6.77549">
        <ele>405.3</ele>
        <time>2016-01-21T15:42:44.000Z</time>
      </trkpt>
      <trkpt lat="47.52864" lon="6.7755">
        <ele>405.1</ele>
        <time>2016-01-21T15:42:45.000Z</time>
      </trkpt>
      <trkpt lat="47.52866" lon="6.77551">
        <ele>405.6</ele>
        <time>2016-01-21T15:42:46.000Z</time>
      </trkpt>
      <trkpt lat="47.52868" lon="6.77552">
        <ele>406.7</ele>
        <time>2016-01-21T15:42:47.000Z</time>
      </trkpt>
      <trkpt lat="47.5287" lon="6.77553">
        <ele>406.2</ele>
        <time>2016-01-21T15:42:48.000Z</time>
      </trkpt>
      <trkpt lat="47.52873" lon="6.77553">
        <ele>407.1</ele>
        <time>2016-01-21T15:42:49.000Z</time>
      </trkpt>
      <trkpt lat="47.52875" lon="6.77554">
        <ele>407.5</ele>
        <time>2016-01-21T15:42:50.000Z</time>
      </trkpt>
      <trkpt lat="47.52877" lon="6.77554">
        <ele>406.8</ele>
        <time>2016-01-21T15:42:51.000Z</time>
      </trkpt>
      <trkpt lat="47.5288" lon="6.77554">
        <ele>406.8</ele>
        <time>2016-01-21T15:42:52.000Z</time>
      </trkpt>
      <trkpt lat="47.52882" lon="6.77554">
        <ele>407</ele>
        <time>2016-01-21T15:42:53.000Z</time>
      </trkpt>
      <trkpt lat="47.52885" lon="6.77554">
        <ele>406.3</ele>
        <time>2016-01-21T15:42:54.000Z</time>
      </trkpt>
      <trkpt lat="47.52887" lon="6.77554">
        <ele>406</ele>
        <time>2016-01-21T15:42:55.000Z</time>
      </trkpt>
      <trkpt lat="47.5289" lon="6.77553">
        <ele>406.3</ele>
        <time>2016-01-21T15:42:56.000Z</time>
      </trkpt>
      <trkpt lat="47.52892" lon="6.77553">
        <ele>405.2</ele>
        <time>2016-01-21T15:42:57.000Z</time>
      </trkpt>
      <trkpt lat="47.52895" lon="6.77553">
        <ele>405.5</ele>
        <time>2016-01-21T15:42:58.000Z</time>
      </trkpt>
      <trkpt lat="47.52898" lon="6.77553">
        <ele>404.5</ele>
        <time>2016-01-21T15:42:59.000Z</time>
      </trkpt>
      <trkpt lat="47.52901" lon="6.77553">
        <ele>406.4</ele>
        <time>2016-01-21T15:43:00.000Z</time>
      </trkpt>
      <trkpt lat="47.52904" lon="6.77552">
        <ele>407</ele>
        <time>2016-01-21T15:43:01.000Z</time>
      </trkpt>
      <trkpt lat="47.52907" lon="6.77552">
        <ele>408.3</ele>
        <time>2016-01-21T15:43:02.000Z</time>
      </trkpt>
      <trkpt lat="47.5291" lon="6.77551">
        <ele>409.5</ele>
        <time>2016-01-21T15:43:03.000Z</time>
      </trkpt>
      <trkpt lat="47.52913" lon="6.7755">
        <ele>410.3</ele>
        <time>2016-01-21T15:43:04.000Z</time>
      </trkpt>
      <trkpt lat="47.52915" lon="6.7755">
        <ele>410.6</ele>
        <time>2016-01-21T15:43:05.000Z</time>
      </trkpt>
      <trkpt lat="47.52918" lon="6.77549">
        <ele>410.6</ele>
        <time>2016-01-21T15:43:06.000Z</time>
      </trkpt>
      <trkpt lat="47.52921" lon="6.77549">
        <ele>410.8</ele>
        <time>2016-01-21T15:43:07.000Z</time>
      </trkpt>
      <trkpt lat="47.52924" lon="6.77549">
        <ele>410.9</ele>
        <time>2016-01-21T15:43:08.000Z</time>
      </trkpt>
      <trkpt lat="47.52927" lon="6.77549">
        <ele>410.8</ele>
        <time>2016-01-21T15:43:09.000Z</time>
      </trkpt>
      <trkpt lat="47.52929" lon="6.7755">
        <ele>410.5</ele>
        <time>2016-01-21T15:43:10.000Z</time>
      </trkpt>
      <trkpt lat="47.52933" lon="6.77551">
        <ele>410.4</ele>
        <time>2016-01-21T15:43:11.000Z</time>
      </trkpt>
      <trkpt lat="47.52935" lon="6.77552">
        <ele>410.9</ele>
        <time>2016-01-21T15:43:12.000Z</time>
      </trkpt>
      <trkpt lat="47.52939" lon="6.77554">
        <ele>411</ele>
        <time>2016-01-21T15:43:13.000Z</time>
      </trkpt>
      <trkpt lat="47.52942" lon="6.77555">
        <ele>410.7</ele>
        <time>2016-01-21T15:43:14.000Z</time>
      </trkpt>
      <trkpt lat="47.52945" lon="6.77557">
        <ele>409.9</ele>
        <time>2016-01-21T15:43:15.000Z</time>
      </trkpt>
      <trkpt lat="47.52948" lon="6.77559">
        <ele>410</ele>
        <time>2016-01-21T15:43:16.000Z</time>
      </trkpt>
      <trkpt lat="47.52951" lon="6.77561">
        <ele>410.1</ele>
        <time>2016-01-21T15:43:17.000Z</time>
      </trkpt>
      <trkpt lat="47.52953" lon="6.77563">
        <ele>410.4</ele>
        <time>2016-01-21T15:43:18.000Z</time>
      </trkpt>
      <trkpt lat="47.52956" lon="6.77565">
        <ele>410.3</ele>
        <time>2016-01-21T15:43:19.000Z</time>
      </trkpt>
      <trkpt lat="47.52958" lon="6.77566">
        <ele>410.5</ele>
        <time>2016-01-21T15:43:20.000Z</time>
      </trkpt>
      <trkpt lat="47.52961" lon="6.77567">
        <ele>410.6</ele>
        <time>2016-01-21T15:43:21.000Z</time>
      </trkpt>
      <trkpt lat="47.52963" lon="6.77568">
        <ele>410.6</ele>
        <time>2016-01-21T15:43:22.002Z</time>
      </trkpt>
      <trkpt lat="47.52967" lon="6.77569">
        <ele>409.9</ele>
        <time>2016-01-21T15:43:24.000Z</time>
      </trkpt>
      <trkpt lat="47.52969" lon="6.77569">
        <ele>410.6</ele>
        <time>2016-01-21T15:43:25.000Z</time>
      </trkpt>
      <trkpt lat="47.52972" lon="6.77569">
        <ele>410.4</ele>
        <time>2016-01-21T15:43:26.000Z</time>
      </trkpt>
      <trkpt lat="47.52975" lon="6.77569">
        <ele>410.1</ele>
        <time>2016-01-21T15:43:27.000Z</time>
      </trkpt>
      <trkpt lat="47.52978" lon="6.7757">
        <ele>410.3</ele>
        <time>2016-01-21T15:43:28.000Z</time>
      </trkpt>
      <trkpt lat="47.52981" lon="6.7757">
        <ele>409.6</ele>
        <time>2016-01-21T15:43:29.000Z</time>
      </trkpt>
      <trkpt lat="47.52984" lon="6.7757">
        <ele>409.8</ele>
        <time>2016-01-21T15:43:30.000Z</time>
      </trkpt>
      <trkpt lat="47.52986" lon="6.77571">
        <ele>409.3</ele>
        <time>2016-01-21T15:43:31.000Z</time>
      </trkpt>
      <trkpt lat="47.52989" lon="6.77571">
        <ele>409.4</ele>
        <time>2016-01-21T15:43:32.000Z</time>
      </trkpt>
      <trkpt lat="47.52992" lon="6.77572">
        <ele>409.7</ele>
        <time>2016-01-21T15:43:33.000Z</time>
      </trkpt>
      <trkpt lat="47.52994" lon="6.77573">
        <ele>410.2</ele>
        <time>2016-01-21T15:43:34.000Z</time>
      </trkpt>
      <trkpt lat="47.52996" lon="6.77574">
        <ele>409.8</ele>
        <time>2016-01-21T15:43:35.000Z</time>
      </trkpt>
      <trkpt lat="47.52999" lon="6.77575">
        <ele>409.8</ele>
        <time>2016-01-21T15:43:36.000Z</time>
      </trkpt>
      <trkpt lat="47.53001" lon="6.77576">
        <ele>410.4</ele>
        <time>2016-01-21T15:43:37.000Z</time>
      </trkpt>
      <trkpt lat="47.53004" lon="6.77577">
        <ele>411</ele>
        <time>2016-01-21T15:43:38.000Z</time>
      </trkpt>
      <trkpt lat="47.53006" lon="6.77577">
        <ele>410.2</ele>
        <time>2016-01-21T15:43:39.000Z</time>
      </trkpt>
      <trkpt lat="47.53009" lon="6.77578">
        <ele>410.2</ele>
        <time>2016-01-21T15:43:40.000Z</time>
      </trkpt>
      <trkpt lat="47.53012" lon="6.77578">
        <ele>409.5</ele>
        <time>2016-01-21T15:43:41.000Z</time>
      </trkpt>
      <trkpt lat="47.53015" lon="6.77578">
        <ele>409.6</ele>
        <time>2016-01-21T15:43:42.000Z</time>
      </trkpt>
      <trkpt lat="47.53018" lon="6.77578">
        <ele>410</ele>
        <time>2016-01-21T15:43:43.000Z</time>
      </trkpt>
      <trkpt lat="47.5302" lon="6.77578">
        <ele>410.9</ele>
        <time>2016-01-21T15:43:44.000Z</time>
      </trkpt>
      <trkpt lat="47.53023" lon="6.77578">
        <ele>411.2</ele>
        <time>2016-01-21T15:43:45.000Z</time>
      </trkpt>
      <trkpt lat="47.53026" lon="6.77579">
        <ele>411.7</ele>
        <time>2016-01-21T15:43:46.000Z</time>
      </trkpt>
      <trkpt lat="47.53028" lon="6.7758">
        <ele>411.7</ele>
        <time>2016-01-21T15:43:47.000Z</time>
      </trkpt>
      <trkpt lat="47.53031" lon="6.77581">
        <ele>411.7</ele>
        <time>2016-01-21T15:43:48.000Z</time>
      </trkpt>
      <trkpt lat="47.53033" lon="6.77582">
        <ele>412</ele>
        <time>2016-01-21T15:43:49.000Z</time>
      </trkpt>
      <trkpt lat="47.53036" lon="6.77583">
        <ele>412.2</ele>
        <time>2016-01-21T15:43:50.000Z</time>
      </trkpt>
      <trkpt lat="47.53038" lon="6.77584">
        <ele>412.4</ele>
        <time>2016-01-21T15:43:51.000Z</time>
      </trkpt>
      <trkpt lat="47.53041" lon="6.77585">
        <ele>411.7</ele>
        <time>2016-01-21T15:43:52.000Z</time>
      </trkpt>
      <trkpt lat="47.53044" lon="6.77586">
        <ele>410.7</ele>
        <time>2016-01-21T15:43:53.000Z</time>
      </trkpt>
      <trkpt lat="47.53046" lon="6.77587">
        <ele>409.2</ele>
        <time>2016-01-21T15:43:54.000Z</time>
      </trkpt>
      <trkpt lat="47.53049" lon="6.77588">
        <ele>408.8</ele>
        <time>2016-01-21T15:43:55.000Z</time>
      </trkpt>
      <trkpt lat="47.53052" lon="6.77588">
        <ele>408.6</ele>
        <time>2016-01-21T15:43:56.000Z</time>
      </trkpt>
      <trkpt lat="47.53055" lon="6.77588">
        <ele>408.3</ele>
        <time>2016-01-21T15:43:57.000Z</time>
      </trkpt>
      <trkpt lat="47.53057" lon="6.77588">
        <ele>407.4</ele>
        <time>2016-01-21T15:43:58.000Z</time>
      </trkpt>
      <trkpt lat="47.5306" lon="6.77588">
        <ele>408.5</ele>
        <time>2016-01-21T15:43:59.000Z</time>
      </trkpt>
      <trkpt lat="47.53063" lon="6.77588">
        <ele>408.4</ele>
        <time>2016-01-21T15:44:00.000Z</time>
      </trkpt>
      <trkpt lat="47.53065" lon="6.77588">
        <ele>409.2</ele>
        <time>2016-01-21T15:44:01.000Z</time>
      </trkpt>
      <trkpt lat="47.53068" lon="6.77588">
        <ele>410</ele>
        <time>2016-01-21T15:44:02.000Z</time>
      </trkpt>
      <trkpt lat="47.53071" lon="6.77588">
        <ele>409.7</ele>
        <time>2016-01-21T15:44:03.000Z</time>
      </trkpt>
      <trkpt lat="47.53073" lon="6.77588">
        <ele>409.4</ele>
        <time>2016-01-21T15:44:04.000Z</time>
      </trkpt>
      <trkpt lat="47.53076" lon="6.77588">
        <ele>409.9</ele>
        <time>2016-01-21T15:44:05.000Z</time>
      </trkpt>
      <trkpt lat="47.53078" lon="6.77588">
        <ele>409.2</ele>
        <time>2016-01-21T15:44:06.000Z</time>
      </trkpt>
      <trkpt lat="47.53081" lon="6.7759">
        <ele>409.3</ele>
        <time>2016-01-21T15:44:07.000Z</time>
      </trkpt>
      <trkpt lat="47.53083" lon="6.77592">
        <ele>409.2</ele>
        <time>2016-01-21T15:44:08.000Z</time>
      </trkpt>
      <trkpt lat="47.53085" lon="6.77595">
        <ele>409.1</ele>
        <time>2016-01-21T15:44:09.000Z</time>
      </trkpt>
      <trkpt lat="47.53087" lon="6.77597">
        <ele>408.5</ele>
        <time>2016-01-21T15:44:10.000Z</time>
      </trkpt>
      <trkpt lat="47.53088" lon="6.776">
        <ele>408.6</ele>
        <time>2016-01-21T15:44:11.000Z</time>
      </trkpt>
      <trkpt lat="47.5309" lon="6.77603">
        <ele>408.3</ele>
        <time>2016-01-21T15:44:12.000Z</time>
      </trkpt>
      <trkpt lat="47.53092" lon="6.77606">
        <ele>408.5</ele>
        <time>2016-01-21T15:44:13.000Z</time>
      </trkpt>
      <trkpt lat="47.53094" lon="6.77609">
        <ele>407.8</ele>
        <time>2016-01-21T15:44:14.000Z</time>
      </trkpt>
      <trkpt lat="47.53096" lon="6.77611">
        <ele>408</ele>
        <time>2016-01-21T15:44:15.000Z</time>
      </trkpt>
      <trkpt lat="47.53098" lon="6.77614">
        <ele>408.7</ele>
        <time>2016-01-21T15:44:16.000Z</time>
      </trkpt>
      <trkpt lat="47.531" lon="6.77617">
        <ele>408.8</ele>
        <time>2016-01-21T15:44:17.000Z</time>
      </trkpt>
      <trkpt lat="47.53102" lon="6.77619">
        <ele>408.2</ele>
        <time>2016-01-21T15:44:18.000Z</time>
      </trkpt>
      <trkpt lat="47.53104" lon="6.77622">
        <ele>407.7</ele>
        <time>2016-01-21T15:44:19.000Z</time>
      </trkpt>
      <trkpt lat="47.53106" lon="6.77625">
        <ele>406.2</ele>
        <time>2016-01-21T15:44:20.000Z</time>
      </trkpt>
      <trkpt lat="47.53107" lon="6.77628">
        <ele>406.2</ele>
        <time>2016-01-21T15:44:21.000Z</time>
      </trkpt>
      <trkpt lat="47.53108" lon="6.77631">
        <ele>405.8</ele>
        <time>2016-01-21T15:44:22.000Z</time>
      </trkpt>
      <trkpt lat="47.5311" lon="6.77634">
        <ele>406</ele>
        <time>2016-01-21T15:44:23.000Z</time>
      </trkpt>
      <trkpt lat="47.53111" lon="6.77638">
        <ele>405.6</ele>
        <time>2016-01-21T15:44:24.000Z</time>
      </trkpt>
      <trkpt lat="47.53113" lon="6.77641">
        <ele>405.5</ele>
        <time>2016-01-21T15:44:25.000Z</time>
      </trkpt>
      <trkpt lat="47.53114" lon="6.77647">
        <ele>405.4</ele>
        <time>2016-01-21T15:44:27.000Z</time>
      </trkpt>
      <trkpt lat="47.53114" lon="6.77649">
        <ele>404</ele>
        <time>2016-01-21T15:44:28.000Z</time>
      </trkpt>
      <trkpt lat="47.53112" lon="6.77644">
        <ele>403</ele>
        <time>2016-01-21T15:44:42.000Z</time>
      </trkpt>
      <trkpt lat="47.5311" lon="6.77642">
        <ele>403.2</ele>
        <time>2016-01-21T15:44:43.000Z</time>
      </trkpt>
      <trkpt lat="47.53109" lon="6.77638">
        <ele>402.9</ele>
        <time>2016-01-21T15:44:45.000Z</time>
      </trkpt>
      <trkpt lat="47.53108" lon="6.77636">
        <ele>403.1</ele>
        <time>2016-01-21T15:44:46.000Z</time>
      </trkpt>
      <trkpt lat="47.53109" lon="6.7763">
        <ele>401.9</ele>
        <time>2016-01-21T15:44:48.000Z</time>
      </trkpt>
      <trkpt lat="47.5311" lon="6.77627">
        <ele>401.9</ele>
        <time>2016-01-21T15:44:49.000Z</time>
      </trkpt>
      <trkpt lat="47.53111" lon="6.77621">
        <ele>402.3</ele>
        <time>2016-01-21T15:44:51.000Z</time>
      </trkpt>
      <trkpt lat="47.53113" lon="6.77618">
        <ele>401.6</ele>
        <time>2016-01-21T15:44:52.000Z</time>
      </trkpt>
      <trkpt lat="47.53115" lon="6.77614">
        <ele>401.6</ele>
        <time>2016-01-21T15:44:53.000Z</time>
      </trkpt>
      <trkpt lat="47.53117" lon="6.77611">
        <ele>402.4</ele>
        <time>2016-01-21T15:44:54.000Z</time>
      </trkpt>
      <trkpt lat="47.5312" lon="6.77607">
        <ele>402.4</ele>
        <time>2016-01-21T15:44:55.000Z</time>
      </trkpt>
      <trkpt lat="47.53123" lon="6.77604">
        <ele>402.5</ele>
        <time>2016-01-21T15:44:56.000Z</time>
      </trkpt>
      <trkpt lat="47.53126" lon="6.77601">
        <ele>403</ele>
        <time>2016-01-21T15:44:57.000Z</time>
      </trkpt>
      <trkpt lat="47.53128" lon="6.77597">
        <ele>403.2</ele>
        <time>2016-01-21T15:44:58.000Z</time>
      </trkpt>
      <trkpt lat="47.53131" lon="6.77594">
        <ele>403.1</ele>
        <time>2016-01-21T15:44:59.000Z</time>
      </trkpt>
      <trkpt lat="47.53134" lon="6.77591">
        <ele>403.6</ele>
        <time>2016-01-21T15:45:00.000Z</time>
      </trkpt>
      <trkpt lat="47.53136" lon="6.77588">
        <ele>403.5</ele>
        <time>2016-01-21T15:45:01.000Z</time>
      </trkpt>
      <trkpt lat="47.53138" lon="6.77586">
        <ele>403.6</ele>
        <time>2016-01-21T15:45:02.000Z</time>
      </trkpt>
      <trkpt lat="47.5314" lon="6.77584">
        <ele>403.4</ele>
        <time>2016-01-21T15:45:03.000Z</time>
      </trkpt>
      <trkpt lat="47.53142" lon="6.77582">
        <ele>403.1</ele>
        <time>2016-01-21T15:45:04.000Z</time>
      </trkpt>
      <trkpt lat="47.53144" lon="6.77579">
        <ele>403</ele>
        <time>2016-01-21T15:45:05.000Z</time>
      </trkpt>
      <trkpt lat="47.53145" lon="6.77576">
        <ele>403.8</ele>
        <time>2016-01-21T15:45:06.000Z</time>
      </trkpt>
      <trkpt lat="47.53147" lon="6.7757">
        <ele>403.9</ele>
        <time>2016-01-21T15:45:08.000Z</time>
      </trkpt>
      <trkpt lat="47.53148" lon="6.77567">
        <ele>404.3</ele>
        <time>2016-01-21T15:45:09.000Z</time>
      </trkpt>
      <trkpt lat="47.53149" lon="6.77564">
        <ele>404.1</ele>
        <time>2016-01-21T15:45:10.000Z</time>
      </trkpt>
      <trkpt lat="47.53151" lon="6.77562">
        <ele>404.6</ele>
        <time>2016-01-21T15:45:11.000Z</time>
      </trkpt>
      <trkpt lat="47.53153" lon="6.7756">
        <ele>404.5</ele>
        <time>2016-01-21T15:45:12.000Z</time>
      </trkpt>
      <trkpt lat="47.53155" lon="6.77558">
        <ele>404.5</ele>
        <time>2016-01-21T15:45:13.000Z</time>
      </trkpt>
      <trkpt lat="47.53158" lon="6.77556">
        <ele>404.2</ele>
        <time>2016-01-21T15:45:14.000Z</time>
      </trkpt>
      <trkpt lat="47.53161" lon="6.77554">
        <ele>404</ele>
        <time>2016-01-21T15:45:15.000Z</time>
      </trkpt>
      <trkpt lat="47.53163" lon="6.77552">
        <ele>403.4</ele>
        <time>2016-01-21T15:45:16.000Z</time>
      </trkpt>
      <trkpt lat="47.53165" lon="6.7755">
        <ele>402.6</ele>
        <time>2016-01-21T15:45:17.000Z</time>
      </trkpt>
      <trkpt lat="47.53168" lon="6.77548">
        <ele>401.6</ele>
        <time>2016-01-21T15:45:18.000Z</time>
      </trkpt>
      <trkpt lat="47.5317" lon="6.77546">
        <ele>402.1</ele>
        <time>2016-01-21T15:45:19.000Z</time>
      </trkpt>
      <trkpt lat="47.53172" lon="6.77544">
        <ele>402.2</ele>
        <time>2016-01-21T15:45:20.000Z</time>
      </trkpt>
      <trkpt lat="47.53174" lon="6.77542">
        <ele>402.6</ele>
        <time>2016-01-21T15:45:21.000Z</time>
      </trkpt>
      <trkpt lat="47.53177" lon="6.7754">
        <ele>402.2</ele>
        <time>2016-01-21T15:45:22.000Z</time>
      </trkpt>
      <trkpt lat="47.5318" lon="6.77538">
        <ele>402.3</ele>
        <time>2016-01-21T15:45:23.000Z</time>
      </trkpt>
      <trkpt lat="47.53182" lon="6.77536">
        <ele>401.5</ele>
        <time>2016-01-21T15:45:24.000Z</time>
      </trkpt>
      <trkpt lat="47.53184" lon="6.77533">
        <ele>401.1</ele>
        <time>2016-01-21T15:45:25.000Z</time>
      </trkpt>
      <trkpt lat="47.53187" lon="6.7753">
        <ele>400</ele>
        <time>2016-01-21T15:45:26.000Z</time>
      </trkpt>
      <trkpt lat="47.53189" lon="6.77527">
        <ele>399.9</ele>
        <time>2016-01-21T15:45:27.000Z</time>
      </trkpt>
      <trkpt lat="47.53192" lon="6.77524">
        <ele>399.3</ele>
        <time>2016-01-21T15:45:28.000Z</time>
      </trkpt>
      <trkpt lat="47.53194" lon="6.7752">
        <ele>398.6</ele>
        <time>2016-01-21T15:45:29.000Z</time>
      </trkpt>
      <trkpt lat="47.53196" lon="6.77517">
        <ele>398.2</ele>
        <time>2016-01-21T15:45:30.000Z</time>
      </trkpt>
      <trkpt lat="47.53199" lon="6.77514">
        <ele>397.9</ele>
        <time>2016-01-21T15:45:31.000Z</time>
      </trkpt>
      <trkpt lat="47.53201" lon="6.77511">
        <ele>398.3</ele>
        <time>2016-01-21T15:45:32.000Z</time>
      </trkpt>
      <trkpt lat="47.53203" lon="6.77508">
        <ele>397.8</ele>
        <time>2016-01-21T15:45:33.000Z</time>
      </trkpt>
      <trkpt lat="47.53205" lon="6.77505">
        <ele>397.5</ele>
        <time>2016-01-21T15:45:34.000Z</time>
      </trkpt>
      <trkpt lat="47.53207" lon="6.77502">
        <ele>398.4</ele>
        <time>2016-01-21T15:45:35.000Z</time>
      </trkpt>
      <trkpt lat="47.53209" lon="6.77499">
        <ele>398.3</ele>
        <time>2016-01-21T15:45:36.000Z</time>
      </trkpt>
      <trkpt lat="47.5321" lon="6.77495">
        <ele>399.1</ele>
        <time>2016-01-21T15:45:37.000Z</time>
      </trkpt>
      <trkpt lat="47.53211" lon="6.77492">
        <ele>398.8</ele>
        <time>2016-01-21T15:45:38.000Z</time>
      </trkpt>
      <trkpt lat="47.53212" lon="6.77488">
        <ele>398.2</ele>
        <time>2016-01-21T15:45:39.000Z</time>
      </trkpt>
      <trkpt lat="47.53213" lon="6.77484">
        <ele>398.4</ele>
        <time>2016-01-21T15:45:40.000Z</time>
      </trkpt>
      <trkpt lat="47.53214" lon="6.77481">
        <ele>398.2</ele>
        <time>2016-01-21T15:45:41.000Z</time>
      </trkpt>
      <trkpt lat="47.53216" lon="6.77475">
        <ele>397.7</ele>
        <time>2016-01-21T15:45:43.000Z</time>
      </trkpt>
      <trkpt lat="47.53217" lon="6.77472">
        <ele>398</ele>
        <time>2016-01-21T15:45:44.000Z</time>
      </trkpt>
      <trkpt lat="47.53219" lon="6.77469">
        <ele>397.5</ele>
        <time>2016-01-21T15:45:45.000Z</time>
      </trkpt>
      <trkpt lat="47.53221" lon="6.77466">
        <ele>398.1</ele>
        <time>2016-01-21T15:45:46.000Z</time>
      </trkpt>
      <trkpt lat="47.53222" lon="6.77462">
        <ele>397.5</ele>
        <time>2016-01-21T15:45:47.000Z</time>
      </trkpt>
      <trkpt lat="47.53224" lon="6.77459">
        <ele>397</ele>
        <time>2016-01-21T15:45:48.000Z</time>
      </trkpt>
      <trkpt lat="47.53226" lon="6.77456">
        <ele>396.7</ele>
        <time>2016-01-21T15:45:49.000Z</time>
      </trkpt>
      <trkpt lat="47.53227" lon="6.77453">
        <ele>396.1</ele>
        <time>2016-01-21T15:45:50.000Z</time>
      </trkpt>
      <trkpt lat="47.53229" lon="6.7745">
        <ele>396</ele>
        <time>2016-01-21T15:45:51.000Z</time>
      </trkpt>
      <trkpt lat="47.53232" lon="6.77448">
        <ele>395.3</ele>
        <time>2016-01-21T15:45:52.000Z</time>
      </trkpt>
      <trkpt lat="47.53234" lon="6.77445">
        <ele>394.7</ele>
        <time>2016-01-21T15:45:53.000Z</time>
      </trkpt>
      <trkpt lat="47.53235" lon="6.77443">
        <ele>393.9</ele>
        <time>2016-01-21T15:45:54.000Z</time>
      </trkpt>
      <trkpt lat="47.53237" lon="6.7744">
        <ele>393.6</ele>
        <time>2016-01-21T15:45:55.000Z</time>
      </trkpt>
      <trkpt lat="47.53239" lon="6.77438">
        <ele>393.7</ele>
        <time>2016-01-21T15:45:56.000Z</time>
      </trkpt>
      <trkpt lat="47.53241" lon="6.77435">
        <ele>392.8</ele>
        <time>2016-01-21T15:45:57.000Z</time>
      </trkpt>
      <trkpt lat="47.53243" lon="6.77432">
        <ele>392.4</ele>
        <time>2016-01-21T15:45:58.000Z</time>
      </trkpt>
      <trkpt lat="47.53245" lon="6.77429">
        <ele>392.2</ele>
        <time>2016-01-21T15:45:59.000Z</time>
      </trkpt>
      <trkpt lat="47.53247" lon="6.77426">
        <ele>392.3</ele>
        <time>2016-01-21T15:46:00.000Z</time>
      </trkpt>
      <trkpt lat="47.53249" lon="6.77423">
        <ele>392.5</ele>
        <time>2016-01-21T15:46:01.000Z</time>
      </trkpt>
      <trkpt lat="47.5325" lon="6.7742">
        <ele>391.8</ele>
        <time>2016-01-21T15:46:02.000Z</time>
      </trkpt>
      <trkpt lat="47.53252" lon="6.77417">
        <ele>391.6</ele>
        <time>2016-01-21T15:46:03.000Z</time>
      </trkpt>
      <trkpt lat="47.53253" lon="6.77413">
        <ele>391.7</ele>
        <time>2016-01-21T15:46:04.000Z</time>
      </trkpt>
      <trkpt lat="47.53254" lon="6.7741">
        <ele>390.7</ele>
        <time>2016-01-21T15:46:05.000Z</time>
      </trkpt>
      <trkpt lat="47.53255" lon="6.77407">
        <ele>390.5</ele>
        <time>2016-01-21T15:46:06.000Z</time>
      </trkpt>
      <trkpt lat="47.53257" lon="6.77404">
        <ele>389.7</ele>
        <time>2016-01-21T15:46:07.000Z</time>
      </trkpt>
      <trkpt lat="47.53259" lon="6.77402">
        <ele>389.8</ele>
        <time>2016-01-21T15:46:08.000Z</time>
      </trkpt>
      <trkpt lat="47.53261" lon="6.77399">
        <ele>389.5</ele>
        <time>2016-01-21T15:46:09.000Z</time>
      </trkpt>
      <trkpt lat="47.53263" lon="6.77397">
        <ele>389.2</ele>
        <time>2016-01-21T15:46:10.000Z</time>
      </trkpt>
      <trkpt lat="47.53264" lon="6.77394">
        <ele>389.2</ele>
        <time>2016-01-21T15:46:11.000Z</time>
      </trkpt>
      <trkpt lat="47.53266" lon="6.77392">
        <ele>389.4</ele>
        <time>2016-01-21T15:46:12.000Z</time>
      </trkpt>
      <trkpt lat="47.53267" lon="6.77389">
        <ele>389.2</ele>
        <time>2016-01-21T15:46:13.000Z</time>
      </trkpt>
      <trkpt lat="47.53269" lon="6.77386">
        <ele>388.3</ele>
        <time>2016-01-21T15:46:14.000Z</time>
      </trkpt>
      <trkpt lat="47.53271" lon="6.77383">
        <ele>387.3</ele>
        <time>2016-01-21T15:46:15.000Z</time>
      </trkpt>
      <trkpt lat="47.53272" lon="6.7738">
        <ele>386.7</ele>
        <time>2016-01-21T15:46:16.000Z</time>
      </trkpt>
      <trkpt lat="47.53273" lon="6.77376">
        <ele>386.5</ele>
        <time>2016-01-21T15:46:17.000Z</time>
      </trkpt>
      <trkpt lat="47.53275" lon="6.77373">
        <ele>385.6</ele>
        <time>2016-01-21T15:46:18.000Z</time>
      </trkpt>
      <trkpt lat="47.53276" lon="6.7737">
        <ele>385.3</ele>
        <time>2016-01-21T15:46:19.000Z</time>
      </trkpt>
      <trkpt lat="47.53278" lon="6.77368">
        <ele>385.4</ele>
        <time>2016-01-21T15:46:20.000Z</time>
      </trkpt>
      <trkpt lat="47.53279" lon="6.77363">
        <ele>385.3</ele>
        <time>2016-01-21T15:46:22.000Z</time>
      </trkpt>
      <trkpt lat="47.5328" lon="6.77361">
        <ele>384.5</ele>
        <time>2016-01-21T15:46:23.000Z</time>
      </trkpt>
      <trkpt lat="47.53281" lon="6.77356">
        <ele>384.9</ele>
        <time>2016-01-21T15:46:25.000Z</time>
      </trkpt>
      <trkpt lat="47.53282" lon="6.77353">
        <ele>384.9</ele>
        <time>2016-01-21T15:46:26.000Z</time>
      </trkpt>
      <trkpt lat="47.53284" lon="6.77349">
        <ele>384.3</ele>
        <time>2016-01-21T15:46:28.000Z</time>
      </trkpt>
      <trkpt lat="47.53285" lon="6.77347">
        <ele>384.9</ele>
        <time>2016-01-21T15:46:29.000Z</time>
      </trkpt>
      <trkpt lat="47.53288" lon="6.77343">
        <ele>385</ele>
        <time>2016-01-21T15:46:31.000Z</time>
      </trkpt>
      <trkpt lat="47.53289" lon="6.7734">
        <ele>384.7</ele>
        <time>2016-01-21T15:46:32.000Z</time>
      </trkpt>
      <trkpt lat="47.53292" lon="6.77337">
        <ele>384.5</ele>
        <time>2016-01-21T15:46:33.000Z</time>
      </trkpt>
      <trkpt lat="47.53294" lon="6.77335">
        <ele>384.2</ele>
        <time>2016-01-21T15:46:34.000Z</time>
      </trkpt>
      <trkpt lat="47.53296" lon="6.77332">
        <ele>383.8</ele>
        <time>2016-01-21T15:46:35.000Z</time>
      </trkpt>
      <trkpt lat="47.53299" lon="6.77329">
        <ele>382.8</ele>
        <time>2016-01-21T15:46:36.000Z</time>
      </trkpt>
      <trkpt lat="47.53302" lon="6.77326">
        <ele>382.5</ele>
        <time>2016-01-21T15:46:37.000Z</time>
      </trkpt>
      <trkpt lat="47.53305" lon="6.77324">
        <ele>382.4</ele>
        <time>2016-01-21T15:46:38.000Z</time>
      </trkpt>
      <trkpt lat="47.53308" lon="6.77321">
        <ele>381.4</ele>
        <time>2016-01-21T15:46:39.000Z</time>
      </trkpt>
      <trkpt lat="47.5331" lon="6.77318">
        <ele>380.4</ele>
        <time>2016-01-21T15:46:40.000Z</time>
      </trkpt>
      <trkpt lat="47.53313" lon="6.77315">
        <ele>380.4</ele>
        <time>2016-01-21T15:46:41.000Z</time>
      </trkpt>
      <trkpt lat="47.53316" lon="6.77312">
        <ele>380</ele>
        <time>2016-01-21T15:46:42.000Z</time>
      </trkpt>
      <trkpt lat="47.53319" lon="6.77308">
        <ele>380</ele>
        <time>2016-01-21T15:46:43.000Z</time>
      </trkpt>
      <trkpt lat="47.53322" lon="6.77305">
        <ele>379.2</ele>
        <time>2016-01-21T15:46:44.000Z</time>
      </trkpt>
      <trkpt lat="47.53324" lon="6.77302">
        <ele>378.6</ele>
        <time>2016-01-21T15:46:45.000Z</time>
      </trkpt>
      <trkpt lat="47.53327" lon="6.773">
        <ele>378.4</ele>
        <time>2016-01-21T15:46:46.000Z</time>
      </trkpt>
      <trkpt lat="47.53329" lon="6.77297">
        <ele>378.6</ele>
        <time>2016-01-21T15:46:47.000Z</time>
      </trkpt>
      <trkpt lat="47.53331" lon="6.77295">
        <ele>378.1</ele>
        <time>2016-01-21T15:46:48.000Z</time>
      </trkpt>
      <trkpt lat="47.53333" lon="6.77293">
        <ele>377.6</ele>
        <time>2016-01-21T15:46:49.000Z</time>
      </trkpt>
      <trkpt lat="47.53334" lon="6.77291">
        <ele>377.2</ele>
        <time>2016-01-21T15:46:50.000Z</time>
      </trkpt>
      <trkpt lat="47.53336" lon="6.77288">
        <ele>376.4</ele>
        <time>2016-01-21T15:46:51.000Z</time>
      </trkpt>
      <trkpt lat="47.53337" lon="6.77285">
        <ele>376.4</ele>
        <time>2016-01-21T15:46:52.000Z</time>
      </trkpt>
      <trkpt lat="47.53339" lon="6.7728">
        <ele>375.7</ele>
        <time>2016-01-21T15:46:54.000Z</time>
      </trkpt>
      <trkpt lat="47.5334" lon="6.77277">
        <ele>375.3</ele>
        <time>2016-01-21T15:46:55.000Z</time>
      </trkpt>
      <trkpt lat="47.53342" lon="6.77273">
        <ele>375.7</ele>
        <time>2016-01-21T15:46:57.000Z</time>
      </trkpt>
      <trkpt lat="47.53343" lon="6.77271">
        <ele>374.8</ele>
        <time>2016-01-21T15:46:58.000Z</time>
      </trkpt>
      <trkpt lat="47.53346" lon="6.77266">
        <ele>375.1</ele>
        <time>2016-01-21T15:47:00.000Z</time>
      </trkpt>
      <trkpt lat="47.53347" lon="6.77263">
        <ele>374.8</ele>
        <time>2016-01-21T15:47:01.000Z</time>
      </trkpt>
      <trkpt lat="47.53349" lon="6.77257">
        <ele>373.5</ele>
        <time>2016-01-21T15:47:03.000Z</time>
      </trkpt>
      <trkpt lat="47.5335" lon="6.77254">
        <ele>372.4</ele>
        <time>2016-01-21T15:47:04.000Z</time>
      </trkpt>
      <trkpt lat="47.53352" lon="6.7725">
        <ele>372.2</ele>
        <time>2016-01-21T15:47:05.000Z</time>
      </trkpt>
      <trkpt lat="47.53354" lon="6.77247">
        <ele>371.5</ele>
        <time>2016-01-21T15:47:06.000Z</time>
      </trkpt>
      <trkpt lat="47.53356" lon="6.77243">
        <ele>370.9</ele>
        <time>2016-01-21T15:47:07.000Z</time>
      </trkpt>
      <trkpt lat="47.53359" lon="6.7724">
        <ele>371.2</ele>
        <time>2016-01-21T15:47:08.000Z</time>
      </trkpt>
      <trkpt lat="47.53361" lon="6.77238">
        <ele>370.5</ele>
        <time>2016-01-21T15:47:09.000Z</time>
      </trkpt>
      <trkpt lat="47.53364" lon="6.77236">
        <ele>371.2</ele>
        <time>2016-01-21T15:47:10.000Z</time>
      </trkpt>
      <trkpt lat="47.53366" lon="6.77234">
        <ele>370.7</ele>
        <time>2016-01-21T15:47:11.000Z</time>
      </trkpt>
      <trkpt lat="47.53368" lon="6.77232">
        <ele>370.3</ele>
        <time>2016-01-21T15:47:12.000Z</time>
      </trkpt>
      <trkpt lat="47.5337" lon="6.7723">
        <ele>369.9</ele>
        <time>2016-01-21T15:47:13.000Z</time>
      </trkpt>
      <trkpt lat="47.53372" lon="6.77228">
        <ele>369.8</ele>
        <time>2016-01-21T15:47:14.000Z</time>
      </trkpt>
      <trkpt lat="47.53374" lon="6.77226">
        <ele>370</ele>
        <time>2016-01-21T15:47:15.000Z</time>
      </trkpt>
      <trkpt lat="47.53376" lon="6.77223">
        <ele>369.6</ele>
        <time>2016-01-21T15:47:16.000Z</time>
      </trkpt>
      <trkpt lat="47.53378" lon="6.7722">
        <ele>369</ele>
        <time>2016-01-21T15:47:17.000Z</time>
      </trkpt>
      <trkpt lat="47.5338" lon="6.77217">
        <ele>367.7</ele>
        <time>2016-01-21T15:47:18.000Z</time>
      </trkpt>
      <trkpt lat="47.53383" lon="6.77215">
        <ele>368.4</ele>
        <time>2016-01-21T15:47:19.000Z</time>
      </trkpt>
      <trkpt lat="47.53386" lon="6.77213">
        <ele>367.9</ele>
        <time>2016-01-21T15:47:20.000Z</time>
      </trkpt>
      <trkpt lat="47.53388" lon="6.77213">
        <ele>367.8</ele>
        <time>2016-01-21T15:47:21.000Z</time>
      </trkpt>
      <trkpt lat="47.53391" lon="6.77212">
        <ele>368.1</ele>
        <time>2016-01-21T15:47:22.000Z</time>
      </trkpt>
      <trkpt lat="47.53395" lon="6.77213">
        <ele>368</ele>
        <time>2016-01-21T15:47:24.000Z</time>
      </trkpt>
      <trkpt lat="47.53397" lon="6.77214">
        <ele>368.3</ele>
        <time>2016-01-21T15:47:25.000Z</time>
      </trkpt>
      <trkpt lat="47.534" lon="6.77216">
        <ele>367.6</ele>
        <time>2016-01-21T15:47:27.000Z</time>
      </trkpt>
      <trkpt lat="47.53401" lon="6.77217">
        <ele>367.5</ele>
        <time>2016-01-21T15:47:28.000Z</time>
      </trkpt>
      <trkpt lat="47.53404" lon="6.77219">
        <ele>367</ele>
        <time>2016-01-21T15:47:30.000Z</time>
      </trkpt>
      <trkpt lat="47.53406" lon="6.77219">
        <ele>366.9</ele>
        <time>2016-01-21T15:47:31.000Z</time>
      </trkpt>
      <trkpt lat="47.53408" lon="6.7722">
        <ele>366.5</ele>
        <time>2016-01-21T15:47:32.000Z</time>
      </trkpt>
      <trkpt lat="47.5341" lon="6.77221">
        <ele>366.2</ele>
        <time>2016-01-21T15:47:33.000Z</time>
      </trkpt>
      <trkpt lat="47.53413" lon="6.77221">
        <ele>366</ele>
        <time>2016-01-21T15:47:34.000Z</time>
      </trkpt>
      <trkpt lat="47.53415" lon="6.77222">
        <ele>366.1</ele>
        <time>2016-01-21T15:47:35.000Z</time>
      </trkpt>
      <trkpt lat="47.53419" lon="6.77224">
        <ele>365.9</ele>
        <time>2016-01-21T15:47:37.000Z</time>
      </trkpt>
      <trkpt lat="47.53421" lon="6.77225">
        <ele>365.8</ele>
        <time>2016-01-21T15:47:38.000Z</time>
      </trkpt>
      <trkpt lat="47.53425" lon="6.77227">
        <ele>367.3</ele>
        <time>2016-01-21T15:47:40.000Z</time>
      </trkpt>
      <trkpt lat="47.53427" lon="6.77228">
        <ele>367</ele>
        <time>2016-01-21T15:47:41.000Z</time>
      </trkpt>
      <trkpt lat="47.53431" lon="6.77228">
        <ele>367.7</ele>
        <time>2016-01-21T15:47:43.000Z</time>
      </trkpt>
      <trkpt lat="47.53432" lon="6.77229">
        <ele>367.2</ele>
        <time>2016-01-21T15:47:44.000Z</time>
      </trkpt>
      <trkpt lat="47.53436" lon="6.77229">
        <ele>367.2</ele>
        <time>2016-01-21T15:47:47.000Z</time>
      </trkpt>
      <trkpt lat="47.53438" lon="6.7723">
        <ele>367.3</ele>
        <time>2016-01-21T15:47:48.000Z</time>
      </trkpt>
      <trkpt lat="47.53441" lon="6.77232">
        <ele>368.2</ele>
        <time>2016-01-21T15:47:50.000Z</time>
      </trkpt>
      <trkpt lat="47.53443" lon="6.77233">
        <ele>368.5</ele>
        <time>2016-01-21T15:47:51.000Z</time>
      </trkpt>
      <trkpt lat="47.53445" lon="6.77234">
        <ele>367.8</ele>
        <time>2016-01-21T15:47:52.000Z</time>
      </trkpt>
      <trkpt lat="47.53448" lon="6.77234">
        <ele>367.5</ele>
        <time>2016-01-21T15:47:53.000Z</time>
      </trkpt>
      <trkpt lat="47.5345" lon="6.77235">
        <ele>367.2</ele>
        <time>2016-01-21T15:47:54.000Z</time>
      </trkpt>
      <trkpt lat="47.53452" lon="6.77236">
        <ele>366.7</ele>
        <time>2016-01-21T15:47:55.000Z</time>
      </trkpt>
      <trkpt lat="47.53456" lon="6.77238">
        <ele>366.8</ele>
        <time>2016-01-21T15:47:57.000Z</time>
      </trkpt>
      <trkpt lat="47.53457" lon="6.77239">
        <ele>366.3</ele>
        <time>2016-01-21T15:47:58.000Z</time>
      </trkpt>
      <trkpt lat="47.53459" lon="6.77239">
        <ele>367.1</ele>
        <time>2016-01-21T15:47:59.000Z</time>
      </trkpt>
      <trkpt lat="47.53462" lon="6.7724">
        <ele>367.6</ele>
        <time>2016-01-21T15:48:00.000Z</time>
      </trkpt>
      <trkpt lat="47.53464" lon="6.7724">
        <ele>367.7</ele>
        <time>2016-01-21T15:48:01.000Z</time>
      </trkpt>
      <trkpt lat="47.53467" lon="6.77241">
        <ele>368.3</ele>
        <time>2016-01-21T15:48:02.000Z</time>
      </trkpt>
      <trkpt lat="47.5347" lon="6.77242">
        <ele>367.8</ele>
        <time>2016-01-21T15:48:04.000Z</time>
      </trkpt>
      <trkpt lat="47.53471" lon="6.77243">
        <ele>367.4</ele>
        <time>2016-01-21T15:48:05.000Z</time>
      </trkpt>
      <trkpt lat="47.53474" lon="6.77245">
        <ele>367.4</ele>
        <time>2016-01-21T15:48:08.000Z</time>
      </trkpt>
      <trkpt lat="47.53476" lon="6.77246">
        <ele>367.6</ele>
        <time>2016-01-21T15:48:09.000Z</time>
      </trkpt>
      <trkpt lat="47.53479" lon="6.77249">
        <ele>367.4</ele>
        <time>2016-01-21T15:48:12.000Z</time>
      </trkpt>
      <trkpt lat="47.5348" lon="6.7725">
        <ele>367.1</ele>
        <time>2016-01-21T15:48:13.000Z</time>
      </trkpt>
      <trkpt lat="47.53483" lon="6.77254">
        <ele>367.8</ele>
        <time>2016-01-21T15:48:16.000Z</time>
      </trkpt>
      <trkpt lat="47.53485" lon="6.77255">
        <ele>367.5</ele>
        <time>2016-01-21T15:48:17.000Z</time>
      </trkpt>
      <trkpt lat="47.53488" lon="6.77256">
        <ele>366.8</ele>
        <time>2016-01-21T15:48:19.000Z</time>
      </trkpt>
      <trkpt lat="47.53489" lon="6.77256">
        <ele>366.9</ele>
        <time>2016-01-21T15:48:20.000Z</time>
      </trkpt>
      <trkpt lat="47.53493" lon="6.77255">
        <ele>365.2</ele>
        <time>2016-01-21T15:48:22.000Z</time>
      </trkpt>
      <trkpt lat="47.53496" lon="6.77254">
        <ele>365.6</ele>
        <time>2016-01-21T15:48:23.000Z</time>
      </trkpt>
      <trkpt lat="47.53498" lon="6.77254">
        <ele>365</ele>
        <time>2016-01-21T15:48:24.000Z</time>
      </trkpt>
      <trkpt lat="47.535" lon="6.77254">
        <ele>365.2</ele>
        <time>2016-01-21T15:48:25.000Z</time>
      </trkpt>
      <trkpt lat="47.53504" lon="6.77254">
        <ele>365.2</ele>
        <time>2016-01-21T15:48:27.000Z</time>
      </trkpt>
      <trkpt lat="47.53506" lon="6.77254">
        <ele>365.8</ele>
        <time>2016-01-21T15:48:28.000Z</time>
      </trkpt>
      <trkpt lat="47.5351" lon="6.77254">
        <ele>367.4</ele>
        <time>2016-01-21T15:48:30.000Z</time>
      </trkpt>
      <trkpt lat="47.53511" lon="6.77254">
        <ele>368.3</ele>
        <time>2016-01-21T15:48:31.000Z</time>
      </trkpt>
      <trkpt lat="47.53515" lon="6.77255">
        <ele>370.2</ele>
        <time>2016-01-21T15:48:34.000Z</time>
      </trkpt>
      <trkpt lat="47.53517" lon="6.77255">
        <ele>370.5</ele>
        <time>2016-01-21T15:48:35.000Z</time>
      </trkpt>
      <trkpt lat="47.5352" lon="6.77255">
        <ele>370.8</ele>
        <time>2016-01-21T15:48:37.000Z</time>
      </trkpt>
      <trkpt lat="47.53522" lon="6.77255">
        <ele>371.5</ele>
        <time>2016-01-21T15:48:38.000Z</time>
      </trkpt>
      <trkpt lat="47.53526" lon="6.77255">
        <ele>371.1</ele>
        <time>2016-01-21T15:48:40.000Z</time>
      </trkpt>
      <trkpt lat="47.53528" lon="6.77254">
        <ele>371.7</ele>
        <time>2016-01-21T15:48:41.000Z</time>
      </trkpt>
      <trkpt lat="47.53531" lon="6.77255">
        <ele>371.8</ele>
        <time>2016-01-21T15:48:43.000Z</time>
      </trkpt>
      <trkpt lat="47.53533" lon="6.77255">
        <ele>372.3</ele>
        <time>2016-01-21T15:48:44.000Z</time>
      </trkpt>
      <trkpt lat="47.53536" lon="6.77255">
        <ele>374.7</ele>
        <time>2016-01-21T15:48:46.000Z</time>
      </trkpt>
      <trkpt lat="47.53538" lon="6.77255">
        <ele>376.2</ele>
        <time>2016-01-21T15:48:47.000Z</time>
      </trkpt>
      <trkpt lat="47.53541" lon="6.77254">
        <ele>376.9</ele>
        <time>2016-01-21T15:48:49.000Z</time>
      </trkpt>
      <trkpt lat="47.53543" lon="6.77254">
        <ele>377.1</ele>
        <time>2016-01-21T15:48:50.000Z</time>
      </trkpt>
      <trkpt lat="47.53547" lon="6.77255">
        <ele>377.4</ele>
        <time>2016-01-21T15:48:52.000Z</time>
      </trkpt>
      <trkpt lat="47.53548" lon="6.77256">
        <ele>378.8</ele>
        <time>2016-01-21T15:48:53.000Z</time>
      </trkpt>
      <trkpt lat="47.53552" lon="6.77257">
        <ele>379.7</ele>
        <time>2016-01-21T15:48:56.000Z</time>
      </trkpt>
      <trkpt lat="47.53554" lon="6.77257">
        <ele>380.5</ele>
        <time>2016-01-21T15:48:57.000Z</time>
      </trkpt>
      <trkpt lat="47.53556" lon="6.77257">
        <ele>379.9</ele>
        <time>2016-01-21T15:48:58.000Z</time>
      </trkpt>
      <trkpt lat="47.53559" lon="6.77258">
        <ele>379.7</ele>
        <time>2016-01-21T15:48:59.000Z</time>
      </trkpt>
      <trkpt lat="47.53561" lon="6.77258">
        <ele>379.8</ele>
        <time>2016-01-21T15:49:00.000Z</time>
      </trkpt>
      <trkpt lat="47.53564" lon="6.77259">
        <ele>380.3</ele>
        <time>2016-01-21T15:49:01.000Z</time>
      </trkpt>
      <trkpt lat="47.53566" lon="6.77259">
        <ele>381</ele>
        <time>2016-01-21T15:49:02.000Z</time>
      </trkpt>
      <trkpt lat="47.53568" lon="6.77259">
        <ele>381.1</ele>
        <time>2016-01-21T15:49:03.000Z</time>
      </trkpt>
      <trkpt lat="47.53572" lon="6.77261">
        <ele>380.3</ele>
        <time>2016-01-21T15:49:05.000Z</time>
      </trkpt>
      <trkpt lat="47.53573" lon="6.77262">
        <ele>380.9</ele>
        <time>2016-01-21T15:49:06.000Z</time>
      </trkpt>
      <trkpt lat="47.53578" lon="6.77264">
        <ele>382.2</ele>
        <time>2016-01-21T15:49:08.000Z</time>
      </trkpt>
      <trkpt lat="47.5358" lon="6.77265">
        <ele>382.4</ele>
        <time>2016-01-21T15:49:09.000Z</time>
      </trkpt>
      <trkpt lat="47.53582" lon="6.77266">
        <ele>382</ele>
        <time>2016-01-21T15:49:10.000Z</time>
      </trkpt>
      <trkpt lat="47.53584" lon="6.77267">
        <ele>382.1</ele>
        <time>2016-01-21T15:49:11.000Z</time>
      </trkpt>
      <trkpt lat="47.53587" lon="6.77269">
        <ele>382.4</ele>
        <time>2016-01-21T15:49:12.000Z</time>
      </trkpt>
      <trkpt lat="47.5359" lon="6.77271">
        <ele>381.3</ele>
        <time>2016-01-21T15:49:13.000Z</time>
      </trkpt>
      <trkpt lat="47.53592" lon="6.77272">
        <ele>381.4</ele>
        <time>2016-01-21T15:49:14.000Z</time>
      </trkpt>
      <trkpt lat="47.53595" lon="6.77272">
        <ele>381.5</ele>
        <time>2016-01-21T15:49:15.000Z</time>
      </trkpt>
      <trkpt lat="47.53597" lon="6.77273">
        <ele>382.3</ele>
        <time>2016-01-21T15:49:16.000Z</time>
      </trkpt>
      <trkpt lat="47.536" lon="6.77273">
        <ele>382.5</ele>
        <time>2016-01-21T15:49:17.000Z</time>
      </trkpt>
      <trkpt lat="47.53602" lon="6.77274">
        <ele>382.3</ele>
        <time>2016-01-21T15:49:18.000Z</time>
      </trkpt>
      <trkpt lat="47.53605" lon="6.77274">
        <ele>382.9</ele>
        <time>2016-01-21T15:49:19.000Z</time>
      </trkpt>
      <trkpt lat="47.53607" lon="6.77275">
        <ele>383.1</ele>
        <time>2016-01-21T15:49:20.000Z</time>
      </trkpt>
      <trkpt lat="47.53609" lon="6.77275">
        <ele>383.8</ele>
        <time>2016-01-21T15:49:21.000Z</time>
      </trkpt>
      <trkpt lat="47.53614" lon="6.77276">
        <ele>384.7</ele>
        <time>2016-01-21T15:49:23.000Z</time>
      </trkpt>
      <trkpt lat="47.53616" lon="6.77277">
        <ele>385.4</ele>
        <time>2016-01-21T15:49:24.000Z</time>
      </trkpt>
      <trkpt lat="47.53618" lon="6.77277">
        <ele>385</ele>
        <time>2016-01-21T15:49:25.000Z</time>
      </trkpt>
      <trkpt lat="47.5362" lon="6.77277">
        <ele>385.8</ele>
        <time>2016-01-21T15:49:26.000Z</time>
      </trkpt>
      <trkpt lat="47.53623" lon="6.77277">
        <ele>385.4</ele>
        <time>2016-01-21T15:49:27.000Z</time>
      </trkpt>
      <trkpt lat="47.53625" lon="6.77277">
        <ele>385.3</ele>
        <time>2016-01-21T15:49:28.000Z</time>
      </trkpt>
      <trkpt lat="47.53629" lon="6.77279">
        <ele>385.8</ele>
        <time>2016-01-21T15:49:30.000Z</time>
      </trkpt>
      <trkpt lat="47.53632" lon="6.7728">
        <ele>385.3</ele>
        <time>2016-01-21T15:49:31.000Z</time>
      </trkpt>
      <trkpt lat="47.53633" lon="6.77282">
        <ele>385.2</ele>
        <time>2016-01-21T15:49:32.000Z</time>
      </trkpt>
      <trkpt lat="47.53635" lon="6.77285">
        <ele>385.1</ele>
        <time>2016-01-21T15:49:33.000Z</time>
      </trkpt>
      <trkpt lat="47.53639" lon="6.77289">
        <ele>386.4</ele>
        <time>2016-01-21T15:49:35.000Z</time>
      </trkpt>
      <trkpt lat="47.5364" lon="6.77291">
        <ele>387.2</ele>
        <time>2016-01-21T15:49:36.000Z</time>
      </trkpt>
      <trkpt lat="47.53642" lon="6.77293">
        <ele>387.2</ele>
        <time>2016-01-21T15:49:37.000Z</time>
      </trkpt>
      <trkpt lat="47.53644" lon="6.77294">
        <ele>387.3</ele>
        <time>2016-01-21T15:49:38.000Z</time>
      </trkpt>
      <trkpt lat="47.53647" lon="6.77296">
        <ele>386.9</ele>
        <time>2016-01-21T15:49:39.000Z</time>
      </trkpt>
      <trkpt lat="47.53649" lon="6.77298">
        <ele>386.5</ele>
        <time>2016-01-21T15:49:40.000Z</time>
      </trkpt>
      <trkpt lat="47.53652" lon="6.77299">
        <ele>386.4</ele>
        <time>2016-01-21T15:49:41.000Z</time>
      </trkpt>
      <trkpt lat="47.53654" lon="6.77301">
        <ele>386.8</ele>
        <time>2016-01-21T15:49:42.000Z</time>
      </trkpt>
      <trkpt lat="47.53656" lon="6.77303">
        <ele>387.8</ele>
        <time>2016-01-21T15:49:43.000Z</time>
      </trkpt>
      <trkpt lat="47.53659" lon="6.77305">
        <ele>388.1</ele>
        <time>2016-01-21T15:49:44.000Z</time>
      </trkpt>
      <trkpt lat="47.53661" lon="6.77307">
        <ele>388.2</ele>
        <time>2016-01-21T15:49:45.000Z</time>
      </trkpt>
      <trkpt lat="47.53663" lon="6.77309">
        <ele>388.6</ele>
        <time>2016-01-21T15:49:46.000Z</time>
      </trkpt>
      <trkpt lat="47.53665" lon="6.77312">
        <ele>388.3</ele>
        <time>2016-01-21T15:49:47.000Z</time>
      </trkpt>
      <trkpt lat="47.53667" lon="6.77313">
        <ele>387.6</ele>
        <time>2016-01-21T15:49:48.000Z</time>
      </trkpt>
      <trkpt lat="47.53671" lon="6.77317">
        <ele>387.5</ele>
        <time>2016-01-21T15:49:50.000Z</time>
      </trkpt>
      <trkpt lat="47.53673" lon="6.77319">
        <ele>387.2</ele>
        <time>2016-01-21T15:49:51.000Z</time>
      </trkpt>
      <trkpt lat="47.53675" lon="6.77321">
        <ele>386.8</ele>
        <time>2016-01-21T15:49:52.000Z</time>
      </trkpt>
      <trkpt lat="47.53677" lon="6.77323">
        <ele>386.9</ele>
        <time>2016-01-21T15:49:53.000Z</time>
      </trkpt>
      <trkpt lat="47.53679" lon="6.77326">
        <ele>386.6</ele>
        <time>2016-01-21T15:49:54.000Z</time>
      </trkpt>
      <trkpt lat="47.53681" lon="6.77328">
        <ele>386.8</ele>
        <time>2016-01-21T15:49:55.000Z</time>
      </trkpt>
      <trkpt lat="47.53685" lon="6.77331">
        <ele>387.3</ele>
        <time>2016-01-21T15:49:57.000Z</time>
      </trkpt>
      <trkpt lat="47.53686" lon="6.77331">
        <ele>387.4</ele>
        <time>2016-01-21T15:49:58.000Z</time>
      </trkpt>
      <trkpt lat="47.53691" lon="6.77332">
        <ele>388.2</ele>
        <time>2016-01-21T15:50:00.000Z</time>
      </trkpt>
      <trkpt lat="47.53693" lon="6.77332">
        <ele>388.1</ele>
        <time>2016-01-21T15:50:01.000Z</time>
      </trkpt>
      <trkpt lat="47.53697" lon="6.77331">
        <ele>388.6</ele>
        <time>2016-01-21T15:50:03.000Z</time>
      </trkpt>
      <trkpt lat="47.53699" lon="6.7733">
        <ele>389</ele>
        <time>2016-01-21T15:50:04.000Z</time>
      </trkpt>
      <trkpt lat="47.53703" lon="6.7733">
        <ele>389</ele>
        <time>2016-01-21T15:50:06.000Z</time>
      </trkpt>
      <trkpt lat="47.53705" lon="6.77329">
        <ele>387.9</ele>
        <time>2016-01-21T15:50:07.000Z</time>
      </trkpt>
      <trkpt lat="47.53709" lon="6.77327">
        <ele>388.2</ele>
        <time>2016-01-21T15:50:09.000Z</time>
      </trkpt>
      <trkpt lat="47.5371" lon="6.77326">
        <ele>388</ele>
        <time>2016-01-21T15:50:10.000Z</time>
      </trkpt>
      <trkpt lat="47.53713" lon="6.77324">
        <ele>389.2</ele>
        <time>2016-01-21T15:50:12.000Z</time>
      </trkpt>
      <trkpt lat="47.53715" lon="6.77323">
        <ele>389.1</ele>
        <time>2016-01-21T15:50:13.000Z</time>
      </trkpt>
      <trkpt lat="47.53718" lon="6.7732">
        <ele>390</ele>
        <time>2016-01-21T15:50:15.000Z</time>
      </trkpt>
      <trkpt lat="47.53719" lon="6.77319">
        <ele>390.1</ele>
        <time>2016-01-21T15:50:16.000Z</time>
      </trkpt>
      <trkpt lat="47.53723" lon="6.77316">
        <ele>390.5</ele>
        <time>2016-01-21T15:50:19.000Z</time>
      </trkpt>
      <trkpt lat="47.53723" lon="6.77316">
        <ele>390.3</ele>
        <time>2016-01-21T15:50:20.000Z</time>
      </trkpt>
      <trkpt lat="47.53727" lon="6.77312">
        <ele>392.1</ele>
        <time>2016-01-21T15:50:23.000Z</time>
      </trkpt>
      <trkpt lat="47.53728" lon="6.77311">
        <ele>393.4</ele>
        <time>2016-01-21T15:50:24.000Z</time>
      </trkpt>
      <trkpt lat="47.53731" lon="6.77308">
        <ele>394.3</ele>
        <time>2016-01-21T15:50:27.000Z</time>
      </trkpt>
      <trkpt lat="47.53732" lon="6.77307">
        <ele>394.6</ele>
        <time>2016-01-21T15:50:28.000Z</time>
      </trkpt>
      <trkpt lat="47.53735" lon="6.77302">
        <ele>400.5</ele>
        <time>2016-01-21T15:50:31.000Z</time>
      </trkpt>
      <trkpt lat="47.53736" lon="6.77301">
        <ele>401.5</ele>
        <time>2016-01-21T15:50:32.000Z</time>
      </trkpt>
      <trkpt lat="47.53739" lon="6.77297">
        <ele>403.1</ele>
        <time>2016-01-21T15:50:34.000Z</time>
      </trkpt>
      <trkpt lat="47.5374" lon="6.77295">
        <ele>404.4</ele>
        <time>2016-01-21T15:50:35.000Z</time>
      </trkpt>
      <trkpt lat="47.53743" lon="6.77292">
        <ele>404.4</ele>
        <time>2016-01-21T15:50:37.000Z</time>
      </trkpt>
      <trkpt lat="47.53745" lon="6.7729">
        <ele>404.5</ele>
        <time>2016-01-21T15:50:38.000Z</time>
      </trkpt>
      <trkpt lat="47.53748" lon="6.77287">
        <ele>404.1</ele>
        <time>2016-01-21T15:50:40.000Z</time>
      </trkpt>
      <trkpt lat="47.5375" lon="6.77285">
        <ele>404.6</ele>
        <time>2016-01-21T15:50:41.000Z</time>
      </trkpt>
      <trkpt lat="47.53753" lon="6.77282">
        <ele>405.2</ele>
        <time>2016-01-21T15:50:43.000Z</time>
      </trkpt>
      <trkpt lat="47.53754" lon="6.7728">
        <ele>405</ele>
        <time>2016-01-21T15:50:44.000Z</time>
      </trkpt>
      <trkpt lat="47.53756" lon="6.77275">
        <ele>405</ele>
        <time>2016-01-21T15:50:46.000Z</time>
      </trkpt>
      <trkpt lat="47.53757" lon="6.77273">
        <ele>404.8</ele>
        <time>2016-01-21T15:50:47.000Z</time>
      </trkpt>
      <trkpt lat="47.53758" lon="6.77266">
        <ele>406.3</ele>
        <time>2016-01-21T15:50:50.000Z</time>
      </trkpt>
      <trkpt lat="47.53758" lon="6.77264">
        <ele>406.6</ele>
        <time>2016-01-21T15:50:51.000Z</time>
      </trkpt>
      <trkpt lat="47.53759" lon="6.77259">
        <ele>406.2</ele>
        <time>2016-01-21T15:50:54.000Z</time>
      </trkpt>
      <trkpt lat="47.53759" lon="6.77258">
        <ele>406.9</ele>
        <time>2016-01-21T15:50:55.000Z</time>
      </trkpt>
      <trkpt lat="47.53759" lon="6.77251">
        <ele>407</ele>
        <time>2016-01-21T15:50:58.000Z</time>
      </trkpt>
      <trkpt lat="47.5376" lon="6.77249">
        <ele>407.5</ele>
        <time>2016-01-21T15:50:59.000Z</time>
      </trkpt>
      <trkpt lat="47.5376" lon="6.77243">
        <ele>407.2</ele>
        <time>2016-01-21T15:51:01.000Z</time>
      </trkpt>
      <trkpt lat="47.5376" lon="6.7724">
        <ele>408.7</ele>
        <time>2016-01-21T15:51:02.000Z</time>
      </trkpt>
      <trkpt lat="47.53761" lon="6.77234">
        <ele>410.2</ele>
        <time>2016-01-21T15:51:04.000Z</time>
      </trkpt>
      <trkpt lat="47.53761" lon="6.77232">
        <ele>410.7</ele>
        <time>2016-01-21T15:51:05.000Z</time>
      </trkpt>
      <trkpt lat="47.53762" lon="6.77227">
        <ele>412.6</ele>
        <time>2016-01-21T15:51:07.000Z</time>
      </trkpt>
      <trkpt lat="47.53763" lon="6.77224">
        <ele>412.9</ele>
        <time>2016-01-21T15:51:08.000Z</time>
      </trkpt>
      <trkpt lat="47.53763" lon="6.77219">
        <ele>414.2</ele>
        <time>2016-01-21T15:51:10.000Z</time>
      </trkpt>
      <trkpt lat="47.53764" lon="6.77216">
        <ele>414.2</ele>
        <time>2016-01-21T15:51:11.000Z</time>
      </trkpt>
      <trkpt lat="47.53764" lon="6.7721">
        <ele>413.7</ele>
        <time>2016-01-21T15:51:13.000Z</time>
      </trkpt>
      <trkpt lat="47.53764" lon="6.77207">
        <ele>413.4</ele>
        <time>2016-01-21T15:51:14.000Z</time>
      </trkpt>
      <trkpt lat="47.53763" lon="6.772">
        <ele>414.9</ele>
        <time>2016-01-21T15:51:16.000Z</time>
      </trkpt>
      <trkpt lat="47.53763" lon="6.77197">
        <ele>415.5</ele>
        <time>2016-01-21T15:51:17.000Z</time>
      </trkpt>
      <trkpt lat="47.53763" lon="6.77194">
        <ele>415.3</ele>
        <time>2016-01-21T15:51:18.000Z</time>
      </trkpt>
      <trkpt lat="47.53764" lon="6.7719">
        <ele>415.6</ele>
        <time>2016-01-21T15:51:19.000Z</time>
      </trkpt>
      <trkpt lat="47.53764" lon="6.77186">
        <ele>416.1</ele>
        <time>2016-01-21T15:51:20.000Z</time>
      </trkpt>
      <trkpt lat="47.53765" lon="6.77183">
        <ele>417</ele>
        <time>2016-01-21T15:51:21.000Z</time>
      </trkpt>
      <trkpt lat="47.53766" lon="6.77178">
        <ele>416.7</ele>
        <time>2016-01-21T15:51:23.000Z</time>
      </trkpt>
      <trkpt lat="47.53766" lon="6.77175">
        <ele>417.2</ele>
        <time>2016-01-21T15:51:24.000Z</time>
      </trkpt>
      <trkpt lat="47.53766" lon="6.7717">
        <ele>417.3</ele>
        <time>2016-01-21T15:51:26.000Z</time>
      </trkpt>
      <trkpt lat="47.53767" lon="6.77166">
        <ele>417.1</ele>
        <time>2016-01-21T15:51:27.000Z</time>
      </trkpt>
      <trkpt lat="47.53767" lon="6.7716">
        <ele>417.6</ele>
        <time>2016-01-21T15:51:29.000Z</time>
      </trkpt>
      <trkpt lat="47.53767" lon="6.77157">
        <ele>417.7</ele>
        <time>2016-01-21T15:51:30.000Z</time>
      </trkpt>
      <trkpt lat="47.53766" lon="6.77152">
        <ele>417.2</ele>
        <time>2016-01-21T15:51:32.000Z</time>
      </trkpt>
      <trkpt lat="47.53767" lon="6.77149">
        <ele>416.7</ele>
        <time>2016-01-21T15:51:33.000Z</time>
      </trkpt>
      <trkpt lat="47.53767" lon="6.77143">
        <ele>418.2</ele>
        <time>2016-01-21T15:51:36.000Z</time>
      </trkpt>
      <trkpt lat="47.53768" lon="6.7714">
        <ele>418.1</ele>
        <time>2016-01-21T15:51:37.000Z</time>
      </trkpt>
      <trkpt lat="47.53769" lon="6.77134">
        <ele>419</ele>
        <time>2016-01-21T15:51:39.000Z</time>
      </trkpt>
      <trkpt lat="47.53769" lon="6.77131">
        <ele>419.2</ele>
        <time>2016-01-21T15:51:40.000Z</time>
      </trkpt>
      <trkpt lat="47.53769" lon="6.77125">
        <ele>418.1</ele>
        <time>2016-01-21T15:51:42.000Z</time>
      </trkpt>
      <trkpt lat="47.5377" lon="6.77122">
        <ele>418.1</ele>
        <time>2016-01-21T15:51:43.000Z</time>
      </trkpt>
      <trkpt lat="47.53771" lon="6.77116">
        <ele>419</ele>
        <time>2016-01-21T15:51:45.000Z</time>
      </trkpt>
      <trkpt lat="47.53771" lon="6.77113">
        <ele>420.1</ele>
        <time>2016-01-21T15:51:46.000Z</time>
      </trkpt>
      <trkpt lat="47.53771" lon="6.77107">
        <ele>420.4</ele>
        <time>2016-01-21T15:51:48.000Z</time>
      </trkpt>
      <trkpt lat="47.53771" lon="6.77103">
        <ele>420.4</ele>
        <time>2016-01-21T15:51:49.000Z</time>
      </trkpt>
      <trkpt lat="47.53771" lon="6.771">
        <ele>420.3</ele>
        <time>2016-01-21T15:51:50.000Z</time>
      </trkpt>
      <trkpt lat="47.53771" lon="6.77097">
        <ele>419.7</ele>
        <time>2016-01-21T15:51:51.000Z</time>
      </trkpt>
      <trkpt lat="47.53771" lon="6.77093">
        <ele>419.8</ele>
        <time>2016-01-21T15:51:52.000Z</time>
      </trkpt>
      <trkpt lat="47.53771" lon="6.77089">
        <ele>420</ele>
        <time>2016-01-21T15:51:53.000Z</time>
      </trkpt>
      <trkpt lat="47.53772" lon="6.77083">
        <ele>420.9</ele>
        <time>2016-01-21T15:51:55.000Z</time>
      </trkpt>
      <trkpt lat="47.53772" lon="6.7708">
        <ele>420.7</ele>
        <time>2016-01-21T15:51:56.000Z</time>
      </trkpt>
      <trkpt lat="47.53771" lon="6.77074">
        <ele>420.4</ele>
        <time>2016-01-21T15:51:58.000Z</time>
      </trkpt>
      <trkpt lat="47.53771" lon="6.77071">
        <ele>419.6</ele>
        <time>2016-01-21T15:51:59.000Z</time>
      </trkpt>
      <trkpt lat="47.53771" lon="6.77065">
        <ele>420.1</ele>
        <time>2016-01-21T15:52:01.000Z</time>
      </trkpt>
      <trkpt lat="47.53771" lon="6.77062">
        <ele>420.7</ele>
        <time>2016-01-21T15:52:02.000Z</time>
      </trkpt>
      <trkpt lat="47.5377" lon="6.77055">
        <ele>422</ele>
        <time>2016-01-21T15:52:04.000Z</time>
      </trkpt>
      <trkpt lat="47.5377" lon="6.77052">
        <ele>421.7</ele>
        <time>2016-01-21T15:52:05.000Z</time>
      </trkpt>
      <trkpt lat="47.5377" lon="6.77046">
        <ele>422.2</ele>
        <time>2016-01-21T15:52:07.000Z</time>
      </trkpt>
      <trkpt lat="47.5377" lon="6.77043">
        <ele>422.2</ele>
        <time>2016-01-21T15:52:08.000Z</time>
      </trkpt>
      <trkpt lat="47.53769" lon="6.77037">
        <ele>422.5</ele>
        <time>2016-01-21T15:52:10.000Z</time>
      </trkpt>
      <trkpt lat="47.53768" lon="6.77034">
        <ele>424.1</ele>
        <time>2016-01-21T15:52:11.000Z</time>
      </trkpt>
      <trkpt lat="47.53768" lon="6.77028">
        <ele>425.7</ele>
        <time>2016-01-21T15:52:13.000Z</time>
      </trkpt>
      <trkpt lat="47.53768" lon="6.77024">
        <ele>425.8</ele>
        <time>2016-01-21T15:52:14.000Z</time>
      </trkpt>
      <trkpt lat="47.53768" lon="6.77018">
        <ele>425.8</ele>
        <time>2016-01-21T15:52:16.000Z</time>
      </trkpt>
      <trkpt lat="47.53768" lon="6.77015">
        <ele>425.9</ele>
        <time>2016-01-21T15:52:17.000Z</time>
      </trkpt>
      <trkpt lat="47.53768" lon="6.77009">
        <ele>426.2</ele>
        <time>2016-01-21T15:52:19.000Z</time>
      </trkpt>
      <trkpt lat="47.53768" lon="6.77006">
        <ele>427.2</ele>
        <time>2016-01-21T15:52:20.000Z</time>
      </trkpt>
      <trkpt lat="47.53768" lon="6.77003">
        <ele>427.2</ele>
        <time>2016-01-21T15:52:21.000Z</time>
      </trkpt>
      <trkpt lat="47.53767" lon="6.77">
        <ele>427.2</ele>
        <time>2016-01-21T15:52:22.000Z</time>
      </trkpt>
      <trkpt lat="47.53765" lon="6.76994">
        <ele>425.8</ele>
        <time>2016-01-21T15:52:24.000Z</time>
      </trkpt>
      <trkpt lat="47.53764" lon="6.76991">
        <ele>426.5</ele>
        <time>2016-01-21T15:52:25.000Z</time>
      </trkpt>
      <trkpt lat="47.53763" lon="6.76985">
        <ele>426</ele>
        <time>2016-01-21T15:52:27.000Z</time>
      </trkpt>
      <trkpt lat="47.53762" lon="6.76982">
        <ele>425.8</ele>
        <time>2016-01-21T15:52:28.000Z</time>
      </trkpt>
      <trkpt lat="47.53762" lon="6.76976">
        <ele>425.8</ele>
        <time>2016-01-21T15:52:30.000Z</time>
      </trkpt>
      <trkpt lat="47.53762" lon="6.76973">
        <ele>425.8</ele>
        <time>2016-01-21T15:52:31.000Z</time>
      </trkpt>
      <trkpt lat="47.53761" lon="6.7697">
        <ele>425.5</ele>
        <time>2016-01-21T15:52:32.000Z</time>
      </trkpt>
      <trkpt lat="47.53761" lon="6.76966">
        <ele>425.3</ele>
        <time>2016-01-21T15:52:33.000Z</time>
      </trkpt>
      <trkpt lat="47.5376" lon="6.76963">
        <ele>426.2</ele>
        <time>2016-01-21T15:52:34.000Z</time>
      </trkpt>
      <trkpt lat="47.5376" lon="6.76959">
        <ele>426.6</ele>
        <time>2016-01-21T15:52:35.000Z</time>
      </trkpt>
      <trkpt lat="47.5376" lon="6.76956">
        <ele>426.6</ele>
        <time>2016-01-21T15:52:36.000Z</time>
      </trkpt>
      <trkpt lat="47.5376" lon="6.76952">
        <ele>427</ele>
        <time>2016-01-21T15:52:37.000Z</time>
      </trkpt>
      <trkpt lat="47.5376" lon="6.76948">
        <ele>426.8</ele>
        <time>2016-01-21T15:52:38.000Z</time>
      </trkpt>
      <trkpt lat="47.53761" lon="6.76945">
        <ele>426.9</ele>
        <time>2016-01-21T15:52:39.000Z</time>
      </trkpt>
      <trkpt lat="47.53761" lon="6.76941">
        <ele>426.5</ele>
        <time>2016-01-21T15:52:40.000Z</time>
      </trkpt>
      <trkpt lat="47.53761" lon="6.76937">
        <ele>426.3</ele>
        <time>2016-01-21T15:52:41.000Z</time>
      </trkpt>
      <trkpt lat="47.53762" lon="6.76933">
        <ele>426.6</ele>
        <time>2016-01-21T15:52:42.000Z</time>
      </trkpt>
      <trkpt lat="47.53762" lon="6.7693">
        <ele>427</ele>
        <time>2016-01-21T15:52:43.000Z</time>
      </trkpt>
      <trkpt lat="47.53762" lon="6.76926">
        <ele>426.8</ele>
        <time>2016-01-21T15:52:44.000Z</time>
      </trkpt>
      <trkpt lat="47.53762" lon="6.76923">
        <ele>426.7</ele>
        <time>2016-01-21T15:52:45.000Z</time>
      </trkpt>
      <trkpt lat="47.53763" lon="6.76919">
        <ele>426.4</ele>
        <time>2016-01-21T15:52:46.000Z</time>
      </trkpt>
      <trkpt lat="47.53763" lon="6.76916">
        <ele>427.2</ele>
        <time>2016-01-21T15:52:47.000Z</time>
      </trkpt>
      <trkpt lat="47.53764" lon="6.76912">
        <ele>427.2</ele>
        <time>2016-01-21T15:52:48.000Z</time>
      </trkpt>
      <trkpt lat="47.53765" lon="6.76909">
        <ele>427.3</ele>
        <time>2016-01-21T15:52:49.000Z</time>
      </trkpt>
      <trkpt lat="47.53766" lon="6.76904">
        <ele>428.4</ele>
        <time>2016-01-21T15:52:51.000Z</time>
      </trkpt>
      <trkpt lat="47.53767" lon="6.76901">
        <ele>428.6</ele>
        <time>2016-01-21T15:52:52.000Z</time>
      </trkpt>
      <trkpt lat="47.53768" lon="6.76896">
        <ele>428.6</ele>
        <time>2016-01-21T15:52:54.000Z</time>
      </trkpt>
      <trkpt lat="47.53768" lon="6.76893">
        <ele>428.8</ele>
        <time>2016-01-21T15:52:55.000Z</time>
      </trkpt>
      <trkpt lat="47.53768" lon="6.76886">
        <ele>429.2</ele>
        <time>2016-01-21T15:52:57.000Z</time>
      </trkpt>
      <trkpt lat="47.53768" lon="6.76883">
        <ele>428.9</ele>
        <time>2016-01-21T15:52:58.000Z</time>
      </trkpt>
      <trkpt lat="47.53769" lon="6.76877">
        <ele>429.5</ele>
        <time>2016-01-21T15:53:00.000Z</time>
      </trkpt>
      <trkpt lat="47.5377" lon="6.76873">
        <ele>429.5</ele>
        <time>2016-01-21T15:53:01.000Z</time>
      </trkpt>
      <trkpt lat="47.53771" lon="6.76867">
        <ele>430.2</ele>
        <time>2016-01-21T15:53:03.000Z</time>
      </trkpt>
      <trkpt lat="47.53772" lon="6.76864">
        <ele>429.3</ele>
        <time>2016-01-21T15:53:04.000Z</time>
      </trkpt>
      <trkpt lat="47.53773" lon="6.76858">
        <ele>429.7</ele>
        <time>2016-01-21T15:53:06.000Z</time>
      </trkpt>
      <trkpt lat="47.53774" lon="6.76855">
        <ele>429.9</ele>
        <time>2016-01-21T15:53:07.000Z</time>
      </trkpt>
      <trkpt lat="47.53775" lon="6.76849">
        <ele>429.7</ele>
        <time>2016-01-21T15:53:09.000Z</time>
      </trkpt>
      <trkpt lat="47.53776" lon="6.76847">
        <ele>431</ele>
        <time>2016-01-21T15:53:10.000Z</time>
      </trkpt>
      <trkpt lat="47.53777" lon="6.76842">
        <ele>431.4</ele>
        <time>2016-01-21T15:53:12.000Z</time>
      </trkpt>
      <trkpt lat="47.53778" lon="6.76839">
        <ele>431</ele>
        <time>2016-01-21T15:53:13.000Z</time>
      </trkpt>
      <trkpt lat="47.53778" lon="6.76834">
        <ele>430.9</ele>
        <time>2016-01-21T15:53:15.000Z</time>
      </trkpt>
      <trkpt lat="47.53779" lon="6.76831">
        <ele>431.6</ele>
        <time>2016-01-21T15:53:16.000Z</time>
      </trkpt>
      <trkpt lat="47.5378" lon="6.76828">
        <ele>431</ele>
        <time>2016-01-21T15:53:17.000Z</time>
      </trkpt>
      <trkpt lat="47.53781" lon="6.76823">
        <ele>430</ele>
        <time>2016-01-21T15:53:18.000Z</time>
      </trkpt>
      <trkpt lat="47.53781" lon="6.76819">
        <ele>431.4</ele>
        <time>2016-01-21T15:53:19.000Z</time>
      </trkpt>
      <trkpt lat="47.53782" lon="6.76815">
        <ele>431.8</ele>
        <time>2016-01-21T15:53:20.000Z</time>
      </trkpt>
      <trkpt lat="47.53782" lon="6.76812">
        <ele>431.7</ele>
        <time>2016-01-21T15:53:21.000Z</time>
      </trkpt>
      <trkpt lat="47.53782" lon="6.76808">
        <ele>432.5</ele>
        <time>2016-01-21T15:53:22.000Z</time>
      </trkpt>
      <trkpt lat="47.53782" lon="6.76805">
        <ele>433.2</ele>
        <time>2016-01-21T15:53:23.000Z</time>
      </trkpt>
      <trkpt lat="47.53782" lon="6.76801">
        <ele>433.3</ele>
        <time>2016-01-21T15:53:24.000Z</time>
      </trkpt>
      <trkpt lat="47.53782" lon="6.76798">
        <ele>433.8</ele>
        <time>2016-01-21T15:53:25.000Z</time>
      </trkpt>
      <trkpt lat="47.53783" lon="6.76794">
        <ele>434</ele>
        <time>2016-01-21T15:53:26.000Z</time>
      </trkpt>
      <trkpt lat="47.53784" lon="6.76791">
        <ele>434.4</ele>
        <time>2016-01-21T15:53:27.000Z</time>
      </trkpt>
      <trkpt lat="47.53785" lon="6.76788">
        <ele>434.7</ele>
        <time>2016-01-21T15:53:28.000Z</time>
      </trkpt>
      <trkpt lat="47.53787" lon="6.76783">
        <ele>435.7</ele>
        <time>2016-01-21T15:53:30.000Z</time>
      </trkpt>
      <trkpt lat="47.53788" lon="6.7678">
        <ele>435.7</ele>
        <time>2016-01-21T15:53:31.000Z</time>
      </trkpt>
      <trkpt lat="47.5379" lon="6.76776">
        <ele>437</ele>
        <time>2016-01-21T15:53:33.000Z</time>
      </trkpt>
      <trkpt lat="47.5379" lon="6.76774">
        <ele>437</ele>
        <time>2016-01-21T15:53:34.000Z</time>
      </trkpt>
      <trkpt lat="47.53792" lon="6.7677">
        <ele>437.9</ele>
        <time>2016-01-21T15:53:36.000Z</time>
      </trkpt>
      <trkpt lat="47.53793" lon="6.76768">
        <ele>435.8</ele>
        <time>2016-01-21T15:53:37.000Z</time>
      </trkpt>
      <trkpt lat="47.53795" lon="6.76762">
        <ele>437.3</ele>
        <time>2016-01-21T15:53:39.000Z</time>
      </trkpt>
      <trkpt lat="47.53796" lon="6.7676">
        <ele>437.5</ele>
        <time>2016-01-21T15:53:40.000Z</time>
      </trkpt>
      <trkpt lat="47.53798" lon="6.76754">
        <ele>438.2</ele>
        <time>2016-01-21T15:53:42.000Z</time>
      </trkpt>
      <trkpt lat="47.53798" lon="6.76752">
        <ele>439.9</ele>
        <time>2016-01-21T15:53:43.000Z</time>
      </trkpt>
      <trkpt lat="47.53799" lon="6.76747">
        <ele>440.1</ele>
        <time>2016-01-21T15:53:45.000Z</time>
      </trkpt>
      <trkpt lat="47.538" lon="6.76745">
        <ele>440.8</ele>
        <time>2016-01-21T15:53:46.000Z</time>
      </trkpt>
      <trkpt lat="47.53801" lon="6.76739">
        <ele>440.3</ele>
        <time>2016-01-21T15:53:48.000Z</time>
      </trkpt>
      <trkpt lat="47.53802" lon="6.76736">
        <ele>440.4</ele>
        <time>2016-01-21T15:53:49.000Z</time>
      </trkpt>
      <trkpt lat="47.53804" lon="6.76731">
        <ele>441.4</ele>
        <time>2016-01-21T15:53:51.000Z</time>
      </trkpt>
      <trkpt lat="47.53805" lon="6.76728">
        <ele>440.7</ele>
        <time>2016-01-21T15:53:52.000Z</time>
      </trkpt>
      <trkpt lat="47.53807" lon="6.76723">
        <ele>439.5</ele>
        <time>2016-01-21T15:53:54.000Z</time>
      </trkpt>
      <trkpt lat="47.53809" lon="6.7672">
        <ele>441.3</ele>
        <time>2016-01-21T15:53:55.000Z</time>
      </trkpt>
      <trkpt lat="47.5381" lon="6.76717">
        <ele>441.2</ele>
        <time>2016-01-21T15:53:56.000Z</time>
      </trkpt>
      <trkpt lat="47.53811" lon="6.76714">
        <ele>441.6</ele>
        <time>2016-01-21T15:53:57.000Z</time>
      </trkpt>
      <trkpt lat="47.53812" lon="6.76711">
        <ele>441.7</ele>
        <time>2016-01-21T15:53:58.000Z</time>
      </trkpt>
      <trkpt lat="47.53813" lon="6.76708">
        <ele>441.8</ele>
        <time>2016-01-21T15:53:59.000Z</time>
      </trkpt>
      <trkpt lat="47.53815" lon="6.76703">
        <ele>442.2</ele>
        <time>2016-01-21T15:54:01.000Z</time>
      </trkpt>
      <trkpt lat="47.53816" lon="6.76701">
        <ele>442</ele>
        <time>2016-01-21T15:54:02.000Z</time>
      </trkpt>
      <trkpt lat="47.53818" lon="6.76696">
        <ele>443.2</ele>
        <time>2016-01-21T15:54:05.000Z</time>
      </trkpt>
      <trkpt lat="47.53818" lon="6.76694">
        <ele>443.4</ele>
        <time>2016-01-21T15:54:06.000Z</time>
      </trkpt>
      <trkpt lat="47.53821" lon="6.76689">
        <ele>441.9</ele>
        <time>2016-01-21T15:54:09.000Z</time>
      </trkpt>
      <trkpt lat="47.53821" lon="6.76687">
        <ele>441.8</ele>
        <time>2016-01-21T15:54:10.000Z</time>
      </trkpt>
      <trkpt lat="47.53823" lon="6.76684">
        <ele>442.5</ele>
        <time>2016-01-21T15:54:12.000Z</time>
      </trkpt>
      <trkpt lat="47.53825" lon="6.76682">
        <ele>443.1</ele>
        <time>2016-01-21T15:54:13.000Z</time>
      </trkpt>
      <trkpt lat="47.53829" lon="6.76678">
        <ele>446.4</ele>
        <time>2016-01-21T15:54:15.000Z</time>
      </trkpt>
      <trkpt lat="47.5383" lon="6.76677">
        <ele>446.1</ele>
        <time>2016-01-21T15:54:16.000Z</time>
      </trkpt>
      <trkpt lat="47.53832" lon="6.76674">
        <ele>446.2</ele>
        <time>2016-01-21T15:54:17.000Z</time>
      </trkpt>
      <trkpt lat="47.53834" lon="6.76672">
        <ele>446.2</ele>
        <time>2016-01-21T15:54:18.000Z</time>
      </trkpt>
      <trkpt lat="47.53836" lon="6.76669">
        <ele>445.8</ele>
        <time>2016-01-21T15:54:19.000Z</time>
      </trkpt>
      <trkpt lat="47.53837" lon="6.76666">
        <ele>445.8</ele>
        <time>2016-01-21T15:54:20.000Z</time>
      </trkpt>
      <trkpt lat="47.53839" lon="6.76663">
        <ele>446.8</ele>
        <time>2016-01-21T15:54:21.000Z</time>
      </trkpt>
      <trkpt lat="47.53841" lon="6.7666">
        <ele>447</ele>
        <time>2016-01-21T15:54:22.000Z</time>
      </trkpt>
      <trkpt lat="47.53843" lon="6.76656">
        <ele>446.7</ele>
        <time>2016-01-21T15:54:23.000Z</time>
      </trkpt>
      <trkpt lat="47.53845" lon="6.76652">
        <ele>448.4</ele>
        <time>2016-01-21T15:54:24.000Z</time>
      </trkpt>
      <trkpt lat="47.53846" lon="6.76649">
        <ele>449.2</ele>
        <time>2016-01-21T15:54:25.000Z</time>
      </trkpt>
      <trkpt lat="47.53847" lon="6.76646">
        <ele>448.9</ele>
        <time>2016-01-21T15:54:26.000Z</time>
      </trkpt>
      <trkpt lat="47.53849" lon="6.76643">
        <ele>449.2</ele>
        <time>2016-01-21T15:54:27.000Z</time>
      </trkpt>
      <trkpt lat="47.5385" lon="6.7664">
        <ele>449</ele>
        <time>2016-01-21T15:54:28.000Z</time>
      </trkpt>
      <trkpt lat="47.53852" lon="6.76637">
        <ele>449.4</ele>
        <time>2016-01-21T15:54:29.000Z</time>
      </trkpt>
      <trkpt lat="47.53853" lon="6.76635">
        <ele>449.2</ele>
        <time>2016-01-21T15:54:30.000Z</time>
      </trkpt>
      <trkpt lat="47.53854" lon="6.76632">
        <ele>449.2</ele>
        <time>2016-01-21T15:54:31.000Z</time>
      </trkpt>
      <trkpt lat="47.53856" lon="6.76629">
        <ele>449</ele>
        <time>2016-01-21T15:54:32.000Z</time>
      </trkpt>
      <trkpt lat="47.53858" lon="6.76625">
        <ele>447.6</ele>
        <time>2016-01-21T15:54:33.000Z</time>
      </trkpt>
      <trkpt lat="47.5386" lon="6.76622">
        <ele>447.8</ele>
        <time>2016-01-21T15:54:34.000Z</time>
      </trkpt>
      <trkpt lat="47.53863" lon="6.76619">
        <ele>448.1</ele>
        <time>2016-01-21T15:54:35.000Z</time>
      </trkpt>
      <trkpt lat="47.53865" lon="6.76616">
        <ele>448.5</ele>
        <time>2016-01-21T15:54:36.000Z</time>
      </trkpt>
      <trkpt lat="47.53868" lon="6.76614">
        <ele>448.2</ele>
        <time>2016-01-21T15:54:37.000Z</time>
      </trkpt>
      <trkpt lat="47.5387" lon="6.76611">
        <ele>448.8</ele>
        <time>2016-01-21T15:54:38.000Z</time>
      </trkpt>
      <trkpt lat="47.53872" lon="6.76609">
        <ele>447.4</ele>
        <time>2016-01-21T15:54:39.000Z</time>
      </trkpt>
      <trkpt lat="47.53873" lon="6.76607">
        <ele>447.2</ele>
        <time>2016-01-21T15:54:40.000Z</time>
      </trkpt>
      <trkpt lat="47.53876" lon="6.76602">
        <ele>446.7</ele>
        <time>2016-01-21T15:54:42.000Z</time>
      </trkpt>
      <trkpt lat="47.53877" lon="6.76599">
        <ele>446.1</ele>
        <time>2016-01-21T15:54:43.000Z</time>
      </trkpt>
      <trkpt lat="47.53879" lon="6.76594">
        <ele>445.6</ele>
        <time>2016-01-21T15:54:45.000Z</time>
      </trkpt>
      <trkpt lat="47.5388" lon="6.76591">
        <ele>445.6</ele>
        <time>2016-01-21T15:54:46.000Z</time>
      </trkpt>
      <trkpt lat="47.53881" lon="6.76589">
        <ele>445.3</ele>
        <time>2016-01-21T15:54:47.000Z</time>
      </trkpt>
      <trkpt lat="47.53883" lon="6.76586">
        <ele>445.2</ele>
        <time>2016-01-21T15:54:48.000Z</time>
      </trkpt>
      <trkpt lat="47.53884" lon="6.76583">
        <ele>445.7</ele>
        <time>2016-01-21T15:54:49.000Z</time>
      </trkpt>
      <trkpt lat="47.53886" lon="6.76581">
        <ele>444.8</ele>
        <time>2016-01-21T15:54:50.000Z</time>
      </trkpt>
      <trkpt lat="47.53888" lon="6.76578">
        <ele>445.1</ele>
        <time>2016-01-21T15:54:51.000Z</time>
      </trkpt>
      <trkpt lat="47.53891" lon="6.76576">
        <ele>444.8</ele>
        <time>2016-01-21T15:54:52.000Z</time>
      </trkpt>
      <trkpt lat="47.53893" lon="6.76575">
        <ele>444.7</ele>
        <time>2016-01-21T15:54:53.000Z</time>
      </trkpt>
      <trkpt lat="47.53896" lon="6.76573">
        <ele>445.3</ele>
        <time>2016-01-21T15:54:54.000Z</time>
      </trkpt>
      <trkpt lat="47.53898" lon="6.76572">
        <ele>445.2</ele>
        <time>2016-01-21T15:54:55.000Z</time>
      </trkpt>
      <trkpt lat="47.53901" lon="6.7657">
        <ele>444.9</ele>
        <time>2016-01-21T15:54:56.000Z</time>
      </trkpt>
      <trkpt lat="47.53903" lon="6.76568">
        <ele>445.7</ele>
        <time>2016-01-21T15:54:57.000Z</time>
      </trkpt>
      <trkpt lat="47.53905" lon="6.76566">
        <ele>446.2</ele>
        <time>2016-01-21T15:54:58.000Z</time>
      </trkpt>
      <trkpt lat="47.53907" lon="6.76563">
        <ele>446.2</ele>
        <time>2016-01-21T15:54:59.000Z</time>
      </trkpt>
      <trkpt lat="47.53908" lon="6.76561">
        <ele>445.7</ele>
        <time>2016-01-21T15:55:00.000Z</time>
      </trkpt>
      <trkpt lat="47.53909" lon="6.76558">
        <ele>446.1</ele>
        <time>2016-01-21T15:55:01.000Z</time>
      </trkpt>
      <trkpt lat="47.53911" lon="6.76555">
        <ele>445.8</ele>
        <time>2016-01-21T15:55:02.000Z</time>
      </trkpt>
      <trkpt lat="47.53912" lon="6.76552">
        <ele>446</ele>
        <time>2016-01-21T15:55:03.000Z</time>
      </trkpt>
      <trkpt lat="47.53913" lon="6.7655">
        <ele>445.9</ele>
        <time>2016-01-21T15:55:04.000Z</time>
      </trkpt>
      <trkpt lat="47.53915" lon="6.76547">
        <ele>445.7</ele>
        <time>2016-01-21T15:55:05.000Z</time>
      </trkpt>
      <trkpt lat="47.53916" lon="6.76544">
        <ele>445.5</ele>
        <time>2016-01-21T15:55:06.000Z</time>
      </trkpt>
      <trkpt lat="47.53918" lon="6.76541">
        <ele>445.3</ele>
        <time>2016-01-21T15:55:07.000Z</time>
      </trkpt>
      <trkpt lat="47.53919" lon="6.76539">
        <ele>444</ele>
        <time>2016-01-21T15:55:08.000Z</time>
      </trkpt>
      <trkpt lat="47.53921" lon="6.76536">
        <ele>444</ele>
        <time>2016-01-21T15:55:09.000Z</time>
      </trkpt>
      <trkpt lat="47.53923" lon="6.76533">
        <ele>444.3</ele>
        <time>2016-01-21T15:55:10.000Z</time>
      </trkpt>
      <trkpt lat="47.53925" lon="6.7653">
        <ele>443.6</ele>
        <time>2016-01-21T15:55:11.000Z</time>
      </trkpt>
      <trkpt lat="47.53926" lon="6.76528">
        <ele>443.6</ele>
        <time>2016-01-21T15:55:12.000Z</time>
      </trkpt>
      <trkpt lat="47.53929" lon="6.76522">
        <ele>442.6</ele>
        <time>2016-01-21T15:55:14.000Z</time>
      </trkpt>
      <trkpt lat="47.5393" lon="6.7652">
        <ele>442.9</ele>
        <time>2016-01-21T15:55:15.000Z</time>
      </trkpt>
      <trkpt lat="47.53934" lon="6.76516">
        <ele>442</ele>
        <time>2016-01-21T15:55:17.000Z</time>
      </trkpt>
      <trkpt lat="47.53935" lon="6.76515">
        <ele>441.8</ele>
        <time>2016-01-21T15:55:18.000Z</time>
      </trkpt>
      <trkpt lat="47.53939" lon="6.76512">
        <ele>441.3</ele>
        <time>2016-01-21T15:55:20.000Z</time>
      </trkpt>
      <trkpt lat="47.5394" lon="6.76509">
        <ele>440.4</ele>
        <time>2016-01-21T15:55:21.000Z</time>
      </trkpt>
      <trkpt lat="47.53943" lon="6.76504">
        <ele>440.2</ele>
        <time>2016-01-21T15:55:23.000Z</time>
      </trkpt>
      <trkpt lat="47.53944" lon="6.76502">
        <ele>440.6</ele>
        <time>2016-01-21T15:55:24.000Z</time>
      </trkpt>
      <trkpt lat="47.53946" lon="6.76499">
        <ele>440.9</ele>
        <time>2016-01-21T15:55:25.000Z</time>
      </trkpt>
      <trkpt lat="47.53947" lon="6.76495">
        <ele>440.5</ele>
        <time>2016-01-21T15:55:26.000Z</time>
      </trkpt>
      <trkpt lat="47.53949" lon="6.76492">
        <ele>439.9</ele>
        <time>2016-01-21T15:55:27.000Z</time>
      </trkpt>
      <trkpt lat="47.53951" lon="6.76488">
        <ele>440.4</ele>
        <time>2016-01-21T15:55:28.000Z</time>
      </trkpt>
      <trkpt lat="47.53952" lon="6.76485">
        <ele>440.3</ele>
        <time>2016-01-21T15:55:29.000Z</time>
      </trkpt>
      <trkpt lat="47.53954" lon="6.76481">
        <ele>439.8</ele>
        <time>2016-01-21T15:55:30.000Z</time>
      </trkpt>
      <trkpt lat="47.53955" lon="6.76478">
        <ele>440.4</ele>
        <time>2016-01-21T15:55:31.000Z</time>
      </trkpt>
      <trkpt lat="47.53957" lon="6.76475">
        <ele>440.2</ele>
        <time>2016-01-21T15:55:32.000Z</time>
      </trkpt>
      <trkpt lat="47.53959" lon="6.76472">
        <ele>440.1</ele>
        <time>2016-01-21T15:55:33.000Z</time>
      </trkpt>
      <trkpt lat="47.5396" lon="6.76469">
        <ele>440.2</ele>
        <time>2016-01-21T15:55:34.000Z</time>
      </trkpt>
      <trkpt lat="47.53962" lon="6.76466">
        <ele>439.8</ele>
        <time>2016-01-21T15:55:35.000Z</time>
      </trkpt>
      <trkpt lat="47.53963" lon="6.76463">
        <ele>440.9</ele>
        <time>2016-01-21T15:55:36.000Z</time>
      </trkpt>
      <trkpt lat="47.53964" lon="6.76457">
        <ele>440.4</ele>
        <time>2016-01-21T15:55:38.000Z</time>
      </trkpt>
      <trkpt lat="47.53965" lon="6.76454">
        <ele>440.5</ele>
        <time>2016-01-21T15:55:39.000Z</time>
      </trkpt>
      <trkpt lat="47.53966" lon="6.76451">
        <ele>440.8</ele>
        <time>2016-01-21T15:55:40.000Z</time>
      </trkpt>
      <trkpt lat="47.53967" lon="6.76448">
        <ele>441.4</ele>
        <time>2016-01-21T15:55:41.000Z</time>
      </trkpt>
      <trkpt lat="47.53968" lon="6.76445">
        <ele>441.4</ele>
        <time>2016-01-21T15:55:42.000Z</time>
      </trkpt>
      <trkpt lat="47.5397" lon="6.76441">
        <ele>441.5</ele>
        <time>2016-01-21T15:55:43.000Z</time>
      </trkpt>
      <trkpt lat="47.53971" lon="6.76437">
        <ele>440.9</ele>
        <time>2016-01-21T15:55:44.000Z</time>
      </trkpt>
      <trkpt lat="47.53973" lon="6.76433">
        <ele>440.9</ele>
        <time>2016-01-21T15:55:45.000Z</time>
      </trkpt>
      <trkpt lat="47.53975" lon="6.76429">
        <ele>441.6</ele>
        <time>2016-01-21T15:55:46.000Z</time>
      </trkpt>
      <trkpt lat="47.53977" lon="6.76425">
        <ele>441.4</ele>
        <time>2016-01-21T15:55:47.000Z</time>
      </trkpt>
      <trkpt lat="47.53979" lon="6.76422">
        <ele>441.6</ele>
        <time>2016-01-21T15:55:48.000Z</time>
      </trkpt>
      <trkpt lat="47.5398" lon="6.76419">
        <ele>442.5</ele>
        <time>2016-01-21T15:55:49.000Z</time>
      </trkpt>
      <trkpt lat="47.53982" lon="6.76416">
        <ele>443.8</ele>
        <time>2016-01-21T15:55:50.000Z</time>
      </trkpt>
      <trkpt lat="47.53984" lon="6.76412">
        <ele>443.4</ele>
        <time>2016-01-21T15:55:51.000Z</time>
      </trkpt>
      <trkpt lat="47.53986" lon="6.76409">
        <ele>443.8</ele>
        <time>2016-01-21T15:55:52.000Z</time>
      </trkpt>
      <trkpt lat="47.53988" lon="6.76406">
        <ele>444.4</ele>
        <time>2016-01-21T15:55:53.000Z</time>
      </trkpt>
      <trkpt lat="47.53991" lon="6.76403">
        <ele>444.8</ele>
        <time>2016-01-21T15:55:54.000Z</time>
      </trkpt>
      <trkpt lat="47.53993" lon="6.764">
        <ele>445.2</ele>
        <time>2016-01-21T15:55:55.000Z</time>
      </trkpt>
      <trkpt lat="47.53996" lon="6.76396">
        <ele>445.5</ele>
        <time>2016-01-21T15:55:57.000Z</time>
      </trkpt>
      <trkpt lat="47.53997" lon="6.76393">
        <ele>445.6</ele>
        <time>2016-01-21T15:55:57.998Z</time>
      </trkpt>
      <trkpt lat="47.53998" lon="6.7639">
        <ele>444.4</ele>
        <time>2016-01-21T15:55:59.000Z</time>
      </trkpt>
      <trkpt lat="47.54" lon="6.76388">
        <ele>443.8</ele>
        <time>2016-01-21T15:56:00.000Z</time>
      </trkpt>
      <trkpt lat="47.54001" lon="6.76385">
        <ele>443.4</ele>
        <time>2016-01-21T15:56:01.000Z</time>
      </trkpt>
      <trkpt lat="47.54003" lon="6.76383">
        <ele>444</ele>
        <time>2016-01-21T15:56:02.000Z</time>
      </trkpt>
      <trkpt lat="47.54004" lon="6.7638">
        <ele>443.8</ele>
        <time>2016-01-21T15:56:03.000Z</time>
      </trkpt>
      <trkpt lat="47.54006" lon="6.76377">
        <ele>443.3</ele>
        <time>2016-01-21T15:56:04.000Z</time>
      </trkpt>
      <trkpt lat="47.54008" lon="6.76374">
        <ele>443.4</ele>
        <time>2016-01-21T15:56:05.000Z</time>
      </trkpt>
      <trkpt lat="47.5401" lon="6.76371">
        <ele>443.5</ele>
        <time>2016-01-21T15:56:06.000Z</time>
      </trkpt>
      <trkpt lat="47.54013" lon="6.76369">
        <ele>443.6</ele>
        <time>2016-01-21T15:56:07.000Z</time>
      </trkpt>
      <trkpt lat="47.54015" lon="6.76367">
        <ele>443.5</ele>
        <time>2016-01-21T15:56:08.000Z</time>
      </trkpt>
      <trkpt lat="47.54017" lon="6.76364">
        <ele>443.6</ele>
        <time>2016-01-21T15:56:09.000Z</time>
      </trkpt>
      <trkpt lat="47.5402" lon="6.76362">
        <ele>443.5</ele>
        <time>2016-01-21T15:56:10.000Z</time>
      </trkpt>
      <trkpt lat="47.54022" lon="6.76359">
        <ele>443.6</ele>
        <time>2016-01-21T15:56:11.000Z</time>
      </trkpt>
      <trkpt lat="47.54023" lon="6.76357">
        <ele>443.8</ele>
        <time>2016-01-21T15:56:12.000Z</time>
      </trkpt>
      <trkpt lat="47.54025" lon="6.76353">
        <ele>443.6</ele>
        <time>2016-01-21T15:56:13.000Z</time>
      </trkpt>
      <trkpt lat="47.54026" lon="6.7635">
        <ele>443.1</ele>
        <time>2016-01-21T15:56:14.000Z</time>
      </trkpt>
      <trkpt lat="47.54028" lon="6.76346">
        <ele>442.7</ele>
        <time>2016-01-21T15:56:15.000Z</time>
      </trkpt>
      <trkpt lat="47.54029" lon="6.76341">
        <ele>442.5</ele>
        <time>2016-01-21T15:56:16.000Z</time>
      </trkpt>
      <trkpt lat="47.5403" lon="6.76337">
        <ele>441.8</ele>
        <time>2016-01-21T15:56:17.000Z</time>
      </trkpt>
      <trkpt lat="47.54031" lon="6.76333">
        <ele>440.7</ele>
        <time>2016-01-21T15:56:18.000Z</time>
      </trkpt>
      <trkpt lat="47.54032" lon="6.76329">
        <ele>441.3</ele>
        <time>2016-01-21T15:56:19.000Z</time>
      </trkpt>
      <trkpt lat="47.54033" lon="6.76326">
        <ele>441.4</ele>
        <time>2016-01-21T15:56:20.000Z</time>
      </trkpt>
      <trkpt lat="47.54034" lon="6.76323">
        <ele>442</ele>
        <time>2016-01-21T15:56:21.000Z</time>
      </trkpt>
      <trkpt lat="47.54035" lon="6.76319">
        <ele>442.4</ele>
        <time>2016-01-21T15:56:22.000Z</time>
      </trkpt>
      <trkpt lat="47.54037" lon="6.76316">
        <ele>442.8</ele>
        <time>2016-01-21T15:56:23.000Z</time>
      </trkpt>
      <trkpt lat="47.54038" lon="6.76314">
        <ele>443.2</ele>
        <time>2016-01-21T15:56:24.000Z</time>
      </trkpt>
      <trkpt lat="47.5404" lon="6.76308">
        <ele>443.7</ele>
        <time>2016-01-21T15:56:26.000Z</time>
      </trkpt>
      <trkpt lat="47.54041" lon="6.76305">
        <ele>443.3</ele>
        <time>2016-01-21T15:56:27.000Z</time>
      </trkpt>
      <trkpt lat="47.54042" lon="6.763">
        <ele>442.9</ele>
        <time>2016-01-21T15:56:29.000Z</time>
      </trkpt>
      <trkpt lat="47.54043" lon="6.76297">
        <ele>444</ele>
        <time>2016-01-21T15:56:30.000Z</time>
      </trkpt>
      <trkpt lat="47.54045" lon="6.76291">
        <ele>442.9</ele>
        <time>2016-01-21T15:56:32.000Z</time>
      </trkpt>
      <trkpt lat="47.54046" lon="6.76289">
        <ele>443.2</ele>
        <time>2016-01-21T15:56:33.000Z</time>
      </trkpt>
      <trkpt lat="47.54048" lon="6.76283">
        <ele>444.2</ele>
        <time>2016-01-21T15:56:35.000Z</time>
      </trkpt>
      <trkpt lat="47.54049" lon="6.7628">
        <ele>444.4</ele>
        <time>2016-01-21T15:56:36.000Z</time>
      </trkpt>
      <trkpt lat="47.54051" lon="6.76274">
        <ele>443.8</ele>
        <time>2016-01-21T15:56:38.000Z</time>
      </trkpt>
      <trkpt lat="47.54051" lon="6.76271">
        <ele>443.1</ele>
        <time>2016-01-21T15:56:39.000Z</time>
      </trkpt>
      <trkpt lat="47.54053" lon="6.76265">
        <ele>441.7</ele>
        <time>2016-01-21T15:56:41.000Z</time>
      </trkpt>
      <trkpt lat="47.54053" lon="6.76261">
        <ele>441</ele>
        <time>2016-01-21T15:56:42.000Z</time>
      </trkpt>
      <trkpt lat="47.54054" lon="6.76255">
        <ele>441.1</ele>
        <time>2016-01-21T15:56:44.000Z</time>
      </trkpt>
      <trkpt lat="47.54055" lon="6.76252">
        <ele>441</ele>
        <time>2016-01-21T15:56:45.000Z</time>
      </trkpt>
      <trkpt lat="47.54055" lon="6.76246">
        <ele>440.9</ele>
        <time>2016-01-21T15:56:47.000Z</time>
      </trkpt>
      <trkpt lat="47.54056" lon="6.76243">
        <ele>440.8</ele>
        <time>2016-01-21T15:56:48.000Z</time>
      </trkpt>
      <trkpt lat="47.54056" lon="6.7624">
        <ele>441.2</ele>
        <time>2016-01-21T15:56:49.000Z</time>
      </trkpt>
      <trkpt lat="47.54057" lon="6.76237">
        <ele>441.7</ele>
        <time>2016-01-21T15:56:50.000Z</time>
      </trkpt>
      <trkpt lat="47.54058" lon="6.76233">
        <ele>440.6</ele>
        <time>2016-01-21T15:56:51.000Z</time>
      </trkpt>
      <trkpt lat="47.54059" lon="6.7623">
        <ele>439.8</ele>
        <time>2016-01-21T15:56:52.000Z</time>
      </trkpt>
      <trkpt lat="47.5406" lon="6.76226">
        <ele>438.7</ele>
        <time>2016-01-21T15:56:53.000Z</time>
      </trkpt>
      <trkpt lat="47.5406" lon="6.76222">
        <ele>438.7</ele>
        <time>2016-01-21T15:56:54.000Z</time>
      </trkpt>
      <trkpt lat="47.54061" lon="6.76218">
        <ele>439.2</ele>
        <time>2016-01-21T15:56:55.000Z</time>
      </trkpt>
      <trkpt lat="47.54062" lon="6.76214">
        <ele>438.5</ele>
        <time>2016-01-21T15:56:56.000Z</time>
      </trkpt>
      <trkpt lat="47.54062" lon="6.7621">
        <ele>438.1</ele>
        <time>2016-01-21T15:56:57.000Z</time>
      </trkpt>
      <trkpt lat="47.54063" lon="6.76206">
        <ele>437.7</ele>
        <time>2016-01-21T15:56:58.000Z</time>
      </trkpt>
      <trkpt lat="47.54065" lon="6.76202">
        <ele>437.2</ele>
        <time>2016-01-21T15:56:59.000Z</time>
      </trkpt>
      <trkpt lat="47.54066" lon="6.76199">
        <ele>437.7</ele>
        <time>2016-01-21T15:57:00.000Z</time>
      </trkpt>
      <trkpt lat="47.54067" lon="6.76195">
        <ele>437.7</ele>
        <time>2016-01-21T15:57:01.000Z</time>
      </trkpt>
      <trkpt lat="47.54068" lon="6.76192">
        <ele>437.2</ele>
        <time>2016-01-21T15:57:02.000Z</time>
      </trkpt>
      <trkpt lat="47.54069" lon="6.76188">
        <ele>438</ele>
        <time>2016-01-21T15:57:03.000Z</time>
      </trkpt>
      <trkpt lat="47.5407" lon="6.76185">
        <ele>438.2</ele>
        <time>2016-01-21T15:57:04.000Z</time>
      </trkpt>
      <trkpt lat="47.54071" lon="6.76182">
        <ele>439.3</ele>
        <time>2016-01-21T15:57:05.000Z</time>
      </trkpt>
      <trkpt lat="47.54072" lon="6.76179">
        <ele>439.6</ele>
        <time>2016-01-21T15:57:06.000Z</time>
      </trkpt>
      <trkpt lat="47.54072" lon="6.76175">
        <ele>439.5</ele>
        <time>2016-01-21T15:57:07.000Z</time>
      </trkpt>
      <trkpt lat="47.54073" lon="6.76172">
        <ele>439.5</ele>
        <time>2016-01-21T15:57:08.000Z</time>
      </trkpt>
      <trkpt lat="47.54074" lon="6.76169">
        <ele>439.6</ele>
        <time>2016-01-21T15:57:09.000Z</time>
      </trkpt>
      <trkpt lat="47.54075" lon="6.76165">
        <ele>439.9</ele>
        <time>2016-01-21T15:57:10.000Z</time>
      </trkpt>
      <trkpt lat="47.54076" lon="6.76162">
        <ele>439.7</ele>
        <time>2016-01-21T15:57:11.000Z</time>
      </trkpt>
      <trkpt lat="47.54077" lon="6.76159">
        <ele>439.9</ele>
        <time>2016-01-21T15:57:12.000Z</time>
      </trkpt>
      <trkpt lat="47.54078" lon="6.76155">
        <ele>439.7</ele>
        <time>2016-01-21T15:57:13.000Z</time>
      </trkpt>
      <trkpt lat="47.54079" lon="6.76152">
        <ele>439.8</ele>
        <time>2016-01-21T15:57:14.000Z</time>
      </trkpt>
      <trkpt lat="47.5408" lon="6.76146">
        <ele>440.2</ele>
        <time>2016-01-21T15:57:16.000Z</time>
      </trkpt>
      <trkpt lat="47.5408" lon="6.76143">
        <ele>441.2</ele>
        <time>2016-01-21T15:57:17.000Z</time>
      </trkpt>
      <trkpt lat="47.54081" lon="6.76139">
        <ele>441.8</ele>
        <time>2016-01-21T15:57:18.000Z</time>
      </trkpt>
      <trkpt lat="47.54081" lon="6.76135">
        <ele>441.9</ele>
        <time>2016-01-21T15:57:19.000Z</time>
      </trkpt>
      <trkpt lat="47.54082" lon="6.76132">
        <ele>442.6</ele>
        <time>2016-01-21T15:57:20.000Z</time>
      </trkpt>
      <trkpt lat="47.54082" lon="6.76128">
        <ele>443.2</ele>
        <time>2016-01-21T15:57:21.000Z</time>
      </trkpt>
      <trkpt lat="47.54082" lon="6.76125">
        <ele>443.5</ele>
        <time>2016-01-21T15:57:22.000Z</time>
      </trkpt>
      <trkpt lat="47.54083" lon="6.76121">
        <ele>443.5</ele>
        <time>2016-01-21T15:57:23.000Z</time>
      </trkpt>
      <trkpt lat="47.54084" lon="6.76118">
        <ele>443.1</ele>
        <time>2016-01-21T15:57:24.000Z</time>
      </trkpt>
      <trkpt lat="47.54084" lon="6.76114">
        <ele>442.7</ele>
        <time>2016-01-21T15:57:25.000Z</time>
      </trkpt>
      <trkpt lat="47.54085" lon="6.76108">
        <ele>442.7</ele>
        <time>2016-01-21T15:57:27.000Z</time>
      </trkpt>
      <trkpt lat="47.54085" lon="6.76104">
        <ele>442.4</ele>
        <time>2016-01-21T15:57:28.000Z</time>
      </trkpt>
      <trkpt lat="47.54084" lon="6.76101">
        <ele>442</ele>
        <time>2016-01-21T15:57:29.000Z</time>
      </trkpt>
      <trkpt lat="47.54084" lon="6.76097">
        <ele>441.9</ele>
        <time>2016-01-21T15:57:30.000Z</time>
      </trkpt>
      <trkpt lat="47.54083" lon="6.76092">
        <ele>441.4</ele>
        <time>2016-01-21T15:57:31.000Z</time>
      </trkpt>
      <trkpt lat="47.54083" lon="6.76088">
        <ele>441.4</ele>
        <time>2016-01-21T15:57:32.000Z</time>
      </trkpt>
      <trkpt lat="47.54083" lon="6.76084">
        <ele>441.9</ele>
        <time>2016-01-21T15:57:33.000Z</time>
      </trkpt>
      <trkpt lat="47.54083" lon="6.76079">
        <ele>441.7</ele>
        <time>2016-01-21T15:57:34.000Z</time>
      </trkpt>
      <trkpt lat="47.54085" lon="6.76076">
        <ele>441.7</ele>
        <time>2016-01-21T15:57:35.000Z</time>
      </trkpt>
      <trkpt lat="47.54086" lon="6.76072">
        <ele>441.7</ele>
        <time>2016-01-21T15:57:36.000Z</time>
      </trkpt>
      <trkpt lat="47.54088" lon="6.76068">
        <ele>442.5</ele>
        <time>2016-01-21T15:57:37.000Z</time>
      </trkpt>
      <trkpt lat="47.54089" lon="6.76065">
        <ele>442.6</ele>
        <time>2016-01-21T15:57:38.000Z</time>
      </trkpt>
      <trkpt lat="47.54091" lon="6.7606">
        <ele>443.4</ele>
        <time>2016-01-21T15:57:39.000Z</time>
      </trkpt>
      <trkpt lat="47.54092" lon="6.76057">
        <ele>443.7</ele>
        <time>2016-01-21T15:57:40.000Z</time>
      </trkpt>
      <trkpt lat="47.54093" lon="6.76053">
        <ele>443.2</ele>
        <time>2016-01-21T15:57:41.000Z</time>
      </trkpt>
      <trkpt lat="47.54094" lon="6.7605">
        <ele>442.9</ele>
        <time>2016-01-21T15:57:42.000Z</time>
      </trkpt>
      <trkpt lat="47.54095" lon="6.76046">
        <ele>442.5</ele>
        <time>2016-01-21T15:57:43.000Z</time>
      </trkpt>
      <trkpt lat="47.54096" lon="6.76042">
        <ele>442</ele>
        <time>2016-01-21T15:57:44.000Z</time>
      </trkpt>
      <trkpt lat="47.54096" lon="6.76039">
        <ele>442.1</ele>
        <time>2016-01-21T15:57:44.998Z</time>
      </trkpt>
      <trkpt lat="47.54097" lon="6.76034">
        <ele>441.7</ele>
        <time>2016-01-21T15:57:46.000Z</time>
      </trkpt>
      <trkpt lat="47.54098" lon="6.7603">
        <ele>441.1</ele>
        <time>2016-01-21T15:57:47.000Z</time>
      </trkpt>
      <trkpt lat="47.54099" lon="6.76027">
        <ele>441.2</ele>
        <time>2016-01-21T15:57:48.000Z</time>
      </trkpt>
      <trkpt lat="47.541" lon="6.76024">
        <ele>441.3</ele>
        <time>2016-01-21T15:57:49.000Z</time>
      </trkpt>
      <trkpt lat="47.541" lon="6.76021">
        <ele>441.1</ele>
        <time>2016-01-21T15:57:50.000Z</time>
      </trkpt>
      <trkpt lat="47.54102" lon="6.76018">
        <ele>440.8</ele>
        <time>2016-01-21T15:57:51.000Z</time>
      </trkpt>
      <trkpt lat="47.54103" lon="6.76015">
        <ele>440.7</ele>
        <time>2016-01-21T15:57:52.000Z</time>
      </trkpt>
      <trkpt lat="47.54104" lon="6.76012">
        <ele>440.5</ele>
        <time>2016-01-21T15:57:53.000Z</time>
      </trkpt>
      <trkpt lat="47.54105" lon="6.76009">
        <ele>440.5</ele>
        <time>2016-01-21T15:57:54.000Z</time>
      </trkpt>
      <trkpt lat="47.54107" lon="6.76006">
        <ele>441.3</ele>
        <time>2016-01-21T15:57:55.000Z</time>
      </trkpt>
      <trkpt lat="47.54108" lon="6.76003">
        <ele>440.7</ele>
        <time>2016-01-21T15:57:56.000Z</time>
      </trkpt>
      <trkpt lat="47.5411" lon="6.75998">
        <ele>440.5</ele>
        <time>2016-01-21T15:57:58.000Z</time>
      </trkpt>
      <trkpt lat="47.5411" lon="6.75994">
        <ele>439.7</ele>
        <time>2016-01-21T15:57:59.000Z</time>
      </trkpt>
      <trkpt lat="47.54111" lon="6.75988">
        <ele>440.2</ele>
        <time>2016-01-21T15:58:01.000Z</time>
      </trkpt>
      <trkpt lat="47.54111" lon="6.75985">
        <ele>440.5</ele>
        <time>2016-01-21T15:58:02.000Z</time>
      </trkpt>
      <trkpt lat="47.54112" lon="6.75982">
        <ele>440.6</ele>
        <time>2016-01-21T15:58:03.000Z</time>
      </trkpt>
      <trkpt lat="47.54112" lon="6.75978">
        <ele>440.5</ele>
        <time>2016-01-21T15:58:04.000Z</time>
      </trkpt>
      <trkpt lat="47.54113" lon="6.75975">
        <ele>441.4</ele>
        <time>2016-01-21T15:58:05.000Z</time>
      </trkpt>
      <trkpt lat="47.54114" lon="6.75971">
        <ele>441</ele>
        <time>2016-01-21T15:58:06.000Z</time>
      </trkpt>
      <trkpt lat="47.54115" lon="6.75967">
        <ele>440.8</ele>
        <time>2016-01-21T15:58:07.000Z</time>
      </trkpt>
      <trkpt lat="47.54116" lon="6.75964">
        <ele>441.9</ele>
        <time>2016-01-21T15:58:08.000Z</time>
      </trkpt>
      <trkpt lat="47.54119" lon="6.75959">
        <ele>442.5</ele>
        <time>2016-01-21T15:58:10.000Z</time>
      </trkpt>
      <trkpt lat="47.54119" lon="6.75956">
        <ele>442.8</ele>
        <time>2016-01-21T15:58:11.000Z</time>
      </trkpt>
      <trkpt lat="47.54121" lon="6.7595">
        <ele>443.4</ele>
        <time>2016-01-21T15:58:13.000Z</time>
      </trkpt>
      <trkpt lat="47.54121" lon="6.75947">
        <ele>443.4</ele>
        <time>2016-01-21T15:58:14.000Z</time>
      </trkpt>
      <trkpt lat="47.54121" lon="6.75943">
        <ele>442.2</ele>
        <time>2016-01-21T15:58:15.000Z</time>
      </trkpt>
      <trkpt lat="47.54122" lon="6.75939">
        <ele>441.7</ele>
        <time>2016-01-21T15:58:16.000Z</time>
      </trkpt>
      <trkpt lat="47.54122" lon="6.75935">
        <ele>440.7</ele>
        <time>2016-01-21T15:58:17.000Z</time>
      </trkpt>
      <trkpt lat="47.54122" lon="6.7593">
        <ele>440.9</ele>
        <time>2016-01-21T15:58:18.000Z</time>
      </trkpt>
      <trkpt lat="47.54122" lon="6.75926">
        <ele>440.1</ele>
        <time>2016-01-21T15:58:19.000Z</time>
      </trkpt>
      <trkpt lat="47.54122" lon="6.75922">
        <ele>440.9</ele>
        <time>2016-01-21T15:58:20.000Z</time>
      </trkpt>
      <trkpt lat="47.54122" lon="6.75919">
        <ele>441.8</ele>
        <time>2016-01-21T15:58:21.000Z</time>
      </trkpt>
      <trkpt lat="47.54122" lon="6.75915">
        <ele>440.3</ele>
        <time>2016-01-21T15:58:22.000Z</time>
      </trkpt>
      <trkpt lat="47.54121" lon="6.7591">
        <ele>439.7</ele>
        <time>2016-01-21T15:58:23.000Z</time>
      </trkpt>
      <trkpt lat="47.54121" lon="6.75906">
        <ele>440.7</ele>
        <time>2016-01-21T15:58:24.000Z</time>
      </trkpt>
      <trkpt lat="47.54121" lon="6.75902">
        <ele>440.9</ele>
        <time>2016-01-21T15:58:25.000Z</time>
      </trkpt>
      <trkpt lat="47.54121" lon="6.75898">
        <ele>439.9</ele>
        <time>2016-01-21T15:58:26.000Z</time>
      </trkpt>
      <trkpt lat="47.54121" lon="6.75894">
        <ele>439.7</ele>
        <time>2016-01-21T15:58:27.000Z</time>
      </trkpt>
      <trkpt lat="47.54121" lon="6.7589">
        <ele>440.2</ele>
        <time>2016-01-21T15:58:28.000Z</time>
      </trkpt>
      <trkpt lat="47.54121" lon="6.75886">
        <ele>439.2</ele>
        <time>2016-01-21T15:58:29.000Z</time>
      </trkpt>
      <trkpt lat="47.54121" lon="6.75882">
        <ele>440</ele>
        <time>2016-01-21T15:58:30.000Z</time>
      </trkpt>
      <trkpt lat="47.54121" lon="6.75878">
        <ele>438.8</ele>
        <time>2016-01-21T15:58:31.000Z</time>
      </trkpt>
      <trkpt lat="47.54121" lon="6.75874">
        <ele>439</ele>
        <time>2016-01-21T15:58:32.000Z</time>
      </trkpt>
      <trkpt lat="47.54121" lon="6.7587">
        <ele>439.3</ele>
        <time>2016-01-21T15:58:33.000Z</time>
      </trkpt>
      <trkpt lat="47.54123" lon="6.75866">
        <ele>439.1</ele>
        <time>2016-01-21T15:58:34.000Z</time>
      </trkpt>
      <trkpt lat="47.54124" lon="6.75862">
        <ele>438.5</ele>
        <time>2016-01-21T15:58:35.000Z</time>
      </trkpt>
      <trkpt lat="47.54126" lon="6.75858">
        <ele>438.2</ele>
        <time>2016-01-21T15:58:36.000Z</time>
      </trkpt>
      <trkpt lat="47.54128" lon="6.75855">
        <ele>438.2</ele>
        <time>2016-01-21T15:58:37.000Z</time>
      </trkpt>
      <trkpt lat="47.5413" lon="6.75851">
        <ele>437.9</ele>
        <time>2016-01-21T15:58:38.000Z</time>
      </trkpt>
      <trkpt lat="47.54132" lon="6.75847">
        <ele>437.8</ele>
        <time>2016-01-21T15:58:39.000Z</time>
      </trkpt>
      <trkpt lat="47.54133" lon="6.75843">
        <ele>438.5</ele>
        <time>2016-01-21T15:58:40.000Z</time>
      </trkpt>
      <trkpt lat="47.54134" lon="6.75839">
        <ele>438.8</ele>
        <time>2016-01-21T15:58:41.000Z</time>
      </trkpt>
      <trkpt lat="47.54134" lon="6.75836">
        <ele>439.2</ele>
        <time>2016-01-21T15:58:42.000Z</time>
      </trkpt>
      <trkpt lat="47.54136" lon="6.75832">
        <ele>439</ele>
        <time>2016-01-21T15:58:43.000Z</time>
      </trkpt>
      <trkpt lat="47.54137" lon="6.75828">
        <ele>439.6</ele>
        <time>2016-01-21T15:58:44.000Z</time>
      </trkpt>
      <trkpt lat="47.54138" lon="6.75824">
        <ele>439</ele>
        <time>2016-01-21T15:58:45.000Z</time>
      </trkpt>
      <trkpt lat="47.54139" lon="6.75821">
        <ele>439.4</ele>
        <time>2016-01-21T15:58:46.000Z</time>
      </trkpt>
      <trkpt lat="47.54141" lon="6.75817">
        <ele>439.2</ele>
        <time>2016-01-21T15:58:47.000Z</time>
      </trkpt>
      <trkpt lat="47.54141" lon="6.75813">
        <ele>438.8</ele>
        <time>2016-01-21T15:58:48.000Z</time>
      </trkpt>
      <trkpt lat="47.54142" lon="6.7581">
        <ele>438.3</ele>
        <time>2016-01-21T15:58:49.000Z</time>
      </trkpt>
      <trkpt lat="47.54142" lon="6.75807">
        <ele>437.8</ele>
        <time>2016-01-21T15:58:50.000Z</time>
      </trkpt>
      <trkpt lat="47.5414" lon="6.75801">
        <ele>437.3</ele>
        <time>2016-01-21T15:58:52.000Z</time>
      </trkpt>
      <trkpt lat="47.54138" lon="6.75799">
        <ele>437.3</ele>
        <time>2016-01-21T15:58:53.000Z</time>
      </trkpt>
      <trkpt lat="47.54136" lon="6.75796">
        <ele>437.5</ele>
        <time>2016-01-21T15:58:54.000Z</time>
      </trkpt>
      <trkpt lat="47.54134" lon="6.75793">
        <ele>439.1</ele>
        <time>2016-01-21T15:58:55.000Z</time>
      </trkpt>
      <trkpt lat="47.54132" lon="6.75791">
        <ele>439.9</ele>
        <time>2016-01-21T15:58:56.000Z</time>
      </trkpt>
      <trkpt lat="47.54131" lon="6.75788">
        <ele>439.7</ele>
        <time>2016-01-21T15:58:57.000Z</time>
      </trkpt>
      <trkpt lat="47.5413" lon="6.75784">
        <ele>441.3</ele>
        <time>2016-01-21T15:58:58.000Z</time>
      </trkpt>
      <trkpt lat="47.5413" lon="6.7578">
        <ele>442.9</ele>
        <time>2016-01-21T15:58:59.000Z</time>
      </trkpt>
      <trkpt lat="47.54129" lon="6.75776">
        <ele>443.2</ele>
        <time>2016-01-21T15:59:00.000Z</time>
      </trkpt>
      <trkpt lat="47.54129" lon="6.75772">
        <ele>445</ele>
        <time>2016-01-21T15:59:01.000Z</time>
      </trkpt>
      <trkpt lat="47.54128" lon="6.75768">
        <ele>444.9</ele>
        <time>2016-01-21T15:59:02.000Z</time>
      </trkpt>
      <trkpt lat="47.54126" lon="6.75766">
        <ele>445.6</ele>
        <time>2016-01-21T15:59:03.000Z</time>
      </trkpt>
      <trkpt lat="47.54125" lon="6.75763">
        <ele>445.3</ele>
        <time>2016-01-21T15:59:04.000Z</time>
      </trkpt>
      <trkpt lat="47.54123" lon="6.75761">
        <ele>445.6</ele>
        <time>2016-01-21T15:59:05.000Z</time>
      </trkpt>
      <trkpt lat="47.54121" lon="6.75758">
        <ele>446.2</ele>
        <time>2016-01-21T15:59:06.000Z</time>
      </trkpt>
      <trkpt lat="47.54119" lon="6.75755">
        <ele>446.2</ele>
        <time>2016-01-21T15:59:07.000Z</time>
      </trkpt>
      <trkpt lat="47.54118" lon="6.75752">
        <ele>446.1</ele>
        <time>2016-01-21T15:59:08.000Z</time>
      </trkpt>
      <trkpt lat="47.54116" lon="6.75748">
        <ele>445.7</ele>
        <time>2016-01-21T15:59:09.000Z</time>
      </trkpt>
      <trkpt lat="47.54115" lon="6.75745">
        <ele>445.4</ele>
        <time>2016-01-21T15:59:10.000Z</time>
      </trkpt>
      <trkpt lat="47.54114" lon="6.75741">
        <ele>445.5</ele>
        <time>2016-01-21T15:59:11.000Z</time>
      </trkpt>
      <trkpt lat="47.54111" lon="6.75737">
        <ele>448.1</ele>
        <time>2016-01-21T15:59:24.000Z</time>
      </trkpt>
      <trkpt lat="47.54111" lon="6.75736">
        <ele>447.4</ele>
        <time>2016-01-21T15:59:25.000Z</time>
      </trkpt>
      <trkpt lat="47.54109" lon="6.75731">
        <ele>446.8</ele>
        <time>2016-01-21T15:59:28.000Z</time>
      </trkpt>
      <trkpt lat="47.54108" lon="6.75729">
        <ele>446.7</ele>
        <time>2016-01-21T15:59:29.000Z</time>
      </trkpt>
      <trkpt lat="47.54107" lon="6.75726">
        <ele>446.4</ele>
        <time>2016-01-21T15:59:32.000Z</time>
      </trkpt>
      <trkpt lat="47.54109" lon="6.75722">
        <ele>445.8</ele>
        <time>2016-01-21T15:59:33.000Z</time>
      </trkpt>
      <trkpt lat="47.54112" lon="6.75718">
        <ele>446.4</ele>
        <time>2016-01-21T15:59:36.000Z</time>
      </trkpt>
      <trkpt lat="47.54113" lon="6.75717">
        <ele>446.4</ele>
        <time>2016-01-21T15:59:37.000Z</time>
      </trkpt>
      <trkpt lat="47.54111" lon="6.75713">
        <ele>446.5</ele>
        <time>2016-01-21T16:00:14.000Z</time>
      </trkpt>
      <trkpt lat="47.54109" lon="6.75711">
        <ele>446.5</ele>
        <time>2016-01-21T16:00:15.000Z</time>
      </trkpt>
      <trkpt lat="47.54108" lon="6.75709">
        <ele>446.3</ele>
        <time>2016-01-21T16:00:16.000Z</time>
      </trkpt>
      <trkpt lat="47.54106" lon="6.75706">
        <ele>447</ele>
        <time>2016-01-21T16:00:17.000Z</time>
      </trkpt>
      <trkpt lat="47.54104" lon="6.75703">
        <ele>447.1</ele>
        <time>2016-01-21T16:00:18.000Z</time>
      </trkpt>
      <trkpt lat="47.54102" lon="6.75699">
        <ele>445.3</ele>
        <time>2016-01-21T16:00:19.000Z</time>
      </trkpt>
      <trkpt lat="47.54101" lon="6.75694">
        <ele>443.2</ele>
        <time>2016-01-21T16:00:20.000Z</time>
      </trkpt>
      <trkpt lat="47.541" lon="6.7569">
        <ele>446</ele>
        <time>2016-01-21T16:00:21.000Z</time>
      </trkpt>
      <trkpt lat="47.54099" lon="6.75686">
        <ele>445.9</ele>
        <time>2016-01-21T16:00:22.000Z</time>
      </trkpt>
      <trkpt lat="47.54098" lon="6.75682">
        <ele>446.5</ele>
        <time>2016-01-21T16:00:23.000Z</time>
      </trkpt>
      <trkpt lat="47.54097" lon="6.75679">
        <ele>446</ele>
        <time>2016-01-21T16:00:24.000Z</time>
      </trkpt>
      <trkpt lat="47.54095" lon="6.75675">
        <ele>445</ele>
        <time>2016-01-21T16:00:25.000Z</time>
      </trkpt>
      <trkpt lat="47.54094" lon="6.75672">
        <ele>444.4</ele>
        <time>2016-01-21T16:00:26.000Z</time>
      </trkpt>
      <trkpt lat="47.54092" lon="6.75668">
        <ele>443.8</ele>
        <time>2016-01-21T16:00:27.000Z</time>
      </trkpt>
      <trkpt lat="47.5409" lon="6.75664">
        <ele>444.2</ele>
        <time>2016-01-21T16:00:28.000Z</time>
      </trkpt>
      <trkpt lat="47.54089" lon="6.75661">
        <ele>443.9</ele>
        <time>2016-01-21T16:00:29.000Z</time>
      </trkpt>
      <trkpt lat="47.54087" lon="6.75657">
        <ele>444.4</ele>
        <time>2016-01-21T16:00:30.000Z</time>
      </trkpt>
      <trkpt lat="47.54085" lon="6.75654">
        <ele>443.5</ele>
        <time>2016-01-21T16:00:31.000Z</time>
      </trkpt>
      <trkpt lat="47.54083" lon="6.7565">
        <ele>440.3</ele>
        <time>2016-01-21T16:00:32.000Z</time>
      </trkpt>
      <trkpt lat="47.54082" lon="6.75647">
        <ele>439.6</ele>
        <time>2016-01-21T16:00:33.000Z</time>
      </trkpt>
      <trkpt lat="47.5408" lon="6.75643">
        <ele>437.4</ele>
        <time>2016-01-21T16:00:34.000Z</time>
      </trkpt>
      <trkpt lat="47.54078" lon="6.75639">
        <ele>436.9</ele>
        <time>2016-01-21T16:00:35.000Z</time>
      </trkpt>
      <trkpt lat="47.54077" lon="6.75636">
        <ele>436.9</ele>
        <time>2016-01-21T16:00:36.000Z</time>
      </trkpt>
      <trkpt lat="47.54075" lon="6.75632">
        <ele>437.5</ele>
        <time>2016-01-21T16:00:37.000Z</time>
      </trkpt>
      <trkpt lat="47.54073" lon="6.75629">
        <ele>437.8</ele>
        <time>2016-01-21T16:00:38.000Z</time>
      </trkpt>
      <trkpt lat="47.54071" lon="6.75626">
        <ele>438.1</ele>
        <time>2016-01-21T16:00:39.000Z</time>
      </trkpt>
      <trkpt lat="47.54069" lon="6.75623">
        <ele>438.1</ele>
        <time>2016-01-21T16:00:40.000Z</time>
      </trkpt>
      <trkpt lat="47.54068" lon="6.7562">
        <ele>438.1</ele>
        <time>2016-01-21T16:00:41.000Z</time>
      </trkpt>
      <trkpt lat="47.54066" lon="6.75617">
        <ele>438.4</ele>
        <time>2016-01-21T16:00:42.000Z</time>
      </trkpt>
      <trkpt lat="47.54064" lon="6.75613">
        <ele>437</ele>
        <time>2016-01-21T16:00:43.000Z</time>
      </trkpt>
      <trkpt lat="47.54063" lon="6.7561">
        <ele>436.5</ele>
        <time>2016-01-21T16:00:44.000Z</time>
      </trkpt>
      <trkpt lat="47.54061" lon="6.75606">
        <ele>435.6</ele>
        <time>2016-01-21T16:00:45.000Z</time>
      </trkpt>
      <trkpt lat="47.5406" lon="6.75603">
        <ele>435.2</ele>
        <time>2016-01-21T16:00:46.000Z</time>
      </trkpt>
      <trkpt lat="47.54058" lon="6.756">
        <ele>436.5</ele>
        <time>2016-01-21T16:00:47.000Z</time>
      </trkpt>
      <trkpt lat="47.54056" lon="6.75597">
        <ele>436.6</ele>
        <time>2016-01-21T16:00:48.000Z</time>
      </trkpt>
      <trkpt lat="47.54055" lon="6.75593">
        <ele>435.7</ele>
        <time>2016-01-21T16:00:49.000Z</time>
      </trkpt>
      <trkpt lat="47.54053" lon="6.7559">
        <ele>435.6</ele>
        <time>2016-01-21T16:00:50.000Z</time>
      </trkpt>
      <trkpt lat="47.54052" lon="6.75585">
        <ele>434.8</ele>
        <time>2016-01-21T16:00:51.000Z</time>
      </trkpt>
      <trkpt lat="47.54051" lon="6.75582">
        <ele>435</ele>
        <time>2016-01-21T16:00:52.000Z</time>
      </trkpt>
      <trkpt lat="47.54049" lon="6.75578">
        <ele>435.3</ele>
        <time>2016-01-21T16:00:53.000Z</time>
      </trkpt>
      <trkpt lat="47.54047" lon="6.75575">
        <ele>435.4</ele>
        <time>2016-01-21T16:00:54.000Z</time>
      </trkpt>
      <trkpt lat="47.54046" lon="6.75572">
        <ele>434.8</ele>
        <time>2016-01-21T16:00:55.000Z</time>
      </trkpt>
      <trkpt lat="47.54044" lon="6.75569">
        <ele>434.5</ele>
        <time>2016-01-21T16:00:56.000Z</time>
      </trkpt>
      <trkpt lat="47.54042" lon="6.75566">
        <ele>435.2</ele>
        <time>2016-01-21T16:00:57.000Z</time>
      </trkpt>
      <trkpt lat="47.5404" lon="6.75563">
        <ele>436</ele>
        <time>2016-01-21T16:00:58.000Z</time>
      </trkpt>
      <trkpt lat="47.54039" lon="6.7556">
        <ele>436.1</ele>
        <time>2016-01-21T16:00:59.000Z</time>
      </trkpt>
      <trkpt lat="47.54037" lon="6.75558">
        <ele>436</ele>
        <time>2016-01-21T16:01:00.000Z</time>
      </trkpt>
      <trkpt lat="47.54035" lon="6.75555">
        <ele>435.9</ele>
        <time>2016-01-21T16:01:01.000Z</time>
      </trkpt>
      <trkpt lat="47.54033" lon="6.75552">
        <ele>435.8</ele>
        <time>2016-01-21T16:01:02.000Z</time>
      </trkpt>
      <trkpt lat="47.54032" lon="6.75549">
        <ele>435</ele>
        <time>2016-01-21T16:01:03.000Z</time>
      </trkpt>
      <trkpt lat="47.5403" lon="6.75546">
        <ele>435.2</ele>
        <time>2016-01-21T16:01:04.000Z</time>
      </trkpt>
      <trkpt lat="47.54028" lon="6.75543">
        <ele>435.3</ele>
        <time>2016-01-21T16:01:05.000Z</time>
      </trkpt>
      <trkpt lat="47.54026" lon="6.7554">
        <ele>435.1</ele>
        <time>2016-01-21T16:01:06.000Z</time>
      </trkpt>
      <trkpt lat="47.54024" lon="6.75537">
        <ele>435.8</ele>
        <time>2016-01-21T16:01:07.000Z</time>
      </trkpt>
      <trkpt lat="47.54022" lon="6.75534">
        <ele>435.9</ele>
        <time>2016-01-21T16:01:08.000Z</time>
      </trkpt>
      <trkpt lat="47.54021" lon="6.75531">
        <ele>436</ele>
        <time>2016-01-21T16:01:09.000Z</time>
      </trkpt>
      <trkpt lat="47.54019" lon="6.75528">
        <ele>435.7</ele>
        <time>2016-01-21T16:01:10.000Z</time>
      </trkpt>
      <trkpt lat="47.54018" lon="6.75525">
        <ele>435.9</ele>
        <time>2016-01-21T16:01:11.000Z</time>
      </trkpt>
      <trkpt lat="47.54016" lon="6.75521">
        <ele>435.7</ele>
        <time>2016-01-21T16:01:13.000Z</time>
      </trkpt>
      <trkpt lat="47.54015" lon="6.7552">
        <ele>435.8</ele>
        <time>2016-01-21T16:01:14.000Z</time>
      </trkpt>
      <trkpt lat="47.54013" lon="6.75517">
        <ele>436.7</ele>
        <time>2016-01-21T16:01:23.000Z</time>
      </trkpt>
      <trkpt lat="47.54011" lon="6.75514">
        <ele>437.2</ele>
        <time>2016-01-21T16:01:24.000Z</time>
      </trkpt>
      <trkpt lat="47.5401" lon="6.75511">
        <ele>437.2</ele>
        <time>2016-01-21T16:01:25.000Z</time>
      </trkpt>
      <trkpt lat="47.54008" lon="6.75508">
        <ele>437.5</ele>
        <time>2016-01-21T16:01:26.000Z</time>
      </trkpt>
      <trkpt lat="47.54006" lon="6.75505">
        <ele>437.5</ele>
        <time>2016-01-21T16:01:27.000Z</time>
      </trkpt>
      <trkpt lat="47.54005" lon="6.75502">
        <ele>437.7</ele>
        <time>2016-01-21T16:01:28.000Z</time>
      </trkpt>
      <trkpt lat="47.54003" lon="6.755">
        <ele>437.6</ele>
        <time>2016-01-21T16:01:29.000Z</time>
      </trkpt>
      <trkpt lat="47.54001" lon="6.75496">
        <ele>437.8</ele>
        <time>2016-01-21T16:01:30.000Z</time>
      </trkpt>
      <trkpt lat="47.53999" lon="6.75493">
        <ele>436.5</ele>
        <time>2016-01-21T16:01:31.000Z</time>
      </trkpt>
      <trkpt lat="47.53998" lon="6.75489">
        <ele>435.8</ele>
        <time>2016-01-21T16:01:32.000Z</time>
      </trkpt>
      <trkpt lat="47.53997" lon="6.75486">
        <ele>435.1</ele>
        <time>2016-01-21T16:01:33.000Z</time>
      </trkpt>
      <trkpt lat="47.53995" lon="6.75482">
        <ele>435</ele>
        <time>2016-01-21T16:01:34.000Z</time>
      </trkpt>
      <trkpt lat="47.53994" lon="6.75479">
        <ele>434.5</ele>
        <time>2016-01-21T16:01:35.000Z</time>
      </trkpt>
      <trkpt lat="47.53992" lon="6.75476">
        <ele>434.4</ele>
        <time>2016-01-21T16:01:36.000Z</time>
      </trkpt>
      <trkpt lat="47.5399" lon="6.75473">
        <ele>434.4</ele>
        <time>2016-01-21T16:01:37.000Z</time>
      </trkpt>
      <trkpt lat="47.53988" lon="6.75472">
        <ele>440.1</ele>
        <time>2016-01-21T16:01:38.000Z</time>
      </trkpt>
      <trkpt lat="47.53984" lon="6.7547">
        <ele>442.4</ele>
        <time>2016-01-21T16:01:40.000Z</time>
      </trkpt>
      <trkpt lat="47.53982" lon="6.75469">
        <ele>442.6</ele>
        <time>2016-01-21T16:01:41.000Z</time>
      </trkpt>
      <trkpt lat="47.53979" lon="6.75468">
        <ele>443.1</ele>
        <time>2016-01-21T16:01:42.000Z</time>
      </trkpt>
      <trkpt lat="47.53977" lon="6.75466">
        <ele>443.2</ele>
        <time>2016-01-21T16:01:43.000Z</time>
      </trkpt>
      <trkpt lat="47.53975" lon="6.75464">
        <ele>443.4</ele>
        <time>2016-01-21T16:01:44.000Z</time>
      </trkpt>
      <trkpt lat="47.53972" lon="6.75462">
        <ele>443.3</ele>
        <time>2016-01-21T16:01:45.000Z</time>
      </trkpt>
      <trkpt lat="47.5397" lon="6.75459">
        <ele>442.7</ele>
        <time>2016-01-21T16:01:46.000Z</time>
      </trkpt>
      <trkpt lat="47.53968" lon="6.75456">
        <ele>442.5</ele>
        <time>2016-01-21T16:01:47.000Z</time>
      </trkpt>
      <trkpt lat="47.53965" lon="6.75453">
        <ele>442.4</ele>
        <time>2016-01-21T16:01:48.000Z</time>
      </trkpt>
      <trkpt lat="47.53963" lon="6.7545">
        <ele>441.7</ele>
        <time>2016-01-21T16:01:49.000Z</time>
      </trkpt>
      <trkpt lat="47.53961" lon="6.75448">
        <ele>441.9</ele>
        <time>2016-01-21T16:01:50.000Z</time>
      </trkpt>
      <trkpt lat="47.53959" lon="6.75445">
        <ele>442</ele>
        <time>2016-01-21T16:01:51.000Z</time>
      </trkpt>
      <trkpt lat="47.53956" lon="6.75443">
        <ele>442.2</ele>
        <time>2016-01-21T16:01:52.000Z</time>
      </trkpt>
      <trkpt lat="47.53954" lon="6.75441">
        <ele>442.2</ele>
        <time>2016-01-21T16:01:53.000Z</time>
      </trkpt>
      <trkpt lat="47.53952" lon="6.75438">
        <ele>442.3</ele>
        <time>2016-01-21T16:01:54.000Z</time>
      </trkpt>
      <trkpt lat="47.5395" lon="6.75435">
        <ele>441.9</ele>
        <time>2016-01-21T16:01:55.000Z</time>
      </trkpt>
      <trkpt lat="47.53949" lon="6.75432">
        <ele>442</ele>
        <time>2016-01-21T16:01:56.000Z</time>
      </trkpt>
      <trkpt lat="47.53947" lon="6.75429">
        <ele>441.2</ele>
        <time>2016-01-21T16:01:57.000Z</time>
      </trkpt>
      <trkpt lat="47.53945" lon="6.75426">
        <ele>441</ele>
        <time>2016-01-21T16:01:58.000Z</time>
      </trkpt>
      <trkpt lat="47.53943" lon="6.75422">
        <ele>441.1</ele>
        <time>2016-01-21T16:01:59.000Z</time>
      </trkpt>
      <trkpt lat="47.53941" lon="6.75419">
        <ele>440.7</ele>
        <time>2016-01-21T16:02:00.000Z</time>
      </trkpt>
      <trkpt lat="47.53939" lon="6.75415">
        <ele>441.3</ele>
        <time>2016-01-21T16:02:01.000Z</time>
      </trkpt>
      <trkpt lat="47.53937" lon="6.75412">
        <ele>441.5</ele>
        <time>2016-01-21T16:02:02.000Z</time>
      </trkpt>
      <trkpt lat="47.53935" lon="6.75409">
        <ele>441.2</ele>
        <time>2016-01-21T16:02:03.000Z</time>
      </trkpt>
      <trkpt lat="47.53932" lon="6.75406">
        <ele>440.8</ele>
        <time>2016-01-21T16:02:04.000Z</time>
      </trkpt>
      <trkpt lat="47.5393" lon="6.75403">
        <ele>441</ele>
        <time>2016-01-21T16:02:05.000Z</time>
      </trkpt>
      <trkpt lat="47.53928" lon="6.754">
        <ele>440.4</ele>
        <time>2016-01-21T16:02:06.000Z</time>
      </trkpt>
      <trkpt lat="47.53927" lon="6.75397">
        <ele>439.5</ele>
        <time>2016-01-21T16:02:07.000Z</time>
      </trkpt>
      <trkpt lat="47.53925" lon="6.75394">
        <ele>439.9</ele>
        <time>2016-01-21T16:02:08.000Z</time>
      </trkpt>
      <trkpt lat="47.53923" lon="6.75392">
        <ele>440.6</ele>
        <time>2016-01-21T16:02:09.000Z</time>
      </trkpt>
      <trkpt lat="47.53921" lon="6.75389">
        <ele>440.4</ele>
        <time>2016-01-21T16:02:10.000Z</time>
      </trkpt>
      <trkpt lat="47.53919" lon="6.75386">
        <ele>439.5</ele>
        <time>2016-01-21T16:02:11.000Z</time>
      </trkpt>
      <trkpt lat="47.53917" lon="6.75383">
        <ele>439.6</ele>
        <time>2016-01-21T16:02:12.000Z</time>
      </trkpt>
      <trkpt lat="47.53915" lon="6.7538">
        <ele>439.4</ele>
        <time>2016-01-21T16:02:13.000Z</time>
      </trkpt>
      <trkpt lat="47.53914" lon="6.75377">
        <ele>439.6</ele>
        <time>2016-01-21T16:02:14.000Z</time>
      </trkpt>
      <trkpt lat="47.53912" lon="6.75374">
        <ele>439.7</ele>
        <time>2016-01-21T16:02:15.000Z</time>
      </trkpt>
      <trkpt lat="47.53911" lon="6.7537">
        <ele>440.2</ele>
        <time>2016-01-21T16:02:16.000Z</time>
      </trkpt>
      <trkpt lat="47.5391" lon="6.75366">
        <ele>440.8</ele>
        <time>2016-01-21T16:02:17.000Z</time>
      </trkpt>
      <trkpt lat="47.53909" lon="6.75362">
        <ele>440.8</ele>
        <time>2016-01-21T16:02:18.000Z</time>
      </trkpt>
      <trkpt lat="47.53907" lon="6.75358">
        <ele>440.4</ele>
        <time>2016-01-21T16:02:19.000Z</time>
      </trkpt>
      <trkpt lat="47.53905" lon="6.75354">
        <ele>440.4</ele>
        <time>2016-01-21T16:02:20.000Z</time>
      </trkpt>
      <trkpt lat="47.53904" lon="6.75351">
        <ele>440.5</ele>
        <time>2016-01-21T16:02:21.000Z</time>
      </trkpt>
      <trkpt lat="47.53902" lon="6.75347">
        <ele>440.6</ele>
        <time>2016-01-21T16:02:22.000Z</time>
      </trkpt>
      <trkpt lat="47.539" lon="6.75343">
        <ele>441</ele>
        <time>2016-01-21T16:02:23.000Z</time>
      </trkpt>
      <trkpt lat="47.53898" lon="6.7534">
        <ele>441.6</ele>
        <time>2016-01-21T16:02:24.000Z</time>
      </trkpt>
      <trkpt lat="47.53897" lon="6.75337">
        <ele>441.8</ele>
        <time>2016-01-21T16:02:25.000Z</time>
      </trkpt>
      <trkpt lat="47.53895" lon="6.75334">
        <ele>442.1</ele>
        <time>2016-01-21T16:02:26.000Z</time>
      </trkpt>
      <trkpt lat="47.53893" lon="6.75331">
        <ele>442.4</ele>
        <time>2016-01-21T16:02:27.000Z</time>
      </trkpt>
      <trkpt lat="47.53892" lon="6.75328">
        <ele>442.3</ele>
        <time>2016-01-21T16:02:28.000Z</time>
      </trkpt>
      <trkpt lat="47.53891" lon="6.75326">
        <ele>442.2</ele>
        <time>2016-01-21T16:02:29.000Z</time>
      </trkpt>
      <trkpt lat="47.53889" lon="6.75323">
        <ele>442.3</ele>
        <time>2016-01-21T16:02:30.000Z</time>
      </trkpt>
      <trkpt lat="47.53888" lon="6.7532">
        <ele>442.7</ele>
        <time>2016-01-21T16:02:31.000Z</time>
      </trkpt>
      <trkpt lat="47.53885" lon="6.75315">
        <ele>442.6</ele>
        <time>2016-01-21T16:02:33.000Z</time>
      </trkpt>
      <trkpt lat="47.53884" lon="6.75312">
        <ele>442.7</ele>
        <time>2016-01-21T16:02:34.000Z</time>
      </trkpt>
      <trkpt lat="47.53882" lon="6.7531">
        <ele>442.5</ele>
        <time>2016-01-21T16:02:35.000Z</time>
      </trkpt>
      <trkpt lat="47.5388" lon="6.75307">
        <ele>442.4</ele>
        <time>2016-01-21T16:02:36.000Z</time>
      </trkpt>
      <trkpt lat="47.53878" lon="6.75305">
        <ele>442.6</ele>
        <time>2016-01-21T16:02:37.000Z</time>
      </trkpt>
      <trkpt lat="47.53876" lon="6.75302">
        <ele>442.6</ele>
        <time>2016-01-21T16:02:38.000Z</time>
      </trkpt>
      <trkpt lat="47.53874" lon="6.753">
        <ele>442.9</ele>
        <time>2016-01-21T16:02:39.000Z</time>
      </trkpt>
      <trkpt lat="47.53872" lon="6.75297">
        <ele>442.3</ele>
        <time>2016-01-21T16:02:40.000Z</time>
      </trkpt>
      <trkpt lat="47.5387" lon="6.75295">
        <ele>442.3</ele>
        <time>2016-01-21T16:02:41.000Z</time>
      </trkpt>
      <trkpt lat="47.53869" lon="6.75293">
        <ele>442.2</ele>
        <time>2016-01-21T16:02:42.000Z</time>
      </trkpt>
      <trkpt lat="47.53866" lon="6.7529">
        <ele>442.3</ele>
        <time>2016-01-21T16:02:43.000Z</time>
      </trkpt>
      <trkpt lat="47.53864" lon="6.75287">
        <ele>442.9</ele>
        <time>2016-01-21T16:02:44.000Z</time>
      </trkpt>
      <trkpt lat="47.53863" lon="6.75283">
        <ele>443.2</ele>
        <time>2016-01-21T16:02:45.000Z</time>
      </trkpt>
      <trkpt lat="47.53861" lon="6.7528">
        <ele>444.2</ele>
        <time>2016-01-21T16:02:46.000Z</time>
      </trkpt>
      <trkpt lat="47.53859" lon="6.75276">
        <ele>444.4</ele>
        <time>2016-01-21T16:02:47.000Z</time>
      </trkpt>
      <trkpt lat="47.53857" lon="6.75274">
        <ele>444.9</ele>
        <time>2016-01-21T16:02:48.000Z</time>
      </trkpt>
      <trkpt lat="47.53855" lon="6.75271">
        <ele>444.8</ele>
        <time>2016-01-21T16:02:49.000Z</time>
      </trkpt>
      <trkpt lat="47.53853" lon="6.75268">
        <ele>445.1</ele>
        <time>2016-01-21T16:02:50.000Z</time>
      </trkpt>
      <trkpt lat="47.53851" lon="6.75265">
        <ele>445.4</ele>
        <time>2016-01-21T16:02:51.000Z</time>
      </trkpt>
      <trkpt lat="47.53849" lon="6.75263">
        <ele>445.4</ele>
        <time>2016-01-21T16:02:52.000Z</time>
      </trkpt>
      <trkpt lat="47.53848" lon="6.75261">
        <ele>446.6</ele>
        <time>2016-01-21T16:02:53.000Z</time>
      </trkpt>
      <trkpt lat="47.53846" lon="6.75259">
        <ele>447.5</ele>
        <time>2016-01-21T16:02:54.000Z</time>
      </trkpt>
      <trkpt lat="47.53844" lon="6.75256">
        <ele>448.2</ele>
        <time>2016-01-21T16:02:55.000Z</time>
      </trkpt>
      <trkpt lat="47.53842" lon="6.75255">
        <ele>448.2</ele>
        <time>2016-01-21T16:02:56.000Z</time>
      </trkpt>
      <trkpt lat="47.5384" lon="6.75252">
        <ele>448.1</ele>
        <time>2016-01-21T16:02:57.000Z</time>
      </trkpt>
      <trkpt lat="47.53838" lon="6.7525">
        <ele>447.8</ele>
        <time>2016-01-21T16:02:58.000Z</time>
      </trkpt>
      <trkpt lat="47.53836" lon="6.75248">
        <ele>448.1</ele>
        <time>2016-01-21T16:02:59.000Z</time>
      </trkpt>
      <trkpt lat="47.53834" lon="6.75245">
        <ele>448.2</ele>
        <time>2016-01-21T16:03:00.000Z</time>
      </trkpt>
      <trkpt lat="47.53832" lon="6.75243">
        <ele>448.9</ele>
        <time>2016-01-21T16:03:01.000Z</time>
      </trkpt>
      <trkpt lat="47.5383" lon="6.7524">
        <ele>449</ele>
        <time>2016-01-21T16:03:02.000Z</time>
      </trkpt>
      <trkpt lat="47.53827" lon="6.75235">
        <ele>449.2</ele>
        <time>2016-01-21T16:03:04.000Z</time>
      </trkpt>
      <trkpt lat="47.53825" lon="6.75233">
        <ele>449.5</ele>
        <time>2016-01-21T16:03:05.000Z</time>
      </trkpt>
      <trkpt lat="47.53823" lon="6.7523">
        <ele>449.6</ele>
        <time>2016-01-21T16:03:06.000Z</time>
      </trkpt>
      <trkpt lat="47.53821" lon="6.75227">
        <ele>450</ele>
        <time>2016-01-21T16:03:07.000Z</time>
      </trkpt>
      <trkpt lat="47.5382" lon="6.75224">
        <ele>449.4</ele>
        <time>2016-01-21T16:03:08.000Z</time>
      </trkpt>
      <trkpt lat="47.53818" lon="6.75222">
        <ele>449.6</ele>
        <time>2016-01-21T16:03:09.000Z</time>
      </trkpt>
      <trkpt lat="47.53817" lon="6.75219">
        <ele>450.1</ele>
        <time>2016-01-21T16:03:10.000Z</time>
      </trkpt>
      <trkpt lat="47.53815" lon="6.75216">
        <ele>449.4</ele>
        <time>2016-01-21T16:03:11.000Z</time>
      </trkpt>
      <trkpt lat="47.53813" lon="6.75211">
        <ele>448.8</ele>
        <time>2016-01-21T16:03:13.000Z</time>
      </trkpt>
      <trkpt lat="47.53812" lon="6.75209">
        <ele>448.8</ele>
        <time>2016-01-21T16:03:14.000Z</time>
      </trkpt>
      <trkpt lat="47.5381" lon="6.75206">
        <ele>449</ele>
        <time>2016-01-21T16:03:15.000Z</time>
      </trkpt>
      <trkpt lat="47.53809" lon="6.75203">
        <ele>449</ele>
        <time>2016-01-21T16:03:16.000Z</time>
      </trkpt>
      <trkpt lat="47.53807" lon="6.752">
        <ele>449.4</ele>
        <time>2016-01-21T16:03:17.000Z</time>
      </trkpt>
      <trkpt lat="47.53804" lon="6.75197">
        <ele>449.7</ele>
        <time>2016-01-21T16:03:18.000Z</time>
      </trkpt>
      <trkpt lat="47.53802" lon="6.75194">
        <ele>450.7</ele>
        <time>2016-01-21T16:03:19.000Z</time>
      </trkpt>
      <trkpt lat="47.538" lon="6.75191">
        <ele>450.9</ele>
        <time>2016-01-21T16:03:20.000Z</time>
      </trkpt>
      <trkpt lat="47.53798" lon="6.75189">
        <ele>450.6</ele>
        <time>2016-01-21T16:03:21.000Z</time>
      </trkpt>
      <trkpt lat="47.53796" lon="6.75187">
        <ele>450.6</ele>
        <time>2016-01-21T16:03:22.000Z</time>
      </trkpt>
      <trkpt lat="47.53794" lon="6.75184">
        <ele>451.3</ele>
        <time>2016-01-21T16:03:23.000Z</time>
      </trkpt>
      <trkpt lat="47.53792" lon="6.75181">
        <ele>451.1</ele>
        <time>2016-01-21T16:03:24.000Z</time>
      </trkpt>
      <trkpt lat="47.5379" lon="6.75179">
        <ele>451.5</ele>
        <time>2016-01-21T16:03:25.000Z</time>
      </trkpt>
      <trkpt lat="47.53788" lon="6.75176">
        <ele>451.9</ele>
        <time>2016-01-21T16:03:26.000Z</time>
      </trkpt>
      <trkpt lat="47.53786" lon="6.75174">
        <ele>451.9</ele>
        <time>2016-01-21T16:03:27.000Z</time>
      </trkpt>
      <trkpt lat="47.53785" lon="6.75171">
        <ele>451.7</ele>
        <time>2016-01-21T16:03:28.000Z</time>
      </trkpt>
      <trkpt lat="47.53782" lon="6.75169">
        <ele>451</ele>
        <time>2016-01-21T16:03:29.000Z</time>
      </trkpt>
      <trkpt lat="47.5378" lon="6.75167">
        <ele>451</ele>
        <time>2016-01-21T16:03:30.000Z</time>
      </trkpt>
      <trkpt lat="47.53778" lon="6.75164">
        <ele>451.3</ele>
        <time>2016-01-21T16:03:31.000Z</time>
      </trkpt>
      <trkpt lat="47.53776" lon="6.75162">
        <ele>450.4</ele>
        <time>2016-01-21T16:03:32.000Z</time>
      </trkpt>
      <trkpt lat="47.53774" lon="6.7516">
        <ele>450.1</ele>
        <time>2016-01-21T16:03:33.000Z</time>
      </trkpt>
      <trkpt lat="47.53772" lon="6.75158">
        <ele>450.6</ele>
        <time>2016-01-21T16:03:34.000Z</time>
      </trkpt>
      <trkpt lat="47.5377" lon="6.75155">
        <ele>450.8</ele>
        <time>2016-01-21T16:03:35.000Z</time>
      </trkpt>
      <trkpt lat="47.53769" lon="6.75154">
        <ele>452</ele>
        <time>2016-01-21T16:03:36.000Z</time>
      </trkpt>
      <trkpt lat="47.53766" lon="6.75149">
        <ele>455.4</ele>
        <time>2016-01-21T16:03:38.000Z</time>
      </trkpt>
      <trkpt lat="47.53765" lon="6.75146">
        <ele>456</ele>
        <time>2016-01-21T16:03:39.000Z</time>
      </trkpt>
      <trkpt lat="47.53763" lon="6.7514">
        <ele>455.6</ele>
        <time>2016-01-21T16:03:41.000Z</time>
      </trkpt>
      <trkpt lat="47.53762" lon="6.75137">
        <ele>455.7</ele>
        <time>2016-01-21T16:03:42.000Z</time>
      </trkpt>
      <trkpt lat="47.5376" lon="6.75134">
        <ele>455.6</ele>
        <time>2016-01-21T16:03:43.000Z</time>
      </trkpt>
      <trkpt lat="47.53758" lon="6.75131">
        <ele>456.2</ele>
        <time>2016-01-21T16:03:44.000Z</time>
      </trkpt>
      <trkpt lat="47.53756" lon="6.75129">
        <ele>455.7</ele>
        <time>2016-01-21T16:03:45.000Z</time>
      </trkpt>
      <trkpt lat="47.53754" lon="6.75126">
        <ele>455.1</ele>
        <time>2016-01-21T16:03:46.000Z</time>
      </trkpt>
      <trkpt lat="47.53752" lon="6.75123">
        <ele>455</ele>
        <time>2016-01-21T16:03:47.000Z</time>
      </trkpt>
      <trkpt lat="47.5375" lon="6.75121">
        <ele>453.6</ele>
        <time>2016-01-21T16:03:48.000Z</time>
      </trkpt>
      <trkpt lat="47.53748" lon="6.75118">
        <ele>453.4</ele>
        <time>2016-01-21T16:03:49.000Z</time>
      </trkpt>
      <trkpt lat="47.53746" lon="6.75115">
        <ele>453.5</ele>
        <time>2016-01-21T16:03:50.000Z</time>
      </trkpt>
      <trkpt lat="47.53743" lon="6.75113">
        <ele>453.3</ele>
        <time>2016-01-21T16:03:51.000Z</time>
      </trkpt>
      <trkpt lat="47.53741" lon="6.7511">
        <ele>452.8</ele>
        <time>2016-01-21T16:03:52.000Z</time>
      </trkpt>
      <trkpt lat="47.5374" lon="6.75107">
        <ele>451.8</ele>
        <time>2016-01-21T16:03:53.000Z</time>
      </trkpt>
      <trkpt lat="47.53738" lon="6.75104">
        <ele>451.9</ele>
        <time>2016-01-21T16:03:54.000Z</time>
      </trkpt>
      <trkpt lat="47.53736" lon="6.75101">
        <ele>451.6</ele>
        <time>2016-01-21T16:03:55.000Z</time>
      </trkpt>
      <trkpt lat="47.53734" lon="6.75098">
        <ele>450</ele>
        <time>2016-01-21T16:03:56.000Z</time>
      </trkpt>
      <trkpt lat="47.53732" lon="6.75095">
        <ele>450</ele>
        <time>2016-01-21T16:03:57.000Z</time>
      </trkpt>
      <trkpt lat="47.5373" lon="6.75093">
        <ele>450.3</ele>
        <time>2016-01-21T16:03:58.000Z</time>
      </trkpt>
      <trkpt lat="47.53729" lon="6.7509">
        <ele>450.1</ele>
        <time>2016-01-21T16:03:59.000Z</time>
      </trkpt>
      <trkpt lat="47.53727" lon="6.75088">
        <ele>449.8</ele>
        <time>2016-01-21T16:04:00.000Z</time>
      </trkpt>
      <trkpt lat="47.53725" lon="6.75085">
        <ele>449.3</ele>
        <time>2016-01-21T16:04:01.000Z</time>
      </trkpt>
      <trkpt lat="47.53724" lon="6.75083">
        <ele>449</ele>
        <time>2016-01-21T16:04:02.000Z</time>
      </trkpt>
      <trkpt lat="47.53722" lon="6.7508">
        <ele>448.2</ele>
        <time>2016-01-21T16:04:03.000Z</time>
      </trkpt>
      <trkpt lat="47.53721" lon="6.75076">
        <ele>446.1</ele>
        <time>2016-01-21T16:04:04.000Z</time>
      </trkpt>
      <trkpt lat="47.53721" lon="6.75082">
        <ele>438.5</ele>
        <time>2016-01-21T16:04:14.000Z</time>
      </trkpt>
      <trkpt lat="47.53721" lon="6.75084">
        <ele>438.2</ele>
        <time>2016-01-21T16:04:15.000Z</time>
      </trkpt>
      <trkpt lat="47.53719" lon="6.75088">
        <ele>438.5</ele>
        <time>2016-01-21T16:04:17.000Z</time>
      </trkpt>
      <trkpt lat="47.53718" lon="6.7509">
        <ele>439.1</ele>
        <time>2016-01-21T16:04:18.000Z</time>
      </trkpt>
      <trkpt lat="47.53716" lon="6.75094">
        <ele>440.1</ele>
        <time>2016-01-21T16:04:21.000Z</time>
      </trkpt>
      <trkpt lat="47.53715" lon="6.75096">
        <ele>440</ele>
        <time>2016-01-21T16:04:22.000Z</time>
      </trkpt>
      <trkpt lat="47.53714" lon="6.75099">
        <ele>439.5</ele>
        <time>2016-01-21T16:04:23.000Z</time>
      </trkpt>
      <trkpt lat="47.53713" lon="6.75102">
        <ele>439.8</ele>
        <time>2016-01-21T16:04:24.000Z</time>
      </trkpt>
      <trkpt lat="47.53711" lon="6.75108">
        <ele>440.5</ele>
        <time>2016-01-21T16:04:26.000Z</time>
      </trkpt>
      <trkpt lat="47.5371" lon="6.75111">
        <ele>439.7</ele>
        <time>2016-01-21T16:04:27.000Z</time>
      </trkpt>
      <trkpt lat="47.53708" lon="6.75117">
        <ele>439.6</ele>
        <time>2016-01-21T16:04:29.000Z</time>
      </trkpt>
      <trkpt lat="47.53707" lon="6.7512">
        <ele>439.4</ele>
        <time>2016-01-21T16:04:30.000Z</time>
      </trkpt>
      <trkpt lat="47.53706" lon="6.75126">
        <ele>438.6</ele>
        <time>2016-01-21T16:04:32.000Z</time>
      </trkpt>
      <trkpt lat="47.53705" lon="6.75128">
        <ele>438.4</ele>
        <time>2016-01-21T16:04:33.000Z</time>
      </trkpt>
      <trkpt lat="47.53702" lon="6.75134">
        <ele>439</ele>
        <time>2016-01-21T16:04:35.000Z</time>
      </trkpt>
      <trkpt lat="47.537" lon="6.75136">
        <ele>439.6</ele>
        <time>2016-01-21T16:04:36.000Z</time>
      </trkpt>
      <trkpt lat="47.53699" lon="6.75139">
        <ele>439.4</ele>
        <time>2016-01-21T16:04:37.000Z</time>
      </trkpt>
      <trkpt lat="47.53697" lon="6.75142">
        <ele>440.2</ele>
        <time>2016-01-21T16:04:38.000Z</time>
      </trkpt>
      <trkpt lat="47.53696" lon="6.75146">
        <ele>441.8</ele>
        <time>2016-01-21T16:04:39.000Z</time>
      </trkpt>
      <trkpt lat="47.53694" lon="6.7515">
        <ele>442</ele>
        <time>2016-01-21T16:04:40.000Z</time>
      </trkpt>
      <trkpt lat="47.53693" lon="6.75154">
        <ele>440.1</ele>
        <time>2016-01-21T16:04:41.000Z</time>
      </trkpt>
      <trkpt lat="47.53692" lon="6.75158">
        <ele>439.6</ele>
        <time>2016-01-21T16:04:42.000Z</time>
      </trkpt>
      <trkpt lat="47.53691" lon="6.75162">
        <ele>440.1</ele>
        <time>2016-01-21T16:04:43.000Z</time>
      </trkpt>
      <trkpt lat="47.53689" lon="6.75166">
        <ele>439.2</ele>
        <time>2016-01-21T16:04:44.000Z</time>
      </trkpt>
      <trkpt lat="47.53688" lon="6.7517">
        <ele>439.1</ele>
        <time>2016-01-21T16:04:45.000Z</time>
      </trkpt>
      <trkpt lat="47.53686" lon="6.75174">
        <ele>439.3</ele>
        <time>2016-01-21T16:04:46.000Z</time>
      </trkpt>
      <trkpt lat="47.53683" lon="6.75177">
        <ele>439.6</ele>
        <time>2016-01-21T16:04:47.000Z</time>
      </trkpt>
      <trkpt lat="47.53681" lon="6.7518">
        <ele>439.1</ele>
        <time>2016-01-21T16:04:48.000Z</time>
      </trkpt>
      <trkpt lat="47.53679" lon="6.75184">
        <ele>437.3</ele>
        <time>2016-01-21T16:04:49.000Z</time>
      </trkpt>
      <trkpt lat="47.53677" lon="6.75188">
        <ele>436.8</ele>
        <time>2016-01-21T16:04:50.000Z</time>
      </trkpt>
      <trkpt lat="47.53676" lon="6.75192">
        <ele>436.9</ele>
        <time>2016-01-21T16:04:51.000Z</time>
      </trkpt>
      <trkpt lat="47.53675" lon="6.75195">
        <ele>435.7</ele>
        <time>2016-01-21T16:04:52.000Z</time>
      </trkpt>
      <trkpt lat="47.53675" lon="6.75199">
        <ele>434.7</ele>
        <time>2016-01-21T16:04:53.000Z</time>
      </trkpt>
      <trkpt lat="47.53675" lon="6.75203">
        <ele>434.4</ele>
        <time>2016-01-21T16:04:54.000Z</time>
      </trkpt>
      <trkpt lat="47.53674" lon="6.75208">
        <ele>436.9</ele>
        <time>2016-01-21T16:04:56.000Z</time>
      </trkpt>
      <trkpt lat="47.53673" lon="6.7521">
        <ele>436.7</ele>
        <time>2016-01-21T16:04:57.000Z</time>
      </trkpt>
      <trkpt lat="47.5367" lon="6.75213">
        <ele>436.6</ele>
        <time>2016-01-21T16:04:59.000Z</time>
      </trkpt>
      <trkpt lat="47.53669" lon="6.75214">
        <ele>436.4</ele>
        <time>2016-01-21T16:05:00.000Z</time>
      </trkpt>
      <trkpt lat="47.53664" lon="6.75215">
        <ele>436.4</ele>
        <time>2016-01-21T16:05:02.000Z</time>
      </trkpt>
      <trkpt lat="47.53662" lon="6.75216">
        <ele>435.8</ele>
        <time>2016-01-21T16:05:03.000Z</time>
      </trkpt>
      <trkpt lat="47.53659" lon="6.75216">
        <ele>435.9</ele>
        <time>2016-01-21T16:05:04.000Z</time>
      </trkpt>
      <trkpt lat="47.53656" lon="6.75217">
        <ele>436.4</ele>
        <time>2016-01-21T16:05:05.000Z</time>
      </trkpt>
      <trkpt lat="47.53653" lon="6.75218">
        <ele>436.1</ele>
        <time>2016-01-21T16:05:06.000Z</time>
      </trkpt>
      <trkpt lat="47.5365" lon="6.7522">
        <ele>435.1</ele>
        <time>2016-01-21T16:05:07.000Z</time>
      </trkpt>
      <trkpt lat="47.53647" lon="6.75221">
        <ele>434.8</ele>
        <time>2016-01-21T16:05:08.000Z</time>
      </trkpt>
      <trkpt lat="47.53644" lon="6.75222">
        <ele>435</ele>
        <time>2016-01-21T16:05:09.000Z</time>
      </trkpt>
      <trkpt lat="47.53642" lon="6.75224">
        <ele>434.9</ele>
        <time>2016-01-21T16:05:10.000Z</time>
      </trkpt>
      <trkpt lat="47.53639" lon="6.75226">
        <ele>434.7</ele>
        <time>2016-01-21T16:05:11.000Z</time>
      </trkpt>
      <trkpt lat="47.53637" lon="6.75228">
        <ele>434.5</ele>
        <time>2016-01-21T16:05:12.000Z</time>
      </trkpt>
      <trkpt lat="47.53635" lon="6.75231">
        <ele>434.2</ele>
        <time>2016-01-21T16:05:13.000Z</time>
      </trkpt>
      <trkpt lat="47.53633" lon="6.75233">
        <ele>433.5</ele>
        <time>2016-01-21T16:05:14.000Z</time>
      </trkpt>
      <trkpt lat="47.53631" lon="6.75236">
        <ele>433.9</ele>
        <time>2016-01-21T16:05:15.000Z</time>
      </trkpt>
      <trkpt lat="47.53629" lon="6.75238">
        <ele>434.1</ele>
        <time>2016-01-21T16:05:16.000Z</time>
      </trkpt>
      <trkpt lat="47.53627" lon="6.7524">
        <ele>434.1</ele>
        <time>2016-01-21T16:05:17.000Z</time>
      </trkpt>
      <trkpt lat="47.53623" lon="6.75243">
        <ele>435</ele>
        <time>2016-01-21T16:05:19.000Z</time>
      </trkpt>
      <trkpt lat="47.53622" lon="6.75244">
        <ele>435.3</ele>
        <time>2016-01-21T16:05:20.000Z</time>
      </trkpt>
      <trkpt lat="47.53618" lon="6.75247">
        <ele>436.1</ele>
        <time>2016-01-21T16:05:23.000Z</time>
      </trkpt>
      <trkpt lat="47.53616" lon="6.75248">
        <ele>436.3</ele>
        <time>2016-01-21T16:05:24.000Z</time>
      </trkpt>
      <trkpt lat="47.53613" lon="6.7525">
        <ele>435.6</ele>
        <time>2016-01-21T16:05:26.000Z</time>
      </trkpt>
      <trkpt lat="47.53612" lon="6.75251">
        <ele>434.9</ele>
        <time>2016-01-21T16:05:27.000Z</time>
      </trkpt>
      <trkpt lat="47.53609" lon="6.75254">
        <ele>435.2</ele>
        <time>2016-01-21T16:05:29.000Z</time>
      </trkpt>
      <trkpt lat="47.53607" lon="6.75256">
        <ele>435.2</ele>
        <time>2016-01-21T16:05:30.000Z</time>
      </trkpt>
      <trkpt lat="47.53605" lon="6.75258">
        <ele>435.1</ele>
        <time>2016-01-21T16:05:31.000Z</time>
      </trkpt>
      <trkpt lat="47.53603" lon="6.7526">
        <ele>435.1</ele>
        <time>2016-01-21T16:05:32.000Z</time>
      </trkpt>
      <trkpt lat="47.53601" lon="6.75262">
        <ele>434.3</ele>
        <time>2016-01-21T16:05:33.000Z</time>
      </trkpt>
      <trkpt lat="47.53599" lon="6.75263">
        <ele>433.8</ele>
        <time>2016-01-21T16:05:34.000Z</time>
      </trkpt>
      <trkpt lat="47.53596" lon="6.75264">
        <ele>434.4</ele>
        <time>2016-01-21T16:05:35.000Z</time>
      </trkpt>
      <trkpt lat="47.53593" lon="6.75265">
        <ele>433.9</ele>
        <time>2016-01-21T16:05:36.000Z</time>
      </trkpt>
      <trkpt lat="47.53591" lon="6.75265">
        <ele>433.1</ele>
        <time>2016-01-21T16:05:37.000Z</time>
      </trkpt>
      <trkpt lat="47.53588" lon="6.75266">
        <ele>433.2</ele>
        <time>2016-01-21T16:05:38.000Z</time>
      </trkpt>
      <trkpt lat="47.53585" lon="6.75266">
        <ele>432.8</ele>
        <time>2016-01-21T16:05:39.000Z</time>
      </trkpt>
      <trkpt lat="47.53582" lon="6.75267">
        <ele>431.2</ele>
        <time>2016-01-21T16:05:40.000Z</time>
      </trkpt>
      <trkpt lat="47.53578" lon="6.75267">
        <ele>430.6</ele>
        <time>2016-01-21T16:05:41.000Z</time>
      </trkpt>
      <trkpt lat="47.53575" lon="6.75268">
        <ele>429.8</ele>
        <time>2016-01-21T16:05:42.000Z</time>
      </trkpt>
      <trkpt lat="47.53572" lon="6.75269">
        <ele>429.2</ele>
        <time>2016-01-21T16:05:43.000Z</time>
      </trkpt>
      <trkpt lat="47.53569" lon="6.75269">
        <ele>429.2</ele>
        <time>2016-01-21T16:05:44.000Z</time>
      </trkpt>
      <trkpt lat="47.53566" lon="6.7527">
        <ele>429.1</ele>
        <time>2016-01-21T16:05:45.000Z</time>
      </trkpt>
      <trkpt lat="47.53563" lon="6.75271">
        <ele>428.7</ele>
        <time>2016-01-21T16:05:46.000Z</time>
      </trkpt>
      <trkpt lat="47.5356" lon="6.75271">
        <ele>428.2</ele>
        <time>2016-01-21T16:05:47.000Z</time>
      </trkpt>
      <trkpt lat="47.53557" lon="6.75271">
        <ele>427.6</ele>
        <time>2016-01-21T16:05:48.000Z</time>
      </trkpt>
      <trkpt lat="47.53554" lon="6.75271">
        <ele>426.5</ele>
        <time>2016-01-21T16:05:49.000Z</time>
      </trkpt>
      <trkpt lat="47.53552" lon="6.75271">
        <ele>426</ele>
        <time>2016-01-21T16:05:50.000Z</time>
      </trkpt>
      <trkpt lat="47.53549" lon="6.75271">
        <ele>426.1</ele>
        <time>2016-01-21T16:05:51.000Z</time>
      </trkpt>
      <trkpt lat="47.53547" lon="6.75271">
        <ele>426.7</ele>
        <time>2016-01-21T16:05:52.000Z</time>
      </trkpt>
      <trkpt lat="47.53545" lon="6.7527">
        <ele>425.9</ele>
        <time>2016-01-21T16:05:53.000Z</time>
      </trkpt>
      <trkpt lat="47.53542" lon="6.7527">
        <ele>425.6</ele>
        <time>2016-01-21T16:05:54.000Z</time>
      </trkpt>
      <trkpt lat="47.53538" lon="6.7527">
        <ele>425.3</ele>
        <time>2016-01-21T16:05:55.000Z</time>
      </trkpt>
      <trkpt lat="47.53534" lon="6.75271">
        <ele>425.2</ele>
        <time>2016-01-21T16:05:56.000Z</time>
      </trkpt>
      <trkpt lat="47.53531" lon="6.75271">
        <ele>425</ele>
        <time>2016-01-21T16:05:57.000Z</time>
      </trkpt>
      <trkpt lat="47.53528" lon="6.75272">
        <ele>425.2</ele>
        <time>2016-01-21T16:05:58.000Z</time>
      </trkpt>
      <trkpt lat="47.53525" lon="6.75272">
        <ele>424.7</ele>
        <time>2016-01-21T16:05:59.000Z</time>
      </trkpt>
      <trkpt lat="47.53522" lon="6.75272">
        <ele>426.1</ele>
        <time>2016-01-21T16:06:00.000Z</time>
      </trkpt>
      <trkpt lat="47.5352" lon="6.75272">
        <ele>425.8</ele>
        <time>2016-01-21T16:06:01.000Z</time>
      </trkpt>
      <trkpt lat="47.53517" lon="6.75273">
        <ele>425.1</ele>
        <time>2016-01-21T16:06:02.000Z</time>
      </trkpt>
      <trkpt lat="47.53513" lon="6.75273">
        <ele>427</ele>
        <time>2016-01-21T16:06:04.000Z</time>
      </trkpt>
      <trkpt lat="47.53511" lon="6.75273">
        <ele>427.1</ele>
        <time>2016-01-21T16:06:05.000Z</time>
      </trkpt>
      <trkpt lat="47.53507" lon="6.75273">
        <ele>426.7</ele>
        <time>2016-01-21T16:06:07.000Z</time>
      </trkpt>
      <trkpt lat="47.53505" lon="6.75273">
        <ele>427.1</ele>
        <time>2016-01-21T16:06:08.000Z</time>
      </trkpt>
      <trkpt lat="47.53502" lon="6.75272">
        <ele>426.3</ele>
        <time>2016-01-21T16:06:09.000Z</time>
      </trkpt>
      <trkpt lat="47.53498" lon="6.75271">
        <ele>425.8</ele>
        <time>2016-01-21T16:06:10.000Z</time>
      </trkpt>
      <trkpt lat="47.53494" lon="6.7527">
        <ele>425.8</ele>
        <time>2016-01-21T16:06:11.000Z</time>
      </trkpt>
      <trkpt lat="47.5349" lon="6.75269">
        <ele>425.8</ele>
        <time>2016-01-21T16:06:12.000Z</time>
      </trkpt>
      <trkpt lat="47.53486" lon="6.75269">
        <ele>426</ele>
        <time>2016-01-21T16:06:13.000Z</time>
      </trkpt>
      <trkpt lat="47.53483" lon="6.75269">
        <ele>425.7</ele>
        <time>2016-01-21T16:06:14.000Z</time>
      </trkpt>
      <trkpt lat="47.5348" lon="6.7527">
        <ele>425.7</ele>
        <time>2016-01-21T16:06:15.000Z</time>
      </trkpt>
      <trkpt lat="47.53478" lon="6.7527">
        <ele>425.7</ele>
        <time>2016-01-21T16:06:16.000Z</time>
      </trkpt>
      <trkpt lat="47.53474" lon="6.7527">
        <ele>425.9</ele>
        <time>2016-01-21T16:06:20.000Z</time>
      </trkpt>
      <trkpt lat="47.53472" lon="6.7527">
        <ele>425.5</ele>
        <time>2016-01-21T16:06:21.000Z</time>
      </trkpt>
      <trkpt lat="47.53468" lon="6.7527">
        <ele>424.7</ele>
        <time>2016-01-21T16:06:23.000Z</time>
      </trkpt>
      <trkpt lat="47.53466" lon="6.7527">
        <ele>424.6</ele>
        <time>2016-01-21T16:06:24.000Z</time>
      </trkpt>
      <trkpt lat="47.53463" lon="6.7527">
        <ele>424.5</ele>
        <time>2016-01-21T16:06:25.000Z</time>
      </trkpt>
      <trkpt lat="47.53461" lon="6.75269">
        <ele>423.7</ele>
        <time>2016-01-21T16:06:26.000Z</time>
      </trkpt>
      <trkpt lat="47.53458" lon="6.75269">
        <ele>423.7</ele>
        <time>2016-01-21T16:06:27.000Z</time>
      </trkpt>
      <trkpt lat="47.53455" lon="6.75269">
        <ele>423.6</ele>
        <time>2016-01-21T16:06:28.000Z</time>
      </trkpt>
      <trkpt lat="47.53453" lon="6.75269">
        <ele>424</ele>
        <time>2016-01-21T16:06:29.000Z</time>
      </trkpt>
      <trkpt lat="47.53451" lon="6.75269">
        <ele>424.5</ele>
        <time>2016-01-21T16:06:30.000Z</time>
      </trkpt>
      <trkpt lat="47.53448" lon="6.7527">
        <ele>424</ele>
        <time>2016-01-21T16:06:31.000Z</time>
      </trkpt>
      <trkpt lat="47.53446" lon="6.7527">
        <ele>424.5</ele>
        <time>2016-01-21T16:06:32.000Z</time>
      </trkpt>
      <trkpt lat="47.53443" lon="6.7527">
        <ele>424.7</ele>
        <time>2016-01-21T16:06:33.000Z</time>
      </trkpt>
      <trkpt lat="47.53441" lon="6.75271">
        <ele>424.4</ele>
        <time>2016-01-21T16:06:34.000Z</time>
      </trkpt>
      <trkpt lat="47.53438" lon="6.75272">
        <ele>424.2</ele>
        <time>2016-01-21T16:06:35.000Z</time>
      </trkpt>
      <trkpt lat="47.53436" lon="6.75272">
        <ele>424.4</ele>
        <time>2016-01-21T16:06:36.000Z</time>
      </trkpt>
      <trkpt lat="47.53433" lon="6.75273">
        <ele>424.2</ele>
        <time>2016-01-21T16:06:37.000Z</time>
      </trkpt>
      <trkpt lat="47.5343" lon="6.75273">
        <ele>423.4</ele>
        <time>2016-01-21T16:06:38.000Z</time>
      </trkpt>
      <trkpt lat="47.53427" lon="6.75274">
        <ele>423.1</ele>
        <time>2016-01-21T16:06:39.000Z</time>
      </trkpt>
      <trkpt lat="47.53424" lon="6.75275">
        <ele>423</ele>
        <time>2016-01-21T16:06:40.000Z</time>
      </trkpt>
      <trkpt lat="47.53421" lon="6.75275">
        <ele>423</ele>
        <time>2016-01-21T16:06:41.000Z</time>
      </trkpt>
      <trkpt lat="47.53419" lon="6.75276">
        <ele>423</ele>
        <time>2016-01-21T16:06:42.000Z</time>
      </trkpt>
      <trkpt lat="47.53417" lon="6.75278">
        <ele>423.6</ele>
        <time>2016-01-21T16:06:43.000Z</time>
      </trkpt>
      <trkpt lat="47.53414" lon="6.75279">
        <ele>422.9</ele>
        <time>2016-01-21T16:06:44.000Z</time>
      </trkpt>
      <trkpt lat="47.53411" lon="6.75283">
        <ele>422.7</ele>
        <time>2016-01-21T16:06:46.000Z</time>
      </trkpt>
      <trkpt lat="47.53409" lon="6.75286">
        <ele>422.1</ele>
        <time>2016-01-21T16:06:47.000Z</time>
      </trkpt>
      <trkpt lat="47.53406" lon="6.7529">
        <ele>422.3</ele>
        <time>2016-01-21T16:06:49.000Z</time>
      </trkpt>
      <trkpt lat="47.53404" lon="6.75292">
        <ele>422.4</ele>
        <time>2016-01-21T16:06:50.000Z</time>
      </trkpt>
      <trkpt lat="47.53402" lon="6.75293">
        <ele>422.1</ele>
        <time>2016-01-21T16:06:51.000Z</time>
      </trkpt>
      <trkpt lat="47.534" lon="6.75294">
        <ele>422.6</ele>
        <time>2016-01-21T16:06:52.000Z</time>
      </trkpt>
      <trkpt lat="47.53398" lon="6.75296">
        <ele>422.8</ele>
        <time>2016-01-21T16:06:53.000Z</time>
      </trkpt>
      <trkpt lat="47.53395" lon="6.75297">
        <ele>423.3</ele>
        <time>2016-01-21T16:06:54.000Z</time>
      </trkpt>
      <trkpt lat="47.53393" lon="6.75299">
        <ele>424.1</ele>
        <time>2016-01-21T16:06:55.000Z</time>
      </trkpt>
      <trkpt lat="47.5339" lon="6.753">
        <ele>423.8</ele>
        <time>2016-01-21T16:06:56.000Z</time>
      </trkpt>
      <trkpt lat="47.53387" lon="6.75301">
        <ele>423.9</ele>
        <time>2016-01-21T16:06:57.000Z</time>
      </trkpt>
      <trkpt lat="47.53385" lon="6.75302">
        <ele>423.8</ele>
        <time>2016-01-21T16:06:58.000Z</time>
      </trkpt>
      <trkpt lat="47.53382" lon="6.75303">
        <ele>424.2</ele>
        <time>2016-01-21T16:06:59.000Z</time>
      </trkpt>
      <trkpt lat="47.53379" lon="6.75304">
        <ele>424.1</ele>
        <time>2016-01-21T16:07:00.000Z</time>
      </trkpt>
      <trkpt lat="47.53377" lon="6.75304">
        <ele>423.9</ele>
        <time>2016-01-21T16:07:01.000Z</time>
      </trkpt>
      <trkpt lat="47.53374" lon="6.75306">
        <ele>423.4</ele>
        <time>2016-01-21T16:07:02.000Z</time>
      </trkpt>
      <trkpt lat="47.53371" lon="6.75307">
        <ele>423.8</ele>
        <time>2016-01-21T16:07:03.000Z</time>
      </trkpt>
      <trkpt lat="47.53369" lon="6.75309">
        <ele>423.3</ele>
        <time>2016-01-21T16:07:04.000Z</time>
      </trkpt>
      <trkpt lat="47.53366" lon="6.7531">
        <ele>422.5</ele>
        <time>2016-01-21T16:07:05.000Z</time>
      </trkpt>
      <trkpt lat="47.53363" lon="6.75312">
        <ele>421.8</ele>
        <time>2016-01-21T16:07:06.000Z</time>
      </trkpt>
      <trkpt lat="47.5336" lon="6.75314">
        <ele>421.9</ele>
        <time>2016-01-21T16:07:07.000Z</time>
      </trkpt>
      <trkpt lat="47.53357" lon="6.75314">
        <ele>422.3</ele>
        <time>2016-01-21T16:07:08.000Z</time>
      </trkpt>
      <trkpt lat="47.53355" lon="6.75315">
        <ele>422.1</ele>
        <time>2016-01-21T16:07:09.000Z</time>
      </trkpt>
      <trkpt lat="47.53352" lon="6.75315">
        <ele>422</ele>
        <time>2016-01-21T16:07:10.000Z</time>
      </trkpt>
      <trkpt lat="47.5335" lon="6.75315">
        <ele>421.8</ele>
        <time>2016-01-21T16:07:11.000Z</time>
      </trkpt>
      <trkpt lat="47.53347" lon="6.75315">
        <ele>421.5</ele>
        <time>2016-01-21T16:07:12.000Z</time>
      </trkpt>
      <trkpt lat="47.53343" lon="6.75316">
        <ele>421.2</ele>
        <time>2016-01-21T16:07:14.000Z</time>
      </trkpt>
      <trkpt lat="47.53341" lon="6.75316">
        <ele>421.4</ele>
        <time>2016-01-21T16:07:15.000Z</time>
      </trkpt>
      <trkpt lat="47.53339" lon="6.75316">
        <ele>420.7</ele>
        <time>2016-01-21T16:07:16.000Z</time>
      </trkpt>
      <trkpt lat="47.53336" lon="6.75317">
        <ele>420.5</ele>
        <time>2016-01-21T16:07:17.000Z</time>
      </trkpt>
      <trkpt lat="47.53333" lon="6.75318">
        <ele>419.9</ele>
        <time>2016-01-21T16:07:18.000Z</time>
      </trkpt>
      <trkpt lat="47.5333" lon="6.75319">
        <ele>419.8</ele>
        <time>2016-01-21T16:07:19.000Z</time>
      </trkpt>
      <trkpt lat="47.53328" lon="6.75321">
        <ele>420</ele>
        <time>2016-01-21T16:07:20.000Z</time>
      </trkpt>
      <trkpt lat="47.53325" lon="6.75323">
        <ele>419.8</ele>
        <time>2016-01-21T16:07:21.000Z</time>
      </trkpt>
      <trkpt lat="47.53322" lon="6.75324">
        <ele>418.9</ele>
        <time>2016-01-21T16:07:22.000Z</time>
      </trkpt>
      <trkpt lat="47.5332" lon="6.75327">
        <ele>418.8</ele>
        <time>2016-01-21T16:07:23.000Z</time>
      </trkpt>
      <trkpt lat="47.53318" lon="6.75329">
        <ele>418.3</ele>
        <time>2016-01-21T16:07:24.000Z</time>
      </trkpt>
      <trkpt lat="47.53314" lon="6.75331">
        <ele>418.6</ele>
        <time>2016-01-21T16:07:25.000Z</time>
      </trkpt>
      <trkpt lat="47.53312" lon="6.75333">
        <ele>418.4</ele>
        <time>2016-01-21T16:07:26.000Z</time>
      </trkpt>
      <trkpt lat="47.53309" lon="6.75335">
        <ele>417.5</ele>
        <time>2016-01-21T16:07:27.000Z</time>
      </trkpt>
      <trkpt lat="47.53306" lon="6.75337">
        <ele>418</ele>
        <time>2016-01-21T16:07:28.000Z</time>
      </trkpt>
      <trkpt lat="47.53304" lon="6.75338">
        <ele>418.1</ele>
        <time>2016-01-21T16:07:29.000Z</time>
      </trkpt>
      <trkpt lat="47.53302" lon="6.7534">
        <ele>418.3</ele>
        <time>2016-01-21T16:07:30.000Z</time>
      </trkpt>
      <trkpt lat="47.53299" lon="6.75342">
        <ele>418.1</ele>
        <time>2016-01-21T16:07:31.000Z</time>
      </trkpt>
      <trkpt lat="47.53296" lon="6.75343">
        <ele>417.3</ele>
        <time>2016-01-21T16:07:32.000Z</time>
      </trkpt>
      <trkpt lat="47.53293" lon="6.75345">
        <ele>417.2</ele>
        <time>2016-01-21T16:07:33.000Z</time>
      </trkpt>
      <trkpt lat="47.5329" lon="6.75347">
        <ele>417.4</ele>
        <time>2016-01-21T16:07:34.000Z</time>
      </trkpt>
      <trkpt lat="47.53287" lon="6.75348">
        <ele>416.8</ele>
        <time>2016-01-21T16:07:35.000Z</time>
      </trkpt>
      <trkpt lat="47.53285" lon="6.75349">
        <ele>415.6</ele>
        <time>2016-01-21T16:07:36.000Z</time>
      </trkpt>
      <trkpt lat="47.53282" lon="6.7535">
        <ele>415.3</ele>
        <time>2016-01-21T16:07:37.000Z</time>
      </trkpt>
      <trkpt lat="47.5328" lon="6.75352">
        <ele>415</ele>
        <time>2016-01-21T16:07:38.000Z</time>
      </trkpt>
      <trkpt lat="47.53278" lon="6.75353">
        <ele>415.4</ele>
        <time>2016-01-21T16:07:39.000Z</time>
      </trkpt>
      <trkpt lat="47.53274" lon="6.75356">
        <ele>415.5</ele>
        <time>2016-01-21T16:07:41.000Z</time>
      </trkpt>
      <trkpt lat="47.53272" lon="6.75358">
        <ele>415.7</ele>
        <time>2016-01-21T16:07:42.000Z</time>
      </trkpt>
      <trkpt lat="47.5327" lon="6.75359">
        <ele>414.6</ele>
        <time>2016-01-21T16:07:43.000Z</time>
      </trkpt>
      <trkpt lat="47.53268" lon="6.75361">
        <ele>414.1</ele>
        <time>2016-01-21T16:07:44.000Z</time>
      </trkpt>
      <trkpt lat="47.53266" lon="6.75363">
        <ele>413.9</ele>
        <time>2016-01-21T16:07:45.000Z</time>
      </trkpt>
      <trkpt lat="47.53264" lon="6.75366">
        <ele>413.8</ele>
        <time>2016-01-21T16:07:46.000Z</time>
      </trkpt>
      <trkpt lat="47.53261" lon="6.75369">
        <ele>413.2</ele>
        <time>2016-01-21T16:07:47.000Z</time>
      </trkpt>
      <trkpt lat="47.53259" lon="6.75372">
        <ele>413.1</ele>
        <time>2016-01-21T16:07:48.000Z</time>
      </trkpt>
      <trkpt lat="47.53257" lon="6.75375">
        <ele>412.7</ele>
        <time>2016-01-21T16:07:49.000Z</time>
      </trkpt>
      <trkpt lat="47.53255" lon="6.75378">
        <ele>412.3</ele>
        <time>2016-01-21T16:07:50.000Z</time>
      </trkpt>
      <trkpt lat="47.53253" lon="6.7538">
        <ele>412.7</ele>
        <time>2016-01-21T16:07:51.000Z</time>
      </trkpt>
      <trkpt lat="47.53251" lon="6.75383">
        <ele>411.8</ele>
        <time>2016-01-21T16:07:52.000Z</time>
      </trkpt>
      <trkpt lat="47.53249" lon="6.75385">
        <ele>412.1</ele>
        <time>2016-01-21T16:07:53.000Z</time>
      </trkpt>
      <trkpt lat="47.53248" lon="6.75388">
        <ele>411.5</ele>
        <time>2016-01-21T16:07:54.000Z</time>
      </trkpt>
      <trkpt lat="47.53245" lon="6.75392">
        <ele>411.8</ele>
        <time>2016-01-21T16:07:56.000Z</time>
      </trkpt>
      <trkpt lat="47.53243" lon="6.75394">
        <ele>411.2</ele>
        <time>2016-01-21T16:07:57.000Z</time>
      </trkpt>
      <trkpt lat="47.53241" lon="6.75396">
        <ele>410.2</ele>
        <time>2016-01-21T16:07:58.000Z</time>
      </trkpt>
      <trkpt lat="47.53239" lon="6.75397">
        <ele>410.1</ele>
        <time>2016-01-21T16:07:59.000Z</time>
      </trkpt>
      <trkpt lat="47.53236" lon="6.75397">
        <ele>409.5</ele>
        <time>2016-01-21T16:08:00.000Z</time>
      </trkpt>
      <trkpt lat="47.53233" lon="6.75397">
        <ele>409</ele>
        <time>2016-01-21T16:08:01.000Z</time>
      </trkpt>
      <trkpt lat="47.5323" lon="6.75397">
        <ele>408.8</ele>
        <time>2016-01-21T16:08:02.000Z</time>
      </trkpt>
      <trkpt lat="47.53227" lon="6.75396">
        <ele>409.6</ele>
        <time>2016-01-21T16:08:03.000Z</time>
      </trkpt>
      <trkpt lat="47.53223" lon="6.75395">
        <ele>410.1</ele>
        <time>2016-01-21T16:08:04.000Z</time>
      </trkpt>
      <trkpt lat="47.5322" lon="6.75394">
        <ele>410.3</ele>
        <time>2016-01-21T16:08:05.000Z</time>
      </trkpt>
      <trkpt lat="47.53217" lon="6.75393">
        <ele>409.8</ele>
        <time>2016-01-21T16:08:06.000Z</time>
      </trkpt>
      <trkpt lat="47.53214" lon="6.75393">
        <ele>409.4</ele>
        <time>2016-01-21T16:08:07.000Z</time>
      </trkpt>
      <trkpt lat="47.5321" lon="6.75392">
        <ele>408</ele>
        <time>2016-01-21T16:08:08.000Z</time>
      </trkpt>
      <trkpt lat="47.53206" lon="6.75392">
        <ele>407.4</ele>
        <time>2016-01-21T16:08:09.000Z</time>
      </trkpt>
      <trkpt lat="47.53202" lon="6.75391">
        <ele>406.6</ele>
        <time>2016-01-21T16:08:10.000Z</time>
      </trkpt>
      <trkpt lat="47.53198" lon="6.75391">
        <ele>406.7</ele>
        <time>2016-01-21T16:08:11.000Z</time>
      </trkpt>
      <trkpt lat="47.53195" lon="6.75391">
        <ele>406.5</ele>
        <time>2016-01-21T16:08:12.000Z</time>
      </trkpt>
      <trkpt lat="47.53191" lon="6.75391">
        <ele>406.3</ele>
        <time>2016-01-21T16:08:13.000Z</time>
      </trkpt>
      <trkpt lat="47.53188" lon="6.7539">
        <ele>405</ele>
        <time>2016-01-21T16:08:14.000Z</time>
      </trkpt>
      <trkpt lat="47.53185" lon="6.7539">
        <ele>405.7</ele>
        <time>2016-01-21T16:08:15.000Z</time>
      </trkpt>
      <trkpt lat="47.53182" lon="6.7539">
        <ele>405.7</ele>
        <time>2016-01-21T16:08:16.000Z</time>
      </trkpt>
      <trkpt lat="47.5318" lon="6.75389">
        <ele>404.8</ele>
        <time>2016-01-21T16:08:17.000Z</time>
      </trkpt>
      <trkpt lat="47.53177" lon="6.75387">
        <ele>404.3</ele>
        <time>2016-01-21T16:08:18.000Z</time>
      </trkpt>
      <trkpt lat="47.53175" lon="6.75387">
        <ele>404.6</ele>
        <time>2016-01-21T16:08:19.000Z</time>
      </trkpt>
      <trkpt lat="47.53172" lon="6.75386">
        <ele>405.1</ele>
        <time>2016-01-21T16:08:20.000Z</time>
      </trkpt>
      <trkpt lat="47.5317" lon="6.75385">
        <ele>404.7</ele>
        <time>2016-01-21T16:08:21.000Z</time>
      </trkpt>
      <trkpt lat="47.53167" lon="6.75384">
        <ele>404.4</ele>
        <time>2016-01-21T16:08:22.000Z</time>
      </trkpt>
      <trkpt lat="47.53164" lon="6.75382">
        <ele>404.4</ele>
        <time>2016-01-21T16:08:23.000Z</time>
      </trkpt>
      <trkpt lat="47.53161" lon="6.75381">
        <ele>405</ele>
        <time>2016-01-21T16:08:24.000Z</time>
      </trkpt>
      <trkpt lat="47.53159" lon="6.7538">
        <ele>404.9</ele>
        <time>2016-01-21T16:08:25.000Z</time>
      </trkpt>
      <trkpt lat="47.53156" lon="6.75379">
        <ele>404.9</ele>
        <time>2016-01-21T16:08:26.000Z</time>
      </trkpt>
      <trkpt lat="47.53153" lon="6.75378">
        <ele>404.9</ele>
        <time>2016-01-21T16:08:27.000Z</time>
      </trkpt>
      <trkpt lat="47.5315" lon="6.75377">
        <ele>404.9</ele>
        <time>2016-01-21T16:08:28.000Z</time>
      </trkpt>
      <trkpt lat="47.53148" lon="6.75377">
        <ele>405.2</ele>
        <time>2016-01-21T16:08:29.000Z</time>
      </trkpt>
      <trkpt lat="47.53145" lon="6.75376">
        <ele>406.2</ele>
        <time>2016-01-21T16:08:30.000Z</time>
      </trkpt>
      <trkpt lat="47.53142" lon="6.75375">
        <ele>406.7</ele>
        <time>2016-01-21T16:08:31.000Z</time>
      </trkpt>
      <trkpt lat="47.53138" lon="6.75374">
        <ele>407.1</ele>
        <time>2016-01-21T16:08:33.000Z</time>
      </trkpt>
      <trkpt lat="47.53136" lon="6.75374">
        <ele>406.7</ele>
        <time>2016-01-21T16:08:34.000Z</time>
      </trkpt>
      <trkpt lat="47.53132" lon="6.75373">
        <ele>406.1</ele>
        <time>2016-01-21T16:08:36.000Z</time>
      </trkpt>
      <trkpt lat="47.5313" lon="6.75371">
        <ele>405.8</ele>
        <time>2016-01-21T16:08:37.000Z</time>
      </trkpt>
      <trkpt lat="47.53128" lon="6.7537">
        <ele>405.2</ele>
        <time>2016-01-21T16:08:38.000Z</time>
      </trkpt>
      <trkpt lat="47.53126" lon="6.75369">
        <ele>404</ele>
        <time>2016-01-21T16:08:39.000Z</time>
      </trkpt>
      <trkpt lat="47.53123" lon="6.75368">
        <ele>403.3</ele>
        <time>2016-01-21T16:08:40.000Z</time>
      </trkpt>
      <trkpt lat="47.5312" lon="6.75368">
        <ele>402.9</ele>
        <time>2016-01-21T16:08:41.000Z</time>
      </trkpt>
      <trkpt lat="47.53117" lon="6.75367">
        <ele>402.7</ele>
        <time>2016-01-21T16:08:42.000Z</time>
      </trkpt>
      <trkpt lat="47.53114" lon="6.75367">
        <ele>402.2</ele>
        <time>2016-01-21T16:08:43.000Z</time>
      </trkpt>
      <trkpt lat="47.53111" lon="6.75365">
        <ele>402.2</ele>
        <time>2016-01-21T16:08:44.000Z</time>
      </trkpt>
      <trkpt lat="47.53109" lon="6.75364">
        <ele>402.5</ele>
        <time>2016-01-21T16:08:45.000Z</time>
      </trkpt>
      <trkpt lat="47.53107" lon="6.75362">
        <ele>401.9</ele>
        <time>2016-01-21T16:08:46.000Z</time>
      </trkpt>
      <trkpt lat="47.53105" lon="6.75361">
        <ele>401.6</ele>
        <time>2016-01-21T16:08:47.000Z</time>
      </trkpt>
      <trkpt lat="47.53103" lon="6.75359">
        <ele>401.4</ele>
        <time>2016-01-21T16:08:48.000Z</time>
      </trkpt>
      <trkpt lat="47.53101" lon="6.75357">
        <ele>401.9</ele>
        <time>2016-01-21T16:08:49.000Z</time>
      </trkpt>
      <trkpt lat="47.53098" lon="6.75355">
        <ele>401.6</ele>
        <time>2016-01-21T16:08:50.000Z</time>
      </trkpt>
      <trkpt lat="47.53096" lon="6.75354">
        <ele>401.2</ele>
        <time>2016-01-21T16:08:51.000Z</time>
      </trkpt>
      <trkpt lat="47.53094" lon="6.75353">
        <ele>401.2</ele>
        <time>2016-01-21T16:08:52.000Z</time>
      </trkpt>
      <trkpt lat="47.53092" lon="6.75351">
        <ele>400.4</ele>
        <time>2016-01-21T16:08:53.000Z</time>
      </trkpt>
      <trkpt lat="47.53089" lon="6.75349">
        <ele>399.7</ele>
        <time>2016-01-21T16:08:54.000Z</time>
      </trkpt>
      <trkpt lat="47.53087" lon="6.75348">
        <ele>399.8</ele>
        <time>2016-01-21T16:08:55.000Z</time>
      </trkpt>
      <trkpt lat="47.53084" lon="6.75346">
        <ele>399.3</ele>
        <time>2016-01-21T16:08:56.000Z</time>
      </trkpt>
      <trkpt lat="47.53081" lon="6.75345">
        <ele>399.7</ele>
        <time>2016-01-21T16:08:57.000Z</time>
      </trkpt>
      <trkpt lat="47.53078" lon="6.75344">
        <ele>399.9</ele>
        <time>2016-01-21T16:08:58.000Z</time>
      </trkpt>
      <trkpt lat="47.53075" lon="6.75343">
        <ele>399.4</ele>
        <time>2016-01-21T16:08:59.000Z</time>
      </trkpt>
      <trkpt lat="47.53073" lon="6.75342">
        <ele>399.7</ele>
        <time>2016-01-21T16:09:00.000Z</time>
      </trkpt>
      <trkpt lat="47.5307" lon="6.75341">
        <ele>399.5</ele>
        <time>2016-01-21T16:09:01.000Z</time>
      </trkpt>
      <trkpt lat="47.53068" lon="6.75339">
        <ele>399.7</ele>
        <time>2016-01-21T16:09:02.000Z</time>
      </trkpt>
      <trkpt lat="47.53066" lon="6.75338">
        <ele>399.4</ele>
        <time>2016-01-21T16:09:03.000Z</time>
      </trkpt>
      <trkpt lat="47.53063" lon="6.75337">
        <ele>399.5</ele>
        <time>2016-01-21T16:09:04.000Z</time>
      </trkpt>
      <trkpt lat="47.53061" lon="6.75335">
        <ele>399.3</ele>
        <time>2016-01-21T16:09:05.000Z</time>
      </trkpt>
      <trkpt lat="47.53059" lon="6.75334">
        <ele>397.9</ele>
        <time>2016-01-21T16:09:06.000Z</time>
      </trkpt>
      <trkpt lat="47.53057" lon="6.75332">
        <ele>397.8</ele>
        <time>2016-01-21T16:09:07.000Z</time>
      </trkpt>
      <trkpt lat="47.53054" lon="6.75331">
        <ele>397.5</ele>
        <time>2016-01-21T16:09:08.000Z</time>
      </trkpt>
      <trkpt lat="47.53052" lon="6.75329">
        <ele>397.6</ele>
        <time>2016-01-21T16:09:09.000Z</time>
      </trkpt>
      <trkpt lat="47.53049" lon="6.75328">
        <ele>397.9</ele>
        <time>2016-01-21T16:09:10.000Z</time>
      </trkpt>
      <trkpt lat="47.53047" lon="6.75326">
        <ele>397.8</ele>
        <time>2016-01-21T16:09:11.000Z</time>
      </trkpt>
      <trkpt lat="47.53044" lon="6.75324">
        <ele>398.2</ele>
        <time>2016-01-21T16:09:13.000Z</time>
      </trkpt>
      <trkpt lat="47.53042" lon="6.75324">
        <ele>399.3</ele>
        <time>2016-01-21T16:09:14.000Z</time>
      </trkpt>
      <trkpt lat="47.53039" lon="6.75322">
        <ele>396.7</ele>
        <time>2016-01-21T16:09:16.000Z</time>
      </trkpt>
      <trkpt lat="47.53037" lon="6.75322">
        <ele>395.8</ele>
        <time>2016-01-21T16:09:17.000Z</time>
      </trkpt>
      <trkpt lat="47.53033" lon="6.75321">
        <ele>396</ele>
        <time>2016-01-21T16:09:19.000Z</time>
      </trkpt>
      <trkpt lat="47.53032" lon="6.7532">
        <ele>395.8</ele>
        <time>2016-01-21T16:09:20.000Z</time>
      </trkpt>
      <trkpt lat="47.53029" lon="6.7532">
        <ele>394.5</ele>
        <time>2016-01-21T16:09:22.000Z</time>
      </trkpt>
      <trkpt lat="47.53027" lon="6.75319">
        <ele>394.8</ele>
        <time>2016-01-21T16:09:23.000Z</time>
      </trkpt>
      <trkpt lat="47.53022" lon="6.75318">
        <ele>394.4</ele>
        <time>2016-01-21T16:09:25.000Z</time>
      </trkpt>
      <trkpt lat="47.5302" lon="6.75317">
        <ele>393.9</ele>
        <time>2016-01-21T16:09:26.000Z</time>
      </trkpt>
      <trkpt lat="47.53017" lon="6.75316">
        <ele>393.2</ele>
        <time>2016-01-21T16:09:27.000Z</time>
      </trkpt>
      <trkpt lat="47.53015" lon="6.75314">
        <ele>392.2</ele>
        <time>2016-01-21T16:09:28.000Z</time>
      </trkpt>
      <trkpt lat="47.53012" lon="6.75312">
        <ele>391.2</ele>
        <time>2016-01-21T16:09:29.000Z</time>
      </trkpt>
      <trkpt lat="47.53009" lon="6.75311">
        <ele>391.6</ele>
        <time>2016-01-21T16:09:30.000Z</time>
      </trkpt>
      <trkpt lat="47.53006" lon="6.75309">
        <ele>391.5</ele>
        <time>2016-01-21T16:09:31.000Z</time>
      </trkpt>
      <trkpt lat="47.53002" lon="6.75308">
        <ele>392.1</ele>
        <time>2016-01-21T16:09:32.000Z</time>
      </trkpt>
      <trkpt lat="47.52999" lon="6.75307">
        <ele>391.5</ele>
        <time>2016-01-21T16:09:33.000Z</time>
      </trkpt>
      <trkpt lat="47.52995" lon="6.75307">
        <ele>390.6</ele>
        <time>2016-01-21T16:09:34.000Z</time>
      </trkpt>
      <trkpt lat="47.52992" lon="6.75307">
        <ele>390.7</ele>
        <time>2016-01-21T16:09:35.000Z</time>
      </trkpt>
      <trkpt lat="47.5299" lon="6.75307">
        <ele>390.7</ele>
        <time>2016-01-21T16:09:36.000Z</time>
      </trkpt>
      <trkpt lat="47.52986" lon="6.75307">
        <ele>391.1</ele>
        <time>2016-01-21T16:09:38.000Z</time>
      </trkpt>
      <trkpt lat="47.52984" lon="6.75307">
        <ele>390.9</ele>
        <time>2016-01-21T16:09:39.000Z</time>
      </trkpt>
      <trkpt lat="47.5298" lon="6.75307">
        <ele>391</ele>
        <time>2016-01-21T16:09:42.000Z</time>
      </trkpt>
      <trkpt lat="47.52978" lon="6.75307">
        <ele>391.6</ele>
        <time>2016-01-21T16:09:43.000Z</time>
      </trkpt>
      <trkpt lat="47.52975" lon="6.75304">
        <ele>392</ele>
        <time>2016-01-21T16:09:46.000Z</time>
      </trkpt>
      <trkpt lat="47.52974" lon="6.75304">
        <ele>392.9</ele>
        <time>2016-01-21T16:09:47.000Z</time>
      </trkpt>
      <trkpt lat="47.5297" lon="6.753">
        <ele>393.4</ele>
        <time>2016-01-21T16:09:51.000Z</time>
      </trkpt>
      <trkpt lat="47.52969" lon="6.75299">
        <ele>394.5</ele>
        <time>2016-01-21T16:09:52.000Z</time>
      </trkpt>
      <trkpt lat="47.52966" lon="6.75297">
        <ele>394.8</ele>
        <time>2016-01-21T16:09:54.000Z</time>
      </trkpt>
      <trkpt lat="47.52964" lon="6.75296">
        <ele>394.8</ele>
        <time>2016-01-21T16:09:55.000Z</time>
      </trkpt>
      <trkpt lat="47.52961" lon="6.75295">
        <ele>395.5</ele>
        <time>2016-01-21T16:09:57.000Z</time>
      </trkpt>
      <trkpt lat="47.5296" lon="6.75294">
        <ele>395.9</ele>
        <time>2016-01-21T16:09:58.000Z</time>
      </trkpt>
      <trkpt lat="47.52957" lon="6.75291">
        <ele>394.8</ele>
        <time>2016-01-21T16:10:00.000Z</time>
      </trkpt>
      <trkpt lat="47.52955" lon="6.7529">
        <ele>394.8</ele>
        <time>2016-01-21T16:10:01.000Z</time>
      </trkpt>
      <trkpt lat="47.52951" lon="6.75288">
        <ele>394.7</ele>
        <time>2016-01-21T16:10:03.000Z</time>
      </trkpt>
      <trkpt lat="47.52949" lon="6.75288">
        <ele>394.5</ele>
        <time>2016-01-21T16:10:04.000Z</time>
      </trkpt>
      <trkpt lat="47.52945" lon="6.75286">
        <ele>395.3</ele>
        <time>2016-01-21T16:10:07.000Z</time>
      </trkpt>
      <trkpt lat="47.52944" lon="6.75285">
        <ele>396.5</ele>
        <time>2016-01-21T16:10:08.000Z</time>
      </trkpt>
      <trkpt lat="47.52942" lon="6.75283">
        <ele>398.5</ele>
        <time>2016-01-21T16:10:10.000Z</time>
      </trkpt>
      <trkpt lat="47.5294" lon="6.75282">
        <ele>397.7</ele>
        <time>2016-01-21T16:10:11.000Z</time>
      </trkpt>
      <trkpt lat="47.52938" lon="6.7528">
        <ele>397.7</ele>
        <time>2016-01-21T16:10:12.000Z</time>
      </trkpt>
      <trkpt lat="47.52936" lon="6.75279">
        <ele>396.9</ele>
        <time>2016-01-21T16:10:13.000Z</time>
      </trkpt>
      <trkpt lat="47.52933" lon="6.75278">
        <ele>396.5</ele>
        <time>2016-01-21T16:10:14.000Z</time>
      </trkpt>
      <trkpt lat="47.5293" lon="6.75277">
        <ele>397.4</ele>
        <time>2016-01-21T16:10:15.000Z</time>
      </trkpt>
      <trkpt lat="47.52928" lon="6.75276">
        <ele>397.8</ele>
        <time>2016-01-21T16:10:16.000Z</time>
      </trkpt>
      <trkpt lat="47.52926" lon="6.75274">
        <ele>396.7</ele>
        <time>2016-01-21T16:10:17.000Z</time>
      </trkpt>
      <trkpt lat="47.52922" lon="6.75271">
        <ele>397.1</ele>
        <time>2016-01-21T16:10:19.000Z</time>
      </trkpt>
      <trkpt lat="47.5292" lon="6.7527">
        <ele>397.3</ele>
        <time>2016-01-21T16:10:20.000Z</time>
      </trkpt>
      <trkpt lat="47.52918" lon="6.75268">
        <ele>398</ele>
        <time>2016-01-21T16:10:21.000Z</time>
      </trkpt>
      <trkpt lat="47.52916" lon="6.75266">
        <ele>398.5</ele>
        <time>2016-01-21T16:10:22.000Z</time>
      </trkpt>
      <trkpt lat="47.52913" lon="6.75265">
        <ele>398.7</ele>
        <time>2016-01-21T16:10:23.000Z</time>
      </trkpt>
      <trkpt lat="47.5291" lon="6.75263">
        <ele>399.2</ele>
        <time>2016-01-21T16:10:24.000Z</time>
      </trkpt>
      <trkpt lat="47.52908" lon="6.75262">
        <ele>399.4</ele>
        <time>2016-01-21T16:10:25.000Z</time>
      </trkpt>
      <trkpt lat="47.52905" lon="6.75262">
        <ele>400</ele>
        <time>2016-01-21T16:10:26.000Z</time>
      </trkpt>
      <trkpt lat="47.52901" lon="6.7526">
        <ele>400.2</ele>
        <time>2016-01-21T16:10:28.000Z</time>
      </trkpt>
      <trkpt lat="47.52899" lon="6.7526">
        <ele>400.3</ele>
        <time>2016-01-21T16:10:29.000Z</time>
      </trkpt>
      <trkpt lat="47.52895" lon="6.7526">
        <ele>400.2</ele>
        <time>2016-01-21T16:10:31.000Z</time>
      </trkpt>
      <trkpt lat="47.52893" lon="6.75259">
        <ele>400.5</ele>
        <time>2016-01-21T16:10:32.000Z</time>
      </trkpt>
      <trkpt lat="47.5289" lon="6.75259">
        <ele>400.2</ele>
        <time>2016-01-21T16:10:33.000Z</time>
      </trkpt>
      <trkpt lat="47.52887" lon="6.75258">
        <ele>399.5</ele>
        <time>2016-01-21T16:10:34.000Z</time>
      </trkpt>
      <trkpt lat="47.52884" lon="6.75256">
        <ele>399.6</ele>
        <time>2016-01-21T16:10:35.000Z</time>
      </trkpt>
      <trkpt lat="47.52881" lon="6.75255">
        <ele>400.2</ele>
        <time>2016-01-21T16:10:36.000Z</time>
      </trkpt>
      <trkpt lat="47.52879" lon="6.75254">
        <ele>400.5</ele>
        <time>2016-01-21T16:10:37.000Z</time>
      </trkpt>
      <trkpt lat="47.52876" lon="6.75253">
        <ele>401.4</ele>
        <time>2016-01-21T16:10:38.000Z</time>
      </trkpt>
      <trkpt lat="47.52874" lon="6.75252">
        <ele>401.7</ele>
        <time>2016-01-21T16:10:39.000Z</time>
      </trkpt>
      <trkpt lat="47.52871" lon="6.75252">
        <ele>402.8</ele>
        <time>2016-01-21T16:10:40.000Z</time>
      </trkpt>
      <trkpt lat="47.52868" lon="6.75252">
        <ele>402.3</ele>
        <time>2016-01-21T16:10:41.000Z</time>
      </trkpt>
      <trkpt lat="47.52865" lon="6.75252">
        <ele>402.4</ele>
        <time>2016-01-21T16:10:42.000Z</time>
      </trkpt>
      <trkpt lat="47.52862" lon="6.75251">
        <ele>402.5</ele>
        <time>2016-01-21T16:10:43.000Z</time>
      </trkpt>
      <trkpt lat="47.52859" lon="6.7525">
        <ele>402.9</ele>
        <time>2016-01-21T16:10:44.000Z</time>
      </trkpt>
      <trkpt lat="47.52856" lon="6.75247">
        <ele>401.9</ele>
        <time>2016-01-21T16:10:46.000Z</time>
      </trkpt>
      <trkpt lat="47.52854" lon="6.75246">
        <ele>401.6</ele>
        <time>2016-01-21T16:10:47.000Z</time>
      </trkpt>
      <trkpt lat="47.52851" lon="6.75243">
        <ele>401.7</ele>
        <time>2016-01-21T16:10:50.000Z</time>
      </trkpt>
      <trkpt lat="47.5285" lon="6.75242">
        <ele>401.5</ele>
        <time>2016-01-21T16:10:51.000Z</time>
      </trkpt>
      <trkpt lat="47.52847" lon="6.75239">
        <ele>401.2</ele>
        <time>2016-01-21T16:10:56.000Z</time>
      </trkpt>
      <trkpt lat="47.52846" lon="6.75238">
        <ele>401.1</ele>
        <time>2016-01-21T16:10:57.000Z</time>
      </trkpt>
      <trkpt lat="47.52843" lon="6.75234">
        <ele>400.3</ele>
        <time>2016-01-21T16:11:02.000Z</time>
      </trkpt>
      <trkpt lat="47.52842" lon="6.75233">
        <ele>399.8</ele>
        <time>2016-01-21T16:11:03.000Z</time>
      </trkpt>
      <trkpt lat="47.52839" lon="6.75231">
        <ele>398.6</ele>
        <time>2016-01-21T16:11:06.000Z</time>
      </trkpt>
      <trkpt lat="47.52837" lon="6.7523">
        <ele>398.6</ele>
        <time>2016-01-21T16:11:07.000Z</time>
      </trkpt>
      <trkpt lat="47.52834" lon="6.75228">
        <ele>398.3</ele>
        <time>2016-01-21T16:11:09.000Z</time>
      </trkpt>
      <trkpt lat="47.52832" lon="6.75228">
        <ele>398.7</ele>
        <time>2016-01-21T16:11:10.000Z</time>
      </trkpt>
      <trkpt lat="47.52829" lon="6.75226">
        <ele>398.6</ele>
        <time>2016-01-21T16:11:12.000Z</time>
      </trkpt>
      <trkpt lat="47.52827" lon="6.75226">
        <ele>398.5</ele>
        <time>2016-01-21T16:11:13.000Z</time>
      </trkpt>
      <trkpt lat="47.52823" lon="6.75225">
        <ele>398.3</ele>
        <time>2016-01-21T16:11:15.000Z</time>
      </trkpt>
      <trkpt lat="47.52822" lon="6.75224">
        <ele>398.8</ele>
        <time>2016-01-21T16:11:16.000Z</time>
      </trkpt>
      <trkpt lat="47.52818" lon="6.75223">
        <ele>399.2</ele>
        <time>2016-01-21T16:11:19.000Z</time>
      </trkpt>
      <trkpt lat="47.52816" lon="6.75223">
        <ele>398.4</ele>
        <time>2016-01-21T16:11:20.000Z</time>
      </trkpt>
      <trkpt lat="47.52812" lon="6.75223">
        <ele>399.5</ele>
        <time>2016-01-21T16:11:23.000Z</time>
      </trkpt>
      <trkpt lat="47.5281" lon="6.75223">
        <ele>399</ele>
        <time>2016-01-21T16:11:24.000Z</time>
      </trkpt>
      <trkpt lat="47.52807" lon="6.75223">
        <ele>399</ele>
        <time>2016-01-21T16:11:26.000Z</time>
      </trkpt>
      <trkpt lat="47.52805" lon="6.75223">
        <ele>399.1</ele>
        <time>2016-01-21T16:11:27.000Z</time>
      </trkpt>
      <trkpt lat="47.52801" lon="6.75221">
        <ele>400.1</ele>
        <time>2016-01-21T16:11:31.000Z</time>
      </trkpt>
      <trkpt lat="47.528" lon="6.7522">
        <ele>399.4</ele>
        <time>2016-01-21T16:11:32.000Z</time>
      </trkpt>
      <trkpt lat="47.52796" lon="6.75218">
        <ele>399.5</ele>
        <time>2016-01-21T16:11:35.000Z</time>
      </trkpt>
      <trkpt lat="47.52795" lon="6.75217">
        <ele>399.9</ele>
        <time>2016-01-21T16:11:36.000Z</time>
      </trkpt>
      <trkpt lat="47.52791" lon="6.75217">
        <ele>399.7</ele>
        <time>2016-01-21T16:11:38.000Z</time>
      </trkpt>
      <trkpt lat="47.5279" lon="6.75216">
        <ele>397.4</ele>
        <time>2016-01-21T16:11:39.000Z</time>
      </trkpt>
      <trkpt lat="47.52786" lon="6.75214">
        <ele>396.9</ele>
        <time>2016-01-21T16:11:41.000Z</time>
      </trkpt>
      <trkpt lat="47.52785" lon="6.75213">
        <ele>396.3</ele>
        <time>2016-01-21T16:11:42.000Z</time>
      </trkpt>
      <trkpt lat="47.52781" lon="6.75212">
        <ele>397.6</ele>
        <time>2016-01-21T16:11:45.000Z</time>
      </trkpt>
      <trkpt lat="47.5278" lon="6.75212">
        <ele>397.7</ele>
        <time>2016-01-21T16:11:46.000Z</time>
      </trkpt>
      <trkpt lat="47.52776" lon="6.75211">
        <ele>400.3</ele>
        <time>2016-01-21T16:11:49.000Z</time>
      </trkpt>
      <trkpt lat="47.52775" lon="6.75211">
        <ele>400.1</ele>
        <time>2016-01-21T16:11:50.000Z</time>
      </trkpt>
      <trkpt lat="47.52771" lon="6.7521">
        <ele>402</ele>
        <time>2016-01-21T16:11:54.000Z</time>
      </trkpt>
      <trkpt lat="47.5277" lon="6.7521">
        <ele>402.6</ele>
        <time>2016-01-21T16:11:55.000Z</time>
      </trkpt>
      <trkpt lat="47.52766" lon="6.75208">
        <ele>404.7</ele>
        <time>2016-01-21T16:11:59.000Z</time>
      </trkpt>
      <trkpt lat="47.52765" lon="6.75208">
        <ele>404.1</ele>
        <time>2016-01-21T16:12:00.000Z</time>
      </trkpt>
      <trkpt lat="47.52762" lon="6.75204">
        <ele>405</ele>
        <time>2016-01-21T16:12:03.000Z</time>
      </trkpt>
      <trkpt lat="47.52761" lon="6.75203">
        <ele>404.8</ele>
        <time>2016-01-21T16:12:04.000Z</time>
      </trkpt>
      <trkpt lat="47.52757" lon="6.75202">
        <ele>404</ele>
        <time>2016-01-21T16:12:06.000Z</time>
      </trkpt>
      <trkpt lat="47.52755" lon="6.75201">
        <ele>404.2</ele>
        <time>2016-01-21T16:12:07.000Z</time>
      </trkpt>
      <trkpt lat="47.52753" lon="6.75201">
        <ele>404</ele>
        <time>2016-01-21T16:12:08.000Z</time>
      </trkpt>
      <trkpt lat="47.5275" lon="6.752">
        <ele>403.8</ele>
        <time>2016-01-21T16:12:09.000Z</time>
      </trkpt>
      <trkpt lat="47.52748" lon="6.75199">
        <ele>403.6</ele>
        <time>2016-01-21T16:12:10.000Z</time>
      </trkpt>
      <trkpt lat="47.52745" lon="6.75198">
        <ele>404.7</ele>
        <time>2016-01-21T16:12:11.000Z</time>
      </trkpt>
      <trkpt lat="47.52741" lon="6.75196">
        <ele>403.8</ele>
        <time>2016-01-21T16:12:13.000Z</time>
      </trkpt>
      <trkpt lat="47.52739" lon="6.75195">
        <ele>403.8</ele>
        <time>2016-01-21T16:12:14.000Z</time>
      </trkpt>
      <trkpt lat="47.52736" lon="6.75193">
        <ele>403.3</ele>
        <time>2016-01-21T16:12:16.000Z</time>
      </trkpt>
      <trkpt lat="47.52735" lon="6.75192">
        <ele>403.2</ele>
        <time>2016-01-21T16:12:17.000Z</time>
      </trkpt>
      <trkpt lat="47.52731" lon="6.75192">
        <ele>403.5</ele>
        <time>2016-01-21T16:12:21.000Z</time>
      </trkpt>
      <trkpt lat="47.52729" lon="6.75191">
        <ele>403.7</ele>
        <time>2016-01-21T16:12:22.000Z</time>
      </trkpt>
      <trkpt lat="47.52726" lon="6.75191">
        <ele>404.5</ele>
        <time>2016-01-21T16:12:25.000Z</time>
      </trkpt>
      <trkpt lat="47.52725" lon="6.7519">
        <ele>404.5</ele>
        <time>2016-01-21T16:12:26.000Z</time>
      </trkpt>
      <trkpt lat="47.5272" lon="6.7519">
        <ele>405.4</ele>
        <time>2016-01-21T16:12:30.000Z</time>
      </trkpt>
      <trkpt lat="47.52719" lon="6.75189">
        <ele>405</ele>
        <time>2016-01-21T16:12:31.000Z</time>
      </trkpt>
      <trkpt lat="47.52715" lon="6.75186">
        <ele>405.3</ele>
        <time>2016-01-21T16:12:34.000Z</time>
      </trkpt>
      <trkpt lat="47.52714" lon="6.75186">
        <ele>405.4</ele>
        <time>2016-01-21T16:12:35.000Z</time>
      </trkpt>
      <trkpt lat="47.52709" lon="6.75186">
        <ele>404.4</ele>
        <time>2016-01-21T16:12:39.000Z</time>
      </trkpt>
      <trkpt lat="47.52709" lon="6.75187">
        <ele>404.6</ele>
        <time>2016-01-21T16:12:40.000Z</time>
      </trkpt>
      <trkpt lat="47.52708" lon="6.75194">
        <ele>404.3</ele>
        <time>2016-01-21T16:12:44.000Z</time>
      </trkpt>
      <trkpt lat="47.52708" lon="6.75197">
        <ele>404.3</ele>
        <time>2016-01-21T16:12:45.000Z</time>
      </trkpt>
      <trkpt lat="47.52708" lon="6.752">
        <ele>404.8</ele>
        <time>2016-01-21T16:12:46.000Z</time>
      </trkpt>
      <trkpt lat="47.52708" lon="6.75203">
        <ele>404.8</ele>
        <time>2016-01-21T16:12:47.000Z</time>
      </trkpt>
      <trkpt lat="47.52707" lon="6.75207">
        <ele>404.6</ele>
        <time>2016-01-21T16:12:48.000Z</time>
      </trkpt>
      <trkpt lat="47.52707" lon="6.7521">
        <ele>405</ele>
        <time>2016-01-21T16:12:49.000Z</time>
      </trkpt>
      <trkpt lat="47.52706" lon="6.75216">
        <ele>405.1</ele>
        <time>2016-01-21T16:12:51.000Z</time>
      </trkpt>
      <trkpt lat="47.52706" lon="6.75219">
        <ele>405.4</ele>
        <time>2016-01-21T16:12:52.000Z</time>
      </trkpt>
      <trkpt lat="47.52703" lon="6.75223">
        <ele>405</ele>
        <time>2016-01-21T16:12:54.000Z</time>
      </trkpt>
      <trkpt lat="47.52702" lon="6.75225">
        <ele>404.2</ele>
        <time>2016-01-21T16:12:55.000Z</time>
      </trkpt>
      <trkpt lat="47.52698" lon="6.7523">
        <ele>403.4</ele>
        <time>2016-01-21T16:12:57.000Z</time>
      </trkpt>
      <trkpt lat="47.52696" lon="6.75232">
        <ele>403.4</ele>
        <time>2016-01-21T16:12:58.000Z</time>
      </trkpt>
      <trkpt lat="47.52695" lon="6.75235">
        <ele>402.6</ele>
        <time>2016-01-21T16:12:59.000Z</time>
      </trkpt>
      <trkpt lat="47.52693" lon="6.75239">
        <ele>402.1</ele>
        <time>2016-01-21T16:13:00.000Z</time>
      </trkpt>
      <trkpt lat="47.52692" lon="6.75243">
        <ele>401.8</ele>
        <time>2016-01-21T16:13:01.000Z</time>
      </trkpt>
      <trkpt lat="47.5269" lon="6.75247">
        <ele>401.5</ele>
        <time>2016-01-21T16:13:02.000Z</time>
      </trkpt>
      <trkpt lat="47.52688" lon="6.75251">
        <ele>401.6</ele>
        <time>2016-01-21T16:13:03.000Z</time>
      </trkpt>
      <trkpt lat="47.52687" lon="6.75255">
        <ele>400.4</ele>
        <time>2016-01-21T16:13:04.000Z</time>
      </trkpt>
      <trkpt lat="47.52686" lon="6.75259">
        <ele>400.4</ele>
        <time>2016-01-21T16:13:05.000Z</time>
      </trkpt>
      <trkpt lat="47.52686" lon="6.75264">
        <ele>400.2</ele>
        <time>2016-01-21T16:13:06.000Z</time>
      </trkpt>
      <trkpt lat="47.52685" lon="6.75268">
        <ele>399.4</ele>
        <time>2016-01-21T16:13:07.000Z</time>
      </trkpt>
      <trkpt lat="47.52684" lon="6.75272">
        <ele>400</ele>
        <time>2016-01-21T16:13:08.000Z</time>
      </trkpt>
      <trkpt lat="47.52683" lon="6.75277">
        <ele>400.6</ele>
        <time>2016-01-21T16:13:09.000Z</time>
      </trkpt>
      <trkpt lat="47.52682" lon="6.75282">
        <ele>398.8</ele>
        <time>2016-01-21T16:13:10.000Z</time>
      </trkpt>
      <trkpt lat="47.52681" lon="6.75286">
        <ele>399.3</ele>
        <time>2016-01-21T16:13:11.000Z</time>
      </trkpt>
      <trkpt lat="47.52681" lon="6.75291">
        <ele>399.1</ele>
        <time>2016-01-21T16:13:12.000Z</time>
      </trkpt>
      <trkpt lat="47.52681" lon="6.75295">
        <ele>399</ele>
        <time>2016-01-21T16:13:13.000Z</time>
      </trkpt>
      <trkpt lat="47.52681" lon="6.75299">
        <ele>398.6</ele>
        <time>2016-01-21T16:13:14.000Z</time>
      </trkpt>
      <trkpt lat="47.52681" lon="6.75303">
        <ele>398.5</ele>
        <time>2016-01-21T16:13:15.000Z</time>
      </trkpt>
      <trkpt lat="47.5268" lon="6.75307">
        <ele>398.7</ele>
        <time>2016-01-21T16:13:16.000Z</time>
      </trkpt>
      <trkpt lat="47.5268" lon="6.75311">
        <ele>398.5</ele>
        <time>2016-01-21T16:13:17.000Z</time>
      </trkpt>
      <trkpt lat="47.5268" lon="6.75314">
        <ele>398.6</ele>
        <time>2016-01-21T16:13:18.000Z</time>
      </trkpt>
      <trkpt lat="47.52679" lon="6.7532">
        <ele>398.3</ele>
        <time>2016-01-21T16:13:20.000Z</time>
      </trkpt>
      <trkpt lat="47.52678" lon="6.75323">
        <ele>397.1</ele>
        <time>2016-01-21T16:13:21.000Z</time>
      </trkpt>
      <trkpt lat="47.52676" lon="6.75329">
        <ele>395.7</ele>
        <time>2016-01-21T16:13:23.000Z</time>
      </trkpt>
      <trkpt lat="47.52676" lon="6.75332">
        <ele>395.4</ele>
        <time>2016-01-21T16:13:24.000Z</time>
      </trkpt>
      <trkpt lat="47.52675" lon="6.75338">
        <ele>395.9</ele>
        <time>2016-01-21T16:13:26.000Z</time>
      </trkpt>
      <trkpt lat="47.52675" lon="6.75341">
        <ele>395.5</ele>
        <time>2016-01-21T16:13:27.000Z</time>
      </trkpt>
      <trkpt lat="47.52675" lon="6.75347">
        <ele>396.1</ele>
        <time>2016-01-21T16:13:29.000Z</time>
      </trkpt>
      <trkpt lat="47.52674" lon="6.7535">
        <ele>395.5</ele>
        <time>2016-01-21T16:13:30.000Z</time>
      </trkpt>
      <trkpt lat="47.52674" lon="6.75356">
        <ele>396</ele>
        <time>2016-01-21T16:13:33.000Z</time>
      </trkpt>
      <trkpt lat="47.52673" lon="6.75358">
        <ele>395.9</ele>
        <time>2016-01-21T16:13:34.000Z</time>
      </trkpt>
      <trkpt lat="47.52671" lon="6.75362">
        <ele>393.9</ele>
        <time>2016-01-21T16:13:37.000Z</time>
      </trkpt>
      <trkpt lat="47.52671" lon="6.75365">
        <ele>394.1</ele>
        <time>2016-01-21T16:13:38.000Z</time>
      </trkpt>
      <trkpt lat="47.5267" lon="6.75371">
        <ele>393.2</ele>
        <time>2016-01-21T16:13:40.000Z</time>
      </trkpt>
      <trkpt lat="47.5267" lon="6.75375">
        <ele>393.3</ele>
        <time>2016-01-21T16:13:41.000Z</time>
      </trkpt>
      <trkpt lat="47.52669" lon="6.75379">
        <ele>393.2</ele>
        <time>2016-01-21T16:13:42.000Z</time>
      </trkpt>
      <trkpt lat="47.52669" lon="6.75383">
        <ele>393.1</ele>
        <time>2016-01-21T16:13:43.000Z</time>
      </trkpt>
      <trkpt lat="47.52669" lon="6.75387">
        <ele>392.7</ele>
        <time>2016-01-21T16:13:44.000Z</time>
      </trkpt>
      <trkpt lat="47.52669" lon="6.75391">
        <ele>392.7</ele>
        <time>2016-01-21T16:13:45.000Z</time>
      </trkpt>
      <trkpt lat="47.52669" lon="6.75395">
        <ele>392.4</ele>
        <time>2016-01-21T16:13:46.000Z</time>
      </trkpt>
      <trkpt lat="47.52668" lon="6.75399">
        <ele>392.7</ele>
        <time>2016-01-21T16:13:47.000Z</time>
      </trkpt>
      <trkpt lat="47.52668" lon="6.75403">
        <ele>392.1</ele>
        <time>2016-01-21T16:13:48.000Z</time>
      </trkpt>
      <trkpt lat="47.52667" lon="6.75407">
        <ele>391.5</ele>
        <time>2016-01-21T16:13:49.000Z</time>
      </trkpt>
      <trkpt lat="47.52666" lon="6.75411">
        <ele>391.5</ele>
        <time>2016-01-21T16:13:50.000Z</time>
      </trkpt>
      <trkpt lat="47.52665" lon="6.75415">
        <ele>391.4</ele>
        <time>2016-01-21T16:13:51.000Z</time>
      </trkpt>
      <trkpt lat="47.52664" lon="6.7542">
        <ele>390.9</ele>
        <time>2016-01-21T16:13:52.000Z</time>
      </trkpt>
      <trkpt lat="47.52663" lon="6.75424">
        <ele>389.6</ele>
        <time>2016-01-21T16:13:53.000Z</time>
      </trkpt>
      <trkpt lat="47.52662" lon="6.75429">
        <ele>389.1</ele>
        <time>2016-01-21T16:13:54.000Z</time>
      </trkpt>
      <trkpt lat="47.52662" lon="6.75434">
        <ele>389.1</ele>
        <time>2016-01-21T16:13:55.000Z</time>
      </trkpt>
      <trkpt lat="47.52662" lon="6.75438">
        <ele>389</ele>
        <time>2016-01-21T16:13:56.000Z</time>
      </trkpt>
      <trkpt lat="47.52661" lon="6.75442">
        <ele>388.7</ele>
        <time>2016-01-21T16:13:57.000Z</time>
      </trkpt>
      <trkpt lat="47.5266" lon="6.75446">
        <ele>388.3</ele>
        <time>2016-01-21T16:13:58.000Z</time>
      </trkpt>
      <trkpt lat="47.52659" lon="6.75449">
        <ele>387.8</ele>
        <time>2016-01-21T16:13:59.000Z</time>
      </trkpt>
      <trkpt lat="47.52658" lon="6.75452">
        <ele>388.2</ele>
        <time>2016-01-21T16:14:00.000Z</time>
      </trkpt>
      <trkpt lat="47.52656" lon="6.75455">
        <ele>388.4</ele>
        <time>2016-01-21T16:14:01.000Z</time>
      </trkpt>
      <trkpt lat="47.52654" lon="6.75458">
        <ele>388.8</ele>
        <time>2016-01-21T16:14:02.000Z</time>
      </trkpt>
      <trkpt lat="47.52651" lon="6.75461">
        <ele>388</ele>
        <time>2016-01-21T16:14:03.000Z</time>
      </trkpt>
      <trkpt lat="47.52649" lon="6.75463">
        <ele>388.3</ele>
        <time>2016-01-21T16:14:04.000Z</time>
      </trkpt>
      <trkpt lat="47.52646" lon="6.75465">
        <ele>388.4</ele>
        <time>2016-01-21T16:14:05.000Z</time>
      </trkpt>
      <trkpt lat="47.52643" lon="6.75467">
        <ele>388</ele>
        <time>2016-01-21T16:14:06.000Z</time>
      </trkpt>
      <trkpt lat="47.5264" lon="6.75469">
        <ele>387</ele>
        <time>2016-01-21T16:14:07.000Z</time>
      </trkpt>
      <trkpt lat="47.52637" lon="6.75471">
        <ele>386.3</ele>
        <time>2016-01-21T16:14:08.000Z</time>
      </trkpt>
      <trkpt lat="47.52633" lon="6.75473">
        <ele>386</ele>
        <time>2016-01-21T16:14:09.000Z</time>
      </trkpt>
      <trkpt lat="47.5263" lon="6.75474">
        <ele>385.6</ele>
        <time>2016-01-21T16:14:10.000Z</time>
      </trkpt>
      <trkpt lat="47.52627" lon="6.75475">
        <ele>384.8</ele>
        <time>2016-01-21T16:14:11.000Z</time>
      </trkpt>
      <trkpt lat="47.52624" lon="6.75476">
        <ele>384.8</ele>
        <time>2016-01-21T16:14:12.000Z</time>
      </trkpt>
      <trkpt lat="47.52621" lon="6.75477">
        <ele>383.2</ele>
        <time>2016-01-21T16:14:13.000Z</time>
      </trkpt>
      <trkpt lat="47.52619" lon="6.75478">
        <ele>382.9</ele>
        <time>2016-01-21T16:14:14.000Z</time>
      </trkpt>
      <trkpt lat="47.52616" lon="6.75479">
        <ele>382.4</ele>
        <time>2016-01-21T16:14:15.000Z</time>
      </trkpt>
      <trkpt lat="47.52612" lon="6.75481">
        <ele>382.2</ele>
        <time>2016-01-21T16:14:17.000Z</time>
      </trkpt>
      <trkpt lat="47.52611" lon="6.75482">
        <ele>381.7</ele>
        <time>2016-01-21T16:14:18.000Z</time>
      </trkpt>
      <trkpt lat="47.52608" lon="6.75487">
        <ele>381.9</ele>
        <time>2016-01-21T16:14:20.000Z</time>
      </trkpt>
      <trkpt lat="47.52607" lon="6.7549">
        <ele>382.1</ele>
        <time>2016-01-21T16:14:21.000Z</time>
      </trkpt>
      <trkpt lat="47.52606" lon="6.75493">
        <ele>381.2</ele>
        <time>2016-01-21T16:14:22.000Z</time>
      </trkpt>
      <trkpt lat="47.52604" lon="6.75495">
        <ele>381.3</ele>
        <time>2016-01-21T16:14:23.000Z</time>
      </trkpt>
      <trkpt lat="47.52601" lon="6.75499">
        <ele>381.7</ele>
        <time>2016-01-21T16:14:25.000Z</time>
      </trkpt>
      <trkpt lat="47.52599" lon="6.75501">
        <ele>380.7</ele>
        <time>2016-01-21T16:14:26.000Z</time>
      </trkpt>
      <trkpt lat="47.52598" lon="6.75504">
        <ele>381.8</ele>
        <time>2016-01-21T16:14:27.000Z</time>
      </trkpt>
      <trkpt lat="47.52597" lon="6.75507">
        <ele>381.4</ele>
        <time>2016-01-21T16:14:28.000Z</time>
      </trkpt>
      <trkpt lat="47.52596" lon="6.7551">
        <ele>381.7</ele>
        <time>2016-01-21T16:14:29.000Z</time>
      </trkpt>
      <trkpt lat="47.52595" lon="6.75513">
        <ele>381.6</ele>
        <time>2016-01-21T16:14:30.000Z</time>
      </trkpt>
      <trkpt lat="47.52594" lon="6.75516">
        <ele>382.6</ele>
        <time>2016-01-21T16:14:31.000Z</time>
      </trkpt>
      <trkpt lat="47.52593" lon="6.75519">
        <ele>382.3</ele>
        <time>2016-01-21T16:14:32.000Z</time>
      </trkpt>
      <trkpt lat="47.52592" lon="6.75525">
        <ele>380.9</ele>
        <time>2016-01-21T16:14:34.000Z</time>
      </trkpt>
      <trkpt lat="47.52591" lon="6.75529">
        <ele>379.4</ele>
        <time>2016-01-21T16:14:35.000Z</time>
      </trkpt>
      <trkpt lat="47.5259" lon="6.75533">
        <ele>379.1</ele>
        <time>2016-01-21T16:14:36.000Z</time>
      </trkpt>
      <trkpt lat="47.52589" lon="6.75537">
        <ele>378.3</ele>
        <time>2016-01-21T16:14:37.000Z</time>
      </trkpt>
      <trkpt lat="47.52588" lon="6.75541">
        <ele>378.5</ele>
        <time>2016-01-21T16:14:38.000Z</time>
      </trkpt>
      <trkpt lat="47.52586" lon="6.75544">
        <ele>377.8</ele>
        <time>2016-01-21T16:14:39.000Z</time>
      </trkpt>
      <trkpt lat="47.52585" lon="6.75548">
        <ele>378.2</ele>
        <time>2016-01-21T16:14:40.000Z</time>
      </trkpt>
      <trkpt lat="47.52583" lon="6.75551">
        <ele>377.9</ele>
        <time>2016-01-21T16:14:41.000Z</time>
      </trkpt>
      <trkpt lat="47.52581" lon="6.75554">
        <ele>377.4</ele>
        <time>2016-01-21T16:14:42.000Z</time>
      </trkpt>
      <trkpt lat="47.52579" lon="6.75556">
        <ele>377</ele>
        <time>2016-01-21T16:14:43.000Z</time>
      </trkpt>
      <trkpt lat="47.52576" lon="6.75559">
        <ele>376.5</ele>
        <time>2016-01-21T16:14:44.000Z</time>
      </trkpt>
      <trkpt lat="47.52574" lon="6.75561">
        <ele>376.5</ele>
        <time>2016-01-21T16:14:45.000Z</time>
      </trkpt>
      <trkpt lat="47.52573" lon="6.75564">
        <ele>376.5</ele>
        <time>2016-01-21T16:14:46.000Z</time>
      </trkpt>
      <trkpt lat="47.52571" lon="6.75567">
        <ele>375.5</ele>
        <time>2016-01-21T16:14:47.000Z</time>
      </trkpt>
      <trkpt lat="47.52569" lon="6.7557">
        <ele>375.7</ele>
        <time>2016-01-21T16:14:48.000Z</time>
      </trkpt>
      <trkpt lat="47.52567" lon="6.75573">
        <ele>374.7</ele>
        <time>2016-01-21T16:14:49.000Z</time>
      </trkpt>
      <trkpt lat="47.52565" lon="6.75576">
        <ele>373.9</ele>
        <time>2016-01-21T16:14:50.000Z</time>
      </trkpt>
      <trkpt lat="47.52564" lon="6.75579">
        <ele>371.8</ele>
        <time>2016-01-21T16:14:51.000Z</time>
      </trkpt>
      <trkpt lat="47.52562" lon="6.75583">
        <ele>372</ele>
        <time>2016-01-21T16:14:52.000Z</time>
      </trkpt>
      <trkpt lat="47.52561" lon="6.75587">
        <ele>371.9</ele>
        <time>2016-01-21T16:14:53.000Z</time>
      </trkpt>
      <trkpt lat="47.52559" lon="6.7559">
        <ele>371.3</ele>
        <time>2016-01-21T16:14:54.000Z</time>
      </trkpt>
      <trkpt lat="47.52556" lon="6.75593">
        <ele>371.7</ele>
        <time>2016-01-21T16:14:55.000Z</time>
      </trkpt>
      <trkpt lat="47.52554" lon="6.75596">
        <ele>370.6</ele>
        <time>2016-01-21T16:14:56.000Z</time>
      </trkpt>
      <trkpt lat="47.52552" lon="6.756">
        <ele>370</ele>
        <time>2016-01-21T16:14:57.000Z</time>
      </trkpt>
      <trkpt lat="47.52549" lon="6.75603">
        <ele>370.4</ele>
        <time>2016-01-21T16:14:58.000Z</time>
      </trkpt>
      <trkpt lat="47.52547" lon="6.75607">
        <ele>369.4</ele>
        <time>2016-01-21T16:14:59.000Z</time>
      </trkpt>
      <trkpt lat="47.52544" lon="6.75611">
        <ele>369.6</ele>
        <time>2016-01-21T16:15:00.000Z</time>
      </trkpt>
      <trkpt lat="47.52541" lon="6.75615">
        <ele>368.1</ele>
        <time>2016-01-21T16:15:01.000Z</time>
      </trkpt>
      <trkpt lat="47.52539" lon="6.75618">
        <ele>368.7</ele>
        <time>2016-01-21T16:15:02.000Z</time>
      </trkpt>
      <trkpt lat="47.52538" lon="6.75622">
        <ele>368.4</ele>
        <time>2016-01-21T16:15:03.000Z</time>
      </trkpt>
      <trkpt lat="47.52538" lon="6.75626">
        <ele>366.2</ele>
        <time>2016-01-21T16:15:04.000Z</time>
      </trkpt>
      <trkpt lat="47.52538" lon="6.75629">
        <ele>365.5</ele>
        <time>2016-01-21T16:15:05.000Z</time>
      </trkpt>
      <trkpt lat="47.52538" lon="6.75633">
        <ele>368.2</ele>
        <time>2016-01-21T16:15:06.000Z</time>
      </trkpt>
      <trkpt lat="47.52538" lon="6.75637">
        <ele>369.2</ele>
        <time>2016-01-21T16:15:07.000Z</time>
      </trkpt>
      <trkpt lat="47.52538" lon="6.75641">
        <ele>370.4</ele>
        <time>2016-01-21T16:15:08.000Z</time>
      </trkpt>
      <trkpt lat="47.52538" lon="6.75644">
        <ele>370.7</ele>
        <time>2016-01-21T16:15:09.000Z</time>
      </trkpt>
      <trkpt lat="47.52539" lon="6.75649">
        <ele>374.6</ele>
        <time>2016-01-21T16:15:11.000Z</time>
      </trkpt>
      <trkpt lat="47.5254" lon="6.75652">
        <ele>373.9</ele>
        <time>2016-01-21T16:15:12.000Z</time>
      </trkpt>
      <trkpt lat="47.52541" lon="6.75654">
        <ele>374.1</ele>
        <time>2016-01-21T16:15:13.000Z</time>
      </trkpt>
      <trkpt lat="47.52543" lon="6.75657">
        <ele>374.8</ele>
        <time>2016-01-21T16:15:14.000Z</time>
      </trkpt>
      <trkpt lat="47.52545" lon="6.75659">
        <ele>375.6</ele>
        <time>2016-01-21T16:15:15.000Z</time>
      </trkpt>
      <trkpt lat="47.52547" lon="6.75662">
        <ele>374.2</ele>
        <time>2016-01-21T16:15:16.000Z</time>
      </trkpt>
      <trkpt lat="47.52548" lon="6.75664">
        <ele>373.5</ele>
        <time>2016-01-21T16:15:17.000Z</time>
      </trkpt>
      <trkpt lat="47.5255" lon="6.75667">
        <ele>372.9</ele>
        <time>2016-01-21T16:15:18.000Z</time>
      </trkpt>
      <trkpt lat="47.52552" lon="6.75669">
        <ele>373.7</ele>
        <time>2016-01-21T16:15:19.000Z</time>
      </trkpt>
      <trkpt lat="47.52553" lon="6.75672">
        <ele>374.2</ele>
        <time>2016-01-21T16:15:20.000Z</time>
      </trkpt>
      <trkpt lat="47.52557" lon="6.75676">
        <ele>374.8</ele>
        <time>2016-01-21T16:15:22.000Z</time>
      </trkpt>
      <trkpt lat="47.52558" lon="6.75678">
        <ele>374.5</ele>
        <time>2016-01-21T16:15:23.000Z</time>
      </trkpt>
      <trkpt lat="47.52561" lon="6.75682">
        <ele>374.6</ele>
        <time>2016-01-21T16:15:25.000Z</time>
      </trkpt>
      <trkpt lat="47.52562" lon="6.75685">
        <ele>373.8</ele>
        <time>2016-01-21T16:15:26.000Z</time>
      </trkpt>
      <trkpt lat="47.52563" lon="6.75689">
        <ele>373.8</ele>
        <time>2016-01-21T16:15:27.000Z</time>
      </trkpt>
      <trkpt lat="47.52564" lon="6.75692">
        <ele>373.2</ele>
        <time>2016-01-21T16:15:28.000Z</time>
      </trkpt>
      <trkpt lat="47.52565" lon="6.75695">
        <ele>373.5</ele>
        <time>2016-01-21T16:15:29.000Z</time>
      </trkpt>
      <trkpt lat="47.52567" lon="6.75698">
        <ele>373.6</ele>
        <time>2016-01-21T16:15:30.000Z</time>
      </trkpt>
      <trkpt lat="47.52569" lon="6.75701">
        <ele>374.3</ele>
        <time>2016-01-21T16:15:31.000Z</time>
      </trkpt>
      <trkpt lat="47.52571" lon="6.75704">
        <ele>373.9</ele>
        <time>2016-01-21T16:15:32.000Z</time>
      </trkpt>
      <trkpt lat="47.52572" lon="6.75707">
        <ele>373</ele>
        <time>2016-01-21T16:15:33.000Z</time>
      </trkpt>
      <trkpt lat="47.52574" lon="6.7571">
        <ele>373.2</ele>
        <time>2016-01-21T16:15:34.000Z</time>
      </trkpt>
      <trkpt lat="47.52576" lon="6.75712">
        <ele>373.2</ele>
        <time>2016-01-21T16:15:35.000Z</time>
      </trkpt>
      <trkpt lat="47.52578" lon="6.75714">
        <ele>373.1</ele>
        <time>2016-01-21T16:15:36.000Z</time>
      </trkpt>
      <trkpt lat="47.52581" lon="6.75717">
        <ele>369.4</ele>
        <time>2016-01-21T16:15:38.000Z</time>
      </trkpt>
      <trkpt lat="47.52582" lon="6.75717">
        <ele>368.9</ele>
        <time>2016-01-21T16:15:39.000Z</time>
      </trkpt>
      <trkpt lat="47.52584" lon="6.75718">
        <ele>368.5</ele>
        <time>2016-01-21T16:15:41.000Z</time>
      </trkpt>
      <trkpt lat="47.52586" lon="6.7572">
        <ele>369.4</ele>
        <time>2016-01-21T16:15:42.000Z</time>
      </trkpt>
      <trkpt lat="47.52588" lon="6.75723">
        <ele>369.3</ele>
        <time>2016-01-21T16:15:43.000Z</time>
      </trkpt>
      <trkpt lat="47.52591" lon="6.75725">
        <ele>369.6</ele>
        <time>2016-01-21T16:15:44.000Z</time>
      </trkpt>
      <trkpt lat="47.52593" lon="6.75729">
        <ele>369.6</ele>
        <time>2016-01-21T16:15:45.000Z</time>
      </trkpt>
      <trkpt lat="47.52595" lon="6.75732">
        <ele>369.5</ele>
        <time>2016-01-21T16:15:46.000Z</time>
      </trkpt>
      <trkpt lat="47.52598" lon="6.75735">
        <ele>369.4</ele>
        <time>2016-01-21T16:15:47.000Z</time>
      </trkpt>
      <trkpt lat="47.526" lon="6.75737">
        <ele>369.1</ele>
        <time>2016-01-21T16:15:48.000Z</time>
      </trkpt>
      <trkpt lat="47.52602" lon="6.7574">
        <ele>368.9</ele>
        <time>2016-01-21T16:15:49.000Z</time>
      </trkpt>
      <trkpt lat="47.52604" lon="6.75742">
        <ele>368.5</ele>
        <time>2016-01-21T16:15:50.000Z</time>
      </trkpt>
      <trkpt lat="47.52606" lon="6.75745">
        <ele>367.5</ele>
        <time>2016-01-21T16:15:51.000Z</time>
      </trkpt>
      <trkpt lat="47.52608" lon="6.75747">
        <ele>367.4</ele>
        <time>2016-01-21T16:15:52.000Z</time>
      </trkpt>
      <trkpt lat="47.5261" lon="6.75749">
        <ele>367.3</ele>
        <time>2016-01-21T16:15:53.000Z</time>
      </trkpt>
      <trkpt lat="47.52612" lon="6.75751">
        <ele>367.1</ele>
        <time>2016-01-21T16:15:54.000Z</time>
      </trkpt>
      <trkpt lat="47.52615" lon="6.75754">
        <ele>367.5</ele>
        <time>2016-01-21T16:15:55.000Z</time>
      </trkpt>
      <trkpt lat="47.52617" lon="6.75756">
        <ele>367.2</ele>
        <time>2016-01-21T16:15:56.000Z</time>
      </trkpt>
      <trkpt lat="47.5262" lon="6.75758">
        <ele>366.5</ele>
        <time>2016-01-21T16:15:57.000Z</time>
      </trkpt>
      <trkpt lat="47.52622" lon="6.75761">
        <ele>366.6</ele>
        <time>2016-01-21T16:15:58.000Z</time>
      </trkpt>
      <trkpt lat="47.52625" lon="6.75764">
        <ele>366.3</ele>
        <time>2016-01-21T16:15:59.000Z</time>
      </trkpt>
      <trkpt lat="47.52627" lon="6.75766">
        <ele>366.2</ele>
        <time>2016-01-21T16:16:00.000Z</time>
      </trkpt>
      <trkpt lat="47.5263" lon="6.75769">
        <ele>365.9</ele>
        <time>2016-01-21T16:16:01.000Z</time>
      </trkpt>
      <trkpt lat="47.52631" lon="6.75772">
        <ele>367</ele>
        <time>2016-01-21T16:16:02.000Z</time>
      </trkpt>
      <trkpt lat="47.52632" lon="6.75775">
        <ele>367.2</ele>
        <time>2016-01-21T16:16:03.000Z</time>
      </trkpt>
      <trkpt lat="47.52633" lon="6.75779">
        <ele>366.6</ele>
        <time>2016-01-21T16:16:04.000Z</time>
      </trkpt>
      <trkpt lat="47.52634" lon="6.75782">
        <ele>367.6</ele>
        <time>2016-01-21T16:16:05.000Z</time>
      </trkpt>
      <trkpt lat="47.52636" lon="6.75785">
        <ele>366.2</ele>
        <time>2016-01-21T16:16:06.000Z</time>
      </trkpt>
      <trkpt lat="47.52638" lon="6.75788">
        <ele>366.3</ele>
        <time>2016-01-21T16:16:07.000Z</time>
      </trkpt>
      <trkpt lat="47.52641" lon="6.7579">
        <ele>366</ele>
        <time>2016-01-21T16:16:08.000Z</time>
      </trkpt>
      <trkpt lat="47.52643" lon="6.75793">
        <ele>366</ele>
        <time>2016-01-21T16:16:09.000Z</time>
      </trkpt>
      <trkpt lat="47.52645" lon="6.75796">
        <ele>365.3</ele>
        <time>2016-01-21T16:16:10.000Z</time>
      </trkpt>
      <trkpt lat="47.52648" lon="6.75799">
        <ele>365.3</ele>
        <time>2016-01-21T16:16:11.000Z</time>
      </trkpt>
      <trkpt lat="47.5265" lon="6.75801">
        <ele>364.5</ele>
        <time>2016-01-21T16:16:12.000Z</time>
      </trkpt>
      <trkpt lat="47.52652" lon="6.75804">
        <ele>364.1</ele>
        <time>2016-01-21T16:16:13.000Z</time>
      </trkpt>
      <trkpt lat="47.52654" lon="6.75807">
        <ele>363.7</ele>
        <time>2016-01-21T16:16:14.000Z</time>
      </trkpt>
      <trkpt lat="47.52657" lon="6.7581">
        <ele>363.5</ele>
        <time>2016-01-21T16:16:15.000Z</time>
      </trkpt>
      <trkpt lat="47.52659" lon="6.75812">
        <ele>363.6</ele>
        <time>2016-01-21T16:16:16.000Z</time>
      </trkpt>
      <trkpt lat="47.5266" lon="6.75815">
        <ele>362.9</ele>
        <time>2016-01-21T16:16:17.000Z</time>
      </trkpt>
      <trkpt lat="47.52662" lon="6.75818">
        <ele>362.8</ele>
        <time>2016-01-21T16:16:18.000Z</time>
      </trkpt>
      <trkpt lat="47.52664" lon="6.75821">
        <ele>363.2</ele>
        <time>2016-01-21T16:16:19.000Z</time>
      </trkpt>
      <trkpt lat="47.52666" lon="6.75824">
        <ele>362.5</ele>
        <time>2016-01-21T16:16:20.000Z</time>
      </trkpt>
      <trkpt lat="47.52667" lon="6.75827">
        <ele>362.3</ele>
        <time>2016-01-21T16:16:21.000Z</time>
      </trkpt>
      <trkpt lat="47.52668" lon="6.75831">
        <ele>361.9</ele>
        <time>2016-01-21T16:16:22.000Z</time>
      </trkpt>
      <trkpt lat="47.5267" lon="6.75835">
        <ele>361.7</ele>
        <time>2016-01-21T16:16:23.000Z</time>
      </trkpt>
      <trkpt lat="47.52671" lon="6.75839">
        <ele>361</ele>
        <time>2016-01-21T16:16:24.000Z</time>
      </trkpt>
      <trkpt lat="47.52673" lon="6.75842">
        <ele>361.8</ele>
        <time>2016-01-21T16:16:25.000Z</time>
      </trkpt>
      <trkpt lat="47.52675" lon="6.75845">
        <ele>361.8</ele>
        <time>2016-01-21T16:16:26.000Z</time>
      </trkpt>
      <trkpt lat="47.52676" lon="6.75849">
        <ele>362</ele>
        <time>2016-01-21T16:16:27.000Z</time>
      </trkpt>
      <trkpt lat="47.52678" lon="6.75852">
        <ele>361.9</ele>
        <time>2016-01-21T16:16:28.000Z</time>
      </trkpt>
      <trkpt lat="47.5268" lon="6.75856">
        <ele>362.5</ele>
        <time>2016-01-21T16:16:30.000Z</time>
      </trkpt>
      <trkpt lat="47.52681" lon="6.75858">
        <ele>363.4</ele>
        <time>2016-01-21T16:16:31.000Z</time>
      </trkpt>
      <trkpt lat="47.52683" lon="6.75862">
        <ele>362.6</ele>
        <time>2016-01-21T16:16:33.000Z</time>
      </trkpt>
      <trkpt lat="47.52685" lon="6.75866">
        <ele>362.5</ele>
        <time>2016-01-21T16:16:34.000Z</time>
      </trkpt>
      <trkpt lat="47.52687" lon="6.7587">
        <ele>362.4</ele>
        <time>2016-01-21T16:16:35.000Z</time>
      </trkpt>
      <trkpt lat="47.52689" lon="6.75874">
        <ele>363</ele>
        <time>2016-01-21T16:16:36.000Z</time>
      </trkpt>
      <trkpt lat="47.5269" lon="6.75878">
        <ele>364.8</ele>
        <time>2016-01-21T16:16:37.000Z</time>
      </trkpt>
      <trkpt lat="47.52692" lon="6.75882">
        <ele>365.7</ele>
        <time>2016-01-21T16:16:38.000Z</time>
      </trkpt>
      <trkpt lat="47.52693" lon="6.75887">
        <ele>364.6</ele>
        <time>2016-01-21T16:16:39.000Z</time>
      </trkpt>
      <trkpt lat="47.52694" lon="6.75891">
        <ele>364.5</ele>
        <time>2016-01-21T16:16:40.000Z</time>
      </trkpt>
      <trkpt lat="47.52695" lon="6.75895">
        <ele>364.9</ele>
        <time>2016-01-21T16:16:41.000Z</time>
      </trkpt>
      <trkpt lat="47.52695" lon="6.75898">
        <ele>366.1</ele>
        <time>2016-01-21T16:16:42.000Z</time>
      </trkpt>
      <trkpt lat="47.52696" lon="6.75902">
        <ele>366.9</ele>
        <time>2016-01-21T16:16:43.000Z</time>
      </trkpt>
      <trkpt lat="47.52696" lon="6.75905">
        <ele>367.1</ele>
        <time>2016-01-21T16:16:44.000Z</time>
      </trkpt>
      <trkpt lat="47.52697" lon="6.75909">
        <ele>368.1</ele>
        <time>2016-01-21T16:16:45.000Z</time>
      </trkpt>
      <trkpt lat="47.52698" lon="6.75912">
        <ele>367.4</ele>
        <time>2016-01-21T16:16:46.000Z</time>
      </trkpt>
      <trkpt lat="47.52701" lon="6.75916">
        <ele>370.1</ele>
        <time>2016-01-21T16:16:48.000Z</time>
      </trkpt>
      <trkpt lat="47.52703" lon="6.75919">
        <ele>369.4</ele>
        <time>2016-01-21T16:16:49.000Z</time>
      </trkpt>
      <trkpt lat="47.52705" lon="6.75924">
        <ele>369.3</ele>
        <time>2016-01-21T16:16:51.000Z</time>
      </trkpt>
      <trkpt lat="47.52706" lon="6.75927">
        <ele>368.8</ele>
        <time>2016-01-21T16:16:52.000Z</time>
      </trkpt>
      <trkpt lat="47.52706" lon="6.75931">
        <ele>368.5</ele>
        <time>2016-01-21T16:16:53.000Z</time>
      </trkpt>
      <trkpt lat="47.52707" lon="6.75934">
        <ele>368.7</ele>
        <time>2016-01-21T16:16:54.000Z</time>
      </trkpt>
      <trkpt lat="47.52708" lon="6.75938">
        <ele>368.3</ele>
        <time>2016-01-21T16:16:55.000Z</time>
      </trkpt>
      <trkpt lat="47.52708" lon="6.75941">
        <ele>368.2</ele>
        <time>2016-01-21T16:16:56.000Z</time>
      </trkpt>
      <trkpt lat="47.52709" lon="6.75945">
        <ele>367.9</ele>
        <time>2016-01-21T16:16:57.000Z</time>
      </trkpt>
      <trkpt lat="47.5271" lon="6.75948">
        <ele>367.6</ele>
        <time>2016-01-21T16:16:58.000Z</time>
      </trkpt>
      <trkpt lat="47.5271" lon="6.75953">
        <ele>369.1</ele>
        <time>2016-01-21T16:17:00.000Z</time>
      </trkpt>
      <trkpt lat="47.5271" lon="6.75957">
        <ele>367.9</ele>
        <time>2016-01-21T16:17:01.000Z</time>
      </trkpt>
      <trkpt lat="47.52711" lon="6.75961">
        <ele>367.3</ele>
        <time>2016-01-21T16:17:02.000Z</time>
      </trkpt>
      <trkpt lat="47.52712" lon="6.75965">
        <ele>368.2</ele>
        <time>2016-01-21T16:17:03.000Z</time>
      </trkpt>
      <trkpt lat="47.52713" lon="6.7597">
        <ele>365.8</ele>
        <time>2016-01-21T16:17:04.000Z</time>
      </trkpt>
      <trkpt lat="47.52713" lon="6.75974">
        <ele>364.6</ele>
        <time>2016-01-21T16:17:05.000Z</time>
      </trkpt>
      <trkpt lat="47.52713" lon="6.75978">
        <ele>363.4</ele>
        <time>2016-01-21T16:17:06.000Z</time>
      </trkpt>
      <trkpt lat="47.52713" lon="6.75981">
        <ele>362.1</ele>
        <time>2016-01-21T16:17:07.000Z</time>
      </trkpt>
      <trkpt lat="47.5271" lon="6.75987">
        <ele>360.5</ele>
        <time>2016-01-21T16:17:09.000Z</time>
      </trkpt>
      <trkpt lat="47.52709" lon="6.75989">
        <ele>360.4</ele>
        <time>2016-01-21T16:17:10.000Z</time>
      </trkpt>
      <trkpt lat="47.52706" lon="6.75993">
        <ele>361.1</ele>
        <time>2016-01-21T16:17:12.000Z</time>
      </trkpt>
      <trkpt lat="47.52704" lon="6.75994">
        <ele>360.4</ele>
        <time>2016-01-21T16:17:13.000Z</time>
      </trkpt>
      <trkpt lat="47.52701" lon="6.75997">
        <ele>361</ele>
        <time>2016-01-21T16:17:15.000Z</time>
      </trkpt>
      <trkpt lat="47.527" lon="6.75999">
        <ele>360.7</ele>
        <time>2016-01-21T16:17:16.000Z</time>
      </trkpt>
      <trkpt lat="47.52696" lon="6.76002">
        <ele>359.7</ele>
        <time>2016-01-21T16:17:18.000Z</time>
      </trkpt>
      <trkpt lat="47.52695" lon="6.76004">
        <ele>360.1</ele>
        <time>2016-01-21T16:17:19.000Z</time>
      </trkpt>
      <trkpt lat="47.52692" lon="6.76006">
        <ele>360.8</ele>
        <time>2016-01-21T16:17:21.000Z</time>
      </trkpt>
      <trkpt lat="47.5269" lon="6.76007">
        <ele>361.2</ele>
        <time>2016-01-21T16:17:22.000Z</time>
      </trkpt>
      <trkpt lat="47.52687" lon="6.76011">
        <ele>360.8</ele>
        <time>2016-01-21T16:17:24.000Z</time>
      </trkpt>
      <trkpt lat="47.52685" lon="6.76012">
        <ele>361.1</ele>
        <time>2016-01-21T16:17:25.000Z</time>
      </trkpt>
      <trkpt lat="47.52682" lon="6.76016">
        <ele>361.7</ele>
        <time>2016-01-21T16:17:27.000Z</time>
      </trkpt>
      <trkpt lat="47.5268" lon="6.76018">
        <ele>361.3</ele>
        <time>2016-01-21T16:17:28.000Z</time>
      </trkpt>
      <trkpt lat="47.52676" lon="6.76021">
        <ele>360.5</ele>
        <time>2016-01-21T16:17:30.000Z</time>
      </trkpt>
      <trkpt lat="47.52674" lon="6.76023">
        <ele>360.7</ele>
        <time>2016-01-21T16:17:31.000Z</time>
      </trkpt>
      <trkpt lat="47.52671" lon="6.76026">
        <ele>360.3</ele>
        <time>2016-01-21T16:17:33.000Z</time>
      </trkpt>
      <trkpt lat="47.52669" lon="6.76028">
        <ele>360.6</ele>
        <time>2016-01-21T16:17:34.000Z</time>
      </trkpt>
      <trkpt lat="47.52666" lon="6.76031">
        <ele>361</ele>
        <time>2016-01-21T16:17:36.000Z</time>
      </trkpt>
      <trkpt lat="47.52664" lon="6.76032">
        <ele>361.1</ele>
        <time>2016-01-21T16:17:37.000Z</time>
      </trkpt>
      <trkpt lat="47.5266" lon="6.76035">
        <ele>362</ele>
        <time>2016-01-21T16:17:39.000Z</time>
      </trkpt>
      <trkpt lat="47.52659" lon="6.76037">
        <ele>362.3</ele>
        <time>2016-01-21T16:17:40.000Z</time>
      </trkpt>
      <trkpt lat="47.52655" lon="6.7604">
        <ele>362.8</ele>
        <time>2016-01-21T16:17:42.000Z</time>
      </trkpt>
      <trkpt lat="47.52654" lon="6.76042">
        <ele>362.6</ele>
        <time>2016-01-21T16:17:43.000Z</time>
      </trkpt>
      <trkpt lat="47.5265" lon="6.76045">
        <ele>362.3</ele>
        <time>2016-01-21T16:17:45.000Z</time>
      </trkpt>
      <trkpt lat="47.52648" lon="6.76047">
        <ele>362.4</ele>
        <time>2016-01-21T16:17:46.000Z</time>
      </trkpt>
      <trkpt lat="47.52645" lon="6.7605">
        <ele>362.9</ele>
        <time>2016-01-21T16:17:50.000Z</time>
      </trkpt>
      <trkpt lat="47.52644" lon="6.76051">
        <ele>363.1</ele>
        <time>2016-01-21T16:17:51.000Z</time>
      </trkpt>
      <trkpt lat="47.5264" lon="6.76053">
        <ele>363.5</ele>
        <time>2016-01-21T16:17:58.000Z</time>
      </trkpt>
      <trkpt lat="47.5264" lon="6.76053">
        <ele>363.5</ele>
        <time>2016-01-21T16:17:59.000Z</time>
      </trkpt>
      <trkpt lat="47.52636" lon="6.76056">
        <ele>367.1</ele>
        <time>2016-01-21T16:18:21.000Z</time>
      </trkpt>
      <trkpt lat="47.52635" lon="6.76056">
        <ele>367</ele>
        <time>2016-01-21T16:18:22.000Z</time>
      </trkpt>
      <trkpt lat="47.52632" lon="6.76058">
        <ele>365.2</ele>
        <time>2016-01-21T16:18:29.000Z</time>
      </trkpt>
      <trkpt lat="47.52631" lon="6.76059">
        <ele>365.3</ele>
        <time>2016-01-21T16:18:30.000Z</time>
      </trkpt>
      <trkpt lat="47.52627" lon="6.76062">
        <ele>365.9</ele>
        <time>2016-01-21T16:18:36.000Z</time>
      </trkpt>
      <trkpt lat="47.52627" lon="6.76063">
        <ele>365.7</ele>
        <time>2016-01-21T16:18:37.000Z</time>
      </trkpt>
      <trkpt lat="47.52623" lon="6.76065">
        <ele>365.2</ele>
        <time>2016-01-21T16:18:41.000Z</time>
      </trkpt>
      <trkpt lat="47.52623" lon="6.76066">
        <ele>365.2</ele>
        <time>2016-01-21T16:18:42.001Z</time>
      </trkpt>
      <trkpt lat="47.52619" lon="6.7607">
        <ele>365.4</ele>
        <time>2016-01-21T16:18:48.000Z</time>
      </trkpt>
      <trkpt lat="47.52618" lon="6.76071">
        <ele>365</ele>
        <time>2016-01-21T16:18:49.000Z</time>
      </trkpt>
      <trkpt lat="47.52614" lon="6.76072">
        <ele>366.4</ele>
        <time>2016-01-21T16:19:05.000Z</time>
      </trkpt>
      <trkpt lat="47.52614" lon="6.76072">
        <ele>366.4</ele>
        <time>2016-01-21T16:19:06.000Z</time>
      </trkpt>
      <trkpt lat="47.52611" lon="6.76076">
        <ele>367.5</ele>
        <time>2016-01-21T16:20:12.000Z</time>
      </trkpt>
      <trkpt lat="47.52611" lon="6.76077">
        <ele>367.6</ele>
        <time>2016-01-21T16:20:13.000Z</time>
      </trkpt>
      <trkpt lat="47.52607" lon="6.7608">
        <ele>368</ele>
        <time>2016-01-21T16:20:15.000Z</time>
      </trkpt>
      <trkpt lat="47.52606" lon="6.76081">
        <ele>368.1</ele>
        <time>2016-01-21T16:20:16.000Z</time>
      </trkpt>
      <trkpt lat="47.52604" lon="6.76084">
        <ele>367.5</ele>
        <time>2016-01-21T16:20:18.000Z</time>
      </trkpt>
      <trkpt lat="47.52603" lon="6.76085">
        <ele>367.6</ele>
        <time>2016-01-21T16:20:19.000Z</time>
      </trkpt>
      <trkpt lat="47.52599" lon="6.76088">
        <ele>366.2</ele>
        <time>2016-01-21T16:20:24.000Z</time>
      </trkpt>
      <trkpt lat="47.52598" lon="6.76089">
        <ele>366.1</ele>
        <time>2016-01-21T16:20:25.000Z</time>
      </trkpt>
      <trkpt lat="47.52595" lon="6.76092">
        <ele>368.4</ele>
        <time>2016-01-21T16:20:29.000Z</time>
      </trkpt>
      <trkpt lat="47.52594" lon="6.76093">
        <ele>368.5</ele>
        <time>2016-01-21T16:20:30.000Z</time>
      </trkpt>
      <trkpt lat="47.52591" lon="6.76096">
        <ele>370.1</ele>
        <time>2016-01-21T16:20:34.000Z</time>
      </trkpt>
      <trkpt lat="47.5259" lon="6.76096">
        <ele>370.1</ele>
        <time>2016-01-21T16:20:35.000Z</time>
      </trkpt>
      <trkpt lat="47.52586" lon="6.76099">
        <ele>368.3</ele>
        <time>2016-01-21T16:20:38.000Z</time>
      </trkpt>
      <trkpt lat="47.52585" lon="6.761">
        <ele>368.4</ele>
        <time>2016-01-21T16:20:39.000Z</time>
      </trkpt>
      <trkpt lat="47.52582" lon="6.76103">
        <ele>368.7</ele>
        <time>2016-01-21T16:20:41.000Z</time>
      </trkpt>
      <trkpt lat="47.5258" lon="6.76105">
        <ele>368.7</ele>
        <time>2016-01-21T16:20:42.000Z</time>
      </trkpt>
      <trkpt lat="47.52576" lon="6.76107">
        <ele>369.4</ele>
        <time>2016-01-21T16:20:44.000Z</time>
      </trkpt>
      <trkpt lat="47.52574" lon="6.76109">
        <ele>369.8</ele>
        <time>2016-01-21T16:20:45.000Z</time>
      </trkpt>
      <trkpt lat="47.52571" lon="6.76112">
        <ele>370.7</ele>
        <time>2016-01-21T16:20:47.000Z</time>
      </trkpt>
      <trkpt lat="47.52569" lon="6.76114">
        <ele>371</ele>
        <time>2016-01-21T16:20:48.000Z</time>
      </trkpt>
      <trkpt lat="47.52565" lon="6.76117">
        <ele>371.7</ele>
        <time>2016-01-21T16:20:50.000Z</time>
      </trkpt>
      <trkpt lat="47.52563" lon="6.76119">
        <ele>371.4</ele>
        <time>2016-01-21T16:20:51.000Z</time>
      </trkpt>
      <trkpt lat="47.5256" lon="6.76121">
        <ele>371.3</ele>
        <time>2016-01-21T16:20:53.000Z</time>
      </trkpt>
      <trkpt lat="47.52558" lon="6.76123">
        <ele>371.5</ele>
        <time>2016-01-21T16:20:54.000Z</time>
      </trkpt>
      <trkpt lat="47.52556" lon="6.76126">
        <ele>371.9</ele>
        <time>2016-01-21T16:20:56.000Z</time>
      </trkpt>
      <trkpt lat="47.52555" lon="6.76128">
        <ele>372.3</ele>
        <time>2016-01-21T16:20:57.000Z</time>
      </trkpt>
      <trkpt lat="47.52553" lon="6.76132">
        <ele>371.8</ele>
        <time>2016-01-21T16:20:59.000Z</time>
      </trkpt>
      <trkpt lat="47.52551" lon="6.76134">
        <ele>372.1</ele>
        <time>2016-01-21T16:21:00.000Z</time>
      </trkpt>
      <trkpt lat="47.52549" lon="6.76137">
        <ele>370.9</ele>
        <time>2016-01-21T16:21:02.023Z</time>
      </trkpt>
      <trkpt lat="47.52548" lon="6.76138">
        <ele>371.4</ele>
        <time>2016-01-21T16:21:03.000Z</time>
      </trkpt>
      <trkpt lat="47.52545" lon="6.76142">
        <ele>372.5</ele>
        <time>2016-01-21T16:21:05.000Z</time>
      </trkpt>
      <trkpt lat="47.52544" lon="6.76144">
        <ele>372.3</ele>
        <time>2016-01-21T16:21:06.000Z</time>
      </trkpt>
      <trkpt lat="47.52541" lon="6.76149">
        <ele>372.7</ele>
        <time>2016-01-21T16:21:08.000Z</time>
      </trkpt>
      <trkpt lat="47.5254" lon="6.76151">
        <ele>371.5</ele>
        <time>2016-01-21T16:21:09.000Z</time>
      </trkpt>
      <trkpt lat="47.52538" lon="6.76154">
        <ele>371.9</ele>
        <time>2016-01-21T16:21:11.000Z</time>
      </trkpt>
      <trkpt lat="47.52537" lon="6.76157">
        <ele>371.6</ele>
        <time>2016-01-21T16:21:12.000Z</time>
      </trkpt>
      <trkpt lat="47.52535" lon="6.76162">
        <ele>371.6</ele>
        <time>2016-01-21T16:21:14.000Z</time>
      </trkpt>
      <trkpt lat="47.52534" lon="6.76164">
        <ele>372</ele>
        <time>2016-01-21T16:21:15.000Z</time>
      </trkpt>
      <trkpt lat="47.52532" lon="6.76168">
        <ele>372.3</ele>
        <time>2016-01-21T16:21:17.000Z</time>
      </trkpt>
      <trkpt lat="47.52531" lon="6.7617">
        <ele>372.8</ele>
        <time>2016-01-21T16:21:18.000Z</time>
      </trkpt>
      <trkpt lat="47.52529" lon="6.76174">
        <ele>373.8</ele>
        <time>2016-01-21T16:21:20.000Z</time>
      </trkpt>
      <trkpt lat="47.52528" lon="6.76175">
        <ele>374.3</ele>
        <time>2016-01-21T16:21:21.000Z</time>
      </trkpt>
      <trkpt lat="47.52525" lon="6.76179">
        <ele>374.9</ele>
        <time>2016-01-21T16:21:23.000Z</time>
      </trkpt>
      <trkpt lat="47.52524" lon="6.7618">
        <ele>375.1</ele>
        <time>2016-01-21T16:21:24.000Z</time>
      </trkpt>
      <trkpt lat="47.52522" lon="6.76183">
        <ele>375.7</ele>
        <time>2016-01-21T16:21:26.000Z</time>
      </trkpt>
      <trkpt lat="47.5252" lon="6.76185">
        <ele>378.8</ele>
        <time>2016-01-21T16:21:27.000Z</time>
      </trkpt>
      <trkpt lat="47.52517" lon="6.7619">
        <ele>378.7</ele>
        <time>2016-01-21T16:21:29.000Z</time>
      </trkpt>
      <trkpt lat="47.52516" lon="6.76192">
        <ele>379</ele>
        <time>2016-01-21T16:21:30.000Z</time>
      </trkpt>
      <trkpt lat="47.52514" lon="6.76197">
        <ele>379.1</ele>
        <time>2016-01-21T16:21:32.000Z</time>
      </trkpt>
      <trkpt lat="47.52512" lon="6.76199">
        <ele>379.1</ele>
        <time>2016-01-21T16:21:33.000Z</time>
      </trkpt>
      <trkpt lat="47.5251" lon="6.76202">
        <ele>379.4</ele>
        <time>2016-01-21T16:21:34.000Z</time>
      </trkpt>
      <trkpt lat="47.52508" lon="6.76205">
        <ele>379.5</ele>
        <time>2016-01-21T16:21:35.000Z</time>
      </trkpt>
      <trkpt lat="47.52507" lon="6.76207">
        <ele>379.5</ele>
        <time>2016-01-21T16:21:36.000Z</time>
      </trkpt>
      <trkpt lat="47.52505" lon="6.7621">
        <ele>379.5</ele>
        <time>2016-01-21T16:21:37.000Z</time>
      </trkpt>
      <trkpt lat="47.52503" lon="6.76212">
        <ele>380.1</ele>
        <time>2016-01-21T16:21:38.000Z</time>
      </trkpt>
      <trkpt lat="47.52502" lon="6.76215">
        <ele>379.7</ele>
        <time>2016-01-21T16:21:39.000Z</time>
      </trkpt>
      <trkpt lat="47.52499" lon="6.76218">
        <ele>379</ele>
        <time>2016-01-21T16:21:41.000Z</time>
      </trkpt>
      <trkpt lat="47.52497" lon="6.7622">
        <ele>378.8</ele>
        <time>2016-01-21T16:21:42.000Z</time>
      </trkpt>
      <trkpt lat="47.52494" lon="6.76223">
        <ele>380.6</ele>
        <time>2016-01-21T16:21:44.000Z</time>
      </trkpt>
      <trkpt lat="47.52492" lon="6.76224">
        <ele>381.8</ele>
        <time>2016-01-21T16:21:45.000Z</time>
      </trkpt>
      <trkpt lat="47.52489" lon="6.76224">
        <ele>379.9</ele>
        <time>2016-01-21T16:21:47.000Z</time>
      </trkpt>
      <trkpt lat="47.52488" lon="6.76222">
        <ele>379.4</ele>
        <time>2016-01-21T16:21:48.000Z</time>
      </trkpt>
      <trkpt lat="47.52485" lon="6.76218">
        <ele>379.4</ele>
        <time>2016-01-21T16:21:50.000Z</time>
      </trkpt>
      <trkpt lat="47.52483" lon="6.76215">
        <ele>379.9</ele>
        <time>2016-01-21T16:21:51.000Z</time>
      </trkpt>
      <trkpt lat="47.52481" lon="6.76213">
        <ele>381.1</ele>
        <time>2016-01-21T16:21:52.000Z</time>
      </trkpt>
      <trkpt lat="47.52479" lon="6.7621">
        <ele>383</ele>
        <time>2016-01-21T16:21:53.000Z</time>
      </trkpt>
      <trkpt lat="47.52478" lon="6.76208">
        <ele>383.4</ele>
        <time>2016-01-21T16:21:54.000Z</time>
      </trkpt>
      <trkpt lat="47.52476" lon="6.76205">
        <ele>382.9</ele>
        <time>2016-01-21T16:21:55.000Z</time>
      </trkpt>
      <trkpt lat="47.52474" lon="6.76202">
        <ele>383.5</ele>
        <time>2016-01-21T16:21:56.000Z</time>
      </trkpt>
      <trkpt lat="47.52473" lon="6.762">
        <ele>384</ele>
        <time>2016-01-21T16:21:57.000Z</time>
      </trkpt>
      <trkpt lat="47.52472" lon="6.76197">
        <ele>384</ele>
        <time>2016-01-21T16:21:58.000Z</time>
      </trkpt>
      <trkpt lat="47.5247" lon="6.76195">
        <ele>384</ele>
        <time>2016-01-21T16:21:59.000Z</time>
      </trkpt>
      <trkpt lat="47.52467" lon="6.7619">
        <ele>383.7</ele>
        <time>2016-01-21T16:22:01.000Z</time>
      </trkpt>
      <trkpt lat="47.52466" lon="6.76189">
        <ele>384.3</ele>
        <time>2016-01-21T16:22:02.000Z</time>
      </trkpt>
      <trkpt lat="47.52462" lon="6.76192">
        <ele>385</ele>
        <time>2016-01-21T16:22:04.000Z</time>
      </trkpt>
      <trkpt lat="47.5246" lon="6.76194">
        <ele>385.6</ele>
        <time>2016-01-21T16:22:05.000Z</time>
      </trkpt>
      <trkpt lat="47.52457" lon="6.76198">
        <ele>386.6</ele>
        <time>2016-01-21T16:22:07.000Z</time>
      </trkpt>
      <trkpt lat="47.52455" lon="6.76199">
        <ele>387.1</ele>
        <time>2016-01-21T16:22:08.000Z</time>
      </trkpt>
      <trkpt lat="47.52453" lon="6.76204">
        <ele>388.9</ele>
        <time>2016-01-21T16:22:10.000Z</time>
      </trkpt>
      <trkpt lat="47.52451" lon="6.76205">
        <ele>388.6</ele>
        <time>2016-01-21T16:22:11.000Z</time>
      </trkpt>
      <trkpt lat="47.52448" lon="6.76209">
        <ele>389.3</ele>
        <time>2016-01-21T16:22:14.000Z</time>
      </trkpt>
      <trkpt lat="47.52446" lon="6.76211">
        <ele>389.4</ele>
        <time>2016-01-21T16:22:15.000Z</time>
      </trkpt>
      <trkpt lat="47.52443" lon="6.76215">
        <ele>390.2</ele>
        <time>2016-01-21T16:22:17.000Z</time>
      </trkpt>
      <trkpt lat="47.52441" lon="6.76217">
        <ele>390.3</ele>
        <time>2016-01-21T16:22:18.000Z</time>
      </trkpt>
      <trkpt lat="47.52438" lon="6.7622">
        <ele>390.1</ele>
        <time>2016-01-21T16:22:20.000Z</time>
      </trkpt>
      <trkpt lat="47.52436" lon="6.76222">
        <ele>389.7</ele>
        <time>2016-01-21T16:22:21.000Z</time>
      </trkpt>
      <trkpt lat="47.52433" lon="6.76225">
        <ele>390.2</ele>
        <time>2016-01-21T16:22:23.000Z</time>
      </trkpt>
      <trkpt lat="47.52431" lon="6.76226">
        <ele>390.3</ele>
        <time>2016-01-21T16:22:24.000Z</time>
      </trkpt>
      <trkpt lat="47.52427" lon="6.76229">
        <ele>390.3</ele>
        <time>2016-01-21T16:22:26.000Z</time>
      </trkpt>
      <trkpt lat="47.52426" lon="6.76231">
        <ele>390.3</ele>
        <time>2016-01-21T16:22:27.000Z</time>
      </trkpt>
      <trkpt lat="47.52422" lon="6.76234">
        <ele>390.9</ele>
        <time>2016-01-21T16:22:29.000Z</time>
      </trkpt>
      <trkpt lat="47.5242" lon="6.76236">
        <ele>392.5</ele>
        <time>2016-01-21T16:22:30.000Z</time>
      </trkpt>
      <trkpt lat="47.52416" lon="6.7624">
        <ele>391.2</ele>
        <time>2016-01-21T16:22:32.000Z</time>
      </trkpt>
      <trkpt lat="47.52415" lon="6.76241">
        <ele>391.5</ele>
        <time>2016-01-21T16:22:33.000Z</time>
      </trkpt>
      <trkpt lat="47.52412" lon="6.76245">
        <ele>392.1</ele>
        <time>2016-01-21T16:22:35.000Z</time>
      </trkpt>
      <trkpt lat="47.52411" lon="6.76247">
        <ele>392.6</ele>
        <time>2016-01-21T16:22:36.000Z</time>
      </trkpt>
      <trkpt lat="47.52409" lon="6.76249">
        <ele>393.3</ele>
        <time>2016-01-21T16:22:37.000Z</time>
      </trkpt>
      <trkpt lat="47.52407" lon="6.76252">
        <ele>394</ele>
        <time>2016-01-21T16:22:38.000Z</time>
      </trkpt>
      <trkpt lat="47.52405" lon="6.76254">
        <ele>394.7</ele>
        <time>2016-01-21T16:22:39.000Z</time>
      </trkpt>
      <trkpt lat="47.52403" lon="6.76257">
        <ele>395.1</ele>
        <time>2016-01-21T16:22:40.000Z</time>
      </trkpt>
      <trkpt lat="47.52401" lon="6.7626">
        <ele>395.5</ele>
        <time>2016-01-21T16:22:41.000Z</time>
      </trkpt>
      <trkpt lat="47.52399" lon="6.76262">
        <ele>395.8</ele>
        <time>2016-01-21T16:22:42.000Z</time>
      </trkpt>
      <trkpt lat="47.52397" lon="6.76265">
        <ele>397.5</ele>
        <time>2016-01-21T16:22:43.000Z</time>
      </trkpt>
      <trkpt lat="47.52395" lon="6.76269">
        <ele>398.9</ele>
        <time>2016-01-21T16:22:44.000Z</time>
      </trkpt>
      <trkpt lat="47.52394" lon="6.76272">
        <ele>398.9</ele>
        <time>2016-01-21T16:22:45.000Z</time>
      </trkpt>
      <trkpt lat="47.52393" lon="6.76274">
        <ele>396.9</ele>
        <time>2016-01-21T16:22:46.000Z</time>
      </trkpt>
      <trkpt lat="47.52391" lon="6.76278">
        <ele>396.3</ele>
        <time>2016-01-21T16:22:48.000Z</time>
      </trkpt>
      <trkpt lat="47.5239" lon="6.76279">
        <ele>396.2</ele>
        <time>2016-01-21T16:22:49.000Z</time>
      </trkpt>
      <trkpt lat="47.52387" lon="6.76284">
        <ele>397.3</ele>
        <time>2016-01-21T16:22:51.000Z</time>
      </trkpt>
      <trkpt lat="47.52385" lon="6.76286">
        <ele>397.6</ele>
        <time>2016-01-21T16:22:52.000Z</time>
      </trkpt>
      <trkpt lat="47.52383" lon="6.76289">
        <ele>398.3</ele>
        <time>2016-01-21T16:22:53.000Z</time>
      </trkpt>
      <trkpt lat="47.52381" lon="6.76292">
        <ele>399.3</ele>
        <time>2016-01-21T16:22:54.000Z</time>
      </trkpt>
      <trkpt lat="47.5238" lon="6.76295">
        <ele>399.6</ele>
        <time>2016-01-21T16:22:55.000Z</time>
      </trkpt>
      <trkpt lat="47.52378" lon="6.76298">
        <ele>399.9</ele>
        <time>2016-01-21T16:22:56.000Z</time>
      </trkpt>
      <trkpt lat="47.52377" lon="6.76301">
        <ele>398.5</ele>
        <time>2016-01-21T16:22:57.000Z</time>
      </trkpt>
      <trkpt lat="47.52376" lon="6.76303">
        <ele>397.4</ele>
        <time>2016-01-21T16:22:58.000Z</time>
      </trkpt>
      <trkpt lat="47.52373" lon="6.76309">
        <ele>396.6</ele>
        <time>2016-01-21T16:23:00.000Z</time>
      </trkpt>
      <trkpt lat="47.52372" lon="6.76312">
        <ele>396.8</ele>
        <time>2016-01-21T16:23:01.000Z</time>
      </trkpt>
      <trkpt lat="47.5237" lon="6.76314">
        <ele>397.2</ele>
        <time>2016-01-21T16:23:02.000Z</time>
      </trkpt>
      <trkpt lat="47.52369" lon="6.76317">
        <ele>398.8</ele>
        <time>2016-01-21T16:23:03.000Z</time>
      </trkpt>
      <trkpt lat="47.52366" lon="6.76322">
        <ele>399.3</ele>
        <time>2016-01-21T16:23:05.000Z</time>
      </trkpt>
      <trkpt lat="47.52365" lon="6.76325">
        <ele>399.9</ele>
        <time>2016-01-21T16:23:06.000Z</time>
      </trkpt>
      <trkpt lat="47.52364" lon="6.76331">
        <ele>397.4</ele>
        <time>2016-01-21T16:23:09.000Z</time>
      </trkpt>
      <trkpt lat="47.52364" lon="6.76333">
        <ele>396.7</ele>
        <time>2016-01-21T16:23:10.000Z</time>
      </trkpt>
      <trkpt lat="47.52363" lon="6.76338">
        <ele>397.7</ele>
        <time>2016-01-21T16:23:12.000Z</time>
      </trkpt>
      <trkpt lat="47.52361" lon="6.76341">
        <ele>398.4</ele>
        <time>2016-01-21T16:23:13.000Z</time>
      </trkpt>
      <trkpt lat="47.5236" lon="6.76344">
        <ele>399.3</ele>
        <time>2016-01-21T16:23:14.000Z</time>
      </trkpt>
      <trkpt lat="47.52359" lon="6.76348">
        <ele>399.9</ele>
        <time>2016-01-21T16:23:15.000Z</time>
      </trkpt>
      <trkpt lat="47.52357" lon="6.76351">
        <ele>399.3</ele>
        <time>2016-01-21T16:23:16.000Z</time>
      </trkpt>
      <trkpt lat="47.52356" lon="6.76354">
        <ele>399</ele>
        <time>2016-01-21T16:23:17.000Z</time>
      </trkpt>
      <trkpt lat="47.52355" lon="6.76358">
        <ele>400.2</ele>
        <time>2016-01-21T16:23:18.000Z</time>
      </trkpt>
      <trkpt lat="47.52354" lon="6.76362">
        <ele>400.5</ele>
        <time>2016-01-21T16:23:19.000Z</time>
      </trkpt>
      <trkpt lat="47.52352" lon="6.76366">
        <ele>402.3</ele>
        <time>2016-01-21T16:23:20.000Z</time>
      </trkpt>
      <trkpt lat="47.52351" lon="6.7637">
        <ele>404.1</ele>
        <time>2016-01-21T16:23:21.000Z</time>
      </trkpt>
      <trkpt lat="47.52349" lon="6.76374">
        <ele>405</ele>
        <time>2016-01-21T16:23:22.000Z</time>
      </trkpt>
      <trkpt lat="47.52348" lon="6.76378">
        <ele>405</ele>
        <time>2016-01-21T16:23:23.000Z</time>
      </trkpt>
      <trkpt lat="47.52347" lon="6.76381">
        <ele>404.9</ele>
        <time>2016-01-21T16:23:24.000Z</time>
      </trkpt>
      <trkpt lat="47.52346" lon="6.76384">
        <ele>405.2</ele>
        <time>2016-01-21T16:23:25.000Z</time>
      </trkpt>
      <trkpt lat="47.52346" lon="6.76387">
        <ele>405.6</ele>
        <time>2016-01-21T16:23:26.000Z</time>
      </trkpt>
      <trkpt lat="47.52345" lon="6.76391">
        <ele>405.3</ele>
        <time>2016-01-21T16:23:27.000Z</time>
      </trkpt>
      <trkpt lat="47.52344" lon="6.76394">
        <ele>405.6</ele>
        <time>2016-01-21T16:23:28.000Z</time>
      </trkpt>
      <trkpt lat="47.52343" lon="6.76397">
        <ele>406.7</ele>
        <time>2016-01-21T16:23:29.000Z</time>
      </trkpt>
      <trkpt lat="47.52342" lon="6.76401">
        <ele>406</ele>
        <time>2016-01-21T16:23:30.000Z</time>
      </trkpt>
      <trkpt lat="47.52342" lon="6.76404">
        <ele>405.9</ele>
        <time>2016-01-21T16:23:31.000Z</time>
      </trkpt>
      <trkpt lat="47.5234" lon="6.7641">
        <ele>405.6</ele>
        <time>2016-01-21T16:23:33.000Z</time>
      </trkpt>
      <trkpt lat="47.5234" lon="6.76413">
        <ele>406.1</ele>
        <time>2016-01-21T16:23:34.000Z</time>
      </trkpt>
      <trkpt lat="47.52339" lon="6.76417">
        <ele>405.5</ele>
        <time>2016-01-21T16:23:35.000Z</time>
      </trkpt>
      <trkpt lat="47.52339" lon="6.7642">
        <ele>405.6</ele>
        <time>2016-01-21T16:23:36.000Z</time>
      </trkpt>
      <trkpt lat="47.52338" lon="6.76427">
        <ele>405.3</ele>
        <time>2016-01-21T16:23:37.999Z</time>
      </trkpt>
      <trkpt lat="47.52339" lon="6.76428">
        <ele>402.7</ele>
        <time>2016-01-21T16:23:39.000Z</time>
      </trkpt>
      <trkpt lat="47.52339" lon="6.76434">
        <ele>399.5</ele>
        <time>2016-01-21T16:23:42.000Z</time>
      </trkpt>
      <trkpt lat="47.5234" lon="6.76436">
        <ele>398.9</ele>
        <time>2016-01-21T16:23:43.000Z</time>
      </trkpt>
      <trkpt lat="47.5234" lon="6.7644">
        <ele>400.4</ele>
        <time>2016-01-21T16:23:44.001Z</time>
      </trkpt>
      <trkpt lat="47.52339" lon="6.76445">
        <ele>400.7</ele>
        <time>2016-01-21T16:23:45.000Z</time>
      </trkpt>
      <trkpt lat="47.52339" lon="6.7645">
        <ele>400.1</ele>
        <time>2016-01-21T16:23:46.000Z</time>
      </trkpt>
      <trkpt lat="47.52339" lon="6.76453">
        <ele>399.5</ele>
        <time>2016-01-21T16:23:47.000Z</time>
      </trkpt>
      <trkpt lat="47.52338" lon="6.76459">
        <ele>399.7</ele>
        <time>2016-01-21T16:23:49.000Z</time>
      </trkpt>
      <trkpt lat="47.52338" lon="6.76462">
        <ele>399.4</ele>
        <time>2016-01-21T16:23:50.000Z</time>
      </trkpt>
      <trkpt lat="47.52337" lon="6.76467">
        <ele>398.7</ele>
        <time>2016-01-21T16:23:52.000Z</time>
      </trkpt>
      <trkpt lat="47.52337" lon="6.76469">
        <ele>398.6</ele>
        <time>2016-01-21T16:23:53.000Z</time>
      </trkpt>
      <trkpt lat="47.52337" lon="6.76475">
        <ele>399</ele>
        <time>2016-01-21T16:23:55.000Z</time>
      </trkpt>
      <trkpt lat="47.52336" lon="6.76478">
        <ele>399.1</ele>
        <time>2016-01-21T16:23:56.000Z</time>
      </trkpt>
      <trkpt lat="47.52336" lon="6.76485">
        <ele>400</ele>
        <time>2016-01-21T16:23:58.000Z</time>
      </trkpt>
      <trkpt lat="47.52336" lon="6.76487">
        <ele>399.2</ele>
        <time>2016-01-21T16:23:59.000Z</time>
      </trkpt>
      <trkpt lat="47.52336" lon="6.76493">
        <ele>399.1</ele>
        <time>2016-01-21T16:24:01.000Z</time>
      </trkpt>
      <trkpt lat="47.52336" lon="6.76495">
        <ele>399.3</ele>
        <time>2016-01-21T16:24:01.999Z</time>
      </trkpt>
      <trkpt lat="47.52336" lon="6.765">
        <ele>395.8</ele>
        <time>2016-01-21T16:24:04.000Z</time>
      </trkpt>
      <trkpt lat="47.52336" lon="6.76502">
        <ele>396.9</ele>
        <time>2016-01-21T16:24:05.000Z</time>
      </trkpt>
      <trkpt lat="47.52335" lon="6.76509">
        <ele>399.2</ele>
        <time>2016-01-21T16:24:06.000Z</time>
      </trkpt>
      <trkpt lat="47.52335" lon="6.76515">
        <ele>400.7</ele>
        <time>2016-01-21T16:24:07.000Z</time>
      </trkpt>
      <trkpt lat="47.52335" lon="6.76519">
        <ele>402</ele>
        <time>2016-01-21T16:24:08.000Z</time>
      </trkpt>
      <trkpt lat="47.52336" lon="6.76526">
        <ele>401.5</ele>
        <time>2016-01-21T16:24:10.000Z</time>
      </trkpt>
      <trkpt lat="47.52336" lon="6.76528">
        <ele>400.4</ele>
        <time>2016-01-21T16:24:11.000Z</time>
      </trkpt>
      <trkpt lat="47.52336" lon="6.76534">
        <ele>399.9</ele>
        <time>2016-01-21T16:24:13.000Z</time>
      </trkpt>
      <trkpt lat="47.52336" lon="6.76537">
        <ele>399.4</ele>
        <time>2016-01-21T16:24:14.000Z</time>
      </trkpt>
      <trkpt lat="47.52336" lon="6.76541">
        <ele>399.7</ele>
        <time>2016-01-21T16:24:15.000Z</time>
      </trkpt>
      <trkpt lat="47.52336" lon="6.76544">
        <ele>400</ele>
        <time>2016-01-21T16:24:16.000Z</time>
      </trkpt>
      <trkpt lat="47.52335" lon="6.76547">
        <ele>401</ele>
        <time>2016-01-21T16:24:17.000Z</time>
      </trkpt>
      <trkpt lat="47.52335" lon="6.76551">
        <ele>401.8</ele>
        <time>2016-01-21T16:24:18.000Z</time>
      </trkpt>
      <trkpt lat="47.52334" lon="6.76555">
        <ele>402.3</ele>
        <time>2016-01-21T16:24:19.000Z</time>
      </trkpt>
      <trkpt lat="47.52332" lon="6.76559">
        <ele>402.2</ele>
        <time>2016-01-21T16:24:20.000Z</time>
      </trkpt>
      <trkpt lat="47.52331" lon="6.76562">
        <ele>402.2</ele>
        <time>2016-01-21T16:24:21.000Z</time>
      </trkpt>
      <trkpt lat="47.52329" lon="6.76564">
        <ele>402.2</ele>
        <time>2016-01-21T16:24:22.000Z</time>
      </trkpt>
      <trkpt lat="47.52327" lon="6.76566">
        <ele>402</ele>
        <time>2016-01-21T16:24:23.000Z</time>
      </trkpt>
      <trkpt lat="47.52325" lon="6.76567">
        <ele>401.8</ele>
        <time>2016-01-21T16:24:24.000Z</time>
      </trkpt>
      <trkpt lat="47.52322" lon="6.76568">
        <ele>402</ele>
        <time>2016-01-21T16:24:25.000Z</time>
      </trkpt>
      <trkpt lat="47.52319" lon="6.76568">
        <ele>402.8</ele>
        <time>2016-01-21T16:24:26.000Z</time>
      </trkpt>
      <trkpt lat="47.52316" lon="6.76567">
        <ele>402.1</ele>
        <time>2016-01-21T16:24:27.000Z</time>
      </trkpt>
      <trkpt lat="47.52313" lon="6.76567">
        <ele>401.7</ele>
        <time>2016-01-21T16:24:28.000Z</time>
      </trkpt>
      <trkpt lat="47.52311" lon="6.76566">
        <ele>402.5</ele>
        <time>2016-01-21T16:24:29.000Z</time>
      </trkpt>
      <trkpt lat="47.52308" lon="6.76566">
        <ele>403</ele>
        <time>2016-01-21T16:24:30.000Z</time>
      </trkpt>
      <trkpt lat="47.52306" lon="6.76566">
        <ele>402.2</ele>
        <time>2016-01-21T16:24:31.000Z</time>
      </trkpt>
      <trkpt lat="47.52303" lon="6.76566">
        <ele>401.7</ele>
        <time>2016-01-21T16:24:32.000Z</time>
      </trkpt>
      <trkpt lat="47.52301" lon="6.76565">
        <ele>401.4</ele>
        <time>2016-01-21T16:24:33.000Z</time>
      </trkpt>
      <trkpt lat="47.52298" lon="6.76564">
        <ele>400.3</ele>
        <time>2016-01-21T16:24:34.000Z</time>
      </trkpt>
      <trkpt lat="47.52294" lon="6.76562">
        <ele>400.3</ele>
        <time>2016-01-21T16:24:35.999Z</time>
      </trkpt>
      <trkpt lat="47.52292" lon="6.76561">
        <ele>399.3</ele>
        <time>2016-01-21T16:24:37.000Z</time>
      </trkpt>
      <trkpt lat="47.52288" lon="6.7656">
        <ele>398.3</ele>
        <time>2016-01-21T16:24:39.000Z</time>
      </trkpt>
      <trkpt lat="47.52286" lon="6.76559">
        <ele>398.8</ele>
        <time>2016-01-21T16:24:40.000Z</time>
      </trkpt>
      <trkpt lat="47.52282" lon="6.76557">
        <ele>399</ele>
        <time>2016-01-21T16:24:42.000Z</time>
      </trkpt>
      <trkpt lat="47.5228" lon="6.76555">
        <ele>398.2</ele>
        <time>2016-01-21T16:24:43.000Z</time>
      </trkpt>
      <trkpt lat="47.52276" lon="6.76553">
        <ele>396.2</ele>
        <time>2016-01-21T16:24:45.000Z</time>
      </trkpt>
      <trkpt lat="47.52274" lon="6.76552">
        <ele>396.6</ele>
        <time>2016-01-21T16:24:46.000Z</time>
      </trkpt>
      <trkpt lat="47.5227" lon="6.7655">
        <ele>396.1</ele>
        <time>2016-01-21T16:24:48.000Z</time>
      </trkpt>
      <trkpt lat="47.52268" lon="6.76549">
        <ele>396.6</ele>
        <time>2016-01-21T16:24:49.000Z</time>
      </trkpt>
      <trkpt lat="47.52266" lon="6.76548">
        <ele>396.7</ele>
        <time>2016-01-21T16:24:50.000Z</time>
      </trkpt>
      <trkpt lat="47.52263" lon="6.76547">
        <ele>398.4</ele>
        <time>2016-01-21T16:24:51.000Z</time>
      </trkpt>
      <trkpt lat="47.52261" lon="6.76546">
        <ele>399.9</ele>
        <time>2016-01-21T16:24:52.000Z</time>
      </trkpt>
      <trkpt lat="47.52258" lon="6.76545">
        <ele>398.9</ele>
        <time>2016-01-21T16:24:53.000Z</time>
      </trkpt>
      <trkpt lat="47.52256" lon="6.76544">
        <ele>398.5</ele>
        <time>2016-01-21T16:24:54.000Z</time>
      </trkpt>
      <trkpt lat="47.52253" lon="6.76543">
        <ele>397.6</ele>
        <time>2016-01-21T16:24:55.000Z</time>
      </trkpt>
      <trkpt lat="47.52249" lon="6.76541">
        <ele>397.9</ele>
        <time>2016-01-21T16:24:57.000Z</time>
      </trkpt>
      <trkpt lat="47.52247" lon="6.7654">
        <ele>398.3</ele>
        <time>2016-01-21T16:24:58.000Z</time>
      </trkpt>
      <trkpt lat="47.52245" lon="6.76539">
        <ele>398.6</ele>
        <time>2016-01-21T16:24:59.000Z</time>
      </trkpt>
      <trkpt lat="47.52243" lon="6.76538">
        <ele>398.2</ele>
        <time>2016-01-21T16:25:00.000Z</time>
      </trkpt>
      <trkpt lat="47.5224" lon="6.76537">
        <ele>398.2</ele>
        <time>2016-01-21T16:25:01.000Z</time>
      </trkpt>
      <trkpt lat="47.52238" lon="6.76535">
        <ele>396.8</ele>
        <time>2016-01-21T16:25:02.000Z</time>
      </trkpt>
      <trkpt lat="47.52235" lon="6.76534">
        <ele>396.2</ele>
        <time>2016-01-21T16:25:03.000Z</time>
      </trkpt>
      <trkpt lat="47.52232" lon="6.76533">
        <ele>395.6</ele>
        <time>2016-01-21T16:25:04.000Z</time>
      </trkpt>
      <trkpt lat="47.5223" lon="6.76531">
        <ele>394</ele>
        <time>2016-01-21T16:25:05.000Z</time>
      </trkpt>
      <trkpt lat="47.52227" lon="6.76529">
        <ele>393.3</ele>
        <time>2016-01-21T16:25:06.000Z</time>
      </trkpt>
      <trkpt lat="47.52224" lon="6.76528">
        <ele>392.4</ele>
        <time>2016-01-21T16:25:07.000Z</time>
      </trkpt>
      <trkpt lat="47.52221" lon="6.76526">
        <ele>392.5</ele>
        <time>2016-01-21T16:25:08.000Z</time>
      </trkpt>
      <trkpt lat="47.52218" lon="6.76525">
        <ele>392.6</ele>
        <time>2016-01-21T16:25:09.000Z</time>
      </trkpt>
      <trkpt lat="47.52216" lon="6.76524">
        <ele>392.2</ele>
        <time>2016-01-21T16:25:10.000Z</time>
      </trkpt>
      <trkpt lat="47.52213" lon="6.76523">
        <ele>392.2</ele>
        <time>2016-01-21T16:25:11.000Z</time>
      </trkpt>
      <trkpt lat="47.5221" lon="6.76521">
        <ele>392.6</ele>
        <time>2016-01-21T16:25:12.000Z</time>
      </trkpt>
      <trkpt lat="47.52208" lon="6.7652">
        <ele>391.5</ele>
        <time>2016-01-21T16:25:13.000Z</time>
      </trkpt>
      <trkpt lat="47.52205" lon="6.76519">
        <ele>390.8</ele>
        <time>2016-01-21T16:25:14.000Z</time>
      </trkpt>
      <trkpt lat="47.52203" lon="6.76518">
        <ele>390.9</ele>
        <time>2016-01-21T16:25:15.000Z</time>
      </trkpt>
      <trkpt lat="47.52201" lon="6.76517">
        <ele>391.3</ele>
        <time>2016-01-21T16:25:16.000Z</time>
      </trkpt>
      <trkpt lat="47.52198" lon="6.76516">
        <ele>391.1</ele>
        <time>2016-01-21T16:25:17.000Z</time>
      </trkpt>
      <trkpt lat="47.52196" lon="6.76515">
        <ele>390.7</ele>
        <time>2016-01-21T16:25:18.000Z</time>
      </trkpt>
      <trkpt lat="47.52193" lon="6.76514">
        <ele>390</ele>
        <time>2016-01-21T16:25:19.000Z</time>
      </trkpt>
      <trkpt lat="47.52191" lon="6.76513">
        <ele>389.4</ele>
        <time>2016-01-21T16:25:20.000Z</time>
      </trkpt>
      <trkpt lat="47.52189" lon="6.76511">
        <ele>388.3</ele>
        <time>2016-01-21T16:25:21.000Z</time>
      </trkpt>
      <trkpt lat="47.52186" lon="6.7651">
        <ele>387.4</ele>
        <time>2016-01-21T16:25:22.000Z</time>
      </trkpt>
      <trkpt lat="47.52184" lon="6.76508">
        <ele>386.6</ele>
        <time>2016-01-21T16:25:23.000Z</time>
      </trkpt>
      <trkpt lat="47.52182" lon="6.76507">
        <ele>386.6</ele>
        <time>2016-01-21T16:25:24.000Z</time>
      </trkpt>
      <trkpt lat="47.52179" lon="6.76505">
        <ele>385.8</ele>
        <time>2016-01-21T16:25:25.000Z</time>
      </trkpt>
      <trkpt lat="47.52176" lon="6.76504">
        <ele>384.7</ele>
        <time>2016-01-21T16:25:26.000Z</time>
      </trkpt>
      <trkpt lat="47.52173" lon="6.76502">
        <ele>384.3</ele>
        <time>2016-01-21T16:25:27.000Z</time>
      </trkpt>
      <trkpt lat="47.5217" lon="6.76501">
        <ele>384.1</ele>
        <time>2016-01-21T16:25:28.000Z</time>
      </trkpt>
      <trkpt lat="47.52167" lon="6.76499">
        <ele>383.3</ele>
        <time>2016-01-21T16:25:29.000Z</time>
      </trkpt>
      <trkpt lat="47.52164" lon="6.76498">
        <ele>382.3</ele>
        <time>2016-01-21T16:25:30.000Z</time>
      </trkpt>
      <trkpt lat="47.52161" lon="6.76496">
        <ele>381.8</ele>
        <time>2016-01-21T16:25:31.000Z</time>
      </trkpt>
      <trkpt lat="47.52159" lon="6.76494">
        <ele>382.2</ele>
        <time>2016-01-21T16:25:32.000Z</time>
      </trkpt>
      <trkpt lat="47.52156" lon="6.76493">
        <ele>381.7</ele>
        <time>2016-01-21T16:25:33.000Z</time>
      </trkpt>
      <trkpt lat="47.52153" lon="6.76491">
        <ele>381.8</ele>
        <time>2016-01-21T16:25:34.000Z</time>
      </trkpt>
      <trkpt lat="47.5215" lon="6.76489">
        <ele>380.7</ele>
        <time>2016-01-21T16:25:35.000Z</time>
      </trkpt>
      <trkpt lat="47.52147" lon="6.76488">
        <ele>380.7</ele>
        <time>2016-01-21T16:25:36.000Z</time>
      </trkpt>
      <trkpt lat="47.52144" lon="6.76486">
        <ele>380.6</ele>
        <time>2016-01-21T16:25:37.000Z</time>
      </trkpt>
      <trkpt lat="47.52141" lon="6.76485">
        <ele>380.6</ele>
        <time>2016-01-21T16:25:38.000Z</time>
      </trkpt>
      <trkpt lat="47.52138" lon="6.76484">
        <ele>380.9</ele>
        <time>2016-01-21T16:25:39.000Z</time>
      </trkpt>
      <trkpt lat="47.52135" lon="6.76482">
        <ele>381</ele>
        <time>2016-01-21T16:25:40.000Z</time>
      </trkpt>
      <trkpt lat="47.52133" lon="6.76481">
        <ele>381.5</ele>
        <time>2016-01-21T16:25:41.000Z</time>
      </trkpt>
      <trkpt lat="47.5213" lon="6.76479">
        <ele>381.8</ele>
        <time>2016-01-21T16:25:42.000Z</time>
      </trkpt>
      <trkpt lat="47.52128" lon="6.76478">
        <ele>382.2</ele>
        <time>2016-01-21T16:25:43.000Z</time>
      </trkpt>
      <trkpt lat="47.52125" lon="6.76477">
        <ele>382.8</ele>
        <time>2016-01-21T16:25:44.000Z</time>
      </trkpt>
      <trkpt lat="47.52121" lon="6.76475">
        <ele>381.8</ele>
        <time>2016-01-21T16:25:46.000Z</time>
      </trkpt>
      <trkpt lat="47.52119" lon="6.76474">
        <ele>381.4</ele>
        <time>2016-01-21T16:25:47.000Z</time>
      </trkpt>
      <trkpt lat="47.52117" lon="6.76474">
        <ele>382</ele>
        <time>2016-01-21T16:25:48.000Z</time>
      </trkpt>
      <trkpt lat="47.52115" lon="6.76473">
        <ele>381.2</ele>
        <time>2016-01-21T16:25:49.000Z</time>
      </trkpt>
      <trkpt lat="47.52112" lon="6.76471">
        <ele>380.9</ele>
        <time>2016-01-21T16:25:50.000Z</time>
      </trkpt>
      <trkpt lat="47.5211" lon="6.7647">
        <ele>380.3</ele>
        <time>2016-01-21T16:25:51.000Z</time>
      </trkpt>
      <trkpt lat="47.52108" lon="6.76468">
        <ele>381.8</ele>
        <time>2016-01-21T16:25:52.000Z</time>
      </trkpt>
      <trkpt lat="47.52105" lon="6.76467">
        <ele>382.8</ele>
        <time>2016-01-21T16:25:53.000Z</time>
      </trkpt>
      <trkpt lat="47.52103" lon="6.76466">
        <ele>383.6</ele>
        <time>2016-01-21T16:25:54.000Z</time>
      </trkpt>
      <trkpt lat="47.521" lon="6.76465">
        <ele>383.9</ele>
        <time>2016-01-21T16:25:55.000Z</time>
      </trkpt>
      <trkpt lat="47.52097" lon="6.76464">
        <ele>384.4</ele>
        <time>2016-01-21T16:25:56.000Z</time>
      </trkpt>
      <trkpt lat="47.52094" lon="6.76463">
        <ele>384.3</ele>
        <time>2016-01-21T16:25:57.000Z</time>
      </trkpt>
      <trkpt lat="47.52091" lon="6.76462">
        <ele>383.8</ele>
        <time>2016-01-21T16:25:58.000Z</time>
      </trkpt>
      <trkpt lat="47.52088" lon="6.76461">
        <ele>383.2</ele>
        <time>2016-01-21T16:25:59.000Z</time>
      </trkpt>
      <trkpt lat="47.52086" lon="6.76459">
        <ele>382.7</ele>
        <time>2016-01-21T16:26:00.000Z</time>
      </trkpt>
      <trkpt lat="47.52083" lon="6.76458">
        <ele>382.9</ele>
        <time>2016-01-21T16:26:01.000Z</time>
      </trkpt>
      <trkpt lat="47.52081" lon="6.76457">
        <ele>383</ele>
        <time>2016-01-21T16:26:02.000Z</time>
      </trkpt>
      <trkpt lat="47.52078" lon="6.76456">
        <ele>383.2</ele>
        <time>2016-01-21T16:26:03.000Z</time>
      </trkpt>
      <trkpt lat="47.52075" lon="6.76455">
        <ele>383.3</ele>
        <time>2016-01-21T16:26:04.000Z</time>
      </trkpt>
      <trkpt lat="47.52073" lon="6.76454">
        <ele>383.8</ele>
        <time>2016-01-21T16:26:05.000Z</time>
      </trkpt>
      <trkpt lat="47.5207" lon="6.76453">
        <ele>383.9</ele>
        <time>2016-01-21T16:26:06.000Z</time>
      </trkpt>
      <trkpt lat="47.52068" lon="6.76451">
        <ele>384.2</ele>
        <time>2016-01-21T16:26:07.000Z</time>
      </trkpt>
      <trkpt lat="47.52065" lon="6.7645">
        <ele>384.5</ele>
        <time>2016-01-21T16:26:08.000Z</time>
      </trkpt>
      <trkpt lat="47.52062" lon="6.76448">
        <ele>384.9</ele>
        <time>2016-01-21T16:26:09.000Z</time>
      </trkpt>
      <trkpt lat="47.5206" lon="6.76447">
        <ele>385.4</ele>
        <time>2016-01-21T16:26:10.000Z</time>
      </trkpt>
      <trkpt lat="47.52057" lon="6.76446">
        <ele>386</ele>
        <time>2016-01-21T16:26:11.000Z</time>
      </trkpt>
      <trkpt lat="47.52054" lon="6.76445">
        <ele>386.5</ele>
        <time>2016-01-21T16:26:12.000Z</time>
      </trkpt>
      <trkpt lat="47.52052" lon="6.76443">
        <ele>385.8</ele>
        <time>2016-01-21T16:26:13.000Z</time>
      </trkpt>
      <trkpt lat="47.52049" lon="6.76442">
        <ele>385.7</ele>
        <time>2016-01-21T16:26:14.000Z</time>
      </trkpt>
      <trkpt lat="47.52047" lon="6.76441">
        <ele>385.9</ele>
        <time>2016-01-21T16:26:15.000Z</time>
      </trkpt>
      <trkpt lat="47.52045" lon="6.7644">
        <ele>386</ele>
        <time>2016-01-21T16:26:16.000Z</time>
      </trkpt>
      <trkpt lat="47.52042" lon="6.76439">
        <ele>385.7</ele>
        <time>2016-01-21T16:26:17.000Z</time>
      </trkpt>
      <trkpt lat="47.5204" lon="6.76438">
        <ele>385.3</ele>
        <time>2016-01-21T16:26:18.000Z</time>
      </trkpt>
      <trkpt lat="47.52037" lon="6.76437">
        <ele>385.7</ele>
        <time>2016-01-21T16:26:19.000Z</time>
      </trkpt>
      <trkpt lat="47.52035" lon="6.76436">
        <ele>386</ele>
        <time>2016-01-21T16:26:20.000Z</time>
      </trkpt>
      <trkpt lat="47.52032" lon="6.76435">
        <ele>386.1</ele>
        <time>2016-01-21T16:26:21.000Z</time>
      </trkpt>
      <trkpt lat="47.5203" lon="6.76434">
        <ele>385.9</ele>
        <time>2016-01-21T16:26:22.000Z</time>
      </trkpt>
      <trkpt lat="47.52027" lon="6.76433">
        <ele>386.7</ele>
        <time>2016-01-21T16:26:23.000Z</time>
      </trkpt>
      <trkpt lat="47.52024" lon="6.76432">
        <ele>387.6</ele>
        <time>2016-01-21T16:26:24.000Z</time>
      </trkpt>
      <trkpt lat="47.52022" lon="6.76431">
        <ele>388.5</ele>
        <time>2016-01-21T16:26:25.000Z</time>
      </trkpt>
      <trkpt lat="47.52019" lon="6.7643">
        <ele>388.7</ele>
        <time>2016-01-21T16:26:26.000Z</time>
      </trkpt>
      <trkpt lat="47.52017" lon="6.76429">
        <ele>388.8</ele>
        <time>2016-01-21T16:26:27.000Z</time>
      </trkpt>
      <trkpt lat="47.52014" lon="6.76428">
        <ele>388.6</ele>
        <time>2016-01-21T16:26:28.000Z</time>
      </trkpt>
      <trkpt lat="47.52012" lon="6.76426">
        <ele>388.8</ele>
        <time>2016-01-21T16:26:29.000Z</time>
      </trkpt>
      <trkpt lat="47.52009" lon="6.76425">
        <ele>392.4</ele>
        <time>2016-01-21T16:26:30.000Z</time>
      </trkpt>
      <trkpt lat="47.52007" lon="6.76424">
        <ele>392</ele>
        <time>2016-01-21T16:26:31.000Z</time>
      </trkpt>
      <trkpt lat="47.52004" lon="6.76423">
        <ele>391.4</ele>
        <time>2016-01-21T16:26:32.000Z</time>
      </trkpt>
      <trkpt lat="47.52002" lon="6.76422">
        <ele>390.4</ele>
        <time>2016-01-21T16:26:33.000Z</time>
      </trkpt>
      <trkpt lat="47.52" lon="6.76421">
        <ele>390</ele>
        <time>2016-01-21T16:26:34.000Z</time>
      </trkpt>
      <trkpt lat="47.51997" lon="6.7642">
        <ele>389.5</ele>
        <time>2016-01-21T16:26:35.000Z</time>
      </trkpt>
      <trkpt lat="47.51995" lon="6.76418">
        <ele>388.8</ele>
        <time>2016-01-21T16:26:36.000Z</time>
      </trkpt>
      <trkpt lat="47.51993" lon="6.76417">
        <ele>388.6</ele>
        <time>2016-01-21T16:26:37.000Z</time>
      </trkpt>
      <trkpt lat="47.5199" lon="6.76415">
        <ele>388.8</ele>
        <time>2016-01-21T16:26:38.000Z</time>
      </trkpt>
      <trkpt lat="47.51988" lon="6.76414">
        <ele>389.5</ele>
        <time>2016-01-21T16:26:39.000Z</time>
      </trkpt>
      <trkpt lat="47.51986" lon="6.76413">
        <ele>390.1</ele>
        <time>2016-01-21T16:26:39.999Z</time>
      </trkpt>
      <trkpt lat="47.51983" lon="6.76411">
        <ele>388.4</ele>
        <time>2016-01-21T16:26:41.000Z</time>
      </trkpt>
      <trkpt lat="47.5198" lon="6.7641">
        <ele>388</ele>
        <time>2016-01-21T16:26:42.000Z</time>
      </trkpt>
      <trkpt lat="47.51978" lon="6.76407">
        <ele>388.2</ele>
        <time>2016-01-21T16:26:43.000Z</time>
      </trkpt>
      <trkpt lat="47.51976" lon="6.76406">
        <ele>388.3</ele>
        <time>2016-01-21T16:26:44.001Z</time>
      </trkpt>
      <trkpt lat="47.51974" lon="6.76403">
        <ele>382.7</ele>
        <time>2016-01-21T16:26:45.000Z</time>
      </trkpt>
      <trkpt lat="47.51972" lon="6.76397">
        <ele>379.8</ele>
        <time>2016-01-21T16:26:47.000Z</time>
      </trkpt>
      <trkpt lat="47.51971" lon="6.76395">
        <ele>378</ele>
        <time>2016-01-21T16:26:48.000Z</time>
      </trkpt>
      <trkpt lat="47.51967" lon="6.76393">
        <ele>373.4</ele>
        <time>2016-01-21T16:26:51.000Z</time>
      </trkpt>
      <trkpt lat="47.51965" lon="6.76395">
        <ele>373</ele>
        <time>2016-01-21T16:26:52.000Z</time>
      </trkpt>
      <trkpt lat="47.51963" lon="6.76398">
        <ele>372.7</ele>
        <time>2016-01-21T16:26:53.000Z</time>
      </trkpt>
      <trkpt lat="47.51961" lon="6.76401">
        <ele>372.6</ele>
        <time>2016-01-21T16:26:54.000Z</time>
      </trkpt>
      <trkpt lat="47.51959" lon="6.76405">
        <ele>372</ele>
        <time>2016-01-21T16:26:55.000Z</time>
      </trkpt>
      <trkpt lat="47.51957" lon="6.76408">
        <ele>372.3</ele>
        <time>2016-01-21T16:26:56.000Z</time>
      </trkpt>
      <trkpt lat="47.51955" lon="6.76412">
        <ele>372.6</ele>
        <time>2016-01-21T16:26:57.000Z</time>
      </trkpt>
      <trkpt lat="47.51954" lon="6.76416">
        <ele>372.4</ele>
        <time>2016-01-21T16:26:58.000Z</time>
      </trkpt>
      <trkpt lat="47.51952" lon="6.7642">
        <ele>371.3</ele>
        <time>2016-01-21T16:26:59.000Z</time>
      </trkpt>
      <trkpt lat="47.5195" lon="6.76423">
        <ele>371.3</ele>
        <time>2016-01-21T16:27:00.000Z</time>
      </trkpt>
      <trkpt lat="47.51949" lon="6.76426">
        <ele>371.7</ele>
        <time>2016-01-21T16:27:01.000Z</time>
      </trkpt>
      <trkpt lat="47.51947" lon="6.76429">
        <ele>371.7</ele>
        <time>2016-01-21T16:27:02.000Z</time>
      </trkpt>
      <trkpt lat="47.51946" lon="6.76432">
        <ele>371.9</ele>
        <time>2016-01-21T16:27:03.000Z</time>
      </trkpt>
      <trkpt lat="47.51944" lon="6.76436">
        <ele>371</ele>
        <time>2016-01-21T16:27:04.000Z</time>
      </trkpt>
      <trkpt lat="47.51943" lon="6.76439">
        <ele>370.9</ele>
        <time>2016-01-21T16:27:05.000Z</time>
      </trkpt>
      <trkpt lat="47.51942" lon="6.76442">
        <ele>370.6</ele>
        <time>2016-01-21T16:27:06.000Z</time>
      </trkpt>
      <trkpt lat="47.51941" lon="6.76446">
        <ele>371</ele>
        <time>2016-01-21T16:27:07.000Z</time>
      </trkpt>
      <trkpt lat="47.5194" lon="6.76449">
        <ele>371.3</ele>
        <time>2016-01-21T16:27:08.000Z</time>
      </trkpt>
      <trkpt lat="47.51939" lon="6.76452">
        <ele>370.5</ele>
        <time>2016-01-21T16:27:09.000Z</time>
      </trkpt>
      <trkpt lat="47.51938" lon="6.76455">
        <ele>371.2</ele>
        <time>2016-01-21T16:27:10.000Z</time>
      </trkpt>
      <trkpt lat="47.51937" lon="6.76459">
        <ele>371.3</ele>
        <time>2016-01-21T16:27:11.000Z</time>
      </trkpt>
      <trkpt lat="47.51935" lon="6.76462">
        <ele>371.2</ele>
        <time>2016-01-21T16:27:12.000Z</time>
      </trkpt>
      <trkpt lat="47.51934" lon="6.76466">
        <ele>371.7</ele>
        <time>2016-01-21T16:27:13.000Z</time>
      </trkpt>
      <trkpt lat="47.51933" lon="6.76469">
        <ele>371.5</ele>
        <time>2016-01-21T16:27:14.000Z</time>
      </trkpt>
      <trkpt lat="47.51931" lon="6.76473">
        <ele>371.5</ele>
        <time>2016-01-21T16:27:15.000Z</time>
      </trkpt>
      <trkpt lat="47.5193" lon="6.76476">
        <ele>372.2</ele>
        <time>2016-01-21T16:27:16.000Z</time>
      </trkpt>
      <trkpt lat="47.51929" lon="6.76479">
        <ele>372.4</ele>
        <time>2016-01-21T16:27:17.000Z</time>
      </trkpt>
      <trkpt lat="47.51928" lon="6.76483">
        <ele>371.8</ele>
        <time>2016-01-21T16:27:18.000Z</time>
      </trkpt>
      <trkpt lat="47.51926" lon="6.76486">
        <ele>372</ele>
        <time>2016-01-21T16:27:19.000Z</time>
      </trkpt>
      <trkpt lat="47.51925" lon="6.76489">
        <ele>371.1</ele>
        <time>2016-01-21T16:27:20.000Z</time>
      </trkpt>
      <trkpt lat="47.51924" lon="6.76493">
        <ele>372</ele>
        <time>2016-01-21T16:27:21.000Z</time>
      </trkpt>
      <trkpt lat="47.51923" lon="6.76496">
        <ele>372.7</ele>
        <time>2016-01-21T16:27:22.000Z</time>
      </trkpt>
      <trkpt lat="47.51921" lon="6.76501">
        <ele>372.8</ele>
        <time>2016-01-21T16:27:23.000Z</time>
      </trkpt>
      <trkpt lat="47.5192" lon="6.76505">
        <ele>372.1</ele>
        <time>2016-01-21T16:27:24.000Z</time>
      </trkpt>
      <trkpt lat="47.51919" lon="6.76509">
        <ele>371.1</ele>
        <time>2016-01-21T16:27:25.000Z</time>
      </trkpt>
      <trkpt lat="47.51918" lon="6.76512">
        <ele>371.7</ele>
        <time>2016-01-21T16:27:26.000Z</time>
      </trkpt>
      <trkpt lat="47.51916" lon="6.76518">
        <ele>370.4</ele>
        <time>2016-01-21T16:27:28.000Z</time>
      </trkpt>
      <trkpt lat="47.51915" lon="6.7652">
        <ele>369.4</ele>
        <time>2016-01-21T16:27:29.000Z</time>
      </trkpt>
      <trkpt lat="47.51913" lon="6.76525">
        <ele>368.7</ele>
        <time>2016-01-21T16:27:31.000Z</time>
      </trkpt>
      <trkpt lat="47.51912" lon="6.76527">
        <ele>368.6</ele>
        <time>2016-01-21T16:27:32.000Z</time>
      </trkpt>
      <trkpt lat="47.51911" lon="6.7653">
        <ele>368.6</ele>
        <time>2016-01-21T16:27:33.000Z</time>
      </trkpt>
      <trkpt lat="47.5191" lon="6.76533">
        <ele>369</ele>
        <time>2016-01-21T16:27:34.000Z</time>
      </trkpt>
      <trkpt lat="47.51908" lon="6.76537">
        <ele>369.3</ele>
        <time>2016-01-21T16:27:35.000Z</time>
      </trkpt>
      <trkpt lat="47.51907" lon="6.7654">
        <ele>369.4</ele>
        <time>2016-01-21T16:27:36.000Z</time>
      </trkpt>
      <trkpt lat="47.51906" lon="6.76544">
        <ele>369</ele>
        <time>2016-01-21T16:27:37.000Z</time>
      </trkpt>
      <trkpt lat="47.51904" lon="6.76548">
        <ele>368.7</ele>
        <time>2016-01-21T16:27:38.000Z</time>
      </trkpt>
      <trkpt lat="47.51903" lon="6.76551">
        <ele>367.3</ele>
        <time>2016-01-21T16:27:39.000Z</time>
      </trkpt>
      <trkpt lat="47.51902" lon="6.76555">
        <ele>367.5</ele>
        <time>2016-01-21T16:27:40.000Z</time>
      </trkpt>
      <trkpt lat="47.519" lon="6.76558">
        <ele>367.8</ele>
        <time>2016-01-21T16:27:41.000Z</time>
      </trkpt>
      <trkpt lat="47.51899" lon="6.76562">
        <ele>367.7</ele>
        <time>2016-01-21T16:27:42.000Z</time>
      </trkpt>
      <trkpt lat="47.51898" lon="6.76565">
        <ele>367.2</ele>
        <time>2016-01-21T16:27:43.000Z</time>
      </trkpt>
      <trkpt lat="47.51897" lon="6.76568">
        <ele>366.1</ele>
        <time>2016-01-21T16:27:44.000Z</time>
      </trkpt>
      <trkpt lat="47.51895" lon="6.76571">
        <ele>366.9</ele>
        <time>2016-01-21T16:27:45.000Z</time>
      </trkpt>
      <trkpt lat="47.51894" lon="6.76575">
        <ele>367.1</ele>
        <time>2016-01-21T16:27:46.000Z</time>
      </trkpt>
      <trkpt lat="47.51893" lon="6.76578">
        <ele>366.9</ele>
        <time>2016-01-21T16:27:47.000Z</time>
      </trkpt>
      <trkpt lat="47.51891" lon="6.76582">
        <ele>365.4</ele>
        <time>2016-01-21T16:27:48.000Z</time>
      </trkpt>
      <trkpt lat="47.5189" lon="6.76588">
        <ele>364.1</ele>
        <time>2016-01-21T16:27:50.000Z</time>
      </trkpt>
      <trkpt lat="47.51889" lon="6.76591">
        <ele>364.1</ele>
        <time>2016-01-21T16:27:51.000Z</time>
      </trkpt>
      <trkpt lat="47.51888" lon="6.76597">
        <ele>364.2</ele>
        <time>2016-01-21T16:27:53.000Z</time>
      </trkpt>
      <trkpt lat="47.51887" lon="6.766">
        <ele>364.4</ele>
        <time>2016-01-21T16:27:54.000Z</time>
      </trkpt>
      <trkpt lat="47.51886" lon="6.76606">
        <ele>363.3</ele>
        <time>2016-01-21T16:27:56.000Z</time>
      </trkpt>
      <trkpt lat="47.51886" lon="6.76608">
        <ele>362.7</ele>
        <time>2016-01-21T16:27:57.000Z</time>
      </trkpt>
      <trkpt lat="47.51885" lon="6.76615">
        <ele>364.2</ele>
        <time>2016-01-21T16:27:59.000Z</time>
      </trkpt>
      <trkpt lat="47.51884" lon="6.76619">
        <ele>364.3</ele>
        <time>2016-01-21T16:28:00.000Z</time>
      </trkpt>
      <trkpt lat="47.51883" lon="6.76623">
        <ele>365.2</ele>
        <time>2016-01-21T16:28:01.000Z</time>
      </trkpt>
      <trkpt lat="47.51882" lon="6.76628">
        <ele>365.9</ele>
        <time>2016-01-21T16:28:02.000Z</time>
      </trkpt>
      <trkpt lat="47.51881" lon="6.76632">
        <ele>366.1</ele>
        <time>2016-01-21T16:28:03.000Z</time>
      </trkpt>
      <trkpt lat="47.5188" lon="6.76636">
        <ele>366.1</ele>
        <time>2016-01-21T16:28:04.000Z</time>
      </trkpt>
      <trkpt lat="47.51879" lon="6.76642">
        <ele>366.2</ele>
        <time>2016-01-21T16:28:06.000Z</time>
      </trkpt>
      <trkpt lat="47.51879" lon="6.76643">
        <ele>366.6</ele>
        <time>2016-01-21T16:28:07.000Z</time>
      </trkpt>
      <trkpt lat="47.51876" lon="6.76648">
        <ele>371.8</ele>
        <time>2016-01-21T16:28:27.000Z</time>
      </trkpt>
      <trkpt lat="47.51876" lon="6.7665">
        <ele>371.2</ele>
        <time>2016-01-21T16:28:28.000Z</time>
      </trkpt>
      <trkpt lat="47.51874" lon="6.76655">
        <ele>370.5</ele>
        <time>2016-01-21T16:28:30.000Z</time>
      </trkpt>
      <trkpt lat="47.51873" lon="6.76658">
        <ele>370.6</ele>
        <time>2016-01-21T16:28:31.000Z</time>
      </trkpt>
      <trkpt lat="47.51873" lon="6.76662">
        <ele>370.3</ele>
        <time>2016-01-21T16:28:32.000Z</time>
      </trkpt>
      <trkpt lat="47.51872" lon="6.76665">
        <ele>369.6</ele>
        <time>2016-01-21T16:28:33.000Z</time>
      </trkpt>
      <trkpt lat="47.51871" lon="6.76669">
        <ele>370.1</ele>
        <time>2016-01-21T16:28:34.000Z</time>
      </trkpt>
      <trkpt lat="47.51871" lon="6.76672">
        <ele>369.7</ele>
        <time>2016-01-21T16:28:34.999Z</time>
      </trkpt>
      <trkpt lat="47.5187" lon="6.76677">
        <ele>368.8</ele>
        <time>2016-01-21T16:28:37.000Z</time>
      </trkpt>
      <trkpt lat="47.51869" lon="6.76679">
        <ele>368.3</ele>
        <time>2016-01-21T16:28:38.000Z</time>
      </trkpt>
      <trkpt lat="47.51868" lon="6.76685">
        <ele>368.1</ele>
        <time>2016-01-21T16:28:40.000Z</time>
      </trkpt>
      <trkpt lat="47.51867" lon="6.76689">
        <ele>367.9</ele>
        <time>2016-01-21T16:28:41.000Z</time>
      </trkpt>
      <trkpt lat="47.51866" lon="6.76693">
        <ele>368.4</ele>
        <time>2016-01-21T16:28:42.000Z</time>
      </trkpt>
      <trkpt lat="47.51865" lon="6.76697">
        <ele>368.4</ele>
        <time>2016-01-21T16:28:43.000Z</time>
      </trkpt>
      <trkpt lat="47.51865" lon="6.76701">
        <ele>367.6</ele>
        <time>2016-01-21T16:28:44.000Z</time>
      </trkpt>
      <trkpt lat="47.51864" lon="6.76704">
        <ele>367.6</ele>
        <time>2016-01-21T16:28:45.000Z</time>
      </trkpt>
      <trkpt lat="47.51864" lon="6.76711">
        <ele>367.6</ele>
        <time>2016-01-21T16:28:47.000Z</time>
      </trkpt>
      <trkpt lat="47.51863" lon="6.76714">
        <ele>367.2</ele>
        <time>2016-01-21T16:28:48.000Z</time>
      </trkpt>
      <trkpt lat="47.51863" lon="6.76718">
        <ele>367.1</ele>
        <time>2016-01-21T16:28:49.000Z</time>
      </trkpt>
      <trkpt lat="47.51862" lon="6.76721">
        <ele>367.8</ele>
        <time>2016-01-21T16:28:50.000Z</time>
      </trkpt>
      <trkpt lat="47.51862" lon="6.76725">
        <ele>367.8</ele>
        <time>2016-01-21T16:28:51.000Z</time>
      </trkpt>
      <trkpt lat="47.51862" lon="6.76729">
        <ele>368</ele>
        <time>2016-01-21T16:28:52.000Z</time>
      </trkpt>
      <trkpt lat="47.51861" lon="6.76733">
        <ele>368.5</ele>
        <time>2016-01-21T16:28:53.000Z</time>
      </trkpt>
      <trkpt lat="47.51861" lon="6.76737">
        <ele>368.5</ele>
        <time>2016-01-21T16:28:54.000Z</time>
      </trkpt>
      <trkpt lat="47.5186" lon="6.7674">
        <ele>368.2</ele>
        <time>2016-01-21T16:28:55.000Z</time>
      </trkpt>
      <trkpt lat="47.5186" lon="6.76744">
        <ele>368</ele>
        <time>2016-01-21T16:28:56.000Z</time>
      </trkpt>
      <trkpt lat="47.51859" lon="6.76748">
        <ele>368.4</ele>
        <time>2016-01-21T16:28:57.000Z</time>
      </trkpt>
      <trkpt lat="47.51858" lon="6.76751">
        <ele>368.4</ele>
        <time>2016-01-21T16:28:58.000Z</time>
      </trkpt>
      <trkpt lat="47.51858" lon="6.76755">
        <ele>367.5</ele>
        <time>2016-01-21T16:28:59.000Z</time>
      </trkpt>
      <trkpt lat="47.51857" lon="6.76759">
        <ele>367.4</ele>
        <time>2016-01-21T16:29:00.000Z</time>
      </trkpt>
      <trkpt lat="47.51857" lon="6.76762">
        <ele>367.1</ele>
        <time>2016-01-21T16:29:01.000Z</time>
      </trkpt>
      <trkpt lat="47.51856" lon="6.76766">
        <ele>367.2</ele>
        <time>2016-01-21T16:29:02.000Z</time>
      </trkpt>
      <trkpt lat="47.51855" lon="6.76769">
        <ele>366.8</ele>
        <time>2016-01-21T16:29:03.000Z</time>
      </trkpt>
      <trkpt lat="47.51855" lon="6.76773">
        <ele>366.1</ele>
        <time>2016-01-21T16:29:04.000Z</time>
      </trkpt>
      <trkpt lat="47.51854" lon="6.76776">
        <ele>363.5</ele>
        <time>2016-01-21T16:29:05.000Z</time>
      </trkpt>
      <trkpt lat="47.51854" lon="6.7678">
        <ele>362.5</ele>
        <time>2016-01-21T16:29:06.000Z</time>
      </trkpt>
      <trkpt lat="47.51854" lon="6.76784">
        <ele>363.1</ele>
        <time>2016-01-21T16:29:07.000Z</time>
      </trkpt>
      <trkpt lat="47.51853" lon="6.76788">
        <ele>364</ele>
        <time>2016-01-21T16:29:08.000Z</time>
      </trkpt>
      <trkpt lat="47.51852" lon="6.76792">
        <ele>364.3</ele>
        <time>2016-01-21T16:29:09.000Z</time>
      </trkpt>
      <trkpt lat="47.51851" lon="6.76797">
        <ele>365</ele>
        <time>2016-01-21T16:29:10.000Z</time>
      </trkpt>
      <trkpt lat="47.5185" lon="6.76801">
        <ele>366.7</ele>
        <time>2016-01-21T16:29:11.000Z</time>
      </trkpt>
      <trkpt lat="47.51849" lon="6.76806">
        <ele>366.9</ele>
        <time>2016-01-21T16:29:12.000Z</time>
      </trkpt>
      <trkpt lat="47.51848" lon="6.7681">
        <ele>367.1</ele>
        <time>2016-01-21T16:29:13.000Z</time>
      </trkpt>
      <trkpt lat="47.51847" lon="6.76814">
        <ele>366.7</ele>
        <time>2016-01-21T16:29:14.000Z</time>
      </trkpt>
      <trkpt lat="47.51847" lon="6.76818">
        <ele>367.1</ele>
        <time>2016-01-21T16:29:15.000Z</time>
      </trkpt>
      <trkpt lat="47.51844" lon="6.76826">
        <ele>369.2</ele>
        <time>2016-01-21T16:29:16.000Z</time>
      </trkpt>
      <trkpt lat="47.51843" lon="6.7683">
        <ele>370.5</ele>
        <time>2016-01-21T16:29:17.000Z</time>
      </trkpt>
      <trkpt lat="47.51842" lon="6.76834">
        <ele>370.8</ele>
        <time>2016-01-21T16:29:18.000Z</time>
      </trkpt>
      <trkpt lat="47.51841" lon="6.76837">
        <ele>370.9</ele>
        <time>2016-01-21T16:29:19.000Z</time>
      </trkpt>
      <trkpt lat="47.5184" lon="6.76842">
        <ele>372</ele>
        <time>2016-01-21T16:29:20.000Z</time>
      </trkpt>
      <trkpt lat="47.5184" lon="6.76847">
        <ele>373.1</ele>
        <time>2016-01-21T16:29:21.000Z</time>
      </trkpt>
      <trkpt lat="47.51839" lon="6.76852">
        <ele>373.4</ele>
        <time>2016-01-21T16:29:22.000Z</time>
      </trkpt>
      <trkpt lat="47.51839" lon="6.76856">
        <ele>373.4</ele>
        <time>2016-01-21T16:29:23.000Z</time>
      </trkpt>
      <trkpt lat="47.51837" lon="6.7686">
        <ele>373.8</ele>
        <time>2016-01-21T16:29:24.000Z</time>
      </trkpt>
      <trkpt lat="47.51836" lon="6.76863">
        <ele>372.7</ele>
        <time>2016-01-21T16:29:25.000Z</time>
      </trkpt>
      <trkpt lat="47.51835" lon="6.76867">
        <ele>372.8</ele>
        <time>2016-01-21T16:29:26.000Z</time>
      </trkpt>
      <trkpt lat="47.51834" lon="6.76871">
        <ele>372</ele>
        <time>2016-01-21T16:29:27.000Z</time>
      </trkpt>
      <trkpt lat="47.51834" lon="6.76874">
        <ele>370.6</ele>
        <time>2016-01-21T16:29:28.000Z</time>
      </trkpt>
      <trkpt lat="47.51834" lon="6.76879">
        <ele>366.5</ele>
        <time>2016-01-21T16:29:31.000Z</time>
      </trkpt>
      <trkpt lat="47.51834" lon="6.76881">
        <ele>366.5</ele>
        <time>2016-01-21T16:29:32.000Z</time>
      </trkpt>
      <trkpt lat="47.51833" lon="6.76884">
        <ele>366.3</ele>
        <time>2016-01-21T16:29:33.000Z</time>
      </trkpt>
      <trkpt lat="47.51833" lon="6.76887">
        <ele>366.5</ele>
        <time>2016-01-21T16:29:34.000Z</time>
      </trkpt>
      <trkpt lat="47.51832" lon="6.76891">
        <ele>366.3</ele>
        <time>2016-01-21T16:29:35.000Z</time>
      </trkpt>
      <trkpt lat="47.51831" lon="6.76895">
        <ele>366.5</ele>
        <time>2016-01-21T16:29:36.000Z</time>
      </trkpt>
      <trkpt lat="47.51831" lon="6.76899">
        <ele>366.7</ele>
        <time>2016-01-21T16:29:37.000Z</time>
      </trkpt>
      <trkpt lat="47.5183" lon="6.76902">
        <ele>366.7</ele>
        <time>2016-01-21T16:29:38.000Z</time>
      </trkpt>
      <trkpt lat="47.51829" lon="6.76906">
        <ele>366.6</ele>
        <time>2016-01-21T16:29:39.000Z</time>
      </trkpt>
      <trkpt lat="47.51829" lon="6.76909">
        <ele>367</ele>
        <time>2016-01-21T16:29:40.000Z</time>
      </trkpt>
      <trkpt lat="47.51828" lon="6.76913">
        <ele>366.7</ele>
        <time>2016-01-21T16:29:41.000Z</time>
      </trkpt>
      <trkpt lat="47.51827" lon="6.76916">
        <ele>366.3</ele>
        <time>2016-01-21T16:29:42.000Z</time>
      </trkpt>
      <trkpt lat="47.51827" lon="6.7692">
        <ele>366.9</ele>
        <time>2016-01-21T16:29:43.000Z</time>
      </trkpt>
      <trkpt lat="47.51826" lon="6.76924">
        <ele>367.1</ele>
        <time>2016-01-21T16:29:44.000Z</time>
      </trkpt>
      <trkpt lat="47.51825" lon="6.76928">
        <ele>367.6</ele>
        <time>2016-01-21T16:29:45.000Z</time>
      </trkpt>
      <trkpt lat="47.51825" lon="6.76932">
        <ele>367.5</ele>
        <time>2016-01-21T16:29:46.000Z</time>
      </trkpt>
      <trkpt lat="47.51824" lon="6.76936">
        <ele>367.8</ele>
        <time>2016-01-21T16:29:47.000Z</time>
      </trkpt>
      <trkpt lat="47.51823" lon="6.76939">
        <ele>368</ele>
        <time>2016-01-21T16:29:48.000Z</time>
      </trkpt>
      <trkpt lat="47.51823" lon="6.76943">
        <ele>368.2</ele>
        <time>2016-01-21T16:29:49.000Z</time>
      </trkpt>
      <trkpt lat="47.51822" lon="6.76947">
        <ele>368.3</ele>
        <time>2016-01-21T16:29:50.000Z</time>
      </trkpt>
      <trkpt lat="47.51821" lon="6.76951">
        <ele>368.4</ele>
        <time>2016-01-21T16:29:51.000Z</time>
      </trkpt>
      <trkpt lat="47.51821" lon="6.76955">
        <ele>368.6</ele>
        <time>2016-01-21T16:29:52.000Z</time>
      </trkpt>
      <trkpt lat="47.5182" lon="6.76959">
        <ele>368.8</ele>
        <time>2016-01-21T16:29:53.000Z</time>
      </trkpt>
      <trkpt lat="47.51819" lon="6.76963">
        <ele>368.8</ele>
        <time>2016-01-21T16:29:54.000Z</time>
      </trkpt>
      <trkpt lat="47.51818" lon="6.76966">
        <ele>368.5</ele>
        <time>2016-01-21T16:29:54.998Z</time>
      </trkpt>
      <trkpt lat="47.51817" lon="6.76969">
        <ele>368.2</ele>
        <time>2016-01-21T16:29:56.000Z</time>
      </trkpt>
      <trkpt lat="47.51816" lon="6.76975">
        <ele>367.7</ele>
        <time>2016-01-21T16:29:58.000Z</time>
      </trkpt>
      <trkpt lat="47.51815" lon="6.76978">
        <ele>368</ele>
        <time>2016-01-21T16:29:59.000Z</time>
      </trkpt>
      <trkpt lat="47.51814" lon="6.76982">
        <ele>368.6</ele>
        <time>2016-01-21T16:30:00.000Z</time>
      </trkpt>
      <trkpt lat="47.51813" lon="6.76986">
        <ele>368.9</ele>
        <time>2016-01-21T16:30:01.000Z</time>
      </trkpt>
      <trkpt lat="47.51813" lon="6.7699">
        <ele>369.5</ele>
        <time>2016-01-21T16:30:02.000Z</time>
      </trkpt>
      <trkpt lat="47.51812" lon="6.76993">
        <ele>369.8</ele>
        <time>2016-01-21T16:30:02.999Z</time>
      </trkpt>
      <trkpt lat="47.51812" lon="6.76997">
        <ele>369.8</ele>
        <time>2016-01-21T16:30:04.000Z</time>
      </trkpt>
      <trkpt lat="47.51811" lon="6.77001">
        <ele>369.5</ele>
        <time>2016-01-21T16:30:05.000Z</time>
      </trkpt>
      <trkpt lat="47.51811" lon="6.77004">
        <ele>369.3</ele>
        <time>2016-01-21T16:30:05.999Z</time>
      </trkpt>
      <trkpt lat="47.5181" lon="6.77008">
        <ele>369.8</ele>
        <time>2016-01-21T16:30:07.000Z</time>
      </trkpt>
      <trkpt lat="47.51809" lon="6.77012">
        <ele>369.9</ele>
        <time>2016-01-21T16:30:08.000Z</time>
      </trkpt>
      <trkpt lat="47.51809" lon="6.77015">
        <ele>369.8</ele>
        <time>2016-01-21T16:30:08.999Z</time>
      </trkpt>
      <trkpt lat="47.51808" lon="6.77018">
        <ele>370.5</ele>
        <time>2016-01-21T16:30:10.000Z</time>
      </trkpt>
      <trkpt lat="47.51807" lon="6.77022">
        <ele>370.4</ele>
        <time>2016-01-21T16:30:11.000Z</time>
      </trkpt>
      <trkpt lat="47.51807" lon="6.77027">
        <ele>366.8</ele>
        <time>2016-01-21T16:30:13.000Z</time>
      </trkpt>
      <trkpt lat="47.51807" lon="6.77029">
        <ele>363.9</ele>
        <time>2016-01-21T16:30:14.000Z</time>
      </trkpt>
      <trkpt lat="47.51808" lon="6.77033">
        <ele>363.9</ele>
        <time>2016-01-21T16:30:16.000Z</time>
      </trkpt>
      <trkpt lat="47.51807" lon="6.77036">
        <ele>363.6</ele>
        <time>2016-01-21T16:30:17.000Z</time>
      </trkpt>
      <trkpt lat="47.51806" lon="6.77039">
        <ele>363.8</ele>
        <time>2016-01-21T16:30:18.000Z</time>
      </trkpt>
      <trkpt lat="47.51805" lon="6.77042">
        <ele>364.2</ele>
        <time>2016-01-21T16:30:19.000Z</time>
      </trkpt>
      <trkpt lat="47.51804" lon="6.77045">
        <ele>363.9</ele>
        <time>2016-01-21T16:30:20.000Z</time>
      </trkpt>
      <trkpt lat="47.51802" lon="6.77049">
        <ele>364.7</ele>
        <time>2016-01-21T16:30:21.000Z</time>
      </trkpt>
      <trkpt lat="47.51801" lon="6.77052">
        <ele>366.1</ele>
        <time>2016-01-21T16:30:21.999Z</time>
      </trkpt>
      <trkpt lat="47.51799" lon="6.77056">
        <ele>366.7</ele>
        <time>2016-01-21T16:30:23.000Z</time>
      </trkpt>
      <trkpt lat="47.51797" lon="6.77059">
        <ele>366.6</ele>
        <time>2016-01-21T16:30:23.998Z</time>
      </trkpt>
      <trkpt lat="47.51796" lon="6.77064">
        <ele>369.2</ele>
        <time>2016-01-21T16:30:25.000Z</time>
      </trkpt>
      <trkpt lat="47.51796" lon="6.77068">
        <ele>370.1</ele>
        <time>2016-01-21T16:30:26.000Z</time>
      </trkpt>
      <trkpt lat="47.51795" lon="6.77073">
        <ele>370.3</ele>
        <time>2016-01-21T16:30:27.000Z</time>
      </trkpt>
      <trkpt lat="47.51794" lon="6.77077">
        <ele>370.2</ele>
        <time>2016-01-21T16:30:28.000Z</time>
      </trkpt>
      <trkpt lat="47.51794" lon="6.77081">
        <ele>370.5</ele>
        <time>2016-01-21T16:30:29.000Z</time>
      </trkpt>
      <trkpt lat="47.51794" lon="6.77085">
        <ele>371.4</ele>
        <time>2016-01-21T16:30:30.000Z</time>
      </trkpt>
      <trkpt lat="47.51793" lon="6.77089">
        <ele>371.4</ele>
        <time>2016-01-21T16:30:31.000Z</time>
      </trkpt>
      <trkpt lat="47.51792" lon="6.77094">
        <ele>371.9</ele>
        <time>2016-01-21T16:30:32.000Z</time>
      </trkpt>
      <trkpt lat="47.51792" lon="6.77098">
        <ele>372.6</ele>
        <time>2016-01-21T16:30:33.000Z</time>
      </trkpt>
      <trkpt lat="47.51791" lon="6.77103">
        <ele>372.9</ele>
        <time>2016-01-21T16:30:34.000Z</time>
      </trkpt>
      <trkpt lat="47.5179" lon="6.77107">
        <ele>372.1</ele>
        <time>2016-01-21T16:30:35.000Z</time>
      </trkpt>
      <trkpt lat="47.51789" lon="6.77113">
        <ele>370.9</ele>
        <time>2016-01-21T16:30:37.000Z</time>
      </trkpt>
      <trkpt lat="47.51788" lon="6.77116">
        <ele>371.4</ele>
        <time>2016-01-21T16:30:38.000Z</time>
      </trkpt>
      <trkpt lat="47.51787" lon="6.77121">
        <ele>370.6</ele>
        <time>2016-01-21T16:30:40.000Z</time>
      </trkpt>
      <trkpt lat="47.51787" lon="6.77124">
        <ele>370.5</ele>
        <time>2016-01-21T16:30:41.000Z</time>
      </trkpt>
      <trkpt lat="47.51786" lon="6.77129">
        <ele>370.7</ele>
        <time>2016-01-21T16:30:43.000Z</time>
      </trkpt>
      <trkpt lat="47.51785" lon="6.77132">
        <ele>370.4</ele>
        <time>2016-01-21T16:30:44.000Z</time>
      </trkpt>
      <trkpt lat="47.51784" lon="6.77137">
        <ele>369.3</ele>
        <time>2016-01-21T16:30:46.000Z</time>
      </trkpt>
      <trkpt lat="47.51783" lon="6.77139">
        <ele>369</ele>
        <time>2016-01-21T16:30:47.000Z</time>
      </trkpt>
      <trkpt lat="47.51783" lon="6.77143">
        <ele>367.6</ele>
        <time>2016-01-21T16:30:49.000Z</time>
      </trkpt>
      <trkpt lat="47.51783" lon="6.77146">
        <ele>369</ele>
        <time>2016-01-21T16:30:50.000Z</time>
      </trkpt>
      <trkpt lat="47.51782" lon="6.77152">
        <ele>370.3</ele>
        <time>2016-01-21T16:30:52.000Z</time>
      </trkpt>
      <trkpt lat="47.51782" lon="6.77156">
        <ele>370.7</ele>
        <time>2016-01-21T16:30:53.000Z</time>
      </trkpt>
      <trkpt lat="47.51781" lon="6.77159">
        <ele>371.2</ele>
        <time>2016-01-21T16:30:54.000Z</time>
      </trkpt>
      <trkpt lat="47.51781" lon="6.77163">
        <ele>371.2</ele>
        <time>2016-01-21T16:30:55.000Z</time>
      </trkpt>
      <trkpt lat="47.5178" lon="6.77169">
        <ele>370.4</ele>
        <time>2016-01-21T16:30:57.000Z</time>
      </trkpt>
      <trkpt lat="47.5178" lon="6.77172">
        <ele>373.2</ele>
        <time>2016-01-21T16:30:58.000Z</time>
      </trkpt>
      <trkpt lat="47.51779" lon="6.77176">
        <ele>374.6</ele>
        <time>2016-01-21T16:30:59.000Z</time>
      </trkpt>
      <trkpt lat="47.51779" lon="6.7718">
        <ele>374.9</ele>
        <time>2016-01-21T16:31:00.000Z</time>
      </trkpt>
      <trkpt lat="47.51778" lon="6.77183">
        <ele>374.9</ele>
        <time>2016-01-21T16:31:01.000Z</time>
      </trkpt>
      <trkpt lat="47.51777" lon="6.77187">
        <ele>375.1</ele>
        <time>2016-01-21T16:31:02.000Z</time>
      </trkpt>
      <trkpt lat="47.51776" lon="6.77192">
        <ele>373.7</ele>
        <time>2016-01-21T16:31:04.000Z</time>
      </trkpt>
      <trkpt lat="47.51776" lon="6.77195">
        <ele>373.5</ele>
        <time>2016-01-21T16:31:05.000Z</time>
      </trkpt>
      <trkpt lat="47.51774" lon="6.77201">
        <ele>374.1</ele>
        <time>2016-01-21T16:31:07.000Z</time>
      </trkpt>
      <trkpt lat="47.51774" lon="6.77204">
        <ele>374</ele>
        <time>2016-01-21T16:31:08.000Z</time>
      </trkpt>
      <trkpt lat="47.51773" lon="6.77208">
        <ele>375</ele>
        <time>2016-01-21T16:31:09.000Z</time>
      </trkpt>
      <trkpt lat="47.51772" lon="6.77212">
        <ele>377</ele>
        <time>2016-01-21T16:31:10.000Z</time>
      </trkpt>
      <trkpt lat="47.51772" lon="6.77216">
        <ele>378.4</ele>
        <time>2016-01-21T16:31:11.000Z</time>
      </trkpt>
      <trkpt lat="47.51771" lon="6.77219">
        <ele>379.5</ele>
        <time>2016-01-21T16:31:12.000Z</time>
      </trkpt>
      <trkpt lat="47.5177" lon="6.77224">
        <ele>380.3</ele>
        <time>2016-01-21T16:31:13.000Z</time>
      </trkpt>
      <trkpt lat="47.51769" lon="6.77228">
        <ele>381.3</ele>
        <time>2016-01-21T16:31:14.000Z</time>
      </trkpt>
      <trkpt lat="47.51768" lon="6.77232">
        <ele>381.1</ele>
        <time>2016-01-21T16:31:15.000Z</time>
      </trkpt>
      <trkpt lat="47.51768" lon="6.77235">
        <ele>380.7</ele>
        <time>2016-01-21T16:31:16.000Z</time>
      </trkpt>
      <trkpt lat="47.51768" lon="6.77239">
        <ele>381.4</ele>
        <time>2016-01-21T16:31:17.000Z</time>
      </trkpt>
      <trkpt lat="47.51768" lon="6.77242">
        <ele>382</ele>
        <time>2016-01-21T16:31:18.000Z</time>
      </trkpt>
      <trkpt lat="47.51768" lon="6.77246">
        <ele>383.2</ele>
        <time>2016-01-21T16:31:19.000Z</time>
      </trkpt>
      <trkpt lat="47.51767" lon="6.7725">
        <ele>384.3</ele>
        <time>2016-01-21T16:31:20.000Z</time>
      </trkpt>
      <trkpt lat="47.51766" lon="6.77254">
        <ele>385.4</ele>
        <time>2016-01-21T16:31:21.000Z</time>
      </trkpt>
      <trkpt lat="47.51765" lon="6.77259">
        <ele>386.8</ele>
        <time>2016-01-21T16:31:22.000Z</time>
      </trkpt>
      <trkpt lat="47.51764" lon="6.77263">
        <ele>387</ele>
        <time>2016-01-21T16:31:23.000Z</time>
      </trkpt>
      <trkpt lat="47.51763" lon="6.77267">
        <ele>387.4</ele>
        <time>2016-01-21T16:31:24.000Z</time>
      </trkpt>
      <trkpt lat="47.51763" lon="6.7727">
        <ele>386.7</ele>
        <time>2016-01-21T16:31:25.000Z</time>
      </trkpt>
      <trkpt lat="47.51762" lon="6.77274">
        <ele>386.6</ele>
        <time>2016-01-21T16:31:26.000Z</time>
      </trkpt>
      <trkpt lat="47.51761" lon="6.77278">
        <ele>386.2</ele>
        <time>2016-01-21T16:31:27.000Z</time>
      </trkpt>
      <trkpt lat="47.51761" lon="6.77281">
        <ele>385.4</ele>
        <time>2016-01-21T16:31:28.000Z</time>
      </trkpt>
      <trkpt lat="47.5176" lon="6.77284">
        <ele>385.4</ele>
        <time>2016-01-21T16:31:29.000Z</time>
      </trkpt>
      <trkpt lat="47.5176" lon="6.77287">
        <ele>384.5</ele>
        <time>2016-01-21T16:31:30.000Z</time>
      </trkpt>
      <trkpt lat="47.51759" lon="6.77291">
        <ele>385</ele>
        <time>2016-01-21T16:31:31.000Z</time>
      </trkpt>
      <trkpt lat="47.51758" lon="6.77294">
        <ele>386.6</ele>
        <time>2016-01-21T16:31:32.000Z</time>
      </trkpt>
      <trkpt lat="47.51758" lon="6.77297">
        <ele>387</ele>
        <time>2016-01-21T16:31:33.000Z</time>
      </trkpt>
      <trkpt lat="47.51757" lon="6.77301">
        <ele>388.3</ele>
        <time>2016-01-21T16:31:34.000Z</time>
      </trkpt>
      <trkpt lat="47.51756" lon="6.77304">
        <ele>389.3</ele>
        <time>2016-01-21T16:31:35.000Z</time>
      </trkpt>
      <trkpt lat="47.51755" lon="6.77308">
        <ele>389.1</ele>
        <time>2016-01-21T16:31:36.000Z</time>
      </trkpt>
      <trkpt lat="47.51754" lon="6.77313">
        <ele>389.3</ele>
        <time>2016-01-21T16:31:38.000Z</time>
      </trkpt>
      <trkpt lat="47.51754" lon="6.77316">
        <ele>389.4</ele>
        <time>2016-01-21T16:31:39.000Z</time>
      </trkpt>
      <trkpt lat="47.51754" lon="6.77322">
        <ele>386.7</ele>
        <time>2016-01-21T16:31:42.000Z</time>
      </trkpt>
      <trkpt lat="47.51754" lon="6.77324">
        <ele>386</ele>
        <time>2016-01-21T16:31:43.000Z</time>
      </trkpt>
      <trkpt lat="47.51753" lon="6.77329">
        <ele>386.6</ele>
        <time>2016-01-21T16:31:45.000Z</time>
      </trkpt>
      <trkpt lat="47.51752" lon="6.77333">
        <ele>387.9</ele>
        <time>2016-01-21T16:31:46.000Z</time>
      </trkpt>
      <trkpt lat="47.51751" lon="6.77337">
        <ele>389</ele>
        <time>2016-01-21T16:31:47.000Z</time>
      </trkpt>
      <trkpt lat="47.51751" lon="6.77341">
        <ele>389.9</ele>
        <time>2016-01-21T16:31:48.000Z</time>
      </trkpt>
      <trkpt lat="47.5175" lon="6.77345">
        <ele>390.5</ele>
        <time>2016-01-21T16:31:49.000Z</time>
      </trkpt>
      <trkpt lat="47.51749" lon="6.77349">
        <ele>390.8</ele>
        <time>2016-01-21T16:31:50.000Z</time>
      </trkpt>
      <trkpt lat="47.51749" lon="6.77353">
        <ele>392.1</ele>
        <time>2016-01-21T16:31:51.000Z</time>
      </trkpt>
      <trkpt lat="47.51748" lon="6.77357">
        <ele>392.4</ele>
        <time>2016-01-21T16:31:52.000Z</time>
      </trkpt>
      <trkpt lat="47.51748" lon="6.77361">
        <ele>392.4</ele>
        <time>2016-01-21T16:31:53.000Z</time>
      </trkpt>
      <trkpt lat="47.51747" lon="6.77365">
        <ele>393.3</ele>
        <time>2016-01-21T16:31:54.000Z</time>
      </trkpt>
      <trkpt lat="47.51746" lon="6.7737">
        <ele>393.9</ele>
        <time>2016-01-21T16:31:55.000Z</time>
      </trkpt>
      <trkpt lat="47.51746" lon="6.77374">
        <ele>394.3</ele>
        <time>2016-01-21T16:31:56.000Z</time>
      </trkpt>
      <trkpt lat="47.51746" lon="6.77378">
        <ele>394</ele>
        <time>2016-01-21T16:31:57.000Z</time>
      </trkpt>
      <trkpt lat="47.51746" lon="6.77382">
        <ele>392.7</ele>
        <time>2016-01-21T16:31:58.000Z</time>
      </trkpt>
      <trkpt lat="47.51747" lon="6.77386">
        <ele>392.8</ele>
        <time>2016-01-21T16:31:59.000Z</time>
      </trkpt>
      <trkpt lat="47.51748" lon="6.77389">
        <ele>393.9</ele>
        <time>2016-01-21T16:32:00.000Z</time>
      </trkpt>
      <trkpt lat="47.51748" lon="6.77392">
        <ele>395.1</ele>
        <time>2016-01-21T16:32:01.000Z</time>
      </trkpt>
      <trkpt lat="47.51748" lon="6.77396">
        <ele>396.5</ele>
        <time>2016-01-21T16:32:02.000Z</time>
      </trkpt>
      <trkpt lat="47.51747" lon="6.77401">
        <ele>397.9</ele>
        <time>2016-01-21T16:32:03.000Z</time>
      </trkpt>
      <trkpt lat="47.51745" lon="6.77406">
        <ele>399.2</ele>
        <time>2016-01-21T16:32:04.000Z</time>
      </trkpt>
      <trkpt lat="47.51744" lon="6.7741">
        <ele>400.2</ele>
        <time>2016-01-21T16:32:05.000Z</time>
      </trkpt>
      <trkpt lat="47.51743" lon="6.77414">
        <ele>400.8</ele>
        <time>2016-01-21T16:32:06.001Z</time>
      </trkpt>
      <trkpt lat="47.51742" lon="6.77419">
        <ele>400.1</ele>
        <time>2016-01-21T16:32:07.000Z</time>
      </trkpt>
      <trkpt lat="47.51741" lon="6.77423">
        <ele>400.5</ele>
        <time>2016-01-21T16:32:08.000Z</time>
      </trkpt>
      <trkpt lat="47.51741" lon="6.77427">
        <ele>401</ele>
        <time>2016-01-21T16:32:09.000Z</time>
      </trkpt>
      <trkpt lat="47.5174" lon="6.77431">
        <ele>401.2</ele>
        <time>2016-01-21T16:32:10.000Z</time>
      </trkpt>
      <trkpt lat="47.51739" lon="6.77435">
        <ele>400.9</ele>
        <time>2016-01-21T16:32:11.000Z</time>
      </trkpt>
      <trkpt lat="47.51738" lon="6.77438">
        <ele>401.9</ele>
        <time>2016-01-21T16:32:12.000Z</time>
      </trkpt>
      <trkpt lat="47.51737" lon="6.77442">
        <ele>402.6</ele>
        <time>2016-01-21T16:32:13.000Z</time>
      </trkpt>
      <trkpt lat="47.51737" lon="6.77447">
        <ele>403</ele>
        <time>2016-01-21T16:32:13.999Z</time>
      </trkpt>
      <trkpt lat="47.51736" lon="6.77451">
        <ele>403.2</ele>
        <time>2016-01-21T16:32:15.000Z</time>
      </trkpt>
      <trkpt lat="47.51735" lon="6.77454">
        <ele>403.7</ele>
        <time>2016-01-21T16:32:16.000Z</time>
      </trkpt>
      <trkpt lat="47.51734" lon="6.77459">
        <ele>405.4</ele>
        <time>2016-01-21T16:32:17.000Z</time>
      </trkpt>
      <trkpt lat="47.51733" lon="6.77463">
        <ele>406.3</ele>
        <time>2016-01-21T16:32:18.000Z</time>
      </trkpt>
      <trkpt lat="47.51732" lon="6.77468">
        <ele>406.6</ele>
        <time>2016-01-21T16:32:19.000Z</time>
      </trkpt>
      <trkpt lat="47.51731" lon="6.77472">
        <ele>407.5</ele>
        <time>2016-01-21T16:32:20.000Z</time>
      </trkpt>
      <trkpt lat="47.51731" lon="6.77476">
        <ele>407.2</ele>
        <time>2016-01-21T16:32:21.000Z</time>
      </trkpt>
      <trkpt lat="47.5173" lon="6.77481">
        <ele>407.2</ele>
        <time>2016-01-21T16:32:22.000Z</time>
      </trkpt>
      <trkpt lat="47.51729" lon="6.77485">
        <ele>407.5</ele>
        <time>2016-01-21T16:32:23.000Z</time>
      </trkpt>
      <trkpt lat="47.51729" lon="6.77489">
        <ele>407.5</ele>
        <time>2016-01-21T16:32:24.000Z</time>
      </trkpt>
      <trkpt lat="47.51731" lon="6.77494">
        <ele>405.6</ele>
        <time>2016-01-21T16:32:26.000Z</time>
      </trkpt>
      <trkpt lat="47.51734" lon="6.77495">
        <ele>405.7</ele>
        <time>2016-01-21T16:32:27.000Z</time>
      </trkpt>
      <trkpt lat="47.51737" lon="6.77495">
        <ele>406.8</ele>
        <time>2016-01-21T16:32:28.000Z</time>
      </trkpt>
      <trkpt lat="47.5174" lon="6.77494">
        <ele>407.4</ele>
        <time>2016-01-21T16:32:29.000Z</time>
      </trkpt>
      <trkpt lat="47.51743" lon="6.77493">
        <ele>407.2</ele>
        <time>2016-01-21T16:32:30.000Z</time>
      </trkpt>
      <trkpt lat="47.51745" lon="6.77494">
        <ele>407.5</ele>
        <time>2016-01-21T16:32:30.999Z</time>
      </trkpt>
      <trkpt lat="47.51749" lon="6.77492">
        <ele>406.5</ele>
        <time>2016-01-21T16:32:32.000Z</time>
      </trkpt>
      <trkpt lat="47.51752" lon="6.77492">
        <ele>403.1</ele>
        <time>2016-01-21T16:32:33.000Z</time>
      </trkpt>
      <trkpt lat="47.51756" lon="6.77491">
        <ele>400.6</ele>
        <time>2016-01-21T16:32:36.000Z</time>
      </trkpt>
      <trkpt lat="47.51757" lon="6.77492">
        <ele>400.6</ele>
        <time>2016-01-21T16:32:37.001Z</time>
      </trkpt>
      <trkpt lat="47.51761" lon="6.77491">
        <ele>398.2</ele>
        <time>2016-01-21T16:32:38.000Z</time>
      </trkpt>
      <trkpt lat="47.51764" lon="6.77491">
        <ele>397.4</ele>
        <time>2016-01-21T16:32:39.000Z</time>
      </trkpt>
      <trkpt lat="47.51767" lon="6.7749">
        <ele>396.4</ele>
        <time>2016-01-21T16:32:40.000Z</time>
      </trkpt>
      <trkpt lat="47.51771" lon="6.7749">
        <ele>396.7</ele>
        <time>2016-01-21T16:32:41.000Z</time>
      </trkpt>
      <trkpt lat="47.51775" lon="6.7749">
        <ele>396.6</ele>
        <time>2016-01-21T16:32:42.000Z</time>
      </trkpt>
      <trkpt lat="47.51778" lon="6.7749">
        <ele>395.8</ele>
        <time>2016-01-21T16:32:43.000Z</time>
      </trkpt>
      <trkpt lat="47.51781" lon="6.77491">
        <ele>396.2</ele>
        <time>2016-01-21T16:32:44.000Z</time>
      </trkpt>
      <trkpt lat="47.51784" lon="6.77491">
        <ele>395.7</ele>
        <time>2016-01-21T16:32:45.000Z</time>
      </trkpt>
      <trkpt lat="47.51787" lon="6.77492">
        <ele>395</ele>
        <time>2016-01-21T16:32:46.000Z</time>
      </trkpt>
      <trkpt lat="47.51789" lon="6.77493">
        <ele>394.9</ele>
        <time>2016-01-21T16:32:47.000Z</time>
      </trkpt>
      <trkpt lat="47.51793" lon="6.77493">
        <ele>395.4</ele>
        <time>2016-01-21T16:32:49.000Z</time>
      </trkpt>
      <trkpt lat="47.51795" lon="6.77493">
        <ele>394.9</ele>
        <time>2016-01-21T16:32:50.000Z</time>
      </trkpt>
      <trkpt lat="47.51798" lon="6.77492">
        <ele>394</ele>
        <time>2016-01-21T16:32:52.000Z</time>
      </trkpt>
      <trkpt lat="47.518" lon="6.77492">
        <ele>393.3</ele>
        <time>2016-01-21T16:32:53.000Z</time>
      </trkpt>
      <trkpt lat="47.51804" lon="6.77491">
        <ele>392.9</ele>
        <time>2016-01-21T16:32:56.000Z</time>
      </trkpt>
      <trkpt lat="47.51805" lon="6.7749">
        <ele>392.4</ele>
        <time>2016-01-21T16:32:57.000Z</time>
      </trkpt>
      <trkpt lat="47.51808" lon="6.77487">
        <ele>390.5</ele>
        <time>2016-01-21T16:33:02.000Z</time>
      </trkpt>
      <trkpt lat="47.51808" lon="6.77486">
        <ele>390</ele>
        <time>2016-01-21T16:33:03.000Z</time>
      </trkpt>
      <trkpt lat="47.51806" lon="6.77482">
        <ele>386.6</ele>
        <time>2016-01-21T16:33:07.000Z</time>
      </trkpt>
      <trkpt lat="47.51804" lon="6.77482">
        <ele>390.3</ele>
        <time>2016-01-21T16:33:08.000Z</time>
      </trkpt>
      <trkpt lat="47.51803" lon="6.77476">
        <ele>387</ele>
        <time>2016-01-21T16:33:24.000Z</time>
      </trkpt>
      <trkpt lat="47.51802" lon="6.77476">
        <ele>387.2</ele>
        <time>2016-01-21T16:33:25.000Z</time>
      </trkpt>
      <trkpt lat="47.51798" lon="6.77473">
        <ele>388.9</ele>
        <time>2016-01-21T16:33:30.000Z</time>
      </trkpt>
      <trkpt lat="47.51798" lon="6.77472">
        <ele>389.2</ele>
        <time>2016-01-21T16:33:31.000Z</time>
      </trkpt>
      <trkpt lat="47.51793" lon="6.7747">
        <ele>389.8</ele>
        <time>2016-01-21T16:34:40.999Z</time>
      </trkpt>
      <trkpt lat="47.51793" lon="6.7747">
        <ele>389.7</ele>
        <time>2016-01-21T16:34:42.000Z</time>
      </trkpt>
      <trkpt lat="47.51792" lon="6.77464">
        <ele>390.8</ele>
        <time>2016-01-21T16:34:47.000Z</time>
      </trkpt>
      <trkpt lat="47.51792" lon="6.77463">
        <ele>390.9</ele>
        <time>2016-01-21T16:34:48.001Z</time>
      </trkpt>
      <trkpt lat="47.51795" lon="6.77465">
        <ele>388.2</ele>
        <time>2016-01-21T16:36:55.000Z</time>
      </trkpt>
      <trkpt lat="47.51796" lon="6.77467">
        <ele>385.8</ele>
        <time>2016-01-21T16:36:56.000Z</time>
      </trkpt>
      <trkpt lat="47.51796" lon="6.77472">
        <ele>389.9</ele>
        <time>2016-01-21T16:36:58.000Z</time>
      </trkpt>
      <trkpt lat="47.51796" lon="6.77474">
        <ele>389.9</ele>
        <time>2016-01-21T16:36:59.000Z</time>
      </trkpt>
      <trkpt lat="47.51798" lon="6.7748">
        <ele>388</ele>
        <time>2016-01-21T16:37:05.000Z</time>
      </trkpt>
      <trkpt lat="47.51799" lon="6.77479">
        <ele>388.2</ele>
        <time>2016-01-21T16:37:06.000Z</time>
      </trkpt>
      <trkpt lat="47.51801" lon="6.77476">
        <ele>388.6</ele>
        <time>2016-01-21T16:50:47.000Z</time>
      </trkpt>
    </trkseg>
  </trk>
</gpx>